<?xml version='1.0' encoding='UTF-8'?><gpx version="1.1" creator="JPX - https://github.com/jenetics/jpx" xmlns="http://www.topografix.com/GPX/1/1"><trk><trkseg><trkpt lat="16.2491948" lon="-61.2877203"><ele>12.0</ele><time>2026-03-28T13:03:38.41Z</time></trkpt><trkpt lat="16.249256" lon="-61.2877419"><ele>12.0</ele><time>2026-03-28T13:16:20.971Z</time></trkpt><trkpt lat="16.2492718" lon="-61.2878265"><ele>12.0</ele><time>2026-03-28T13:18:33.959Z</time></trkpt><trkpt lat="16.2492715" lon="-61.2878959"><ele>12.0</ele><time>2026-03-28T13:18:35.971Z</time></trkpt><trkpt lat="16.249222" lon="-61.2879739"><ele>12.0</ele><time>2026-03-28T13:18:38.969Z</time></trkpt><trkpt lat="16.2491355" lon="-61.2879953"><ele>12.0</ele><time>2026-03-28T13:18:40.977Z</time></trkpt><trkpt lat="16.2490739" lon="-61.2880099"><ele>12.0</ele><time>2026-03-28T13:19:02.974Z</time></trkpt><trkpt lat="16.2490251" lon="-61.2880632"><ele>12.0</ele><time>2026-03-28T13:19:33.969Z</time></trkpt><trkpt lat="16.2489696" lon="-61.2880948"><ele>12.0</ele><time>2026-03-28T13:19:37.971Z</time></trkpt><trkpt lat="16.2489051" lon="-61.2881462"><ele>12.0</ele><time>2026-03-28T13:19:53.053Z</time></trkpt><trkpt lat="16.2487961" lon="-61.2881616"><ele>12.0</ele><time>2026-03-28T13:19:54.97Z</time></trkpt><trkpt lat="16.2487207" lon="-61.2881535"><ele>12.0</ele><time>2026-03-28T13:19:55.974Z</time></trkpt><trkpt lat="16.2486442" lon="-61.2881478"><ele>10.666666666666666</ele><time>2026-03-28T13:19:56.98Z</time></trkpt><trkpt lat="16.2485645" lon="-61.2881467"><ele>9.333333333333334</ele><time>2026-03-28T13:19:57.984Z</time></trkpt><trkpt lat="16.248484" lon="-61.2881419"><ele>8.0</ele><time>2026-03-28T13:19:58.981Z</time></trkpt><trkpt lat="16.2483957" lon="-61.2881387"><ele>6.666666666666666</ele><time>2026-03-28T13:20:00.049Z</time></trkpt><trkpt lat="16.2483089" lon="-61.2881411"><ele>5.333333333333333</ele><time>2026-03-28T13:20:01.04Z</time></trkpt><trkpt lat="16.2482233" lon="-61.2881343"><ele>4.0</ele><time>2026-03-28T13:20:02.041Z</time></trkpt><trkpt lat="16.2481375" lon="-61.2881265"><ele>3.9999999999999996</ele><time>2026-03-28T13:20:02.978Z</time></trkpt><trkpt lat="16.2480525" lon="-61.2881193"><ele>4.0</ele><time>2026-03-28T13:20:03.982Z</time></trkpt><trkpt lat="16.2479879" lon="-61.2881225"><ele>4.0</ele><time>2026-03-28T13:20:04.978Z</time></trkpt><trkpt lat="16.2479014" lon="-61.2881407"><ele>4.0</ele><time>2026-03-28T13:20:06.982Z</time></trkpt><trkpt lat="16.2478001" lon="-61.288166"><ele>3.9999999999999996</ele><time>2026-03-28T13:20:10.055Z</time></trkpt><trkpt lat="16.2477514" lon="-61.2882154"><ele>4.0</ele><time>2026-03-28T13:20:10.981Z</time></trkpt><trkpt lat="16.2477011" lon="-61.2882922"><ele>4.0</ele><time>2026-03-28T13:20:11.978Z</time></trkpt><trkpt lat="16.2476475" lon="-61.2883752"><ele>4.0</ele><time>2026-03-28T13:20:12.975Z</time></trkpt><trkpt lat="16.2475792" lon="-61.2884539"><ele>4.0</ele><time>2026-03-28T13:20:13.976Z</time></trkpt><trkpt lat="16.2475181" lon="-61.2885336"><ele>4.0</ele><time>2026-03-28T13:20:14.983Z</time></trkpt><trkpt lat="16.2474596" lon="-61.2886306"><ele>4.0</ele><time>2026-03-28T13:20:15.984Z</time></trkpt><trkpt lat="16.2474093" lon="-61.2887321"><ele>4.0</ele><time>2026-03-28T13:20:17.019Z</time></trkpt><trkpt lat="16.2473595" lon="-61.2888312"><ele>4.0</ele><time>2026-03-28T13:20:17.976Z</time></trkpt><trkpt lat="16.2473153" lon="-61.2889393"><ele>4.0</ele><time>2026-03-28T13:20:18.949Z</time></trkpt><trkpt lat="16.2472775" lon="-61.2890413"><ele>4.0</ele><time>2026-03-28T13:20:20.001Z</time></trkpt><trkpt lat="16.2472368" lon="-61.2891429"><ele>4.0</ele><time>2026-03-28T13:20:20.965Z</time></trkpt><trkpt lat="16.2471985" lon="-61.2892521"><ele>3.75</ele><time>2026-03-28T13:20:21.978Z</time></trkpt><trkpt lat="16.2471675" lon="-61.2893653"><ele>3.5</ele><time>2026-03-28T13:20:23.048Z</time></trkpt><trkpt lat="16.2471428" lon="-61.2894815"><ele>3.25</ele><time>2026-03-28T13:20:23.982Z</time></trkpt><trkpt lat="16.2471132" lon="-61.2896026"><ele>3.0</ele><time>2026-03-28T13:20:24.99Z</time></trkpt><trkpt lat="16.24709" lon="-61.2897213"><ele>4.25</ele><time>2026-03-28T13:20:25.993Z</time></trkpt><trkpt lat="16.2470692" lon="-61.2898365"><ele>5.5</ele><time>2026-03-28T13:20:27.044Z</time></trkpt><trkpt lat="16.2470416" lon="-61.289951"><ele>6.75</ele><time>2026-03-28T13:20:28.051Z</time></trkpt><trkpt lat="16.2470121" lon="-61.290068"><ele>8.0</ele><time>2026-03-28T13:20:28.981Z</time></trkpt><trkpt lat="16.2469746" lon="-61.2901823"><ele>8.0</ele><time>2026-03-28T13:20:29.974Z</time></trkpt><trkpt lat="16.2469414" lon="-61.2902955"><ele>8.0</ele><time>2026-03-28T13:20:30.99Z</time></trkpt><trkpt lat="16.2469125" lon="-61.2904137"><ele>8.0</ele><time>2026-03-28T13:20:32.031Z</time></trkpt><trkpt lat="16.2468849" lon="-61.2905324"><ele>8.0</ele><time>2026-03-28T13:20:32.977Z</time></trkpt><trkpt lat="16.2468548" lon="-61.2906538"><ele>8.75</ele><time>2026-03-28T13:20:33.974Z</time></trkpt><trkpt lat="16.2468259" lon="-61.2907677"><ele>9.5</ele><time>2026-03-28T13:20:34.988Z</time></trkpt><trkpt lat="16.2467959" lon="-61.2908829"><ele>10.25</ele><time>2026-03-28T13:20:36.068Z</time></trkpt><trkpt lat="16.2467667" lon="-61.2909995"><ele>11.0</ele><time>2026-03-28T13:20:37.046Z</time></trkpt><trkpt lat="16.2467324" lon="-61.2911154"><ele>11.0</ele><time>2026-03-28T13:20:38.038Z</time></trkpt><trkpt lat="16.2467142" lon="-61.2912308"><ele>11.0</ele><time>2026-03-28T13:20:38.982Z</time></trkpt><trkpt lat="16.2466974" lon="-61.2913549"><ele>11.0</ele><time>2026-03-28T13:20:39.98Z</time></trkpt><trkpt lat="16.2466822" lon="-61.2914808"><ele>11.0</ele><time>2026-03-28T13:20:40.989Z</time></trkpt><trkpt lat="16.2466677" lon="-61.291598"><ele>10.75</ele><time>2026-03-28T13:20:42.044Z</time></trkpt><trkpt lat="16.2466528" lon="-61.2917197"><ele>10.5</ele><time>2026-03-28T13:20:43.045Z</time></trkpt><trkpt lat="16.2466324" lon="-61.2918422"><ele>10.25</ele><time>2026-03-28T13:20:43.984Z</time></trkpt><trkpt lat="16.2466144" lon="-61.2919636"><ele>10.0</ele><time>2026-03-28T13:20:44.981Z</time></trkpt><trkpt lat="16.2466044" lon="-61.2920676"><ele>10.0</ele><time>2026-03-28T13:20:45.976Z</time></trkpt><trkpt lat="16.2465867" lon="-61.2921613"><ele>10.0</ele><time>2026-03-28T13:20:46.972Z</time></trkpt><trkpt lat="16.2465753" lon="-61.292245"><ele>10.0</ele><time>2026-03-28T13:20:47.985Z</time></trkpt><trkpt lat="16.2465603" lon="-61.2923218"><ele>10.0</ele><time>2026-03-28T13:20:48.954Z</time></trkpt><trkpt lat="16.24655" lon="-61.2923987"><ele>10.0</ele><time>2026-03-28T13:20:49.95Z</time></trkpt><trkpt lat="16.2465378" lon="-61.2924865"><ele>10.0</ele><time>2026-03-28T13:20:50.957Z</time></trkpt><trkpt lat="16.2465252" lon="-61.2925918"><ele>10.0</ele><time>2026-03-28T13:20:51.952Z</time></trkpt><trkpt lat="16.2465123" lon="-61.2926975"><ele>10.0</ele><time>2026-03-28T13:20:52.953Z</time></trkpt><trkpt lat="16.2464949" lon="-61.2928107"><ele>10.0</ele><time>2026-03-28T13:20:53.969Z</time></trkpt><trkpt lat="16.2464708" lon="-61.2929304"><ele>10.0</ele><time>2026-03-28T13:20:54.98Z</time></trkpt><trkpt lat="16.246457" lon="-61.2930484"><ele>10.0</ele><time>2026-03-28T13:20:55.988Z</time></trkpt><trkpt lat="16.2464431" lon="-61.2931651"><ele>8.0</ele><time>2026-03-28T13:20:56.986Z</time></trkpt><trkpt lat="16.2464261" lon="-61.2932874"><ele>6.0</ele><time>2026-03-28T13:20:58.047Z</time></trkpt><trkpt lat="16.2464006" lon="-61.2935319"><ele>4.0</ele><time>2026-03-28T13:20:59.979Z</time></trkpt><trkpt lat="16.2463894" lon="-61.2936478"><ele>4.0</ele><time>2026-03-28T13:21:00.968Z</time></trkpt><trkpt lat="16.2463781" lon="-61.2937654"><ele>4.0</ele><time>2026-03-28T13:21:01.973Z</time></trkpt><trkpt lat="16.2463701" lon="-61.293884"><ele>4.0</ele><time>2026-03-28T13:21:02.969Z</time></trkpt><trkpt lat="16.2463634" lon="-61.2940142"><ele>4.0</ele><time>2026-03-28T13:21:03.977Z</time></trkpt><trkpt lat="16.2463513" lon="-61.2941355"><ele>3.75</ele><time>2026-03-28T13:21:04.979Z</time></trkpt><trkpt lat="16.2463371" lon="-61.2942562"><ele>3.5</ele><time>2026-03-28T13:21:06.042Z</time></trkpt><trkpt lat="16.246322" lon="-61.2943809"><ele>3.25</ele><time>2026-03-28T13:21:07.047Z</time></trkpt><trkpt lat="16.2463053" lon="-61.2945019"><ele>3.0</ele><time>2026-03-28T13:21:08.035Z</time></trkpt><trkpt lat="16.2462848" lon="-61.2946207"><ele>3.0</ele><time>2026-03-28T13:21:08.972Z</time></trkpt><trkpt lat="16.2462629" lon="-61.2947448"><ele>3.0</ele><time>2026-03-28T13:21:09.975Z</time></trkpt><trkpt lat="16.2462415" lon="-61.2948767"><ele>3.0</ele><time>2026-03-28T13:21:10.974Z</time></trkpt><trkpt lat="16.2462152" lon="-61.2950114"><ele>3.0</ele><time>2026-03-28T13:21:12.052Z</time></trkpt><trkpt lat="16.2461892" lon="-61.2951422"><ele>3.0</ele><time>2026-03-28T13:21:13.03Z</time></trkpt><trkpt lat="16.2461575" lon="-61.295275"><ele>3.0</ele><time>2026-03-28T13:21:13.984Z</time></trkpt><trkpt lat="16.2461314" lon="-61.2954108"><ele>3.0</ele><time>2026-03-28T13:21:15.028Z</time></trkpt><trkpt lat="16.2461012" lon="-61.2955393"><ele>3.0</ele><time>2026-03-28T13:21:15.975Z</time></trkpt><trkpt lat="16.2460707" lon="-61.2956653"><ele>3.25</ele><time>2026-03-28T13:21:16.965Z</time></trkpt><trkpt lat="16.2460398" lon="-61.2957952"><ele>3.5</ele><time>2026-03-28T13:21:18.067Z</time></trkpt><trkpt lat="16.2460037" lon="-61.295926"><ele>3.75</ele><time>2026-03-28T13:21:18.976Z</time></trkpt><trkpt lat="16.2459737" lon="-61.2960599"><ele>4.0</ele><time>2026-03-28T13:21:19.972Z</time></trkpt><trkpt lat="16.2459492" lon="-61.2961978"><ele>4.0</ele><time>2026-03-28T13:21:20.979Z</time></trkpt><trkpt lat="16.2459178" lon="-61.296341"><ele>4.0</ele><time>2026-03-28T13:21:22.029Z</time></trkpt><trkpt lat="16.2458889" lon="-61.2964936"><ele>4.0</ele><time>2026-03-28T13:21:23.034Z</time></trkpt><trkpt lat="16.2458668" lon="-61.2966541"><ele>4.0</ele><time>2026-03-28T13:21:23.957Z</time></trkpt><trkpt lat="16.2458437" lon="-61.2968229"><ele>6.0</ele><time>2026-03-28T13:21:25.044Z</time></trkpt><trkpt lat="16.24582" lon="-61.2969872"><ele>8.0</ele><time>2026-03-28T13:21:25.948Z</time></trkpt><trkpt lat="16.2458008" lon="-61.29716"><ele>10.0</ele><time>2026-03-28T13:21:27.064Z</time></trkpt><trkpt lat="16.2457761" lon="-61.2973305"><ele>11.0</ele><time>2026-03-28T13:21:28.05Z</time></trkpt><trkpt lat="16.2457562" lon="-61.2974979"><ele>12.0</ele><time>2026-03-28T13:21:28.976Z</time></trkpt><trkpt lat="16.2457349" lon="-61.2976499"><ele>13.0</ele><time>2026-03-28T13:21:29.977Z</time></trkpt><trkpt lat="16.2457165" lon="-61.2978084"><ele>13.0</ele><time>2026-03-28T13:21:30.993Z</time></trkpt><trkpt lat="16.2457044" lon="-61.2979672"><ele>13.0</ele><time>2026-03-28T13:21:32.06Z</time></trkpt><trkpt lat="16.2456891" lon="-61.2981264"><ele>13.0</ele><time>2026-03-28T13:21:33.036Z</time></trkpt><trkpt lat="16.2456772" lon="-61.2982927"><ele>13.333333333333332</ele><time>2026-03-28T13:21:33.968Z</time></trkpt><trkpt lat="16.2456603" lon="-61.2984573"><ele>13.666666666666668</ele><time>2026-03-28T13:21:34.958Z</time></trkpt><trkpt lat="16.2456503" lon="-61.2986254"><ele>14.0</ele><time>2026-03-28T13:21:35.977Z</time></trkpt><trkpt lat="16.2456351" lon="-61.2987836"><ele>14.25</ele><time>2026-03-28T13:21:36.976Z</time></trkpt><trkpt lat="16.2456266" lon="-61.2989395"><ele>14.5</ele><time>2026-03-28T13:21:37.977Z</time></trkpt><trkpt lat="16.2456145" lon="-61.299092"><ele>14.75</ele><time>2026-03-28T13:21:38.973Z</time></trkpt><trkpt lat="16.245592" lon="-61.2992468"><ele>15.0</ele><time>2026-03-28T13:21:39.98Z</time></trkpt><trkpt lat="16.2455695" lon="-61.2994077"><ele>15.0</ele><time>2026-03-28T13:21:40.995Z</time></trkpt><trkpt lat="16.2455386" lon="-61.2995644"><ele>15.0</ele><time>2026-03-28T13:21:41.976Z</time></trkpt><trkpt lat="16.2455143" lon="-61.2997208"><ele>15.0</ele><time>2026-03-28T13:21:42.974Z</time></trkpt><trkpt lat="16.2454881" lon="-61.2998779"><ele>15.0</ele><time>2026-03-28T13:21:43.965Z</time></trkpt><trkpt lat="16.2454691" lon="-61.3000351"><ele>15.0</ele><time>2026-03-28T13:21:44.975Z</time></trkpt><trkpt lat="16.2454547" lon="-61.3001879"><ele>15.0</ele><time>2026-03-28T13:21:45.966Z</time></trkpt><trkpt lat="16.2454358" lon="-61.3003476"><ele>15.0</ele><time>2026-03-28T13:21:46.97Z</time></trkpt><trkpt lat="16.245407" lon="-61.3005085"><ele>15.0</ele><time>2026-03-28T13:21:47.98Z</time></trkpt><trkpt lat="16.2453832" lon="-61.3006682"><ele>15.0</ele><time>2026-03-28T13:21:48.976Z</time></trkpt><trkpt lat="16.2453634" lon="-61.3008247"><ele>15.75</ele><time>2026-03-28T13:21:49.943Z</time></trkpt><trkpt lat="16.2453487" lon="-61.3009799"><ele>16.5</ele><time>2026-03-28T13:21:50.968Z</time></trkpt><trkpt lat="16.2453341" lon="-61.3011298"><ele>17.25</ele><time>2026-03-28T13:21:51.963Z</time></trkpt><trkpt lat="16.2453202" lon="-61.301269"><ele>18.0</ele><time>2026-03-28T13:21:52.971Z</time></trkpt><trkpt lat="16.2453095" lon="-61.3014092"><ele>18.5</ele><time>2026-03-28T13:21:53.979Z</time></trkpt><trkpt lat="16.2452966" lon="-61.3015573"><ele>19.0</ele><time>2026-03-28T13:21:54.981Z</time></trkpt><trkpt lat="16.245275" lon="-61.3017021"><ele>19.5</ele><time>2026-03-28T13:21:55.976Z</time></trkpt><trkpt lat="16.2452652" lon="-61.301855"><ele>20.0</ele><time>2026-03-28T13:21:56.978Z</time></trkpt><trkpt lat="16.2452589" lon="-61.3020149"><ele>20.0</ele><time>2026-03-28T13:21:57.973Z</time></trkpt><trkpt lat="16.2452571" lon="-61.3021749"><ele>20.0</ele><time>2026-03-28T13:21:58.979Z</time></trkpt><trkpt lat="16.2452629" lon="-61.3023293"><ele>20.0</ele><time>2026-03-28T13:21:59.979Z</time></trkpt><trkpt lat="16.2452742" lon="-61.3024762"><ele>20.0</ele><time>2026-03-28T13:22:00.979Z</time></trkpt><trkpt lat="16.2452762" lon="-61.3026149"><ele>20.5</ele><time>2026-03-28T13:22:01.979Z</time></trkpt><trkpt lat="16.2452763" lon="-61.3027568"><ele>21.0</ele><time>2026-03-28T13:22:03.064Z</time></trkpt><trkpt lat="16.2452847" lon="-61.3029118"><ele>21.5</ele><time>2026-03-28T13:22:03.978Z</time></trkpt><trkpt lat="16.2452846" lon="-61.3030564"><ele>22.0</ele><time>2026-03-28T13:22:04.977Z</time></trkpt><trkpt lat="16.245283" lon="-61.3031898"><ele>22.333333333333332</ele><time>2026-03-28T13:22:05.963Z</time></trkpt><trkpt lat="16.2452914" lon="-61.3033002"><ele>22.666666666666664</ele><time>2026-03-28T13:22:07.055Z</time></trkpt><trkpt lat="16.2453157" lon="-61.3033752"><ele>23.0</ele><time>2026-03-28T13:22:07.968Z</time></trkpt><trkpt lat="16.2453951" lon="-61.303422"><ele>23.333333333333332</ele><time>2026-03-28T13:22:09.988Z</time></trkpt><trkpt lat="16.2454606" lon="-61.303402"><ele>23.666666666666668</ele><time>2026-03-28T13:22:12.987Z</time></trkpt><trkpt lat="16.245521" lon="-61.3034337"><ele>24.0</ele><time>2026-03-28T13:22:16.963Z</time></trkpt><trkpt lat="16.2456037" lon="-61.3034517"><ele>25.0</ele><time>2026-03-28T13:22:36.987Z</time></trkpt><trkpt lat="16.2456859" lon="-61.3034813"><ele>26.0</ele><time>2026-03-28T13:22:38.981Z</time></trkpt><trkpt lat="16.2457832" lon="-61.3034964"><ele>27.0</ele><time>2026-03-28T13:22:39.987Z</time></trkpt><trkpt lat="16.2458972" lon="-61.3035234"><ele>28.0</ele><time>2026-03-28T13:22:40.984Z</time></trkpt><trkpt lat="16.246002" lon="-61.3035497"><ele>29.0</ele><time>2026-03-28T13:22:41.987Z</time></trkpt><trkpt lat="16.2461012" lon="-61.3035738"><ele>29.0</ele><time>2026-03-28T13:22:42.984Z</time></trkpt><trkpt lat="16.2462322" lon="-61.3036117"><ele>29.0</ele><time>2026-03-28T13:22:43.984Z</time></trkpt><trkpt lat="16.2463818" lon="-61.3036534"><ele>29.0</ele><time>2026-03-28T13:22:44.976Z</time></trkpt><trkpt lat="16.2465267" lon="-61.3036917"><ele>29.0</ele><time>2026-03-28T13:22:45.982Z</time></trkpt><trkpt lat="16.2466541" lon="-61.3037394"><ele>29.6</ele><time>2026-03-28T13:22:46.972Z</time></trkpt><trkpt lat="16.2467703" lon="-61.3037825"><ele>30.2</ele><time>2026-03-28T13:22:47.981Z</time></trkpt><trkpt lat="16.2468622" lon="-61.3038278"><ele>30.800000000000004</ele><time>2026-03-28T13:22:48.983Z</time></trkpt><trkpt lat="16.2469602" lon="-61.3038745"><ele>31.400000000000002</ele><time>2026-03-28T13:22:49.979Z</time></trkpt><trkpt lat="16.2470509" lon="-61.3039137"><ele>32.0</ele><time>2026-03-28T13:22:50.978Z</time></trkpt><trkpt lat="16.2471282" lon="-61.303956"><ele>31.999999999999996</ele><time>2026-03-28T13:22:51.98Z</time></trkpt><trkpt lat="16.2472103" lon="-61.3039771"><ele>32.0</ele><time>2026-03-28T13:22:52.977Z</time></trkpt><trkpt lat="16.2472882" lon="-61.3039968"><ele>32.0</ele><time>2026-03-28T13:22:53.991Z</time></trkpt><trkpt lat="16.2473566" lon="-61.3040342"><ele>32.0</ele><time>2026-03-28T13:22:54.985Z</time></trkpt><trkpt lat="16.2474293" lon="-61.3040714"><ele>31.999999999999996</ele><time>2026-03-28T13:22:55.987Z</time></trkpt><trkpt lat="16.2474996" lon="-61.3041129"><ele>32.0</ele><time>2026-03-28T13:22:57.064Z</time></trkpt><trkpt lat="16.2475853" lon="-61.3041401"><ele>31.0</ele><time>2026-03-28T13:22:58.034Z</time></trkpt><trkpt lat="16.2476806" lon="-61.3041672"><ele>30.000000000000004</ele><time>2026-03-28T13:22:58.983Z</time></trkpt><trkpt lat="16.2477764" lon="-61.3041895"><ele>29.000000000000004</ele><time>2026-03-28T13:22:59.982Z</time></trkpt><trkpt lat="16.2478789" lon="-61.3042142"><ele>28.0</ele><time>2026-03-28T13:23:00.991Z</time></trkpt><trkpt lat="16.2479771" lon="-61.3042399"><ele>27.0</ele><time>2026-03-28T13:23:01.986Z</time></trkpt><trkpt lat="16.2480665" lon="-61.3042688"><ele>25.666666666666668</ele><time>2026-03-28T13:23:03.027Z</time></trkpt><trkpt lat="16.2481494" lon="-61.3043001"><ele>24.333333333333332</ele><time>2026-03-28T13:23:03.966Z</time></trkpt><trkpt lat="16.2482329" lon="-61.3043268"><ele>23.0</ele><time>2026-03-28T13:23:04.975Z</time></trkpt><trkpt lat="16.2483048" lon="-61.3043532"><ele>21.666666666666664</ele><time>2026-03-28T13:23:05.983Z</time></trkpt><trkpt lat="16.2484066" lon="-61.30438"><ele>20.333333333333332</ele><time>2026-03-28T13:23:07.987Z</time></trkpt><trkpt lat="16.2484812" lon="-61.3044085"><ele>19.0</ele><time>2026-03-28T13:23:09.987Z</time></trkpt><trkpt lat="16.2484764" lon="-61.3045015"><ele>19.0</ele><time>2026-03-28T13:23:13.052Z</time></trkpt><trkpt lat="16.2484328" lon="-61.304565"><ele>19.0</ele><time>2026-03-28T13:23:13.987Z</time></trkpt><trkpt lat="16.2483802" lon="-61.3046418"><ele>19.0</ele><time>2026-03-28T13:23:14.995Z</time></trkpt><trkpt lat="16.2483125" lon="-61.3047257"><ele>19.0</ele><time>2026-03-28T13:23:15.974Z</time></trkpt><trkpt lat="16.2482414" lon="-61.3048228"><ele>19.0</ele><time>2026-03-28T13:23:16.987Z</time></trkpt><trkpt lat="16.2481597" lon="-61.3049281"><ele>20.0</ele><time>2026-03-28T13:23:17.989Z</time></trkpt><trkpt lat="16.2480855" lon="-61.3050319"><ele>21.0</ele><time>2026-03-28T13:23:18.986Z</time></trkpt><trkpt lat="16.2480131" lon="-61.3051264"><ele>22.0</ele><time>2026-03-28T13:23:19.983Z</time></trkpt><trkpt lat="16.2479341" lon="-61.3052236"><ele>23.0</ele><time>2026-03-28T13:23:20.957Z</time></trkpt><trkpt lat="16.2478581" lon="-61.3053158"><ele>23.0</ele><time>2026-03-28T13:23:22.059Z</time></trkpt><trkpt lat="16.2477798" lon="-61.3054017"><ele>23.0</ele><time>2026-03-28T13:23:23.047Z</time></trkpt><trkpt lat="16.2476957" lon="-61.3054912"><ele>23.0</ele><time>2026-03-28T13:23:23.979Z</time></trkpt><trkpt lat="16.24761" lon="-61.3055737"><ele>23.0</ele><time>2026-03-28T13:23:24.982Z</time></trkpt><trkpt lat="16.2475237" lon="-61.3056535"><ele>23.0</ele><time>2026-03-28T13:23:25.969Z</time></trkpt><trkpt lat="16.2474446" lon="-61.3057472"><ele>23.0</ele><time>2026-03-28T13:23:26.975Z</time></trkpt><trkpt lat="16.247369" lon="-61.3058386"><ele>23.0</ele><time>2026-03-28T13:23:27.981Z</time></trkpt><trkpt lat="16.2473055" lon="-61.3059212"><ele>23.0</ele><time>2026-03-28T13:23:28.98Z</time></trkpt><trkpt lat="16.2472458" lon="-61.3059906"><ele>23.0</ele><time>2026-03-28T13:23:30.051Z</time></trkpt><trkpt lat="16.247174" lon="-61.3060207"><ele>23.0</ele><time>2026-03-28T13:23:31.066Z</time></trkpt><trkpt lat="16.2470919" lon="-61.3060187"><ele>23.0</ele><time>2026-03-28T13:23:32.043Z</time></trkpt><trkpt lat="16.2470078" lon="-61.3060041"><ele>23.0</ele><time>2026-03-28T13:23:33.039Z</time></trkpt><trkpt lat="16.2468784" lon="-61.3060185"><ele>23.0</ele><time>2026-03-28T13:23:34.984Z</time></trkpt><trkpt lat="16.2468329" lon="-61.3060784"><ele>23.0</ele><time>2026-03-28T13:23:35.972Z</time></trkpt><trkpt lat="16.2467989" lon="-61.3061526"><ele>23.0</ele><time>2026-03-28T13:23:37.04Z</time></trkpt><trkpt lat="16.2467707" lon="-61.3062359"><ele>23.0</ele><time>2026-03-28T13:23:38.046Z</time></trkpt><trkpt lat="16.2467396" lon="-61.306353"><ele>23.0</ele><time>2026-03-28T13:23:38.978Z</time></trkpt><trkpt lat="16.2467171" lon="-61.3064625"><ele>23.0</ele><time>2026-03-28T13:23:39.994Z</time></trkpt><trkpt lat="16.2467075" lon="-61.3065784"><ele>23.0</ele><time>2026-03-28T13:23:41.045Z</time></trkpt><trkpt lat="16.2466869" lon="-61.3067013"><ele>23.0</ele><time>2026-03-28T13:23:42.028Z</time></trkpt><trkpt lat="16.2466712" lon="-61.306833"><ele>23.0</ele><time>2026-03-28T13:23:43.031Z</time></trkpt><trkpt lat="16.246649" lon="-61.3069588"><ele>23.0</ele><time>2026-03-28T13:23:43.977Z</time></trkpt><trkpt lat="16.2466237" lon="-61.3070854"><ele>23.0</ele><time>2026-03-28T13:23:44.974Z</time></trkpt><trkpt lat="16.2465978" lon="-61.307214"><ele>23.25</ele><time>2026-03-28T13:23:46.038Z</time></trkpt><trkpt lat="16.2465721" lon="-61.307351"><ele>23.5</ele><time>2026-03-28T13:23:47.056Z</time></trkpt><trkpt lat="16.2465488" lon="-61.3074768"><ele>23.75</ele><time>2026-03-28T13:23:48.043Z</time></trkpt><trkpt lat="16.2465269" lon="-61.3076074"><ele>24.0</ele><time>2026-03-28T13:23:48.97Z</time></trkpt><trkpt lat="16.2465047" lon="-61.3077251"><ele>24.0</ele><time>2026-03-28T13:23:49.982Z</time></trkpt><trkpt lat="16.2464799" lon="-61.3078323"><ele>24.0</ele><time>2026-03-28T13:23:50.991Z</time></trkpt><trkpt lat="16.2464453" lon="-61.3079418"><ele>24.0</ele><time>2026-03-28T13:23:51.985Z</time></trkpt><trkpt lat="16.24642" lon="-61.3080583"><ele>24.0</ele><time>2026-03-28T13:23:53.042Z</time></trkpt><trkpt lat="16.2464006" lon="-61.3081759"><ele>24.0</ele><time>2026-03-28T13:23:53.982Z</time></trkpt><trkpt lat="16.2463804" lon="-61.3082927"><ele>25.0</ele><time>2026-03-28T13:23:54.982Z</time></trkpt><trkpt lat="16.2463559" lon="-61.308412"><ele>26.0</ele><time>2026-03-28T13:23:55.999Z</time></trkpt><trkpt lat="16.2463325" lon="-61.3085318"><ele>27.0</ele><time>2026-03-28T13:23:56.991Z</time></trkpt><trkpt lat="16.2463128" lon="-61.3086558"><ele>28.0</ele><time>2026-03-28T13:23:57.988Z</time></trkpt><trkpt lat="16.2462885" lon="-61.3087781"><ele>28.0</ele><time>2026-03-28T13:23:58.982Z</time></trkpt><trkpt lat="16.2462696" lon="-61.308904"><ele>27.999999999999996</ele><time>2026-03-28T13:23:59.98Z</time></trkpt><trkpt lat="16.2462522" lon="-61.3090161"><ele>27.999999999999996</ele><time>2026-03-28T13:24:00.992Z</time></trkpt><trkpt lat="16.246263" lon="-61.3091097"><ele>28.0</ele><time>2026-03-28T13:24:01.97Z</time></trkpt><trkpt lat="16.2462964" lon="-61.3092124"><ele>28.0</ele><time>2026-03-28T13:24:03.064Z</time></trkpt><trkpt lat="16.246342" lon="-61.3093071"><ele>27.5</ele><time>2026-03-28T13:24:03.986Z</time></trkpt><trkpt lat="16.2464127" lon="-61.3093974"><ele>27.0</ele><time>2026-03-28T13:24:04.982Z</time></trkpt><trkpt lat="16.2464936" lon="-61.3094758"><ele>26.5</ele><time>2026-03-28T13:24:05.981Z</time></trkpt><trkpt lat="16.2465959" lon="-61.3095449"><ele>26.0</ele><time>2026-03-28T13:24:06.983Z</time></trkpt><trkpt lat="16.246698" lon="-61.3095999"><ele>26.0</ele><time>2026-03-28T13:24:07.98Z</time></trkpt><trkpt lat="16.2467905" lon="-61.3096636"><ele>26.0</ele><time>2026-03-28T13:24:08.982Z</time></trkpt><trkpt lat="16.2468898" lon="-61.309737"><ele>26.0</ele><time>2026-03-28T13:24:09.985Z</time></trkpt><trkpt lat="16.2469755" lon="-61.3098149"><ele>26.0</ele><time>2026-03-28T13:24:10.978Z</time></trkpt><trkpt lat="16.2470553" lon="-61.3099053"><ele>26.0</ele><time>2026-03-28T13:24:12.034Z</time></trkpt><trkpt lat="16.24712" lon="-61.3100081"><ele>26.0</ele><time>2026-03-28T13:24:13.034Z</time></trkpt><trkpt lat="16.2471852" lon="-61.3101153"><ele>26.0</ele><time>2026-03-28T13:24:13.971Z</time></trkpt><trkpt lat="16.2472379" lon="-61.3102276"><ele>26.0</ele><time>2026-03-28T13:24:14.986Z</time></trkpt><trkpt lat="16.2472749" lon="-61.3103466"><ele>26.0</ele><time>2026-03-28T13:24:15.972Z</time></trkpt><trkpt lat="16.2472836" lon="-61.3104692"><ele>26.0</ele><time>2026-03-28T13:24:16.985Z</time></trkpt><trkpt lat="16.2472786" lon="-61.3105968"><ele>26.0</ele><time>2026-03-28T13:24:17.983Z</time></trkpt><trkpt lat="16.2472698" lon="-61.3107266"><ele>26.0</ele><time>2026-03-28T13:24:18.976Z</time></trkpt><trkpt lat="16.2472689" lon="-61.310851"><ele>26.0</ele><time>2026-03-28T13:24:20.046Z</time></trkpt><trkpt lat="16.247268" lon="-61.3109791"><ele>26.0</ele><time>2026-03-28T13:24:21.033Z</time></trkpt><trkpt lat="16.2472702" lon="-61.3110891"><ele>26.0</ele><time>2026-03-28T13:24:22.045Z</time></trkpt><trkpt lat="16.247282" lon="-61.3112033"><ele>26.0</ele><time>2026-03-28T13:24:23.034Z</time></trkpt><trkpt lat="16.2473017" lon="-61.3113107"><ele>26.0</ele><time>2026-03-28T13:24:23.983Z</time></trkpt><trkpt lat="16.2473377" lon="-61.3114241"><ele>26.0</ele><time>2026-03-28T13:24:24.984Z</time></trkpt><trkpt lat="16.2473834" lon="-61.3115375"><ele>26.0</ele><time>2026-03-28T13:24:25.976Z</time></trkpt><trkpt lat="16.2474395" lon="-61.3116404"><ele>26.0</ele><time>2026-03-28T13:24:27.048Z</time></trkpt><trkpt lat="16.2475019" lon="-61.3117433"><ele>26.0</ele><time>2026-03-28T13:24:28.055Z</time></trkpt><trkpt lat="16.2475755" lon="-61.3118407"><ele>26.0</ele><time>2026-03-28T13:24:28.983Z</time></trkpt><trkpt lat="16.2476521" lon="-61.3119324"><ele>26.0</ele><time>2026-03-28T13:24:29.983Z</time></trkpt><trkpt lat="16.2477289" lon="-61.3120274"><ele>26.0</ele><time>2026-03-28T13:24:31.003Z</time></trkpt><trkpt lat="16.2478114" lon="-61.3121199"><ele>26.0</ele><time>2026-03-28T13:24:32.06Z</time></trkpt><trkpt lat="16.2478987" lon="-61.3121989"><ele>26.5</ele><time>2026-03-28T13:24:33.033Z</time></trkpt><trkpt lat="16.2479937" lon="-61.3122721"><ele>27.0</ele><time>2026-03-28T13:24:33.972Z</time></trkpt><trkpt lat="16.2480914" lon="-61.312331"><ele>27.5</ele><time>2026-03-28T13:24:34.988Z</time></trkpt><trkpt lat="16.2481994" lon="-61.3123774"><ele>28.0</ele><time>2026-03-28T13:24:36.071Z</time></trkpt><trkpt lat="16.2483035" lon="-61.3124258"><ele>28.0</ele><time>2026-03-28T13:24:37.042Z</time></trkpt><trkpt lat="16.2484063" lon="-61.3124757"><ele>28.0</ele><time>2026-03-28T13:24:38.047Z</time></trkpt><trkpt lat="16.248519" lon="-61.3125287"><ele>28.0</ele><time>2026-03-28T13:24:38.984Z</time></trkpt><trkpt lat="16.2486269" lon="-61.3125809"><ele>28.0</ele><time>2026-03-28T13:24:39.984Z</time></trkpt><trkpt lat="16.2487308" lon="-61.3126166"><ele>28.0</ele><time>2026-03-28T13:24:40.995Z</time></trkpt><trkpt lat="16.2488397" lon="-61.3126458"><ele>27.999999999999996</ele><time>2026-03-28T13:24:42.031Z</time></trkpt><trkpt lat="16.2489491" lon="-61.3126597"><ele>27.999999999999996</ele><time>2026-03-28T13:24:43.042Z</time></trkpt><trkpt lat="16.2490549" lon="-61.3126619"><ele>28.0</ele><time>2026-03-28T13:24:43.981Z</time></trkpt><trkpt lat="16.2491529" lon="-61.3126679"><ele>28.0</ele><time>2026-03-28T13:24:44.995Z</time></trkpt><trkpt lat="16.2492403" lon="-61.312673"><ele>28.333333333333336</ele><time>2026-03-28T13:24:45.985Z</time></trkpt><trkpt lat="16.2493184" lon="-61.3126929"><ele>28.666666666666668</ele><time>2026-03-28T13:24:46.979Z</time></trkpt><trkpt lat="16.2493938" lon="-61.3127138"><ele>29.0</ele><time>2026-03-28T13:24:47.986Z</time></trkpt><trkpt lat="16.2494721" lon="-61.312747"><ele>29.333333333333336</ele><time>2026-03-28T13:24:48.969Z</time></trkpt><trkpt lat="16.2495534" lon="-61.3127853"><ele>29.666666666666668</ele><time>2026-03-28T13:24:49.995Z</time></trkpt><trkpt lat="16.2496363" lon="-61.3128247"><ele>30.0</ele><time>2026-03-28T13:24:50.974Z</time></trkpt><trkpt lat="16.2497302" lon="-61.3128643"><ele>30.0</ele><time>2026-03-28T13:24:51.987Z</time></trkpt><trkpt lat="16.2498327" lon="-61.3129036"><ele>30.0</ele><time>2026-03-28T13:24:52.98Z</time></trkpt><trkpt lat="16.2499349" lon="-61.3129434"><ele>30.0</ele><time>2026-03-28T13:24:53.979Z</time></trkpt><trkpt lat="16.2500455" lon="-61.3129845"><ele>30.0</ele><time>2026-03-28T13:24:54.976Z</time></trkpt><trkpt lat="16.2501566" lon="-61.3130294"><ele>30.0</ele><time>2026-03-28T13:24:55.977Z</time></trkpt><trkpt lat="16.2502682" lon="-61.3130657"><ele>30.0</ele><time>2026-03-28T13:24:56.974Z</time></trkpt><trkpt lat="16.2503797" lon="-61.3130961"><ele>30.0</ele><time>2026-03-28T13:24:57.984Z</time></trkpt><trkpt lat="16.2504931" lon="-61.3131371"><ele>30.0</ele><time>2026-03-28T13:24:58.976Z</time></trkpt><trkpt lat="16.2506031" lon="-61.313183"><ele>30.25</ele><time>2026-03-28T13:24:59.983Z</time></trkpt><trkpt lat="16.2507129" lon="-61.3132287"><ele>30.5</ele><time>2026-03-28T13:25:00.972Z</time></trkpt><trkpt lat="16.2508244" lon="-61.3132721"><ele>30.75</ele><time>2026-03-28T13:25:01.972Z</time></trkpt><trkpt lat="16.2509315" lon="-61.3133036"><ele>31.0</ele><time>2026-03-28T13:25:02.978Z</time></trkpt><trkpt lat="16.2510317" lon="-61.3133396"><ele>31.0</ele><time>2026-03-28T13:25:03.976Z</time></trkpt><trkpt lat="16.2511329" lon="-61.313379"><ele>31.0</ele><time>2026-03-28T13:25:04.976Z</time></trkpt><trkpt lat="16.2512443" lon="-61.3134168"><ele>31.0</ele><time>2026-03-28T13:25:05.983Z</time></trkpt><trkpt lat="16.2513495" lon="-61.3134511"><ele>31.0</ele><time>2026-03-28T13:25:06.987Z</time></trkpt><trkpt lat="16.2514517" lon="-61.3134879"><ele>31.0</ele><time>2026-03-28T13:25:07.983Z</time></trkpt><trkpt lat="16.2515535" lon="-61.3135251"><ele>31.166666666666668</ele><time>2026-03-28T13:25:08.977Z</time></trkpt><trkpt lat="16.2516459" lon="-61.3135613"><ele>31.333333333333336</ele><time>2026-03-28T13:25:09.958Z</time></trkpt><trkpt lat="16.2517179" lon="-61.313588"><ele>31.5</ele><time>2026-03-28T13:25:10.958Z</time></trkpt><trkpt lat="16.2517974" lon="-61.3136252"><ele>31.666666666666664</ele><time>2026-03-28T13:25:13.065Z</time></trkpt><trkpt lat="16.2518451" lon="-61.3136906"><ele>31.833333333333332</ele><time>2026-03-28T13:25:19.964Z</time></trkpt><trkpt lat="16.2518513" lon="-61.3137821"><ele>32.0</ele><time>2026-03-28T13:25:21.967Z</time></trkpt><trkpt lat="16.2518221" lon="-61.3138934"><ele>32.25</ele><time>2026-03-28T13:25:23.982Z</time></trkpt><trkpt lat="16.2517942" lon="-61.3140239"><ele>32.5</ele><time>2026-03-28T13:25:25.982Z</time></trkpt><trkpt lat="16.2517716" lon="-61.3141406"><ele>32.75</ele><time>2026-03-28T13:25:27.082Z</time></trkpt><trkpt lat="16.2517475" lon="-61.3142883"><ele>33.0</ele><time>2026-03-28T13:25:27.984Z</time></trkpt><trkpt lat="16.251719" lon="-61.3144477"><ele>33.0</ele><time>2026-03-28T13:25:28.979Z</time></trkpt><trkpt lat="16.2516939" lon="-61.3145929"><ele>33.0</ele><time>2026-03-28T13:25:29.973Z</time></trkpt><trkpt lat="16.2516745" lon="-61.3147558"><ele>33.0</ele><time>2026-03-28T13:25:30.982Z</time></trkpt><trkpt lat="16.2516505" lon="-61.3149033"><ele>33.0</ele><time>2026-03-28T13:25:31.991Z</time></trkpt><trkpt lat="16.2516203" lon="-61.3150443"><ele>33.25</ele><time>2026-03-28T13:25:32.949Z</time></trkpt><trkpt lat="16.2515973" lon="-61.3151821"><ele>33.5</ele><time>2026-03-28T13:25:33.975Z</time></trkpt><trkpt lat="16.2515684" lon="-61.3153276"><ele>33.75</ele><time>2026-03-28T13:25:34.973Z</time></trkpt><trkpt lat="16.2515364" lon="-61.3154758"><ele>34.0</ele><time>2026-03-28T13:25:36.029Z</time></trkpt><trkpt lat="16.2515071" lon="-61.3156232"><ele>34.25</ele><time>2026-03-28T13:25:36.991Z</time></trkpt><trkpt lat="16.2514838" lon="-61.3157698"><ele>34.5</ele><time>2026-03-28T13:25:37.974Z</time></trkpt><trkpt lat="16.2514608" lon="-61.3159153"><ele>34.75</ele><time>2026-03-28T13:25:38.953Z</time></trkpt><trkpt lat="16.2514343" lon="-61.316065"><ele>35.0</ele><time>2026-03-28T13:25:39.979Z</time></trkpt><trkpt lat="16.2514116" lon="-61.3162157"><ele>35.0</ele><time>2026-03-28T13:25:40.98Z</time></trkpt><trkpt lat="16.2513843" lon="-61.3163584"><ele>35.0</ele><time>2026-03-28T13:25:41.979Z</time></trkpt><trkpt lat="16.251352" lon="-61.3164928"><ele>35.0</ele><time>2026-03-28T13:25:43.031Z</time></trkpt><trkpt lat="16.2513206" lon="-61.316635"><ele>35.0</ele><time>2026-03-28T13:25:43.967Z</time></trkpt><trkpt lat="16.2512978" lon="-61.3167805"><ele>34.75</ele><time>2026-03-28T13:25:44.984Z</time></trkpt><trkpt lat="16.2512774" lon="-61.3169155"><ele>34.5</ele><time>2026-03-28T13:25:45.981Z</time></trkpt><trkpt lat="16.2512516" lon="-61.3170503"><ele>34.25</ele><time>2026-03-28T13:25:47.046Z</time></trkpt><trkpt lat="16.2512193" lon="-61.3171905"><ele>34.0</ele><time>2026-03-28T13:25:48.06Z</time></trkpt><trkpt lat="16.2511838" lon="-61.3173294"><ele>34.5</ele><time>2026-03-28T13:25:48.983Z</time></trkpt><trkpt lat="16.2511537" lon="-61.3174743"><ele>35.0</ele><time>2026-03-28T13:25:49.992Z</time></trkpt><trkpt lat="16.2511229" lon="-61.3176133"><ele>35.5</ele><time>2026-03-28T13:25:50.978Z</time></trkpt><trkpt lat="16.2510936" lon="-61.3177464"><ele>36.0</ele><time>2026-03-28T13:25:52.037Z</time></trkpt><trkpt lat="16.2510753" lon="-61.3178816"><ele>36.0</ele><time>2026-03-28T13:25:52.981Z</time></trkpt><trkpt lat="16.2510553" lon="-61.3180175"><ele>36.0</ele><time>2026-03-28T13:25:53.984Z</time></trkpt><trkpt lat="16.2510282" lon="-61.3181494"><ele>36.0</ele><time>2026-03-28T13:25:54.986Z</time></trkpt><trkpt lat="16.2510041" lon="-61.318283"><ele>36.0</ele><time>2026-03-28T13:25:56.052Z</time></trkpt><trkpt lat="16.2509843" lon="-61.3184163"><ele>36.5</ele><time>2026-03-28T13:25:57.031Z</time></trkpt><trkpt lat="16.2509639" lon="-61.3185544"><ele>37.0</ele><time>2026-03-28T13:25:57.984Z</time></trkpt><trkpt lat="16.2509422" lon="-61.3186904"><ele>37.5</ele><time>2026-03-28T13:25:58.985Z</time></trkpt><trkpt lat="16.2509131" lon="-61.318829"><ele>38.0</ele><time>2026-03-28T13:25:59.986Z</time></trkpt><trkpt lat="16.2508839" lon="-61.3189622"><ele>38.199999999999996</ele><time>2026-03-28T13:26:00.987Z</time></trkpt><trkpt lat="16.2508575" lon="-61.3190876"><ele>38.4</ele><time>2026-03-28T13:26:01.99Z</time></trkpt><trkpt lat="16.2508327" lon="-61.3191974"><ele>38.599999999999994</ele><time>2026-03-28T13:26:02.979Z</time></trkpt><trkpt lat="16.2508144" lon="-61.3192949"><ele>38.8</ele><time>2026-03-28T13:26:03.989Z</time></trkpt><trkpt lat="16.2508082" lon="-61.3193684"><ele>39.0</ele><time>2026-03-28T13:26:04.985Z</time></trkpt><trkpt lat="16.2508619" lon="-61.3194495"><ele>39.0</ele><time>2026-03-28T13:26:06.994Z</time></trkpt><trkpt lat="16.2510074" lon="-61.3194832"><ele>39.0</ele><time>2026-03-28T13:26:08.978Z</time></trkpt><trkpt lat="16.2510987" lon="-61.319492"><ele>39.0</ele><time>2026-03-28T13:26:09.976Z</time></trkpt><trkpt lat="16.2511997" lon="-61.3195029"><ele>39.0</ele><time>2026-03-28T13:26:10.983Z</time></trkpt><trkpt lat="16.2513115" lon="-61.3195467"><ele>39.0</ele><time>2026-03-28T13:26:11.981Z</time></trkpt><trkpt lat="16.2514345" lon="-61.3195899"><ele>39.0</ele><time>2026-03-28T13:26:13.048Z</time></trkpt><trkpt lat="16.2515539" lon="-61.3196335"><ele>39.0</ele><time>2026-03-28T13:26:13.966Z</time></trkpt><trkpt lat="16.251684" lon="-61.3196725"><ele>39.0</ele><time>2026-03-28T13:26:14.988Z</time></trkpt><trkpt lat="16.2518151" lon="-61.3197098"><ele>38.75</ele><time>2026-03-28T13:26:15.984Z</time></trkpt><trkpt lat="16.2519452" lon="-61.3197545"><ele>38.5</ele><time>2026-03-28T13:26:16.981Z</time></trkpt><trkpt lat="16.2520719" lon="-61.3197985"><ele>38.25</ele><time>2026-03-28T13:26:17.983Z</time></trkpt><trkpt lat="16.2522027" lon="-61.3198365"><ele>38.0</ele><time>2026-03-28T13:26:18.958Z</time></trkpt><trkpt lat="16.2523316" lon="-61.319873"><ele>37.0</ele><time>2026-03-28T13:26:20.063Z</time></trkpt><trkpt lat="16.2524592" lon="-61.3199065"><ele>36.0</ele><time>2026-03-28T13:26:21.037Z</time></trkpt><trkpt lat="16.2525857" lon="-61.3199425"><ele>35.0</ele><time>2026-03-28T13:26:21.989Z</time></trkpt><trkpt lat="16.2527066" lon="-61.3199773"><ele>34.0</ele><time>2026-03-28T13:26:23.045Z</time></trkpt><trkpt lat="16.252833" lon="-61.3200225"><ele>34.0</ele><time>2026-03-28T13:26:23.975Z</time></trkpt><trkpt lat="16.2529652" lon="-61.3200657"><ele>34.0</ele><time>2026-03-28T13:26:24.977Z</time></trkpt><trkpt lat="16.2531016" lon="-61.3201101"><ele>34.0</ele><time>2026-03-28T13:26:25.981Z</time></trkpt><trkpt lat="16.2532354" lon="-61.3201533"><ele>34.0</ele><time>2026-03-28T13:26:27.062Z</time></trkpt><trkpt lat="16.2533637" lon="-61.3201929"><ele>34.25</ele><time>2026-03-28T13:26:28.055Z</time></trkpt><trkpt lat="16.2534895" lon="-61.3202322"><ele>34.5</ele><time>2026-03-28T13:26:28.989Z</time></trkpt><trkpt lat="16.2536064" lon="-61.3202667"><ele>34.75</ele><time>2026-03-28T13:26:29.99Z</time></trkpt><trkpt lat="16.2537098" lon="-61.3202955"><ele>35.0</ele><time>2026-03-28T13:26:30.997Z</time></trkpt><trkpt lat="16.253805" lon="-61.3203225"><ele>35.0</ele><time>2026-03-28T13:26:31.977Z</time></trkpt><trkpt lat="16.2538781" lon="-61.3203397"><ele>35.0</ele><time>2026-03-28T13:26:33.028Z</time></trkpt><trkpt lat="16.2539483" lon="-61.3203419"><ele>35.0</ele><time>2026-03-28T13:26:34.964Z</time></trkpt><trkpt lat="16.2540041" lon="-61.3202754"><ele>35.0</ele><time>2026-03-28T13:27:07.975Z</time></trkpt><trkpt lat="16.2540306" lon="-61.3201939"><ele>35.0</ele><time>2026-03-28T13:27:08.979Z</time></trkpt><trkpt lat="16.2540474" lon="-61.3200954"><ele>35.0</ele><time>2026-03-28T13:27:09.983Z</time></trkpt><trkpt lat="16.254056" lon="-61.3199707"><ele>35.25</ele><time>2026-03-28T13:27:10.985Z</time></trkpt><trkpt lat="16.2540653" lon="-61.3198422"><ele>35.5</ele><time>2026-03-28T13:27:11.988Z</time></trkpt><trkpt lat="16.2540762" lon="-61.3197216"><ele>35.75</ele><time>2026-03-28T13:27:12.969Z</time></trkpt><trkpt lat="16.25409" lon="-61.3196068"><ele>36.0</ele><time>2026-03-28T13:27:13.971Z</time></trkpt><trkpt lat="16.254104" lon="-61.3194967"><ele>36.0</ele><time>2026-03-28T13:27:14.962Z</time></trkpt><trkpt lat="16.2541122" lon="-61.3193848"><ele>36.0</ele><time>2026-03-28T13:27:15.98Z</time></trkpt><trkpt lat="16.2541249" lon="-61.3192859"><ele>36.0</ele><time>2026-03-28T13:27:16.986Z</time></trkpt><trkpt lat="16.2541282" lon="-61.3191978"><ele>36.0</ele><time>2026-03-28T13:27:17.986Z</time></trkpt><trkpt lat="16.254135" lon="-61.3191015"><ele>36.0</ele><time>2026-03-28T13:27:19.976Z</time></trkpt><trkpt lat="16.2541649" lon="-61.3190106"><ele>36.0</ele><time>2026-03-28T13:27:22.967Z</time></trkpt><trkpt lat="16.2542549" lon="-61.3189914"><ele>36.0</ele><time>2026-03-28T13:27:24.977Z</time></trkpt><trkpt lat="16.2543087" lon="-61.319032"><ele>36.0</ele><time>2026-03-28T13:27:29.985Z</time></trkpt><trkpt lat="16.2543339" lon="-61.3191036"><ele>36.0</ele><time>2026-03-28T13:27:34.982Z</time></trkpt><trkpt lat="16.2543957" lon="-61.3192102"><ele>36.0</ele><time>2026-03-28T13:27:36.975Z</time></trkpt><trkpt lat="16.2544414" lon="-61.3192726"><ele>36.0</ele><time>2026-03-28T13:27:37.983Z</time></trkpt><trkpt lat="16.2544984" lon="-61.3193472"><ele>36.0</ele><time>2026-03-28T13:27:38.979Z</time></trkpt><trkpt lat="16.2545653" lon="-61.3194441"><ele>36.0</ele><time>2026-03-28T13:27:39.963Z</time></trkpt><trkpt lat="16.2546375" lon="-61.3195448"><ele>36.0</ele><time>2026-03-28T13:27:40.972Z</time></trkpt><trkpt lat="16.2547086" lon="-61.3196494"><ele>36.0</ele><time>2026-03-28T13:27:41.982Z</time></trkpt><trkpt lat="16.2547688" lon="-61.3197495"><ele>37.0</ele><time>2026-03-28T13:27:43.072Z</time></trkpt><trkpt lat="16.2548283" lon="-61.3198387"><ele>38.0</ele><time>2026-03-28T13:27:44.037Z</time></trkpt><trkpt lat="16.2548838" lon="-61.3199031"><ele>39.0</ele><time>2026-03-28T13:27:44.963Z</time></trkpt><trkpt lat="16.254938" lon="-61.3199546"><ele>40.0</ele><time>2026-03-28T13:27:45.988Z</time></trkpt><trkpt lat="16.2550057" lon="-61.3199951"><ele>41.0</ele><time>2026-03-28T13:27:46.972Z</time></trkpt><trkpt lat="16.2550758" lon="-61.3200177"><ele>42.0</ele><time>2026-03-28T13:27:48.032Z</time></trkpt><trkpt lat="16.2551645" lon="-61.3200357"><ele>42.0</ele><time>2026-03-28T13:27:49.03Z</time></trkpt><trkpt lat="16.2552752" lon="-61.3200502"><ele>42.0</ele><time>2026-03-28T13:27:49.969Z</time></trkpt><trkpt lat="16.2554021" lon="-61.3200774"><ele>42.0</ele><time>2026-03-28T13:27:51.05Z</time></trkpt><trkpt lat="16.25552" lon="-61.3200892"><ele>42.0</ele><time>2026-03-28T13:27:52.041Z</time></trkpt><trkpt lat="16.2556364" lon="-61.3201226"><ele>41.75</ele><time>2026-03-28T13:27:53.034Z</time></trkpt><trkpt lat="16.2557475" lon="-61.3201681"><ele>41.5</ele><time>2026-03-28T13:27:53.975Z</time></trkpt><trkpt lat="16.2558602" lon="-61.3202074"><ele>41.25</ele><time>2026-03-28T13:27:54.978Z</time></trkpt><trkpt lat="16.2559713" lon="-61.3202481"><ele>41.0</ele><time>2026-03-28T13:27:55.968Z</time></trkpt><trkpt lat="16.2560804" lon="-61.320292"><ele>41.0</ele><time>2026-03-28T13:27:56.978Z</time></trkpt><trkpt lat="16.2561869" lon="-61.3203351"><ele>41.0</ele><time>2026-03-28T13:27:57.975Z</time></trkpt><trkpt lat="16.2562953" lon="-61.3203681"><ele>41.0</ele><time>2026-03-28T13:27:59.015Z</time></trkpt><trkpt lat="16.2564049" lon="-61.3203963"><ele>41.0</ele><time>2026-03-28T13:27:59.973Z</time></trkpt><trkpt lat="16.2565221" lon="-61.3204328"><ele>40.75</ele><time>2026-03-28T13:28:00.979Z</time></trkpt><trkpt lat="16.2566359" lon="-61.3204668"><ele>40.5</ele><time>2026-03-28T13:28:02.087Z</time></trkpt><trkpt lat="16.2567446" lon="-61.3205027"><ele>40.25</ele><time>2026-03-28T13:28:03.032Z</time></trkpt><trkpt lat="16.2568566" lon="-61.3205348"><ele>40.0</ele><time>2026-03-28T13:28:04.046Z</time></trkpt><trkpt lat="16.25698" lon="-61.3205792"><ele>40.0</ele><time>2026-03-28T13:28:04.98Z</time></trkpt><trkpt lat="16.2570918" lon="-61.320612"><ele>40.0</ele><time>2026-03-28T13:28:05.98Z</time></trkpt><trkpt lat="16.2571931" lon="-61.320643"><ele>40.0</ele><time>2026-03-28T13:28:06.986Z</time></trkpt><trkpt lat="16.2572681" lon="-61.3206701"><ele>40.0</ele><time>2026-03-28T13:28:07.988Z</time></trkpt><trkpt lat="16.257328" lon="-61.3207026"><ele>40.0</ele><time>2026-03-28T13:28:08.993Z</time></trkpt><trkpt lat="16.257367" lon="-61.3207598"><ele>40.0</ele><time>2026-03-28T13:28:10.986Z</time></trkpt><trkpt lat="16.2573433" lon="-61.3208761"><ele>40.0</ele><time>2026-03-28T13:28:12.974Z</time></trkpt><trkpt lat="16.2573174" lon="-61.3209765"><ele>40.0</ele><time>2026-03-28T13:28:13.985Z</time></trkpt><trkpt lat="16.2572829" lon="-61.3210807"><ele>40.0</ele><time>2026-03-28T13:28:14.982Z</time></trkpt><trkpt lat="16.2572444" lon="-61.3211905"><ele>40.0</ele><time>2026-03-28T13:28:15.983Z</time></trkpt><trkpt lat="16.257204" lon="-61.3213007"><ele>40.0</ele><time>2026-03-28T13:28:16.99Z</time></trkpt><trkpt lat="16.2571685" lon="-61.3214069"><ele>39.4</ele><time>2026-03-28T13:28:17.98Z</time></trkpt><trkpt lat="16.2571327" lon="-61.3215089"><ele>38.8</ele><time>2026-03-28T13:28:18.991Z</time></trkpt><trkpt lat="16.2570947" lon="-61.3216078"><ele>38.2</ele><time>2026-03-28T13:28:19.985Z</time></trkpt><trkpt lat="16.2570616" lon="-61.3217095"><ele>37.6</ele><time>2026-03-28T13:28:20.972Z</time></trkpt><trkpt lat="16.2570226" lon="-61.3218182"><ele>37.0</ele><time>2026-03-28T13:28:22.055Z</time></trkpt><trkpt lat="16.2569835" lon="-61.3219345"><ele>37.0</ele><time>2026-03-28T13:28:23.047Z</time></trkpt><trkpt lat="16.25695" lon="-61.3220555"><ele>37.0</ele><time>2026-03-28T13:28:24.055Z</time></trkpt><trkpt lat="16.2569157" lon="-61.3221662"><ele>37.0</ele><time>2026-03-28T13:28:24.977Z</time></trkpt><trkpt lat="16.256886" lon="-61.3222708"><ele>37.0</ele><time>2026-03-28T13:28:25.981Z</time></trkpt><trkpt lat="16.2568525" lon="-61.3223745"><ele>37.0</ele><time>2026-03-28T13:28:26.979Z</time></trkpt><trkpt lat="16.2568232" lon="-61.3224799"><ele>38.2</ele><time>2026-03-28T13:28:27.981Z</time></trkpt><trkpt lat="16.2567869" lon="-61.3225796"><ele>39.400000000000006</ele><time>2026-03-28T13:28:29.061Z</time></trkpt><trkpt lat="16.2567483" lon="-61.3226921"><ele>40.599999999999994</ele><time>2026-03-28T13:28:29.982Z</time></trkpt><trkpt lat="16.2567118" lon="-61.322809"><ele>41.8</ele><time>2026-03-28T13:28:30.993Z</time></trkpt><trkpt lat="16.2566791" lon="-61.3229231"><ele>43.0</ele><time>2026-03-28T13:28:31.98Z</time></trkpt><trkpt lat="16.2566423" lon="-61.3230374"><ele>42.75</ele><time>2026-03-28T13:28:33.044Z</time></trkpt><trkpt lat="16.2566042" lon="-61.3231493"><ele>42.5</ele><time>2026-03-28T13:28:34.032Z</time></trkpt><trkpt lat="16.2565663" lon="-61.3232602"><ele>42.25</ele><time>2026-03-28T13:28:34.974Z</time></trkpt><trkpt lat="16.2565298" lon="-61.3233719"><ele>42.0</ele><time>2026-03-28T13:28:35.983Z</time></trkpt><trkpt lat="16.2564915" lon="-61.3234853"><ele>42.0</ele><time>2026-03-28T13:28:36.988Z</time></trkpt><trkpt lat="16.2564561" lon="-61.323596"><ele>42.0</ele><time>2026-03-28T13:28:38.037Z</time></trkpt><trkpt lat="16.2564259" lon="-61.3237133"><ele>42.0</ele><time>2026-03-28T13:28:39.048Z</time></trkpt><trkpt lat="16.2563876" lon="-61.3238337"><ele>42.0</ele><time>2026-03-28T13:28:39.963Z</time></trkpt><trkpt lat="16.2563469" lon="-61.3239465"><ele>42.0</ele><time>2026-03-28T13:28:41.061Z</time></trkpt><trkpt lat="16.2563091" lon="-61.3240595"><ele>42.0</ele><time>2026-03-28T13:28:42.066Z</time></trkpt><trkpt lat="16.2562685" lon="-61.3241738"><ele>42.0</ele><time>2026-03-28T13:28:43.028Z</time></trkpt><trkpt lat="16.2562329" lon="-61.3242874"><ele>42.0</ele><time>2026-03-28T13:28:44.04Z</time></trkpt><trkpt lat="16.2562015" lon="-61.3244044"><ele>42.0</ele><time>2026-03-28T13:28:44.971Z</time></trkpt><trkpt lat="16.2561685" lon="-61.3245235"><ele>42.0</ele><time>2026-03-28T13:28:45.982Z</time></trkpt><trkpt lat="16.2561416" lon="-61.3246354"><ele>42.0</ele><time>2026-03-28T13:28:46.991Z</time></trkpt><trkpt lat="16.2561136" lon="-61.3247471"><ele>42.0</ele><time>2026-03-28T13:28:48.042Z</time></trkpt><trkpt lat="16.2560852" lon="-61.324861"><ele>42.400000000000006</ele><time>2026-03-28T13:28:48.966Z</time></trkpt><trkpt lat="16.2560611" lon="-61.3249761"><ele>42.800000000000004</ele><time>2026-03-28T13:28:49.974Z</time></trkpt><trkpt lat="16.2560342" lon="-61.3250904"><ele>43.2</ele><time>2026-03-28T13:28:50.976Z</time></trkpt><trkpt lat="16.2560081" lon="-61.325202"><ele>43.6</ele><time>2026-03-28T13:28:52.048Z</time></trkpt><trkpt lat="16.2559933" lon="-61.325308"><ele>44.0</ele><time>2026-03-28T13:28:53.047Z</time></trkpt><trkpt lat="16.2559862" lon="-61.3254083"><ele>44.0</ele><time>2026-03-28T13:28:54.039Z</time></trkpt><trkpt lat="16.2559894" lon="-61.3255055"><ele>44.0</ele><time>2026-03-28T13:28:54.983Z</time></trkpt><trkpt lat="16.2560066" lon="-61.3256113"><ele>44.0</ele><time>2026-03-28T13:28:55.977Z</time></trkpt><trkpt lat="16.2560324" lon="-61.3257207"><ele>44.0</ele><time>2026-03-28T13:28:56.984Z</time></trkpt><trkpt lat="16.2560627" lon="-61.3258245"><ele>44.0</ele><time>2026-03-28T13:28:57.975Z</time></trkpt><trkpt lat="16.2561162" lon="-61.3259153"><ele>43.800000000000004</ele><time>2026-03-28T13:28:58.976Z</time></trkpt><trkpt lat="16.2561909" lon="-61.3259968"><ele>43.6</ele><time>2026-03-28T13:28:59.978Z</time></trkpt><trkpt lat="16.2562709" lon="-61.3260599"><ele>43.4</ele><time>2026-03-28T13:29:00.985Z</time></trkpt><trkpt lat="16.2563526" lon="-61.3261075"><ele>43.2</ele><time>2026-03-28T13:29:01.979Z</time></trkpt><trkpt lat="16.256445" lon="-61.3261412"><ele>43.0</ele><time>2026-03-28T13:29:02.99Z</time></trkpt><trkpt lat="16.2565469" lon="-61.3261702"><ele>43.0</ele><time>2026-03-28T13:29:04.06Z</time></trkpt><trkpt lat="16.2566598" lon="-61.3261977"><ele>43.0</ele><time>2026-03-28T13:29:04.973Z</time></trkpt><trkpt lat="16.2567674" lon="-61.3262357"><ele>43.0</ele><time>2026-03-28T13:29:05.983Z</time></trkpt><trkpt lat="16.2568705" lon="-61.3262699"><ele>43.0</ele><time>2026-03-28T13:29:06.975Z</time></trkpt><trkpt lat="16.2569774" lon="-61.3263018"><ele>43.0</ele><time>2026-03-28T13:29:07.979Z</time></trkpt><trkpt lat="16.2570796" lon="-61.3263316"><ele>43.0</ele><time>2026-03-28T13:29:08.977Z</time></trkpt><trkpt lat="16.2571804" lon="-61.3263679"><ele>43.0</ele><time>2026-03-28T13:29:09.988Z</time></trkpt><trkpt lat="16.2572752" lon="-61.3263942"><ele>43.0</ele><time>2026-03-28T13:29:11.032Z</time></trkpt><trkpt lat="16.2573589" lon="-61.3264147"><ele>43.0</ele><time>2026-03-28T13:29:12.042Z</time></trkpt><trkpt lat="16.257437" lon="-61.3264289"><ele>43.0</ele><time>2026-03-28T13:29:12.983Z</time></trkpt><trkpt lat="16.257508" lon="-61.3264208"><ele>43.0</ele><time>2026-03-28T13:29:13.986Z</time></trkpt><trkpt lat="16.2575753" lon="-61.3264037"><ele>42.8</ele><time>2026-03-28T13:29:14.972Z</time></trkpt><trkpt lat="16.2576802" lon="-61.3263711"><ele>42.599999999999994</ele><time>2026-03-28T13:29:16.984Z</time></trkpt><trkpt lat="16.257768" lon="-61.3263748"><ele>42.400000000000006</ele><time>2026-03-28T13:29:18.98Z</time></trkpt><trkpt lat="16.257879" lon="-61.3264168"><ele>42.2</ele><time>2026-03-28T13:29:20.979Z</time></trkpt><trkpt lat="16.2579409" lon="-61.3264639"><ele>42.0</ele><time>2026-03-28T13:29:22.05Z</time></trkpt><trkpt lat="16.258011" lon="-61.3265246"><ele>42.0</ele><time>2026-03-28T13:29:23.038Z</time></trkpt><trkpt lat="16.2580783" lon="-61.326594"><ele>42.0</ele><time>2026-03-28T13:29:24.037Z</time></trkpt><trkpt lat="16.2581401" lon="-61.3266584"><ele>42.0</ele><time>2026-03-28T13:29:24.981Z</time></trkpt><trkpt lat="16.2582037" lon="-61.3267167"><ele>42.0</ele><time>2026-03-28T13:29:25.976Z</time></trkpt><trkpt lat="16.2582713" lon="-61.3267652"><ele>42.0</ele><time>2026-03-28T13:29:26.981Z</time></trkpt><trkpt lat="16.2583557" lon="-61.3267953"><ele>42.0</ele><time>2026-03-28T13:29:27.991Z</time></trkpt><trkpt lat="16.258457" lon="-61.3268196"><ele>42.0</ele><time>2026-03-28T13:29:28.981Z</time></trkpt><trkpt lat="16.2585689" lon="-61.3268458"><ele>42.0</ele><time>2026-03-28T13:29:29.971Z</time></trkpt><trkpt lat="16.2586815" lon="-61.3268761"><ele>42.0</ele><time>2026-03-28T13:29:31.056Z</time></trkpt><trkpt lat="16.2587906" lon="-61.3269058"><ele>42.0</ele><time>2026-03-28T13:29:32.051Z</time></trkpt><trkpt lat="16.2589013" lon="-61.3269436"><ele>41.8</ele><time>2026-03-28T13:29:33.038Z</time></trkpt><trkpt lat="16.2590169" lon="-61.3269814"><ele>41.6</ele><time>2026-03-28T13:29:33.978Z</time></trkpt><trkpt lat="16.2591216" lon="-61.3270137"><ele>41.4</ele><time>2026-03-28T13:29:34.988Z</time></trkpt><trkpt lat="16.259221" lon="-61.3270434"><ele>41.199999999999996</ele><time>2026-03-28T13:29:35.977Z</time></trkpt><trkpt lat="16.2592954" lon="-61.3270692"><ele>41.0</ele><time>2026-03-28T13:29:36.984Z</time></trkpt><trkpt lat="16.2593578" lon="-61.3271144"><ele>41.0</ele><time>2026-03-28T13:29:39.042Z</time></trkpt><trkpt lat="16.2593381" lon="-61.3272192"><ele>41.0</ele><time>2026-03-28T13:29:40.963Z</time></trkpt><trkpt lat="16.2593135" lon="-61.3272902"><ele>41.0</ele><time>2026-03-28T13:29:41.977Z</time></trkpt><trkpt lat="16.2592903" lon="-61.3273698"><ele>41.0</ele><time>2026-03-28T13:29:42.974Z</time></trkpt><trkpt lat="16.2592738" lon="-61.3274479"><ele>41.0</ele><time>2026-03-28T13:29:44.061Z</time></trkpt><trkpt lat="16.2592612" lon="-61.3275236"><ele>41.0</ele><time>2026-03-28T13:29:44.981Z</time></trkpt><trkpt lat="16.259241" lon="-61.3275979"><ele>40.8</ele><time>2026-03-28T13:29:45.99Z</time></trkpt><trkpt lat="16.2592125" lon="-61.3276856"><ele>40.599999999999994</ele><time>2026-03-28T13:29:46.979Z</time></trkpt><trkpt lat="16.2591837" lon="-61.3277751"><ele>40.4</ele><time>2026-03-28T13:29:47.962Z</time></trkpt><trkpt lat="16.2591448" lon="-61.327867"><ele>40.2</ele><time>2026-03-28T13:29:48.988Z</time></trkpt><trkpt lat="16.2591047" lon="-61.3279607"><ele>40.0</ele><time>2026-03-28T13:29:49.981Z</time></trkpt><trkpt lat="16.2590596" lon="-61.3280629"><ele>40.4</ele><time>2026-03-28T13:29:50.975Z</time></trkpt><trkpt lat="16.2590238" lon="-61.3281684"><ele>40.8</ele><time>2026-03-28T13:29:51.976Z</time></trkpt><trkpt lat="16.2589889" lon="-61.3282713"><ele>41.2</ele><time>2026-03-28T13:29:53.048Z</time></trkpt><trkpt lat="16.2589598" lon="-61.3283721"><ele>41.6</ele><time>2026-03-28T13:29:54.047Z</time></trkpt><trkpt lat="16.2589259" lon="-61.328475"><ele>42.0</ele><time>2026-03-28T13:29:54.982Z</time></trkpt><trkpt lat="16.258879" lon="-61.3285815"><ele>42.5</ele><time>2026-03-28T13:29:55.991Z</time></trkpt><trkpt lat="16.2588349" lon="-61.3286945"><ele>43.0</ele><time>2026-03-28T13:29:56.977Z</time></trkpt><trkpt lat="16.2587945" lon="-61.3288042"><ele>43.5</ele><time>2026-03-28T13:29:57.979Z</time></trkpt><trkpt lat="16.2587535" lon="-61.3289167"><ele>44.0</ele><time>2026-03-28T13:29:58.981Z</time></trkpt><trkpt lat="16.2587153" lon="-61.3290265"><ele>44.5</ele><time>2026-03-28T13:29:59.977Z</time></trkpt><trkpt lat="16.2586799" lon="-61.3291351"><ele>45.0</ele><time>2026-03-28T13:30:00.978Z</time></trkpt><trkpt lat="16.2586419" lon="-61.3292452"><ele>45.5</ele><time>2026-03-28T13:30:01.984Z</time></trkpt><trkpt lat="16.2586019" lon="-61.3293538"><ele>46.0</ele><time>2026-03-28T13:30:03.026Z</time></trkpt><trkpt lat="16.2585562" lon="-61.3294663"><ele>46.0</ele><time>2026-03-28T13:30:03.976Z</time></trkpt><trkpt lat="16.2585093" lon="-61.3295782"><ele>46.0</ele><time>2026-03-28T13:30:04.993Z</time></trkpt><trkpt lat="16.2584588" lon="-61.3296819"><ele>46.0</ele><time>2026-03-28T13:30:06.042Z</time></trkpt><trkpt lat="16.2584125" lon="-61.3297912"><ele>46.0</ele><time>2026-03-28T13:30:07.05Z</time></trkpt><trkpt lat="16.2583664" lon="-61.3298993"><ele>45.4</ele><time>2026-03-28T13:30:08.04Z</time></trkpt><trkpt lat="16.2583046" lon="-61.329992"><ele>44.8</ele><time>2026-03-28T13:30:08.982Z</time></trkpt><trkpt lat="16.2582244" lon="-61.3300756"><ele>44.199999999999996</ele><time>2026-03-28T13:30:09.976Z</time></trkpt><trkpt lat="16.2581374" lon="-61.3301424"><ele>43.599999999999994</ele><time>2026-03-28T13:30:10.981Z</time></trkpt><trkpt lat="16.2580336" lon="-61.3301901"><ele>43.0</ele><time>2026-03-28T13:30:11.992Z</time></trkpt><trkpt lat="16.257927" lon="-61.3302293"><ele>43.0</ele><time>2026-03-28T13:30:12.964Z</time></trkpt><trkpt lat="16.2578164" lon="-61.3302735"><ele>43.0</ele><time>2026-03-28T13:30:13.977Z</time></trkpt><trkpt lat="16.2576992" lon="-61.3303168"><ele>43.0</ele><time>2026-03-28T13:30:14.962Z</time></trkpt><trkpt lat="16.2575936" lon="-61.3303658"><ele>43.0</ele><time>2026-03-28T13:30:15.951Z</time></trkpt><trkpt lat="16.2574773" lon="-61.3304054"><ele>43.0</ele><time>2026-03-28T13:30:16.976Z</time></trkpt><trkpt lat="16.2573697" lon="-61.330443"><ele>43.0</ele><time>2026-03-28T13:30:18.045Z</time></trkpt><trkpt lat="16.2572673" lon="-61.3304803"><ele>43.0</ele><time>2026-03-28T13:30:19.041Z</time></trkpt><trkpt lat="16.2571599" lon="-61.3305111"><ele>43.0</ele><time>2026-03-28T13:30:19.971Z</time></trkpt><trkpt lat="16.2570566" lon="-61.3305266"><ele>43.0</ele><time>2026-03-28T13:30:20.981Z</time></trkpt><trkpt lat="16.2569569" lon="-61.3305297"><ele>42.8</ele><time>2026-03-28T13:30:21.988Z</time></trkpt><trkpt lat="16.2568664" lon="-61.3305302"><ele>42.599999999999994</ele><time>2026-03-28T13:30:23.034Z</time></trkpt><trkpt lat="16.256791" lon="-61.330531"><ele>42.400000000000006</ele><time>2026-03-28T13:30:23.977Z</time></trkpt><trkpt lat="16.2566932" lon="-61.3305538"><ele>42.2</ele><time>2026-03-28T13:30:25.976Z</time></trkpt><trkpt lat="16.2566593" lon="-61.3306723"><ele>42.0</ele><time>2026-03-28T13:30:27.982Z</time></trkpt><trkpt lat="16.2566717" lon="-61.3307443"><ele>41.4</ele><time>2026-03-28T13:30:28.968Z</time></trkpt><trkpt lat="16.256703" lon="-61.3308274"><ele>40.800000000000004</ele><time>2026-03-28T13:30:29.982Z</time></trkpt><trkpt lat="16.2567449" lon="-61.3309218"><ele>40.2</ele><time>2026-03-28T13:30:30.977Z</time></trkpt><trkpt lat="16.2567888" lon="-61.3310293"><ele>39.6</ele><time>2026-03-28T13:30:31.98Z</time></trkpt><trkpt lat="16.2568309" lon="-61.3311288"><ele>39.0</ele><time>2026-03-28T13:30:32.98Z</time></trkpt><trkpt lat="16.2568632" lon="-61.3312163"><ele>39.0</ele><time>2026-03-28T13:30:33.975Z</time></trkpt><trkpt lat="16.2568856" lon="-61.3313002"><ele>39.0</ele><time>2026-03-28T13:30:34.979Z</time></trkpt><trkpt lat="16.2569068" lon="-61.3313839"><ele>39.0</ele><time>2026-03-28T13:30:35.982Z</time></trkpt><trkpt lat="16.2569361" lon="-61.3314585"><ele>39.0</ele><time>2026-03-28T13:30:36.981Z</time></trkpt><trkpt lat="16.2569524" lon="-61.3315291"><ele>39.0</ele><time>2026-03-28T13:30:37.979Z</time></trkpt><trkpt lat="16.2569675" lon="-61.3315974"><ele>39.0</ele><time>2026-03-28T13:30:38.989Z</time></trkpt><trkpt lat="16.2569757" lon="-61.3316725"><ele>38.166666666666664</ele><time>2026-03-28T13:30:39.988Z</time></trkpt><trkpt lat="16.2569764" lon="-61.3317513"><ele>37.333333333333336</ele><time>2026-03-28T13:30:41.033Z</time></trkpt><trkpt lat="16.2569599" lon="-61.3318285"><ele>36.5</ele><time>2026-03-28T13:30:42.041Z</time></trkpt><trkpt lat="16.2569408" lon="-61.3319006"><ele>35.66666666666667</ele><time>2026-03-28T13:30:43.028Z</time></trkpt><trkpt lat="16.2569189" lon="-61.3319756"><ele>34.833333333333336</ele><time>2026-03-28T13:30:43.976Z</time></trkpt><trkpt lat="16.2568823" lon="-61.3320529"><ele>34.0</ele><time>2026-03-28T13:30:44.981Z</time></trkpt><trkpt lat="16.2568246" lon="-61.3321349"><ele>33.5</ele><time>2026-03-28T13:30:45.974Z</time></trkpt><trkpt lat="16.2567597" lon="-61.332225"><ele>33.0</ele><time>2026-03-28T13:30:46.99Z</time></trkpt><trkpt lat="16.2566796" lon="-61.3323078"><ele>32.5</ele><time>2026-03-28T13:30:47.99Z</time></trkpt><trkpt lat="16.2566029" lon="-61.3323984"><ele>32.0</ele><time>2026-03-28T13:30:48.992Z</time></trkpt><trkpt lat="16.2565223" lon="-61.3324837"><ele>32.5</ele><time>2026-03-28T13:30:49.989Z</time></trkpt><trkpt lat="16.2564379" lon="-61.3325609"><ele>33.0</ele><time>2026-03-28T13:30:50.971Z</time></trkpt><trkpt lat="16.2563457" lon="-61.3326418"><ele>33.5</ele><time>2026-03-28T13:30:51.965Z</time></trkpt><trkpt lat="16.2562526" lon="-61.3327216"><ele>34.0</ele><time>2026-03-28T13:30:52.981Z</time></trkpt><trkpt lat="16.2561523" lon="-61.3327855"><ele>34.0</ele><time>2026-03-28T13:30:53.978Z</time></trkpt><trkpt lat="16.2560556" lon="-61.3328505"><ele>34.0</ele><time>2026-03-28T13:30:54.973Z</time></trkpt><trkpt lat="16.2559518" lon="-61.3329099"><ele>34.0</ele><time>2026-03-28T13:30:55.974Z</time></trkpt><trkpt lat="16.25585" lon="-61.3329617"><ele>34.0</ele><time>2026-03-28T13:30:56.973Z</time></trkpt><trkpt lat="16.2557479" lon="-61.33301"><ele>32.6</ele><time>2026-03-28T13:30:57.977Z</time></trkpt><trkpt lat="16.2556439" lon="-61.3330598"><ele>31.2</ele><time>2026-03-28T13:30:58.966Z</time></trkpt><trkpt lat="16.2555458" lon="-61.3331132"><ele>29.800000000000004</ele><time>2026-03-28T13:30:59.965Z</time></trkpt><trkpt lat="16.2554522" lon="-61.3331494"><ele>28.400000000000002</ele><time>2026-03-28T13:31:00.969Z</time></trkpt><trkpt lat="16.2553487" lon="-61.3331515"><ele>27.0</ele><time>2026-03-28T13:31:01.974Z</time></trkpt><trkpt lat="16.2552457" lon="-61.3331276"><ele>26.25</ele><time>2026-03-28T13:31:02.974Z</time></trkpt><trkpt lat="16.255141" lon="-61.3330829"><ele>25.5</ele><time>2026-03-28T13:31:03.971Z</time></trkpt><trkpt lat="16.2550399" lon="-61.3330376"><ele>24.75</ele><time>2026-03-28T13:31:04.974Z</time></trkpt><trkpt lat="16.25493" lon="-61.3329892"><ele>24.0</ele><time>2026-03-28T13:31:05.975Z</time></trkpt><trkpt lat="16.2548213" lon="-61.3329515"><ele>21.4</ele><time>2026-03-28T13:31:06.977Z</time></trkpt><trkpt lat="16.2547138" lon="-61.3329238"><ele>18.799999999999997</ele><time>2026-03-28T13:31:07.97Z</time></trkpt><trkpt lat="16.254615" lon="-61.3329122"><ele>16.2</ele><time>2026-03-28T13:31:08.944Z</time></trkpt><trkpt lat="16.254525" lon="-61.3329118"><ele>13.600000000000001</ele><time>2026-03-28T13:31:09.953Z</time></trkpt><trkpt lat="16.2544293" lon="-61.3329123"><ele>11.0</ele><time>2026-03-28T13:31:10.973Z</time></trkpt><trkpt lat="16.2543257" lon="-61.3329198"><ele>11.0</ele><time>2026-03-28T13:31:11.966Z</time></trkpt><trkpt lat="16.2542247" lon="-61.3329391"><ele>11.0</ele><time>2026-03-28T13:31:12.966Z</time></trkpt><trkpt lat="16.254127" lon="-61.3329566"><ele>11.0</ele><time>2026-03-28T13:31:13.971Z</time></trkpt><trkpt lat="16.2540273" lon="-61.332965"><ele>11.0</ele><time>2026-03-28T13:31:14.967Z</time></trkpt><trkpt lat="16.2539334" lon="-61.3329736"><ele>11.0</ele><time>2026-03-28T13:31:15.976Z</time></trkpt><trkpt lat="16.2538402" lon="-61.3329651"><ele>10.5</ele><time>2026-03-28T13:31:16.979Z</time></trkpt><trkpt lat="16.2537739" lon="-61.3329816"><ele>10.0</ele><time>2026-03-28T13:31:17.971Z</time></trkpt><trkpt lat="16.2536764" lon="-61.3329927"><ele>9.5</ele><time>2026-03-28T13:31:19.982Z</time></trkpt><trkpt lat="16.2535925" lon="-61.3330055"><ele>9.0</ele><time>2026-03-28T13:31:25.986Z</time></trkpt><trkpt lat="16.2535193" lon="-61.3330434"><ele>8.5</ele><time>2026-03-28T13:31:27.977Z</time></trkpt><trkpt lat="16.2534617" lon="-61.333096"><ele>8.0</ele><time>2026-03-28T13:31:28.961Z</time></trkpt><trkpt lat="16.2533944" lon="-61.3331635"><ele>7.999999999999999</ele><time>2026-03-28T13:31:29.972Z</time></trkpt><trkpt lat="16.2533298" lon="-61.3332297"><ele>8.0</ele><time>2026-03-28T13:31:30.947Z</time></trkpt><trkpt lat="16.2532709" lon="-61.3332883"><ele>8.0</ele><time>2026-03-28T13:31:31.982Z</time></trkpt><trkpt lat="16.2532118" lon="-61.3333363"><ele>8.0</ele><time>2026-03-28T13:31:32.987Z</time></trkpt><trkpt lat="16.2531153" lon="-61.3334053"><ele>7.999999999999999</ele><time>2026-03-28T13:31:34.979Z</time></trkpt><trkpt lat="16.2530462" lon="-61.333406"><ele>8.0</ele><time>2026-03-28T13:31:36.97Z</time></trkpt><trkpt lat="16.2529722" lon="-61.3333379"><ele>8.75</ele><time>2026-03-28T13:31:38.981Z</time></trkpt><trkpt lat="16.2529199" lon="-61.3332785"><ele>9.5</ele><time>2026-03-28T13:31:39.986Z</time></trkpt><trkpt lat="16.252846" lon="-61.3331872"><ele>10.25</ele><time>2026-03-28T13:31:40.976Z</time></trkpt><trkpt lat="16.2527732" lon="-61.3330672"><ele>11.0</ele><time>2026-03-28T13:31:41.978Z</time></trkpt><trkpt lat="16.2526998" lon="-61.3329539"><ele>11.0</ele><time>2026-03-28T13:31:42.972Z</time></trkpt><trkpt lat="16.2526365" lon="-61.3328476"><ele>11.0</ele><time>2026-03-28T13:31:43.98Z</time></trkpt><trkpt lat="16.2525749" lon="-61.3327456"><ele>11.0</ele><time>2026-03-28T13:31:44.983Z</time></trkpt><trkpt lat="16.2525076" lon="-61.3326428"><ele>11.0</ele><time>2026-03-28T13:31:45.974Z</time></trkpt><trkpt lat="16.2524344" lon="-61.3325391"><ele>11.0</ele><time>2026-03-28T13:31:46.978Z</time></trkpt><trkpt lat="16.2523496" lon="-61.3324344"><ele>11.0</ele><time>2026-03-28T13:31:47.975Z</time></trkpt><trkpt lat="16.2522556" lon="-61.3323512"><ele>11.0</ele><time>2026-03-28T13:31:48.975Z</time></trkpt><trkpt lat="16.2521605" lon="-61.3322829"><ele>11.0</ele><time>2026-03-28T13:31:49.972Z</time></trkpt><trkpt lat="16.2520567" lon="-61.3322197"><ele>13.0</ele><time>2026-03-28T13:31:50.977Z</time></trkpt><trkpt lat="16.2519487" lon="-61.3321536"><ele>15.0</ele><time>2026-03-28T13:31:51.976Z</time></trkpt><trkpt lat="16.2518459" lon="-61.3320999"><ele>17.0</ele><time>2026-03-28T13:31:52.977Z</time></trkpt><trkpt lat="16.2517324" lon="-61.3320616"><ele>19.0</ele><time>2026-03-28T13:31:53.97Z</time></trkpt><trkpt lat="16.2516248" lon="-61.3320179"><ele>19.0</ele><time>2026-03-28T13:31:54.974Z</time></trkpt><trkpt lat="16.2515154" lon="-61.3319631"><ele>19.0</ele><time>2026-03-28T13:31:55.974Z</time></trkpt><trkpt lat="16.2514046" lon="-61.3319127"><ele>19.0</ele><time>2026-03-28T13:31:56.976Z</time></trkpt><trkpt lat="16.2512951" lon="-61.3318686"><ele>19.0</ele><time>2026-03-28T13:31:57.97Z</time></trkpt><trkpt lat="16.2511795" lon="-61.3318384"><ele>20.5</ele><time>2026-03-28T13:31:58.977Z</time></trkpt><trkpt lat="16.2510632" lon="-61.3318256"><ele>22.0</ele><time>2026-03-28T13:31:59.977Z</time></trkpt><trkpt lat="16.2509462" lon="-61.3318183"><ele>23.5</ele><time>2026-03-28T13:32:00.969Z</time></trkpt><trkpt lat="16.2508308" lon="-61.3318084"><ele>25.0</ele><time>2026-03-28T13:32:01.97Z</time></trkpt><trkpt lat="16.2507156" lon="-61.3317954"><ele>25.0</ele><time>2026-03-28T13:32:02.97Z</time></trkpt><trkpt lat="16.2505987" lon="-61.3317865"><ele>25.0</ele><time>2026-03-28T13:32:03.975Z</time></trkpt><trkpt lat="16.2504804" lon="-61.3317756"><ele>25.0</ele><time>2026-03-28T13:32:04.973Z</time></trkpt><trkpt lat="16.2503727" lon="-61.3317607"><ele>25.0</ele><time>2026-03-28T13:32:05.973Z</time></trkpt><trkpt lat="16.2502555" lon="-61.331739"><ele>25.0</ele><time>2026-03-28T13:32:06.976Z</time></trkpt><trkpt lat="16.2501438" lon="-61.33172"><ele>25.0</ele><time>2026-03-28T13:32:07.971Z</time></trkpt><trkpt lat="16.2500268" lon="-61.3317023"><ele>25.0</ele><time>2026-03-28T13:32:08.98Z</time></trkpt><trkpt lat="16.2499077" lon="-61.3316892"><ele>25.0</ele><time>2026-03-28T13:32:09.976Z</time></trkpt><trkpt lat="16.2497891" lon="-61.331672"><ele>24.0</ele><time>2026-03-28T13:32:10.981Z</time></trkpt><trkpt lat="16.2496767" lon="-61.331658"><ele>23.0</ele><time>2026-03-28T13:32:11.972Z</time></trkpt><trkpt lat="16.2495526" lon="-61.3316367"><ele>22.0</ele><time>2026-03-28T13:32:12.968Z</time></trkpt><trkpt lat="16.2494296" lon="-61.33162"><ele>21.0</ele><time>2026-03-28T13:32:13.971Z</time></trkpt><trkpt lat="16.2493124" lon="-61.3316047"><ele>21.0</ele><time>2026-03-28T13:32:14.975Z</time></trkpt><trkpt lat="16.2491965" lon="-61.3315867"><ele>21.0</ele><time>2026-03-28T13:32:15.974Z</time></trkpt><trkpt lat="16.2490818" lon="-61.3315659"><ele>21.0</ele><time>2026-03-28T13:32:16.979Z</time></trkpt><trkpt lat="16.2489615" lon="-61.3315535"><ele>21.0</ele><time>2026-03-28T13:32:17.974Z</time></trkpt><trkpt lat="16.2488492" lon="-61.3315533"><ele>21.0</ele><time>2026-03-28T13:32:18.983Z</time></trkpt><trkpt lat="16.2487343" lon="-61.3315567"><ele>21.0</ele><time>2026-03-28T13:32:19.987Z</time></trkpt><trkpt lat="16.2486191" lon="-61.3315518"><ele>21.0</ele><time>2026-03-28T13:32:20.982Z</time></trkpt><trkpt lat="16.2485013" lon="-61.331547"><ele>21.0</ele><time>2026-03-28T13:32:21.977Z</time></trkpt><trkpt lat="16.2483862" lon="-61.3315395"><ele>21.0</ele><time>2026-03-28T13:32:22.969Z</time></trkpt><trkpt lat="16.2482713" lon="-61.3315234"><ele>21.0</ele><time>2026-03-28T13:32:23.972Z</time></trkpt><trkpt lat="16.2481572" lon="-61.3315046"><ele>21.0</ele><time>2026-03-28T13:32:24.971Z</time></trkpt><trkpt lat="16.2480376" lon="-61.3314832"><ele>21.0</ele><time>2026-03-28T13:32:25.972Z</time></trkpt><trkpt lat="16.2479217" lon="-61.3314536"><ele>21.0</ele><time>2026-03-28T13:32:26.985Z</time></trkpt><trkpt lat="16.2478078" lon="-61.3314203"><ele>21.0</ele><time>2026-03-28T13:32:27.976Z</time></trkpt><trkpt lat="16.2476851" lon="-61.3313862"><ele>21.0</ele><time>2026-03-28T13:32:28.982Z</time></trkpt><trkpt lat="16.2475701" lon="-61.3313646"><ele>21.0</ele><time>2026-03-28T13:32:29.975Z</time></trkpt><trkpt lat="16.2474555" lon="-61.3313394"><ele>20.75</ele><time>2026-03-28T13:32:30.97Z</time></trkpt><trkpt lat="16.2473394" lon="-61.3313203"><ele>20.5</ele><time>2026-03-28T13:32:31.979Z</time></trkpt><trkpt lat="16.2472226" lon="-61.3313027"><ele>20.25</ele><time>2026-03-28T13:32:32.973Z</time></trkpt><trkpt lat="16.2471056" lon="-61.3313007"><ele>20.0</ele><time>2026-03-28T13:32:33.973Z</time></trkpt><trkpt lat="16.2469879" lon="-61.3313009"><ele>19.75</ele><time>2026-03-28T13:32:34.981Z</time></trkpt><trkpt lat="16.2468644" lon="-61.3312977"><ele>19.5</ele><time>2026-03-28T13:32:35.974Z</time></trkpt><trkpt lat="16.2467438" lon="-61.3313087"><ele>19.25</ele><time>2026-03-28T13:32:36.98Z</time></trkpt><trkpt lat="16.2466231" lon="-61.3313201"><ele>19.0</ele><time>2026-03-28T13:32:37.974Z</time></trkpt><trkpt lat="16.2465009" lon="-61.3313335"><ele>18.75</ele><time>2026-03-28T13:32:38.98Z</time></trkpt><trkpt lat="16.2463684" lon="-61.3313538"><ele>18.5</ele><time>2026-03-28T13:32:39.979Z</time></trkpt><trkpt lat="16.2462233" lon="-61.3313742"><ele>18.25</ele><time>2026-03-28T13:32:40.982Z</time></trkpt><trkpt lat="16.2460661" lon="-61.3313953"><ele>18.0</ele><time>2026-03-28T13:32:41.974Z</time></trkpt><trkpt lat="16.2458962" lon="-61.3314048"><ele>18.0</ele><time>2026-03-28T13:32:42.982Z</time></trkpt><trkpt lat="16.2457385" lon="-61.3313793"><ele>18.0</ele><time>2026-03-28T13:32:43.979Z</time></trkpt><trkpt lat="16.2455855" lon="-61.3313167"><ele>18.0</ele><time>2026-03-28T13:32:44.975Z</time></trkpt><trkpt lat="16.2454338" lon="-61.3312206"><ele>16.666666666666668</ele><time>2026-03-28T13:32:45.979Z</time></trkpt><trkpt lat="16.245277" lon="-61.3310989"><ele>15.333333333333334</ele><time>2026-03-28T13:32:47.072Z</time></trkpt><trkpt lat="16.2451388" lon="-61.3309918"><ele>14.0</ele><time>2026-03-28T13:32:48.036Z</time></trkpt><trkpt lat="16.2450009" lon="-61.33091"><ele>14.0</ele><time>2026-03-28T13:32:49.036Z</time></trkpt><trkpt lat="16.2448639" lon="-61.3308353"><ele>14.0</ele><time>2026-03-28T13:32:49.972Z</time></trkpt><trkpt lat="16.244748" lon="-61.3307918"><ele>14.0</ele><time>2026-03-28T13:32:50.976Z</time></trkpt><trkpt lat="16.2446313" lon="-61.3307494"><ele>14.0</ele><time>2026-03-28T13:32:51.98Z</time></trkpt><trkpt lat="16.244513" lon="-61.3307133"><ele>14.25</ele><time>2026-03-28T13:32:52.96Z</time></trkpt><trkpt lat="16.2444114" lon="-61.3306819"><ele>14.5</ele><time>2026-03-28T13:32:54.038Z</time></trkpt><trkpt lat="16.2443076" lon="-61.3306417"><ele>14.75</ele><time>2026-03-28T13:32:54.979Z</time></trkpt><trkpt lat="16.2442095" lon="-61.3305684"><ele>15.0</ele><time>2026-03-28T13:32:55.969Z</time></trkpt><trkpt lat="16.2441209" lon="-61.3304503"><ele>15.0</ele><time>2026-03-28T13:32:56.966Z</time></trkpt><trkpt lat="16.2440417" lon="-61.3303287"><ele>15.0</ele><time>2026-03-28T13:32:57.967Z</time></trkpt><trkpt lat="16.2439604" lon="-61.3301997"><ele>15.0</ele><time>2026-03-28T13:32:58.991Z</time></trkpt><trkpt lat="16.2438741" lon="-61.3300714"><ele>15.0</ele><time>2026-03-28T13:32:59.978Z</time></trkpt><trkpt lat="16.2438047" lon="-61.3299351"><ele>15.0</ele><time>2026-03-28T13:33:00.977Z</time></trkpt><trkpt lat="16.2437524" lon="-61.3297893"><ele>15.0</ele><time>2026-03-28T13:33:01.98Z</time></trkpt><trkpt lat="16.243713" lon="-61.329647"><ele>15.0</ele><time>2026-03-28T13:33:02.983Z</time></trkpt><trkpt lat="16.2436727" lon="-61.3295137"><ele>15.0</ele><time>2026-03-28T13:33:03.976Z</time></trkpt><trkpt lat="16.2436284" lon="-61.3293866"><ele>14.2</ele><time>2026-03-28T13:33:04.977Z</time></trkpt><trkpt lat="16.2435699" lon="-61.3292684"><ele>13.4</ele><time>2026-03-28T13:33:05.975Z</time></trkpt><trkpt lat="16.2435231" lon="-61.329148"><ele>12.600000000000001</ele><time>2026-03-28T13:33:06.975Z</time></trkpt><trkpt lat="16.2434852" lon="-61.3290447"><ele>11.8</ele><time>2026-03-28T13:33:07.974Z</time></trkpt><trkpt lat="16.2434529" lon="-61.3289628"><ele>11.0</ele><time>2026-03-28T13:33:08.98Z</time></trkpt><trkpt lat="16.2434087" lon="-61.3288876"><ele>11.0</ele><time>2026-03-28T13:33:09.97Z</time></trkpt><trkpt lat="16.2433706" lon="-61.328818"><ele>11.0</ele><time>2026-03-28T13:33:10.974Z</time></trkpt><trkpt lat="16.2433017" lon="-61.3287579"><ele>11.0</ele><time>2026-03-28T13:33:12.978Z</time></trkpt><trkpt lat="16.2432277" lon="-61.3287803"><ele>11.0</ele><time>2026-03-28T13:33:15.974Z</time></trkpt><trkpt lat="16.2431987" lon="-61.3288473"><ele>11.0</ele><time>2026-03-28T13:33:20.965Z</time></trkpt><trkpt lat="16.2431731" lon="-61.328967"><ele>11.0</ele><time>2026-03-28T13:33:22.968Z</time></trkpt><trkpt lat="16.2431574" lon="-61.3290762"><ele>10.600000000000001</ele><time>2026-03-28T13:33:23.997Z</time></trkpt><trkpt lat="16.2431428" lon="-61.3292146"><ele>10.200000000000001</ele><time>2026-03-28T13:33:24.982Z</time></trkpt><trkpt lat="16.2431397" lon="-61.3293512"><ele>9.8</ele><time>2026-03-28T13:33:25.976Z</time></trkpt><trkpt lat="16.2431384" lon="-61.329462"><ele>9.4</ele><time>2026-03-28T13:33:26.956Z</time></trkpt><trkpt lat="16.2431391" lon="-61.3295417"><ele>9.0</ele><time>2026-03-28T13:33:27.973Z</time></trkpt><trkpt lat="16.2431448" lon="-61.3296188"><ele>9.000000000000002</ele><time>2026-03-28T13:33:28.971Z</time></trkpt><trkpt lat="16.2431553" lon="-61.329691"><ele>9.0</ele><time>2026-03-28T13:33:29.98Z</time></trkpt><trkpt lat="16.2431598" lon="-61.3297694"><ele>9.0</ele><time>2026-03-28T13:33:30.981Z</time></trkpt><trkpt lat="16.2431657" lon="-61.3298423"><ele>9.0</ele><time>2026-03-28T13:33:31.978Z</time></trkpt><trkpt lat="16.2431774" lon="-61.3299144"><ele>9.0</ele><time>2026-03-28T13:33:33.05Z</time></trkpt><trkpt lat="16.2431782" lon="-61.3299988"><ele>9.000000000000002</ele><time>2026-03-28T13:33:34.06Z</time></trkpt><trkpt lat="16.2431736" lon="-61.3300796"><ele>9.0</ele><time>2026-03-28T13:33:34.979Z</time></trkpt><trkpt lat="16.2431707" lon="-61.3301586"><ele>10.0</ele><time>2026-03-28T13:33:35.985Z</time></trkpt><trkpt lat="16.2431706" lon="-61.3302371"><ele>11.0</ele><time>2026-03-28T13:33:36.966Z</time></trkpt><trkpt lat="16.2431853" lon="-61.3303213"><ele>12.0</ele><time>2026-03-28T13:33:37.98Z</time></trkpt><trkpt lat="16.243192" lon="-61.3304153"><ele>13.0</ele><time>2026-03-28T13:33:38.983Z</time></trkpt><trkpt lat="16.2431862" lon="-61.3305062"><ele>14.0</ele><time>2026-03-28T13:33:39.978Z</time></trkpt><trkpt lat="16.2431786" lon="-61.3305994"><ele>15.0</ele><time>2026-03-28T13:33:40.972Z</time></trkpt><trkpt lat="16.2431703" lon="-61.3306772"><ele>15.5</ele><time>2026-03-28T13:33:42.059Z</time></trkpt><trkpt lat="16.2431755" lon="-61.3308076"><ele>16.0</ele><time>2026-03-28T13:33:44.03Z</time></trkpt><trkpt lat="16.2431742" lon="-61.3308753"><ele>16.5</ele><time>2026-03-28T13:33:45.032Z</time></trkpt><trkpt lat="16.2431752" lon="-61.3309471"><ele>17.0</ele><time>2026-03-28T13:33:46.028Z</time></trkpt><trkpt lat="16.243176" lon="-61.3310542"><ele>17.5</ele><time>2026-03-28T13:33:48.039Z</time></trkpt><trkpt lat="16.2431003" lon="-61.3310917"><ele>18.0</ele><time>2026-03-28T13:33:53.044Z</time></trkpt><trkpt lat="16.2430213" lon="-61.3311014"><ele>18.0</ele><time>2026-03-28T13:33:57.023Z</time></trkpt><trkpt lat="16.2429328" lon="-61.331112"><ele>18.0</ele><time>2026-03-28T13:34:00.019Z</time></trkpt><trkpt lat="16.2428446" lon="-61.3311317"><ele>18.0</ele><time>2026-03-28T13:34:02.037Z</time></trkpt><trkpt lat="16.2427424" lon="-61.3311739"><ele>18.0</ele><time>2026-03-28T13:34:04.025Z</time></trkpt><trkpt lat="16.2426551" lon="-61.3312085"><ele>18.0</ele><time>2026-03-28T13:34:06.03Z</time></trkpt><trkpt lat="16.2425709" lon="-61.3312296"><ele>18.0</ele><time>2026-03-28T13:34:08.023Z</time></trkpt><trkpt lat="16.2424642" lon="-61.3312463"><ele>18.0</ele><time>2026-03-28T13:34:10.032Z</time></trkpt><trkpt lat="16.2423869" lon="-61.3312794"><ele>18.0</ele><time>2026-03-28T13:34:12.041Z</time></trkpt><trkpt lat="16.2423176" lon="-61.3313036"><ele>18.0</ele><time>2026-03-28T13:34:14.032Z</time></trkpt><trkpt lat="16.2422347" lon="-61.3313203"><ele>18.0</ele><time>2026-03-28T13:34:16.03Z</time></trkpt><trkpt lat="16.2421368" lon="-61.3313652"><ele>15.6</ele><time>2026-03-28T13:34:18.041Z</time></trkpt><trkpt lat="16.2420309" lon="-61.3314063"><ele>13.200000000000001</ele><time>2026-03-28T13:34:20.036Z</time></trkpt><trkpt lat="16.2419324" lon="-61.3314401"><ele>10.8</ele><time>2026-03-28T13:34:22.033Z</time></trkpt><trkpt lat="16.2418339" lon="-61.3315094"><ele>8.4</ele><time>2026-03-28T13:34:24.005Z</time></trkpt><trkpt lat="16.2417655" lon="-61.3315661"><ele>6.0</ele><time>2026-03-28T13:34:26.037Z</time></trkpt><trkpt lat="16.2417535" lon="-61.3316383"><ele>6.0</ele><time>2026-03-28T13:34:29.006Z</time></trkpt><trkpt lat="16.2417807" lon="-61.3317147"><ele>6.0</ele><time>2026-03-28T13:34:31.032Z</time></trkpt><trkpt lat="16.2418135" lon="-61.3318"><ele>6.0</ele><time>2026-03-28T13:34:33.026Z</time></trkpt><trkpt lat="16.241826" lon="-61.3319274"><ele>6.0</ele><time>2026-03-28T13:34:35.038Z</time></trkpt><trkpt lat="16.2418453" lon="-61.3320274"><ele>6.0</ele><time>2026-03-28T13:34:36.024Z</time></trkpt><trkpt lat="16.2418646" lon="-61.3321338"><ele>5.666666666666667</ele><time>2026-03-28T13:34:37.028Z</time></trkpt><trkpt lat="16.2418793" lon="-61.3322331"><ele>5.333333333333333</ele><time>2026-03-28T13:34:38.033Z</time></trkpt><trkpt lat="16.2418895" lon="-61.3323227"><ele>5.0</ele><time>2026-03-28T13:34:39.037Z</time></trkpt><trkpt lat="16.2419011" lon="-61.33241"><ele>4.666666666666666</ele><time>2026-03-28T13:34:40.041Z</time></trkpt><trkpt lat="16.2419228" lon="-61.3324888"><ele>4.333333333333333</ele><time>2026-03-28T13:34:41.036Z</time></trkpt><trkpt lat="16.2419669" lon="-61.3325624"><ele>4.0</ele><time>2026-03-28T13:34:42.027Z</time></trkpt><trkpt lat="16.2420229" lon="-61.3326268"><ele>4.0</ele><time>2026-03-28T13:34:43.033Z</time></trkpt><trkpt lat="16.2420802" lon="-61.3327014"><ele>3.9999999999999996</ele><time>2026-03-28T13:34:44.034Z</time></trkpt><trkpt lat="16.242113" lon="-61.332767"><ele>4.0</ele><time>2026-03-28T13:34:45.034Z</time></trkpt><trkpt lat="16.242138" lon="-61.3328318"><ele>4.0</ele><time>2026-03-28T13:34:46.032Z</time></trkpt><trkpt lat="16.2421666" lon="-61.3329004"><ele>3.9999999999999996</ele><time>2026-03-28T13:34:46.973Z</time></trkpt><trkpt lat="16.2421925" lon="-61.3329632"><ele>4.0</ele><time>2026-03-28T13:34:48.029Z</time></trkpt><trkpt lat="16.2422286" lon="-61.3330362"><ele>4.0</ele><time>2026-03-28T13:34:49.989Z</time></trkpt><trkpt lat="16.2422518" lon="-61.3331162"><ele>3.6666666666666665</ele><time>2026-03-28T13:34:51.959Z</time></trkpt><trkpt lat="16.2422495" lon="-61.3331875"><ele>3.333333333333333</ele><time>2026-03-28T13:34:53.975Z</time></trkpt><trkpt lat="16.2422064" lon="-61.3332916"><ele>3.0</ele><time>2026-03-28T13:34:55.98Z</time></trkpt><trkpt lat="16.2421765" lon="-61.3333588"><ele>2.6666666666666665</ele><time>2026-03-28T13:34:56.981Z</time></trkpt><trkpt lat="16.2421496" lon="-61.3334195"><ele>2.333333333333333</ele><time>2026-03-28T13:34:58.062Z</time></trkpt><trkpt lat="16.2421179" lon="-61.3334848"><ele>2.0</ele><time>2026-03-28T13:34:59.038Z</time></trkpt><trkpt lat="16.242082" lon="-61.3335516"><ele>1.9999999999999998</ele><time>2026-03-28T13:34:59.984Z</time></trkpt><trkpt lat="16.2420507" lon="-61.3336136"><ele>2.0</ele><time>2026-03-28T13:35:00.995Z</time></trkpt><trkpt lat="16.2420153" lon="-61.3336811"><ele>2.0</ele><time>2026-03-28T13:35:01.972Z</time></trkpt><trkpt lat="16.2419904" lon="-61.3337505"><ele>2.0</ele><time>2026-03-28T13:35:02.989Z</time></trkpt><trkpt lat="16.2419782" lon="-61.3338324"><ele>1.9999999999999998</ele><time>2026-03-28T13:35:03.986Z</time></trkpt><trkpt lat="16.2419764" lon="-61.3339074"><ele>2.0</ele><time>2026-03-28T13:35:04.987Z</time></trkpt><trkpt lat="16.2419845" lon="-61.3340005"><ele>2.5</ele><time>2026-03-28T13:35:05.969Z</time></trkpt><trkpt lat="16.2419884" lon="-61.3340921"><ele>3.0</ele><time>2026-03-28T13:35:07.059Z</time></trkpt><trkpt lat="16.2419896" lon="-61.3341796"><ele>3.5</ele><time>2026-03-28T13:35:08.036Z</time></trkpt><trkpt lat="16.2419914" lon="-61.3342643"><ele>4.0</ele><time>2026-03-28T13:35:08.965Z</time></trkpt><trkpt lat="16.2419943" lon="-61.3343474"><ele>4.5</ele><time>2026-03-28T13:35:09.979Z</time></trkpt><trkpt lat="16.2419928" lon="-61.3344224"><ele>5.0</ele><time>2026-03-28T13:35:10.986Z</time></trkpt><trkpt lat="16.2419934" lon="-61.3345356"><ele>5.0</ele><time>2026-03-28T13:35:12.963Z</time></trkpt><trkpt lat="16.2419851" lon="-61.3346558"><ele>5.0</ele><time>2026-03-28T13:35:14.982Z</time></trkpt><trkpt lat="16.2419838" lon="-61.3347591"><ele>5.0</ele><time>2026-03-28T13:35:17.064Z</time></trkpt><trkpt lat="16.2419928" lon="-61.3348522"><ele>5.0</ele><time>2026-03-28T13:35:18.983Z</time></trkpt><trkpt lat="16.2420149" lon="-61.3349557"><ele>5.0</ele><time>2026-03-28T13:35:20.98Z</time></trkpt><trkpt lat="16.2420521" lon="-61.3350605"><ele>5.0</ele><time>2026-03-28T13:35:23.038Z</time></trkpt><trkpt lat="16.2420661" lon="-61.3351751"><ele>5.0</ele><time>2026-03-28T13:35:24.98Z</time></trkpt><trkpt lat="16.2420727" lon="-61.335265"><ele>5.0</ele><time>2026-03-28T13:35:26.974Z</time></trkpt><trkpt lat="16.2420338" lon="-61.3353493"><ele>5.0</ele><time>2026-03-28T13:35:29.961Z</time></trkpt><trkpt lat="16.2420088" lon="-61.3354141"><ele>5.0</ele><time>2026-03-28T13:35:33.973Z</time></trkpt><trkpt lat="16.2420021" lon="-61.3355012"><ele>5.0</ele><time>2026-03-28T13:37:18.964Z</time></trkpt><trkpt lat="16.2420202" lon="-61.3356009"><ele>5.2</ele><time>2026-03-28T13:37:20.973Z</time></trkpt><trkpt lat="16.2420837" lon="-61.3356799"><ele>5.4</ele><time>2026-03-28T13:37:22.975Z</time></trkpt><trkpt lat="16.2420871" lon="-61.3357584"><ele>5.6</ele><time>2026-03-28T13:37:23.973Z</time></trkpt><trkpt lat="16.242079" lon="-61.3358688"><ele>5.8</ele><time>2026-03-28T13:37:24.969Z</time></trkpt><trkpt lat="16.2420641" lon="-61.3359796"><ele>6.0</ele><time>2026-03-28T13:37:26.033Z</time></trkpt><trkpt lat="16.2420538" lon="-61.3360872"><ele>6.0</ele><time>2026-03-28T13:37:27.034Z</time></trkpt><trkpt lat="16.242047" lon="-61.3361802"><ele>6.0</ele><time>2026-03-28T13:37:27.951Z</time></trkpt><trkpt lat="16.2420235" lon="-61.3362667"><ele>6.0</ele><time>2026-03-28T13:37:28.971Z</time></trkpt><trkpt lat="16.2420046" lon="-61.3363494"><ele>6.0</ele><time>2026-03-28T13:37:29.973Z</time></trkpt><trkpt lat="16.2420033" lon="-61.3364363"><ele>6.0</ele><time>2026-03-28T13:37:30.979Z</time></trkpt><trkpt lat="16.242007" lon="-61.3365159"><ele>6.0</ele><time>2026-03-28T13:37:31.987Z</time></trkpt><trkpt lat="16.2420006" lon="-61.3365864"><ele>5.833333333333333</ele><time>2026-03-28T13:37:32.983Z</time></trkpt><trkpt lat="16.2419926" lon="-61.3366635"><ele>5.666666666666667</ele><time>2026-03-28T13:37:33.993Z</time></trkpt><trkpt lat="16.2419879" lon="-61.3367382"><ele>5.5</ele><time>2026-03-28T13:37:34.982Z</time></trkpt><trkpt lat="16.241974" lon="-61.3368495"><ele>5.333333333333334</ele><time>2026-03-28T13:37:36.976Z</time></trkpt><trkpt lat="16.2419771" lon="-61.336948"><ele>5.166666666666667</ele><time>2026-03-28T13:37:38.982Z</time></trkpt><trkpt lat="16.2419804" lon="-61.3370237"><ele>5.0</ele><time>2026-03-28T13:37:42.971Z</time></trkpt><trkpt lat="16.2420121" lon="-61.3371021"><ele>5.0</ele><time>2026-03-28T13:37:45.956Z</time></trkpt><trkpt lat="16.2420789" lon="-61.3371414"><ele>5.0</ele><time>2026-03-28T13:37:47.974Z</time></trkpt><trkpt lat="16.2421399" lon="-61.3371907"><ele>5.0</ele><time>2026-03-28T13:37:49.965Z</time></trkpt><trkpt lat="16.2421769" lon="-61.3372531"><ele>5.0</ele><time>2026-03-28T13:37:51.976Z</time></trkpt><trkpt lat="16.2421765" lon="-61.3373239"><ele>5.0</ele><time>2026-03-28T13:37:54.972Z</time></trkpt><trkpt lat="16.2421485" lon="-61.3374119"><ele>5.0</ele><time>2026-03-28T13:37:58.971Z</time></trkpt><trkpt lat="16.2421543" lon="-61.3374876"><ele>4.333333333333334</ele><time>2026-03-28T13:38:01.966Z</time></trkpt><trkpt lat="16.2421627" lon="-61.3375617"><ele>3.666666666666667</ele><time>2026-03-28T13:38:04.981Z</time></trkpt><trkpt lat="16.2421365" lon="-61.3376355"><ele>3.0</ele><time>2026-03-28T13:38:08.964Z</time></trkpt><trkpt lat="16.2420944" lon="-61.3376865"><ele>2.3333333333333335</ele><time>2026-03-28T13:38:11.975Z</time></trkpt><trkpt lat="16.2420788" lon="-61.3377683"><ele>1.6666666666666665</ele><time>2026-03-28T13:38:14.947Z</time></trkpt><trkpt lat="16.2420889" lon="-61.3378538"><ele>1.0</ele><time>2026-03-28T13:38:19.023Z</time></trkpt><trkpt lat="16.2420966" lon="-61.3379468"><ele>1.0</ele><time>2026-03-28T13:38:20.974Z</time></trkpt><trkpt lat="16.2420954" lon="-61.338014"><ele>0.9999999999999999</ele><time>2026-03-28T13:38:22.97Z</time></trkpt><trkpt lat="16.2420822" lon="-61.3380868"><ele>1.0</ele><time>2026-03-28T13:38:24.963Z</time></trkpt><trkpt lat="16.2420894" lon="-61.3381777"><ele>1.0</ele><time>2026-03-28T13:38:27.956Z</time></trkpt><trkpt lat="16.2421058" lon="-61.3382515"><ele>0.9999999999999999</ele><time>2026-03-28T13:38:31.032Z</time></trkpt><trkpt lat="16.2421172" lon="-61.3383208"><ele>1.0</ele><time>2026-03-28T13:38:34.953Z</time></trkpt><trkpt lat="16.2421074" lon="-61.338388"><ele>1.0</ele><time>2026-03-28T13:38:38.969Z</time></trkpt><trkpt lat="16.2421" lon="-61.3384668"><ele>0.8333333333333333</ele><time>2026-03-28T13:38:41.031Z</time></trkpt><trkpt lat="16.2420678" lon="-61.3385647"><ele>0.6666666666666666</ele><time>2026-03-28T13:38:42.982Z</time></trkpt><trkpt lat="16.2420347" lon="-61.3386307"><ele>0.5</ele><time>2026-03-28T13:38:44.981Z</time></trkpt><trkpt lat="16.2420311" lon="-61.3387199"><ele>0.3333333333333333</ele><time>2026-03-28T13:38:46.963Z</time></trkpt><trkpt lat="16.2420257" lon="-61.3387905"><ele>0.16666666666666666</ele><time>2026-03-28T13:38:47.965Z</time></trkpt><trkpt lat="16.2420094" lon="-61.3388646"><ele>0.0</ele><time>2026-03-28T13:38:48.975Z</time></trkpt><trkpt lat="16.2419903" lon="-61.338935"><ele>0.3333333333333333</ele><time>2026-03-28T13:38:49.975Z</time></trkpt><trkpt lat="16.2419792" lon="-61.3390167"><ele>0.6666666666666666</ele><time>2026-03-28T13:38:50.971Z</time></trkpt><trkpt lat="16.2419649" lon="-61.3391039"><ele>1.0</ele><time>2026-03-28T13:38:51.981Z</time></trkpt><trkpt lat="16.2419536" lon="-61.3391754"><ele>1.3333333333333333</ele><time>2026-03-28T13:38:52.984Z</time></trkpt><trkpt lat="16.2419247" lon="-61.3392702"><ele>1.6666666666666665</ele><time>2026-03-28T13:38:54.975Z</time></trkpt><trkpt lat="16.2419188" lon="-61.339336"><ele>2.0</ele><time>2026-03-28T13:38:57.976Z</time></trkpt><trkpt lat="16.2418472" lon="-61.3393709"><ele>2.0</ele><time>2026-03-28T13:39:18.959Z</time></trkpt><trkpt lat="16.2417363" lon="-61.3393341"><ele>2.0</ele><time>2026-03-28T13:39:20.972Z</time></trkpt><trkpt lat="16.2416118" lon="-61.3393178"><ele>2.0</ele><time>2026-03-28T13:39:22.98Z</time></trkpt><trkpt lat="16.2414917" lon="-61.33935"><ele>2.0</ele><time>2026-03-28T13:39:24.982Z</time></trkpt><trkpt lat="16.2414216" lon="-61.3393718"><ele>2.0</ele><time>2026-03-28T13:39:25.975Z</time></trkpt><trkpt lat="16.2413562" lon="-61.3394014"><ele>2.1666666666666665</ele><time>2026-03-28T13:39:26.98Z</time></trkpt><trkpt lat="16.2412939" lon="-61.3394323"><ele>2.333333333333333</ele><time>2026-03-28T13:39:27.989Z</time></trkpt><trkpt lat="16.2412222" lon="-61.3394853"><ele>2.5</ele><time>2026-03-28T13:39:29.981Z</time></trkpt><trkpt lat="16.2411242" lon="-61.3395038"><ele>2.6666666666666665</ele><time>2026-03-28T13:39:31.978Z</time></trkpt><trkpt lat="16.241038" lon="-61.3395374"><ele>2.8333333333333335</ele><time>2026-03-28T13:39:33.979Z</time></trkpt><trkpt lat="16.2409513" lon="-61.3395809"><ele>3.0</ele><time>2026-03-28T13:39:35.98Z</time></trkpt><trkpt lat="16.2408877" lon="-61.3396124"><ele>3.0</ele><time>2026-03-28T13:39:37.967Z</time></trkpt><trkpt lat="16.2407948" lon="-61.3396196"><ele>3.0</ele><time>2026-03-28T13:39:39.971Z</time></trkpt><trkpt lat="16.2407175" lon="-61.3396473"><ele>3.0</ele><time>2026-03-28T13:39:42Z</time></trkpt><trkpt lat="16.2406567" lon="-61.3396914"><ele>3.0</ele><time>2026-03-28T13:39:43.965Z</time></trkpt><trkpt lat="16.2405951" lon="-61.3397184"><ele>3.0</ele><time>2026-03-28T13:39:45.971Z</time></trkpt><trkpt lat="16.2405238" lon="-61.3397461"><ele>3.0</ele><time>2026-03-28T13:39:48.969Z</time></trkpt><trkpt lat="16.2404572" lon="-61.3397585"><ele>3.4285714285714284</ele><time>2026-03-28T13:39:50.974Z</time></trkpt><trkpt lat="16.2403948" lon="-61.3397815"><ele>3.8571428571428568</ele><time>2026-03-28T13:39:55.986Z</time></trkpt><trkpt lat="16.2403884" lon="-61.3398626"><ele>4.285714285714286</ele><time>2026-03-28T13:39:59.965Z</time></trkpt><trkpt lat="16.2404226" lon="-61.339937"><ele>4.7142857142857135</ele><time>2026-03-28T13:40:04.97Z</time></trkpt><trkpt lat="16.2404777" lon="-61.3399817"><ele>5.142857142857142</ele><time>2026-03-28T13:40:12.981Z</time></trkpt><trkpt lat="16.2405074" lon="-61.3400435"><ele>5.571428571428571</ele><time>2026-03-28T13:40:17.969Z</time></trkpt><trkpt lat="16.2405368" lon="-61.340114"><ele>6.0</ele><time>2026-03-28T13:40:20.977Z</time></trkpt><trkpt lat="16.2405352" lon="-61.3401896"><ele>6.0</ele><time>2026-03-28T13:40:24.967Z</time></trkpt><trkpt lat="16.2405225" lon="-61.3402601"><ele>6.0</ele><time>2026-03-28T13:40:27.979Z</time></trkpt><trkpt lat="16.2405255" lon="-61.3403302"><ele>6.0</ele><time>2026-03-28T13:40:29.973Z</time></trkpt><trkpt lat="16.2405424" lon="-61.340401"><ele>6.0</ele><time>2026-03-28T13:40:31.975Z</time></trkpt><trkpt lat="16.2405662" lon="-61.3404903"><ele>6.0</ele><time>2026-03-28T13:40:34.958Z</time></trkpt><trkpt lat="16.2405971" lon="-61.34056"><ele>6.0</ele><time>2026-03-28T13:40:37.977Z</time></trkpt><trkpt lat="16.2406548" lon="-61.3406418"><ele>6.333333333333333</ele><time>2026-03-28T13:40:40.978Z</time></trkpt><trkpt lat="16.2406784" lon="-61.3407095"><ele>6.666666666666666</ele><time>2026-03-28T13:40:42.972Z</time></trkpt><trkpt lat="16.240724" lon="-61.3408035"><ele>7.0</ele><time>2026-03-28T13:40:45.981Z</time></trkpt><trkpt lat="16.2407743" lon="-61.3408732"><ele>7.333333333333333</ele><time>2026-03-28T13:40:47.981Z</time></trkpt><trkpt lat="16.2408071" lon="-61.3409367"><ele>7.666666666666666</ele><time>2026-03-28T13:40:49.978Z</time></trkpt><trkpt lat="16.2408413" lon="-61.3409926"><ele>8.0</ele><time>2026-03-28T13:40:52.972Z</time></trkpt><trkpt lat="16.240834" lon="-61.3410801"><ele>7.999999999999999</ele><time>2026-03-28T13:40:56.969Z</time></trkpt><trkpt lat="16.2408091" lon="-61.341171"><ele>8.0</ele><time>2026-03-28T13:40:59.97Z</time></trkpt><trkpt lat="16.2407763" lon="-61.3412373"><ele>8.0</ele><time>2026-03-28T13:41:01.968Z</time></trkpt><trkpt lat="16.2407358" lon="-61.3413117"><ele>8.0</ele><time>2026-03-28T13:41:03.983Z</time></trkpt><trkpt lat="16.2407073" lon="-61.3413795"><ele>7.999999999999999</ele><time>2026-03-28T13:41:05.988Z</time></trkpt><trkpt lat="16.2406789" lon="-61.3414458"><ele>8.0</ele><time>2026-03-28T13:41:08.971Z</time></trkpt><trkpt lat="16.2406551" lon="-61.3415194"><ele>8.0</ele><time>2026-03-28T13:41:11.989Z</time></trkpt><trkpt lat="16.2406141" lon="-61.3415886"><ele>7.999999999999999</ele><time>2026-03-28T13:41:15.958Z</time></trkpt><trkpt lat="16.2405926" lon="-61.3416613"><ele>8.0</ele><time>2026-03-28T13:41:18.964Z</time></trkpt><trkpt lat="16.240576" lon="-61.3417469"><ele>8.0</ele><time>2026-03-28T13:41:21.962Z</time></trkpt><trkpt lat="16.2405533" lon="-61.3418174"><ele>7.999999999999999</ele><time>2026-03-28T13:41:23.963Z</time></trkpt><trkpt lat="16.2405696" lon="-61.3418926"><ele>8.0</ele><time>2026-03-28T13:41:26.968Z</time></trkpt><trkpt lat="16.2405653" lon="-61.3419592"><ele>8.0</ele><time>2026-03-28T13:41:28.965Z</time></trkpt><trkpt lat="16.2405712" lon="-61.3420403"><ele>7.999999999999999</ele><time>2026-03-28T13:41:30.964Z</time></trkpt><trkpt lat="16.2406023" lon="-61.342133"><ele>8.0</ele><time>2026-03-28T13:41:33.071Z</time></trkpt><trkpt lat="16.2406241" lon="-61.3422035"><ele>8.0</ele><time>2026-03-28T13:41:34.048Z</time></trkpt><trkpt lat="16.2406436" lon="-61.3422796"><ele>8.0</ele><time>2026-03-28T13:41:34.985Z</time></trkpt><trkpt lat="16.2406757" lon="-61.3423542"><ele>7.999999999999999</ele><time>2026-03-28T13:41:35.981Z</time></trkpt><trkpt lat="16.240703" lon="-61.3424299"><ele>8.0</ele><time>2026-03-28T13:41:36.969Z</time></trkpt><trkpt lat="16.2407307" lon="-61.3425019"><ele>8.5</ele><time>2026-03-28T13:41:37.985Z</time></trkpt><trkpt lat="16.2407423" lon="-61.342572"><ele>9.0</ele><time>2026-03-28T13:41:38.979Z</time></trkpt><trkpt lat="16.2407421" lon="-61.3426438"><ele>9.5</ele><time>2026-03-28T13:41:39.983Z</time></trkpt><trkpt lat="16.2407409" lon="-61.3427114"><ele>10.0</ele><time>2026-03-28T13:41:40.971Z</time></trkpt><trkpt lat="16.2407448" lon="-61.3427849"><ele>10.5</ele><time>2026-03-28T13:41:42.034Z</time></trkpt><trkpt lat="16.2407584" lon="-61.3428496"><ele>11.0</ele><time>2026-03-28T13:41:43.061Z</time></trkpt><trkpt lat="16.2407551" lon="-61.3429747"><ele>11.0</ele><time>2026-03-28T13:41:44.981Z</time></trkpt><trkpt lat="16.2407495" lon="-61.3430448"><ele>11.0</ele><time>2026-03-28T13:41:45.965Z</time></trkpt><trkpt lat="16.2407395" lon="-61.3431139"><ele>11.0</ele><time>2026-03-28T13:41:46.972Z</time></trkpt><trkpt lat="16.2407341" lon="-61.3432313"><ele>11.0</ele><time>2026-03-28T13:41:49.029Z</time></trkpt><trkpt lat="16.2407345" lon="-61.3433332"><ele>11.0</ele><time>2026-03-28T13:41:50.978Z</time></trkpt><trkpt lat="16.2407387" lon="-61.3434005"><ele>11.0</ele><time>2026-03-28T13:41:51.979Z</time></trkpt><trkpt lat="16.2407409" lon="-61.3435383"><ele>11.4</ele><time>2026-03-28T13:41:54.058Z</time></trkpt><trkpt lat="16.2407677" lon="-61.343666"><ele>11.8</ele><time>2026-03-28T13:41:55.98Z</time></trkpt><trkpt lat="16.2407903" lon="-61.3438028"><ele>12.200000000000001</ele><time>2026-03-28T13:41:58.047Z</time></trkpt><trkpt lat="16.240782" lon="-61.3439273"><ele>12.600000000000001</ele><time>2026-03-28T13:41:59.955Z</time></trkpt><trkpt lat="16.2407534" lon="-61.3439897"><ele>13.0</ele><time>2026-03-28T13:42:00.975Z</time></trkpt><trkpt lat="16.2407331" lon="-61.3440689"><ele>14.0</ele><time>2026-03-28T13:42:01.975Z</time></trkpt><trkpt lat="16.2407204" lon="-61.3441781"><ele>15.0</ele><time>2026-03-28T13:42:02.981Z</time></trkpt><trkpt lat="16.2407328" lon="-61.3442884"><ele>16.0</ele><time>2026-03-28T13:42:03.976Z</time></trkpt><trkpt lat="16.2407441" lon="-61.3443903"><ele>17.0</ele><time>2026-03-28T13:42:04.978Z</time></trkpt><trkpt lat="16.2407576" lon="-61.3444739"><ele>18.0</ele><time>2026-03-28T13:42:05.976Z</time></trkpt><trkpt lat="16.2407683" lon="-61.3445491"><ele>18.000000000000004</ele><time>2026-03-28T13:42:06.961Z</time></trkpt><trkpt lat="16.2407941" lon="-61.3446223"><ele>18.0</ele><time>2026-03-28T13:42:07.972Z</time></trkpt><trkpt lat="16.2408146" lon="-61.3446961"><ele>18.0</ele><time>2026-03-28T13:42:08.973Z</time></trkpt><trkpt lat="16.2408294" lon="-61.3447601"><ele>18.0</ele><time>2026-03-28T13:42:09.986Z</time></trkpt><trkpt lat="16.2408317" lon="-61.3448393"><ele>18.0</ele><time>2026-03-28T13:42:10.985Z</time></trkpt><trkpt lat="16.2408232" lon="-61.3449103"><ele>18.000000000000004</ele><time>2026-03-28T13:42:12.015Z</time></trkpt><trkpt lat="16.2408012" lon="-61.3449862"><ele>18.0</ele><time>2026-03-28T13:42:12.985Z</time></trkpt><trkpt lat="16.2407574" lon="-61.3450575"><ele>18.6</ele><time>2026-03-28T13:42:13.977Z</time></trkpt><trkpt lat="16.2407185" lon="-61.3451253"><ele>19.200000000000003</ele><time>2026-03-28T13:42:14.981Z</time></trkpt><trkpt lat="16.2406749" lon="-61.3452064"><ele>19.8</ele><time>2026-03-28T13:42:15.973Z</time></trkpt><trkpt lat="16.2406312" lon="-61.3452948"><ele>20.400000000000002</ele><time>2026-03-28T13:42:16.971Z</time></trkpt><trkpt lat="16.2405811" lon="-61.3453978"><ele>21.0</ele><time>2026-03-28T13:42:17.984Z</time></trkpt><trkpt lat="16.2405268" lon="-61.3455047"><ele>18.2</ele><time>2026-03-28T13:42:18.968Z</time></trkpt><trkpt lat="16.2404818" lon="-61.3455975"><ele>15.400000000000002</ele><time>2026-03-28T13:42:19.968Z</time></trkpt><trkpt lat="16.2404509" lon="-61.3456826"><ele>12.6</ele><time>2026-03-28T13:42:20.973Z</time></trkpt><trkpt lat="16.2404129" lon="-61.3457739"><ele>9.8</ele><time>2026-03-28T13:42:23.074Z</time></trkpt><trkpt lat="16.2403604" lon="-61.3458219"><ele>7.0</ele><time>2026-03-28T13:42:36.974Z</time></trkpt><trkpt lat="16.2402947" lon="-61.3458966"><ele>7.0</ele><time>2026-03-28T13:42:39.957Z</time></trkpt><trkpt lat="16.240239" lon="-61.3459723"><ele>6.999999999999999</ele><time>2026-03-28T13:42:41.96Z</time></trkpt><trkpt lat="16.2402096" lon="-61.34608"><ele>6.999999999999999</ele><time>2026-03-28T13:42:43.978Z</time></trkpt><trkpt lat="16.2401691" lon="-61.3461865"><ele>7.0</ele><time>2026-03-28T13:42:45.98Z</time></trkpt><trkpt lat="16.2401098" lon="-61.3462787"><ele>7.0</ele><time>2026-03-28T13:42:47.968Z</time></trkpt><trkpt lat="16.2400309" lon="-61.3463509"><ele>7.000000000000001</ele><time>2026-03-28T13:42:49.968Z</time></trkpt><trkpt lat="16.2399407" lon="-61.3463822"><ele>7.0</ele><time>2026-03-28T13:42:51.98Z</time></trkpt><trkpt lat="16.2398413" lon="-61.3463606"><ele>7.0</ele><time>2026-03-28T13:42:53.98Z</time></trkpt><trkpt lat="16.2397742" lon="-61.3463505"><ele>7.0</ele><time>2026-03-28T13:42:54.978Z</time></trkpt><trkpt lat="16.2397107" lon="-61.346367"><ele>7.000000000000001</ele><time>2026-03-28T13:42:55.983Z</time></trkpt><trkpt lat="16.239649" lon="-61.3464216"><ele>7.0</ele><time>2026-03-28T13:42:56.974Z</time></trkpt><trkpt lat="16.2395767" lon="-61.3464954"><ele>5.8</ele><time>2026-03-28T13:42:57.979Z</time></trkpt><trkpt lat="16.2394963" lon="-61.3465765"><ele>4.6</ele><time>2026-03-28T13:42:58.976Z</time></trkpt><trkpt lat="16.2394005" lon="-61.3466471"><ele>3.4</ele><time>2026-03-28T13:42:59.992Z</time></trkpt><trkpt lat="16.2393053" lon="-61.3466868"><ele>2.2</ele><time>2026-03-28T13:43:00.971Z</time></trkpt><trkpt lat="16.2392" lon="-61.3467076"><ele>1.0</ele><time>2026-03-28T13:43:01.983Z</time></trkpt><trkpt lat="16.2390983" lon="-61.3467092"><ele>1.0</ele><time>2026-03-28T13:43:02.976Z</time></trkpt><trkpt lat="16.2389973" lon="-61.3466971"><ele>1.0</ele><time>2026-03-28T13:43:04.052Z</time></trkpt><trkpt lat="16.2388948" lon="-61.3466712"><ele>1.0</ele><time>2026-03-28T13:43:05.047Z</time></trkpt><trkpt lat="16.2388068" lon="-61.3466638"><ele>1.0</ele><time>2026-03-28T13:43:05.964Z</time></trkpt><trkpt lat="16.2387225" lon="-61.3466686"><ele>1.0</ele><time>2026-03-28T13:43:06.979Z</time></trkpt><trkpt lat="16.2386434" lon="-61.3466779"><ele>1.1666666666666665</ele><time>2026-03-28T13:43:07.971Z</time></trkpt><trkpt lat="16.2385722" lon="-61.3466914"><ele>1.3333333333333333</ele><time>2026-03-28T13:43:09.052Z</time></trkpt><trkpt lat="16.2384634" lon="-61.3466406"><ele>1.5</ele><time>2026-03-28T13:43:10.973Z</time></trkpt><trkpt lat="16.2384152" lon="-61.3465793"><ele>1.6666666666666665</ele><time>2026-03-28T13:43:11.98Z</time></trkpt><trkpt lat="16.2383679" lon="-61.346506"><ele>1.8333333333333333</ele><time>2026-03-28T13:43:12.978Z</time></trkpt><trkpt lat="16.2383282" lon="-61.3464398"><ele>2.0</ele><time>2026-03-28T13:43:14.06Z</time></trkpt><trkpt lat="16.238287" lon="-61.3463823"><ele>1.8333333333333333</ele><time>2026-03-28T13:43:15.026Z</time></trkpt><trkpt lat="16.2382329" lon="-61.3463407"><ele>1.6666666666666665</ele><time>2026-03-28T13:43:15.989Z</time></trkpt><trkpt lat="16.2381686" lon="-61.3463062"><ele>1.5</ele><time>2026-03-28T13:43:18.027Z</time></trkpt><trkpt lat="16.238117" lon="-61.3462665"><ele>1.3333333333333333</ele><time>2026-03-28T13:43:20.974Z</time></trkpt><trkpt lat="16.2380315" lon="-61.346298"><ele>1.1666666666666665</ele><time>2026-03-28T13:43:23.976Z</time></trkpt><trkpt lat="16.2380066" lon="-61.3463669"><ele>1.0</ele><time>2026-03-28T13:43:24.982Z</time></trkpt><trkpt lat="16.2379621" lon="-61.3464434"><ele>0.8333333333333333</ele><time>2026-03-28T13:43:25.974Z</time></trkpt><trkpt lat="16.2379086" lon="-61.346518"><ele>0.6666666666666666</ele><time>2026-03-28T13:43:26.979Z</time></trkpt><trkpt lat="16.2378687" lon="-61.3465926"><ele>0.5</ele><time>2026-03-28T13:43:27.982Z</time></trkpt><trkpt lat="16.2378326" lon="-61.3466613"><ele>0.3333333333333333</ele><time>2026-03-28T13:43:28.971Z</time></trkpt><trkpt lat="16.2377971" lon="-61.3467307"><ele>0.16666666666666666</ele><time>2026-03-28T13:43:30.03Z</time></trkpt><trkpt lat="16.2377609" lon="-61.3468081"><ele>0.0</ele><time>2026-03-28T13:43:30.982Z</time></trkpt><trkpt lat="16.2377311" lon="-61.3468829"><ele>0.0</ele><time>2026-03-28T13:43:31.981Z</time></trkpt><trkpt lat="16.2377028" lon="-61.3469511"><ele>0.0</ele><time>2026-03-28T13:43:32.957Z</time></trkpt><trkpt lat="16.2376641" lon="-61.347013"><ele>0.0</ele><time>2026-03-28T13:43:33.974Z</time></trkpt><trkpt lat="16.2376239" lon="-61.3470709"><ele>0.0</ele><time>2026-03-28T13:43:34.982Z</time></trkpt><trkpt lat="16.2375646" lon="-61.347172"><ele>0.0</ele><time>2026-03-28T13:43:36.982Z</time></trkpt><trkpt lat="16.2375315" lon="-61.3472378"><ele>0.0</ele><time>2026-03-28T13:43:39.988Z</time></trkpt><trkpt lat="16.2374732" lon="-61.3473278"><ele>0.16666666666666666</ele><time>2026-03-28T13:43:42.97Z</time></trkpt><trkpt lat="16.2374274" lon="-61.3473742"><ele>0.3333333333333333</ele><time>2026-03-28T13:43:44.035Z</time></trkpt><trkpt lat="16.2374111" lon="-61.347448"><ele>0.5</ele><time>2026-03-28T13:43:45.043Z</time></trkpt><trkpt lat="16.2373776" lon="-61.3475382"><ele>0.6666666666666666</ele><time>2026-03-28T13:43:46.978Z</time></trkpt><trkpt lat="16.2373771" lon="-61.3476442"><ele>0.8333333333333333</ele><time>2026-03-28T13:43:48.974Z</time></trkpt><trkpt lat="16.2373809" lon="-61.3477109"><ele>1.0</ele><time>2026-03-28T13:43:49.971Z</time></trkpt><trkpt lat="16.2373849" lon="-61.3478386"><ele>0.9999999999999999</ele><time>2026-03-28T13:43:51.946Z</time></trkpt><trkpt lat="16.2373942" lon="-61.3479148"><ele>1.0</ele><time>2026-03-28T13:43:52.981Z</time></trkpt><trkpt lat="16.2373915" lon="-61.347993"><ele>1.0</ele><time>2026-03-28T13:43:53.98Z</time></trkpt><trkpt lat="16.2373718" lon="-61.3480732"><ele>1.0</ele><time>2026-03-28T13:43:55.058Z</time></trkpt><trkpt lat="16.2373489" lon="-61.3481583"><ele>0.9999999999999999</ele><time>2026-03-28T13:43:55.973Z</time></trkpt><trkpt lat="16.2373205" lon="-61.3482613"><ele>1.0</ele><time>2026-03-28T13:43:56.98Z</time></trkpt><trkpt lat="16.2372867" lon="-61.348374"><ele>0.75</ele><time>2026-03-28T13:43:57.956Z</time></trkpt><trkpt lat="16.2372536" lon="-61.3484965"><ele>0.5</ele><time>2026-03-28T13:43:59.032Z</time></trkpt><trkpt lat="16.2372199" lon="-61.3486095"><ele>0.25</ele><time>2026-03-28T13:44:00.036Z</time></trkpt><trkpt lat="16.2371723" lon="-61.348728"><ele>0.0</ele><time>2026-03-28T13:44:00.975Z</time></trkpt><trkpt lat="16.2371358" lon="-61.348848"><ele>0.25</ele><time>2026-03-28T13:44:01.971Z</time></trkpt><trkpt lat="16.237092" lon="-61.3489604"><ele>0.5</ele><time>2026-03-28T13:44:02.98Z</time></trkpt><trkpt lat="16.2370445" lon="-61.3490642"><ele>0.75</ele><time>2026-03-28T13:44:04.044Z</time></trkpt><trkpt lat="16.2370008" lon="-61.349174"><ele>1.0</ele><time>2026-03-28T13:44:05.052Z</time></trkpt><trkpt lat="16.2369642" lon="-61.3492942"><ele>1.0</ele><time>2026-03-28T13:44:05.984Z</time></trkpt><trkpt lat="16.2369267" lon="-61.3494092"><ele>1.0</ele><time>2026-03-28T13:44:06.987Z</time></trkpt><trkpt lat="16.2368785" lon="-61.3495203"><ele>1.0</ele><time>2026-03-28T13:44:07.993Z</time></trkpt><trkpt lat="16.2368356" lon="-61.3496228"><ele>1.0</ele><time>2026-03-28T13:44:09.061Z</time></trkpt><trkpt lat="16.2368188" lon="-61.3497466"><ele>1.75</ele><time>2026-03-28T13:44:10.047Z</time></trkpt><trkpt lat="16.2368094" lon="-61.3498734"><ele>2.5</ele><time>2026-03-28T13:44:10.974Z</time></trkpt><trkpt lat="16.2368004" lon="-61.3499931"><ele>3.25</ele><time>2026-03-28T13:44:11.977Z</time></trkpt><trkpt lat="16.2367837" lon="-61.3501117"><ele>4.0</ele><time>2026-03-28T13:44:12.957Z</time></trkpt><trkpt lat="16.2367562" lon="-61.3502289"><ele>4.0</ele><time>2026-03-28T13:44:14.06Z</time></trkpt><trkpt lat="16.2367262" lon="-61.3503579"><ele>4.0</ele><time>2026-03-28T13:44:15.036Z</time></trkpt><trkpt lat="16.2366967" lon="-61.35048"><ele>4.0</ele><time>2026-03-28T13:44:15.972Z</time></trkpt><trkpt lat="16.2366585" lon="-61.350596"><ele>4.0</ele><time>2026-03-28T13:44:16.968Z</time></trkpt><trkpt lat="16.2366277" lon="-61.3507103"><ele>3.8000000000000003</ele><time>2026-03-28T13:44:17.976Z</time></trkpt><trkpt lat="16.2365967" lon="-61.3508262"><ele>3.6000000000000005</ele><time>2026-03-28T13:44:18.974Z</time></trkpt><trkpt lat="16.2365657" lon="-61.3509353"><ele>3.4</ele><time>2026-03-28T13:44:19.95Z</time></trkpt><trkpt lat="16.2365256" lon="-61.3510377"><ele>3.2</ele><time>2026-03-28T13:44:20.969Z</time></trkpt><trkpt lat="16.2364866" lon="-61.3511457"><ele>3.0</ele><time>2026-03-28T13:44:21.969Z</time></trkpt><trkpt lat="16.2364569" lon="-61.351239"><ele>2.6666666666666665</ele><time>2026-03-28T13:44:22.971Z</time></trkpt><trkpt lat="16.2364549" lon="-61.3513304"><ele>2.3333333333333335</ele><time>2026-03-28T13:44:24.028Z</time></trkpt><trkpt lat="16.2364753" lon="-61.3513984"><ele>2.0</ele><time>2026-03-28T13:44:24.997Z</time></trkpt><trkpt lat="16.23653" lon="-61.3514609"><ele>1.6666666666666665</ele><time>2026-03-28T13:44:25.983Z</time></trkpt><trkpt lat="16.236623" lon="-61.3515087"><ele>1.3333333333333333</ele><time>2026-03-28T13:44:27.049Z</time></trkpt><trkpt lat="16.2367129" lon="-61.3515538"><ele>1.0</ele><time>2026-03-28T13:44:27.98Z</time></trkpt><trkpt lat="16.2367912" lon="-61.3516182"><ele>1.0</ele><time>2026-03-28T13:44:28.978Z</time></trkpt><trkpt lat="16.2368466" lon="-61.3517002"><ele>1.0</ele><time>2026-03-28T13:44:29.976Z</time></trkpt><trkpt lat="16.2368669" lon="-61.3518163"><ele>1.0</ele><time>2026-03-28T13:44:30.982Z</time></trkpt><trkpt lat="16.236871" lon="-61.3519313"><ele>1.0</ele><time>2026-03-28T13:44:31.979Z</time></trkpt><trkpt lat="16.2368696" lon="-61.3520328"><ele>1.0</ele><time>2026-03-28T13:44:33.045Z</time></trkpt><trkpt lat="16.2368544" lon="-61.3521122"><ele>1.0</ele><time>2026-03-28T13:44:33.981Z</time></trkpt><trkpt lat="16.2367688" lon="-61.3522089"><ele>1.0</ele><time>2026-03-28T13:44:35.982Z</time></trkpt><trkpt lat="16.2366725" lon="-61.3522252"><ele>1.0</ele><time>2026-03-28T13:44:36.984Z</time></trkpt><trkpt lat="16.2365824" lon="-61.3522345"><ele>1.0</ele><time>2026-03-28T13:44:37.966Z</time></trkpt><trkpt lat="16.2365039" lon="-61.3522528"><ele>1.0</ele><time>2026-03-28T13:44:38.948Z</time></trkpt><trkpt lat="16.2364449" lon="-61.3522796"><ele>1.0</ele><time>2026-03-28T13:44:39.976Z</time></trkpt><trkpt lat="16.2364001" lon="-61.3523836"><ele>1.0</ele><time>2026-03-28T13:44:41.968Z</time></trkpt><trkpt lat="16.2363745" lon="-61.352469"><ele>1.0</ele><time>2026-03-28T13:44:42.972Z</time></trkpt><trkpt lat="16.2363444" lon="-61.3525687"><ele>1.0</ele><time>2026-03-28T13:44:43.977Z</time></trkpt><trkpt lat="16.2363205" lon="-61.3526818"><ele>1.0</ele><time>2026-03-28T13:44:44.97Z</time></trkpt><trkpt lat="16.2363023" lon="-61.3527929"><ele>1.0</ele><time>2026-03-28T13:44:45.975Z</time></trkpt><trkpt lat="16.2362865" lon="-61.352908"><ele>1.0</ele><time>2026-03-28T13:44:46.972Z</time></trkpt><trkpt lat="16.2362683" lon="-61.3530186"><ele>1.0</ele><time>2026-03-28T13:44:47.975Z</time></trkpt><trkpt lat="16.236249" lon="-61.3531378"><ele>1.0</ele><time>2026-03-28T13:44:48.982Z</time></trkpt><trkpt lat="16.2362241" lon="-61.3532544"><ele>1.2000000000000002</ele><time>2026-03-28T13:44:49.976Z</time></trkpt><trkpt lat="16.2362052" lon="-61.3533678"><ele>1.4000000000000001</ele><time>2026-03-28T13:44:50.974Z</time></trkpt><trkpt lat="16.23621" lon="-61.3534804"><ele>1.6</ele><time>2026-03-28T13:44:51.974Z</time></trkpt><trkpt lat="16.2362238" lon="-61.3536001"><ele>1.8</ele><time>2026-03-28T13:44:52.98Z</time></trkpt><trkpt lat="16.2362362" lon="-61.3537158"><ele>2.0</ele><time>2026-03-28T13:44:53.98Z</time></trkpt><trkpt lat="16.2362712" lon="-61.3538158"><ele>1.8</ele><time>2026-03-28T13:44:54.982Z</time></trkpt><trkpt lat="16.2363186" lon="-61.3539012"><ele>1.6</ele><time>2026-03-28T13:44:55.985Z</time></trkpt><trkpt lat="16.2363828" lon="-61.3539771"><ele>1.4000000000000001</ele><time>2026-03-28T13:44:56.976Z</time></trkpt><trkpt lat="16.2364597" lon="-61.3540438"><ele>1.2000000000000002</ele><time>2026-03-28T13:44:57.977Z</time></trkpt><trkpt lat="16.2365536" lon="-61.3540952"><ele>1.0</ele><time>2026-03-28T13:44:58.99Z</time></trkpt><trkpt lat="16.2366527" lon="-61.354138"><ele>2.25</ele><time>2026-03-28T13:44:59.987Z</time></trkpt><trkpt lat="16.2367674" lon="-61.3541714"><ele>3.5</ele><time>2026-03-28T13:45:00.985Z</time></trkpt><trkpt lat="16.2368824" lon="-61.354208"><ele>4.75</ele><time>2026-03-28T13:45:01.979Z</time></trkpt><trkpt lat="16.2369949" lon="-61.3542428"><ele>6.0</ele><time>2026-03-28T13:45:02.979Z</time></trkpt><trkpt lat="16.2371041" lon="-61.3542875"><ele>6.0</ele><time>2026-03-28T13:45:03.976Z</time></trkpt><trkpt lat="16.2372093" lon="-61.3543424"><ele>6.0</ele><time>2026-03-28T13:45:04.974Z</time></trkpt><trkpt lat="16.2373041" lon="-61.3544049"><ele>6.0</ele><time>2026-03-28T13:45:05.981Z</time></trkpt><trkpt lat="16.237382" lon="-61.3544669"><ele>6.0</ele><time>2026-03-28T13:45:06.98Z</time></trkpt><trkpt lat="16.2374444" lon="-61.3545353"><ele>6.0</ele><time>2026-03-28T13:45:07.985Z</time></trkpt><trkpt lat="16.2375049" lon="-61.354595"><ele>6.166666666666667</ele><time>2026-03-28T13:45:08.952Z</time></trkpt><trkpt lat="16.2375557" lon="-61.3546535"><ele>6.333333333333334</ele><time>2026-03-28T13:45:09.985Z</time></trkpt><trkpt lat="16.2375871" lon="-61.3547122"><ele>6.5</ele><time>2026-03-28T13:45:10.97Z</time></trkpt><trkpt lat="16.2375634" lon="-61.3548186"><ele>6.666666666666667</ele><time>2026-03-28T13:45:12.977Z</time></trkpt><trkpt lat="16.2375133" lon="-61.3549045"><ele>6.833333333333334</ele><time>2026-03-28T13:45:13.981Z</time></trkpt><trkpt lat="16.2374635" lon="-61.3549899"><ele>7.0</ele><time>2026-03-28T13:45:14.975Z</time></trkpt><trkpt lat="16.2374098" lon="-61.3550756"><ele>7.0</ele><time>2026-03-28T13:45:15.983Z</time></trkpt><trkpt lat="16.237338" lon="-61.3551672"><ele>7.0</ele><time>2026-03-28T13:45:16.976Z</time></trkpt><trkpt lat="16.23726" lon="-61.3552711"><ele>7.0</ele><time>2026-03-28T13:45:17.976Z</time></trkpt><trkpt lat="16.2371945" lon="-61.3553782"><ele>7.0</ele><time>2026-03-28T13:45:18.965Z</time></trkpt><trkpt lat="16.2371341" lon="-61.3554925"><ele>6.25</ele><time>2026-03-28T13:45:19.981Z</time></trkpt><trkpt lat="16.2370713" lon="-61.3555989"><ele>5.5</ele><time>2026-03-28T13:45:20.974Z</time></trkpt><trkpt lat="16.2370149" lon="-61.3557075"><ele>4.75</ele><time>2026-03-28T13:45:21.969Z</time></trkpt><trkpt lat="16.2369631" lon="-61.3558178"><ele>4.0</ele><time>2026-03-28T13:45:22.977Z</time></trkpt><trkpt lat="16.2369183" lon="-61.3559263"><ele>4.0</ele><time>2026-03-28T13:45:23.944Z</time></trkpt><trkpt lat="16.2368775" lon="-61.3560374"><ele>4.0</ele><time>2026-03-28T13:45:24.965Z</time></trkpt><trkpt lat="16.2368451" lon="-61.356158"><ele>4.0</ele><time>2026-03-28T13:45:25.97Z</time></trkpt><trkpt lat="16.2368218" lon="-61.3562833"><ele>4.0</ele><time>2026-03-28T13:45:26.972Z</time></trkpt><trkpt lat="16.2368123" lon="-61.3564085"><ele>4.25</ele><time>2026-03-28T13:45:27.969Z</time></trkpt><trkpt lat="16.2368276" lon="-61.3565212"><ele>4.5</ele><time>2026-03-28T13:45:28.98Z</time></trkpt><trkpt lat="16.2368648" lon="-61.3566374"><ele>4.75</ele><time>2026-03-28T13:45:29.977Z</time></trkpt><trkpt lat="16.236904" lon="-61.3567472"><ele>5.0</ele><time>2026-03-28T13:45:30.978Z</time></trkpt><trkpt lat="16.2369441" lon="-61.3568597"><ele>5.0</ele><time>2026-03-28T13:45:31.969Z</time></trkpt><trkpt lat="16.2369736" lon="-61.3569783"><ele>5.0</ele><time>2026-03-28T13:45:32.971Z</time></trkpt><trkpt lat="16.2369863" lon="-61.3571063"><ele>5.0</ele><time>2026-03-28T13:45:33.976Z</time></trkpt><trkpt lat="16.2369831" lon="-61.3572275"><ele>5.0</ele><time>2026-03-28T13:45:34.98Z</time></trkpt><trkpt lat="16.2369623" lon="-61.3573557"><ele>5.0</ele><time>2026-03-28T13:45:35.982Z</time></trkpt><trkpt lat="16.2369275" lon="-61.3574805"><ele>5.0</ele><time>2026-03-28T13:45:36.979Z</time></trkpt><trkpt lat="16.2368959" lon="-61.3576036"><ele>5.0</ele><time>2026-03-28T13:45:37.97Z</time></trkpt><trkpt lat="16.2368578" lon="-61.3577258"><ele>5.0</ele><time>2026-03-28T13:45:38.984Z</time></trkpt><trkpt lat="16.2368138" lon="-61.3578426"><ele>5.0</ele><time>2026-03-28T13:45:39.979Z</time></trkpt><trkpt lat="16.2367657" lon="-61.35796"><ele>5.0</ele><time>2026-03-28T13:45:40.978Z</time></trkpt><trkpt lat="16.236727" lon="-61.3580749"><ele>5.0</ele><time>2026-03-28T13:45:41.982Z</time></trkpt><trkpt lat="16.2366824" lon="-61.3581906"><ele>5.0</ele><time>2026-03-28T13:45:42.983Z</time></trkpt><trkpt lat="16.2366386" lon="-61.3583109"><ele>5.333333333333334</ele><time>2026-03-28T13:45:44.087Z</time></trkpt><trkpt lat="16.2365465" lon="-61.3585438"><ele>5.666666666666667</ele><time>2026-03-28T13:45:45.977Z</time></trkpt><trkpt lat="16.236498" lon="-61.3586564"><ele>6.0</ele><time>2026-03-28T13:45:46.981Z</time></trkpt><trkpt lat="16.2364485" lon="-61.3587653"><ele>5.5</ele><time>2026-03-28T13:45:48.056Z</time></trkpt><trkpt lat="16.2364108" lon="-61.3588781"><ele>5.0</ele><time>2026-03-28T13:45:49.038Z</time></trkpt><trkpt lat="16.2363922" lon="-61.3590018"><ele>4.5</ele><time>2026-03-28T13:45:49.96Z</time></trkpt><trkpt lat="16.2363945" lon="-61.3591276"><ele>4.0</ele><time>2026-03-28T13:45:50.981Z</time></trkpt><trkpt lat="16.2364045" lon="-61.35925"><ele>4.0</ele><time>2026-03-28T13:45:51.986Z</time></trkpt><trkpt lat="16.2364233" lon="-61.359363"><ele>4.0</ele><time>2026-03-28T13:45:52.988Z</time></trkpt><trkpt lat="16.2364504" lon="-61.359479"><ele>4.0</ele><time>2026-03-28T13:45:54.034Z</time></trkpt><trkpt lat="16.2364855" lon="-61.3595938"><ele>4.0</ele><time>2026-03-28T13:45:54.977Z</time></trkpt><trkpt lat="16.2365248" lon="-61.359708"><ele>4.6</ele><time>2026-03-28T13:45:55.966Z</time></trkpt><trkpt lat="16.2365636" lon="-61.3598177"><ele>5.2</ele><time>2026-03-28T13:45:56.991Z</time></trkpt><trkpt lat="16.2366114" lon="-61.3599243"><ele>5.799999999999999</ele><time>2026-03-28T13:45:58.029Z</time></trkpt><trkpt lat="16.236647" lon="-61.3600261"><ele>6.3999999999999995</ele><time>2026-03-28T13:45:58.992Z</time></trkpt><trkpt lat="16.2366773" lon="-61.3601312"><ele>7.0</ele><time>2026-03-28T13:45:59.977Z</time></trkpt><trkpt lat="16.2367011" lon="-61.3602168"><ele>7.000000000000001</ele><time>2026-03-28T13:46:00.99Z</time></trkpt><trkpt lat="16.2367305" lon="-61.3602866"><ele>7.0</ele><time>2026-03-28T13:46:01.979Z</time></trkpt><trkpt lat="16.2367803" lon="-61.3603475"><ele>7.0</ele><time>2026-03-28T13:46:04.061Z</time></trkpt><trkpt lat="16.2368589" lon="-61.3603015"><ele>7.0</ele><time>2026-03-28T13:46:05.969Z</time></trkpt><trkpt lat="16.2369083" lon="-61.3602437"><ele>7.000000000000001</ele><time>2026-03-28T13:46:06.972Z</time></trkpt><trkpt lat="16.2369663" lon="-61.360167"><ele>7.0</ele><time>2026-03-28T13:46:08.057Z</time></trkpt><trkpt lat="16.2370306" lon="-61.3600813"><ele>7.0</ele><time>2026-03-28T13:46:09.048Z</time></trkpt><trkpt lat="16.2370946" lon="-61.3600125"><ele>6.999999999999999</ele><time>2026-03-28T13:46:10.077Z</time></trkpt><trkpt lat="16.2371552" lon="-61.3599671"><ele>6.999999999999999</ele><time>2026-03-28T13:46:10.98Z</time></trkpt><trkpt lat="16.2372332" lon="-61.3599089"><ele>7.0</ele><time>2026-03-28T13:46:12.972Z</time></trkpt><trkpt lat="16.2373193" lon="-61.3598559"><ele>7.0</ele><time>2026-03-28T13:46:15.976Z</time></trkpt><trkpt lat="16.2373732" lon="-61.3597573"><ele>7.714285714285714</ele><time>2026-03-28T13:46:18.045Z</time></trkpt><trkpt lat="16.2373954" lon="-61.3596859"><ele>8.428571428571429</ele><time>2026-03-28T13:46:19.038Z</time></trkpt><trkpt lat="16.2374216" lon="-61.3596122"><ele>9.142857142857142</ele><time>2026-03-28T13:46:19.988Z</time></trkpt><trkpt lat="16.2374482" lon="-61.3595325"><ele>9.857142857142858</ele><time>2026-03-28T13:46:20.987Z</time></trkpt><trkpt lat="16.2374713" lon="-61.3594608"><ele>10.571428571428571</ele><time>2026-03-28T13:46:21.991Z</time></trkpt><trkpt lat="16.2374929" lon="-61.3593868"><ele>11.285714285714285</ele><time>2026-03-28T13:46:23.068Z</time></trkpt><trkpt lat="16.2375055" lon="-61.3593209"><ele>12.0</ele><time>2026-03-28T13:46:23.978Z</time></trkpt><trkpt lat="16.2375258" lon="-61.3592517"><ele>12.0</ele><time>2026-03-28T13:46:25.06Z</time></trkpt><trkpt lat="16.2375516" lon="-61.3591747"><ele>12.0</ele><time>2026-03-28T13:46:25.979Z</time></trkpt><trkpt lat="16.2375817" lon="-61.3591059"><ele>12.0</ele><time>2026-03-28T13:46:26.975Z</time></trkpt><trkpt lat="16.2376299" lon="-61.3590058"><ele>12.0</ele><time>2026-03-28T13:46:29.036Z</time></trkpt><trkpt lat="16.2376881" lon="-61.3589511"><ele>12.0</ele><time>2026-03-28T13:46:30.983Z</time></trkpt><trkpt lat="16.2377769" lon="-61.3589342"><ele>12.0</ele><time>2026-03-28T13:46:32.977Z</time></trkpt><trkpt lat="16.2378967" lon="-61.3589406"><ele>12.0</ele><time>2026-03-28T13:46:35.031Z</time></trkpt><trkpt lat="16.2380226" lon="-61.3589707"><ele>12.0</ele><time>2026-03-28T13:46:36.985Z</time></trkpt><trkpt lat="16.2380972" lon="-61.3589982"><ele>12.0</ele><time>2026-03-28T13:46:37.951Z</time></trkpt><trkpt lat="16.2381892" lon="-61.359024"><ele>12.0</ele><time>2026-03-28T13:46:38.976Z</time></trkpt><trkpt lat="16.2382756" lon="-61.3590374"><ele>12.0</ele><time>2026-03-28T13:46:39.973Z</time></trkpt><trkpt lat="16.2383541" lon="-61.3590497"><ele>13.0</ele><time>2026-03-28T13:46:40.981Z</time></trkpt><trkpt lat="16.23844" lon="-61.3590737"><ele>14.0</ele><time>2026-03-28T13:46:41.979Z</time></trkpt><trkpt lat="16.2385306" lon="-61.3591017"><ele>15.0</ele><time>2026-03-28T13:46:43.045Z</time></trkpt><trkpt lat="16.238628" lon="-61.3591327"><ele>16.0</ele><time>2026-03-28T13:46:44.041Z</time></trkpt><trkpt lat="16.2387334" lon="-61.3591605"><ele>17.0</ele><time>2026-03-28T13:46:45.034Z</time></trkpt><trkpt lat="16.2388449" lon="-61.3591844"><ele>17.0</ele><time>2026-03-28T13:46:45.966Z</time></trkpt><trkpt lat="16.2389618" lon="-61.3592134"><ele>17.0</ele><time>2026-03-28T13:46:46.98Z</time></trkpt><trkpt lat="16.2390738" lon="-61.3592472"><ele>17.0</ele><time>2026-03-28T13:46:47.979Z</time></trkpt><trkpt lat="16.239186" lon="-61.3592836"><ele>17.0</ele><time>2026-03-28T13:46:48.983Z</time></trkpt><trkpt lat="16.2392808" lon="-61.3593169"><ele>18.333333333333336</ele><time>2026-03-28T13:46:49.979Z</time></trkpt><trkpt lat="16.2393543" lon="-61.3593269"><ele>19.666666666666668</ele><time>2026-03-28T13:46:50.972Z</time></trkpt><trkpt lat="16.2394276" lon="-61.3593431"><ele>21.0</ele><time>2026-03-28T13:46:51.973Z</time></trkpt><trkpt lat="16.2394958" lon="-61.3593522"><ele>22.333333333333336</ele><time>2026-03-28T13:46:52.978Z</time></trkpt><trkpt lat="16.2395945" lon="-61.3593533"><ele>23.666666666666668</ele><time>2026-03-28T13:46:54.992Z</time></trkpt><trkpt lat="16.2396615" lon="-61.3592627"><ele>25.0</ele><time>2026-03-28T13:46:56.976Z</time></trkpt><trkpt lat="16.2396849" lon="-61.3591861"><ele>25.0</ele><time>2026-03-28T13:46:57.971Z</time></trkpt><trkpt lat="16.239698" lon="-61.3591058"><ele>25.0</ele><time>2026-03-28T13:46:58.976Z</time></trkpt><trkpt lat="16.2397085" lon="-61.3589934"><ele>25.0</ele><time>2026-03-28T13:47:00.977Z</time></trkpt><trkpt lat="16.2397228" lon="-61.3589268"><ele>25.0</ele><time>2026-03-28T13:47:02.978Z</time></trkpt><trkpt lat="16.2397366" lon="-61.35884"><ele>25.0</ele><time>2026-03-28T13:47:14.982Z</time></trkpt><trkpt lat="16.2397763" lon="-61.3587115"><ele>25.333333333333336</ele><time>2026-03-28T13:47:16.984Z</time></trkpt><trkpt lat="16.2398069" lon="-61.3586268"><ele>25.666666666666668</ele><time>2026-03-28T13:47:18.981Z</time></trkpt><trkpt lat="16.2398112" lon="-61.3585021"><ele>26.0</ele><time>2026-03-28T13:47:21.976Z</time></trkpt><trkpt lat="16.2398274" lon="-61.3584195"><ele>26.333333333333336</ele><time>2026-03-28T13:47:22.983Z</time></trkpt><trkpt lat="16.2398324" lon="-61.358332"><ele>26.666666666666668</ele><time>2026-03-28T13:47:23.983Z</time></trkpt><trkpt lat="16.2398401" lon="-61.358255"><ele>27.0</ele><time>2026-03-28T13:47:25.06Z</time></trkpt><trkpt lat="16.2398498" lon="-61.3581703"><ele>27.0</ele><time>2026-03-28T13:47:25.983Z</time></trkpt><trkpt lat="16.239876" lon="-61.3580767"><ele>27.000000000000004</ele><time>2026-03-28T13:47:26.961Z</time></trkpt><trkpt lat="16.2398944" lon="-61.358004"><ele>27.000000000000004</ele><time>2026-03-28T13:47:27.95Z</time></trkpt><trkpt lat="16.2399166" lon="-61.3578968"><ele>27.0</ele><time>2026-03-28T13:47:29.978Z</time></trkpt><trkpt lat="16.2399482" lon="-61.3577787"><ele>27.0</ele><time>2026-03-28T13:47:32.049Z</time></trkpt><trkpt lat="16.2399874" lon="-61.3576704"><ele>26.400000000000002</ele><time>2026-03-28T13:47:34.042Z</time></trkpt><trkpt lat="16.240032" lon="-61.357547"><ele>25.800000000000004</ele><time>2026-03-28T13:47:36.002Z</time></trkpt><trkpt lat="16.2400543" lon="-61.3574722"><ele>25.2</ele><time>2026-03-28T13:47:36.978Z</time></trkpt><trkpt lat="16.2400769" lon="-61.3573997"><ele>24.6</ele><time>2026-03-28T13:47:37.975Z</time></trkpt><trkpt lat="16.2400902" lon="-61.3573321"><ele>24.0</ele><time>2026-03-28T13:47:38.973Z</time></trkpt><trkpt lat="16.2401045" lon="-61.3572195"><ele>23.833333333333332</ele><time>2026-03-28T13:47:40.984Z</time></trkpt><trkpt lat="16.2401094" lon="-61.3571274"><ele>23.666666666666668</ele><time>2026-03-28T13:47:43.039Z</time></trkpt><trkpt lat="16.240129" lon="-61.3570575"><ele>23.5</ele><time>2026-03-28T13:47:44.983Z</time></trkpt><trkpt lat="16.2401754" lon="-61.3569945"><ele>23.333333333333336</ele><time>2026-03-28T13:47:47.042Z</time></trkpt><trkpt lat="16.2402285" lon="-61.3568837"><ele>23.166666666666668</ele><time>2026-03-28T13:47:49.056Z</time></trkpt><trkpt lat="16.2402401" lon="-61.3567919"><ele>23.0</ele><time>2026-03-28T13:47:49.96Z</time></trkpt><trkpt lat="16.2402429" lon="-61.3566881"><ele>23.0</ele><time>2026-03-28T13:47:50.975Z</time></trkpt><trkpt lat="16.2402294" lon="-61.3565879"><ele>23.0</ele><time>2026-03-28T13:47:51.981Z</time></trkpt><trkpt lat="16.2402191" lon="-61.3564995"><ele>23.0</ele><time>2026-03-28T13:47:52.974Z</time></trkpt><trkpt lat="16.2402215" lon="-61.3564106"><ele>23.0</ele><time>2026-03-28T13:47:53.98Z</time></trkpt><trkpt lat="16.2402373" lon="-61.3563097"><ele>23.0</ele><time>2026-03-28T13:47:54.967Z</time></trkpt><trkpt lat="16.2402619" lon="-61.3562113"><ele>23.5</ele><time>2026-03-28T13:47:55.983Z</time></trkpt><trkpt lat="16.2402976" lon="-61.3561021"><ele>24.0</ele><time>2026-03-28T13:47:57.045Z</time></trkpt><trkpt lat="16.2403307" lon="-61.3559865"><ele>24.5</ele><time>2026-03-28T13:47:58.035Z</time></trkpt><trkpt lat="16.2403589" lon="-61.3558696"><ele>25.0</ele><time>2026-03-28T13:47:58.98Z</time></trkpt><trkpt lat="16.2403834" lon="-61.355756"><ele>25.0</ele><time>2026-03-28T13:47:59.978Z</time></trkpt><trkpt lat="16.240405" lon="-61.3556452"><ele>25.0</ele><time>2026-03-28T13:48:00.986Z</time></trkpt><trkpt lat="16.2404314" lon="-61.3555318"><ele>25.0</ele><time>2026-03-28T13:48:01.979Z</time></trkpt><trkpt lat="16.2404431" lon="-61.3554245"><ele>25.0</ele><time>2026-03-28T13:48:02.963Z</time></trkpt><trkpt lat="16.2404483" lon="-61.3553198"><ele>25.0</ele><time>2026-03-28T13:48:03.98Z</time></trkpt><trkpt lat="16.2404387" lon="-61.3552114"><ele>25.0</ele><time>2026-03-28T13:48:05.063Z</time></trkpt><trkpt lat="16.2404284" lon="-61.3551"><ele>25.0</ele><time>2026-03-28T13:48:05.989Z</time></trkpt><trkpt lat="16.2404152" lon="-61.3549894"><ele>25.0</ele><time>2026-03-28T13:48:06.999Z</time></trkpt><trkpt lat="16.240411" lon="-61.3548747"><ele>25.0</ele><time>2026-03-28T13:48:07.992Z</time></trkpt><trkpt lat="16.240414" lon="-61.3547666"><ele>25.0</ele><time>2026-03-28T13:48:08.986Z</time></trkpt><trkpt lat="16.2404272" lon="-61.354654"><ele>25.0</ele><time>2026-03-28T13:48:09.995Z</time></trkpt><trkpt lat="16.2404433" lon="-61.3545494"><ele>25.0</ele><time>2026-03-28T13:48:10.994Z</time></trkpt><trkpt lat="16.240462" lon="-61.3544469"><ele>25.0</ele><time>2026-03-28T13:48:11.99Z</time></trkpt><trkpt lat="16.2404812" lon="-61.3543455"><ele>25.0</ele><time>2026-03-28T13:48:13.035Z</time></trkpt><trkpt lat="16.2405067" lon="-61.3542413"><ele>25.0</ele><time>2026-03-28T13:48:14.029Z</time></trkpt><trkpt lat="16.2405319" lon="-61.3541481"><ele>25.0</ele><time>2026-03-28T13:48:15.043Z</time></trkpt><trkpt lat="16.2405497" lon="-61.3540674"><ele>25.0</ele><time>2026-03-28T13:48:15.984Z</time></trkpt><trkpt lat="16.2405569" lon="-61.3539463"><ele>25.0</ele><time>2026-03-28T13:48:17.98Z</time></trkpt><trkpt lat="16.2405406" lon="-61.3538234"><ele>25.0</ele><time>2026-03-28T13:48:19.986Z</time></trkpt><trkpt lat="16.2405309" lon="-61.3536963"><ele>25.0</ele><time>2026-03-28T13:48:21.992Z</time></trkpt><trkpt lat="16.2405331" lon="-61.3536289"><ele>24.500000000000004</ele><time>2026-03-28T13:48:22.978Z</time></trkpt><trkpt lat="16.2405323" lon="-61.3535146"><ele>24.0</ele><time>2026-03-28T13:48:24.987Z</time></trkpt><trkpt lat="16.2405492" lon="-61.3534419"><ele>23.5</ele><time>2026-03-28T13:48:26.984Z</time></trkpt><trkpt lat="16.2405885" lon="-61.3533718"><ele>23.0</ele><time>2026-03-28T13:48:30.966Z</time></trkpt><trkpt lat="16.2406612" lon="-61.3533379"><ele>22.5</ele><time>2026-03-28T13:48:33.973Z</time></trkpt><trkpt lat="16.2407168" lon="-61.3532758"><ele>22.0</ele><time>2026-03-28T13:48:36.969Z</time></trkpt><trkpt lat="16.240708" lon="-61.3532005"><ele>22.0</ele><time>2026-03-28T13:48:39.048Z</time></trkpt><trkpt lat="16.2406594" lon="-61.3531029"><ele>22.0</ele><time>2026-03-28T13:48:40.974Z</time></trkpt><trkpt lat="16.2405867" lon="-61.3530573"><ele>22.0</ele><time>2026-03-28T13:48:42.965Z</time></trkpt><trkpt lat="16.2405111" lon="-61.3530091"><ele>22.0</ele><time>2026-03-28T13:48:45.979Z</time></trkpt><trkpt lat="16.2404709" lon="-61.3529301"><ele>22.0</ele><time>2026-03-28T13:48:47.961Z</time></trkpt><trkpt lat="16.2404678" lon="-61.35285"><ele>22.0</ele><time>2026-03-28T13:49:02.969Z</time></trkpt><trkpt lat="16.2404753" lon="-61.352773"><ele>22.0</ele><time>2026-03-28T13:49:04.975Z</time></trkpt><trkpt lat="16.2405465" lon="-61.3527003"><ele>22.0</ele><time>2026-03-28T13:49:06.964Z</time></trkpt><trkpt lat="16.240604" lon="-61.352668"><ele>22.0</ele><time>2026-03-28T13:49:07.966Z</time></trkpt><trkpt lat="16.240659" lon="-61.352615"><ele>22.0</ele><time>2026-03-28T13:49:08.969Z</time></trkpt><trkpt lat="16.2407072" lon="-61.35254"><ele>22.0</ele><time>2026-03-28T13:49:09.978Z</time></trkpt><trkpt lat="16.2407632" lon="-61.3524648"><ele>22.0</ele><time>2026-03-28T13:49:10.963Z</time></trkpt><trkpt lat="16.2408234" lon="-61.3523896"><ele>22.200000000000003</ele><time>2026-03-28T13:49:11.975Z</time></trkpt><trkpt lat="16.2408886" lon="-61.3523106"><ele>22.4</ele><time>2026-03-28T13:49:12.973Z</time></trkpt><trkpt lat="16.2409575" lon="-61.352225"><ele>22.6</ele><time>2026-03-28T13:49:13.98Z</time></trkpt><trkpt lat="16.2410265" lon="-61.3521382"><ele>22.799999999999997</ele><time>2026-03-28T13:49:14.974Z</time></trkpt><trkpt lat="16.2410909" lon="-61.3520548"><ele>23.0</ele><time>2026-03-28T13:49:15.98Z</time></trkpt><trkpt lat="16.2411442" lon="-61.3519739"><ele>23.599999999999998</ele><time>2026-03-28T13:49:16.975Z</time></trkpt><trkpt lat="16.2412037" lon="-61.3519163"><ele>24.2</ele><time>2026-03-28T13:49:17.98Z</time></trkpt><trkpt lat="16.2412622" lon="-61.3518794"><ele>24.8</ele><time>2026-03-28T13:49:19.067Z</time></trkpt><trkpt lat="16.2413414" lon="-61.3518884"><ele>25.4</ele><time>2026-03-28T13:49:20.036Z</time></trkpt><trkpt lat="16.2414468" lon="-61.3519225"><ele>26.0</ele><time>2026-03-28T13:49:20.973Z</time></trkpt><trkpt lat="16.2415544" lon="-61.3519552"><ele>26.666666666666664</ele><time>2026-03-28T13:49:21.978Z</time></trkpt><trkpt lat="16.2416519" lon="-61.3519745"><ele>27.333333333333332</ele><time>2026-03-28T13:49:22.994Z</time></trkpt><trkpt lat="16.2417372" lon="-61.3519785"><ele>28.0</ele><time>2026-03-28T13:49:23.974Z</time></trkpt><trkpt lat="16.2418051" lon="-61.3519489"><ele>28.666666666666664</ele><time>2026-03-28T13:49:24.973Z</time></trkpt><trkpt lat="16.2418619" lon="-61.3518938"><ele>29.333333333333332</ele><time>2026-03-28T13:49:25.973Z</time></trkpt><trkpt lat="16.2419163" lon="-61.3518205"><ele>30.0</ele><time>2026-03-28T13:49:26.982Z</time></trkpt><trkpt lat="16.2419599" lon="-61.351742"><ele>30.0</ele><time>2026-03-28T13:49:28.032Z</time></trkpt><trkpt lat="16.2420121" lon="-61.3516791"><ele>30.0</ele><time>2026-03-28T13:49:29.041Z</time></trkpt><trkpt lat="16.2420731" lon="-61.3516157"><ele>30.0</ele><time>2026-03-28T13:49:29.987Z</time></trkpt><trkpt lat="16.2421392" lon="-61.3515504"><ele>30.0</ele><time>2026-03-28T13:49:30.979Z</time></trkpt><trkpt lat="16.242215" lon="-61.3514864"><ele>30.0</ele><time>2026-03-28T13:49:31.978Z</time></trkpt><trkpt lat="16.242306" lon="-61.3514314"><ele>30.0</ele><time>2026-03-28T13:49:32.972Z</time></trkpt><trkpt lat="16.2424123" lon="-61.3513886"><ele>30.0</ele><time>2026-03-28T13:49:33.978Z</time></trkpt><trkpt lat="16.2425293" lon="-61.3513617"><ele>30.0</ele><time>2026-03-28T13:49:34.975Z</time></trkpt><trkpt lat="16.2426501" lon="-61.3513409"><ele>30.0</ele><time>2026-03-28T13:49:35.978Z</time></trkpt><trkpt lat="16.2427733" lon="-61.3513259"><ele>30.0</ele><time>2026-03-28T13:49:36.981Z</time></trkpt><trkpt lat="16.2428813" lon="-61.3513302"><ele>30.0</ele><time>2026-03-28T13:49:38.063Z</time></trkpt><trkpt lat="16.2430852" lon="-61.3514123"><ele>30.0</ele><time>2026-03-28T13:49:39.977Z</time></trkpt><trkpt lat="16.2431845" lon="-61.3514862"><ele>30.0</ele><time>2026-03-28T13:49:40.974Z</time></trkpt><trkpt lat="16.2432791" lon="-61.3515585"><ele>30.0</ele><time>2026-03-28T13:49:41.974Z</time></trkpt><trkpt lat="16.243372" lon="-61.3516314"><ele>30.0</ele><time>2026-03-28T13:49:42.98Z</time></trkpt><trkpt lat="16.2434606" lon="-61.351712"><ele>30.0</ele><time>2026-03-28T13:49:43.973Z</time></trkpt><trkpt lat="16.243543" lon="-61.3518021"><ele>30.0</ele><time>2026-03-28T13:49:45.038Z</time></trkpt><trkpt lat="16.2436221" lon="-61.3518828"><ele>30.0</ele><time>2026-03-28T13:49:45.98Z</time></trkpt><trkpt lat="16.2437008" lon="-61.3519684"><ele>30.0</ele><time>2026-03-28T13:49:46.977Z</time></trkpt><trkpt lat="16.2437778" lon="-61.3520571"><ele>30.0</ele><time>2026-03-28T13:49:48.001Z</time></trkpt><trkpt lat="16.2438465" lon="-61.3521583"><ele>30.0</ele><time>2026-03-28T13:49:48.971Z</time></trkpt><trkpt lat="16.2439092" lon="-61.3522683"><ele>30.25</ele><time>2026-03-28T13:49:50.068Z</time></trkpt><trkpt lat="16.2439608" lon="-61.3523803"><ele>30.5</ele><time>2026-03-28T13:49:50.976Z</time></trkpt><trkpt lat="16.2440122" lon="-61.3524949"><ele>30.75</ele><time>2026-03-28T13:49:51.96Z</time></trkpt><trkpt lat="16.2440718" lon="-61.3525964"><ele>31.0</ele><time>2026-03-28T13:49:52.987Z</time></trkpt><trkpt lat="16.2441406" lon="-61.3526936"><ele>31.0</ele><time>2026-03-28T13:49:53.991Z</time></trkpt><trkpt lat="16.2442223" lon="-61.3527853"><ele>31.0</ele><time>2026-03-28T13:49:54.984Z</time></trkpt><trkpt lat="16.2442985" lon="-61.3528764"><ele>31.0</ele><time>2026-03-28T13:49:55.98Z</time></trkpt><trkpt lat="16.2443807" lon="-61.3529695"><ele>31.0</ele><time>2026-03-28T13:49:56.986Z</time></trkpt><trkpt lat="16.2444624" lon="-61.353057"><ele>30.8</ele><time>2026-03-28T13:49:58Z</time></trkpt><trkpt lat="16.2445399" lon="-61.3531397"><ele>30.6</ele><time>2026-03-28T13:49:58.974Z</time></trkpt><trkpt lat="16.244612" lon="-61.3532323"><ele>30.4</ele><time>2026-03-28T13:49:59.986Z</time></trkpt><trkpt lat="16.244683" lon="-61.3533117"><ele>30.2</ele><time>2026-03-28T13:50:00.994Z</time></trkpt><trkpt lat="16.244751" lon="-61.3533933"><ele>30.0</ele><time>2026-03-28T13:50:01.989Z</time></trkpt><trkpt lat="16.2448182" lon="-61.3534602"><ele>30.0</ele><time>2026-03-28T13:50:03.102Z</time></trkpt><trkpt lat="16.2448814" lon="-61.3535291"><ele>30.0</ele><time>2026-03-28T13:50:04.043Z</time></trkpt><trkpt lat="16.2449433" lon="-61.3535993"><ele>30.0</ele><time>2026-03-28T13:50:05.039Z</time></trkpt><trkpt lat="16.2450165" lon="-61.3536743"><ele>30.0</ele><time>2026-03-28T13:50:05.968Z</time></trkpt><trkpt lat="16.2450848" lon="-61.3537527"><ele>30.0</ele><time>2026-03-28T13:50:06.972Z</time></trkpt><trkpt lat="16.2451529" lon="-61.3538281"><ele>29.6</ele><time>2026-03-28T13:50:07.975Z</time></trkpt><trkpt lat="16.2452287" lon="-61.3539045"><ele>29.2</ele><time>2026-03-28T13:50:08.954Z</time></trkpt><trkpt lat="16.2452986" lon="-61.3539719"><ele>28.799999999999997</ele><time>2026-03-28T13:50:09.983Z</time></trkpt><trkpt lat="16.245365" lon="-61.3540507"><ele>28.4</ele><time>2026-03-28T13:50:10.969Z</time></trkpt><trkpt lat="16.2454322" lon="-61.3541228"><ele>28.0</ele><time>2026-03-28T13:50:11.975Z</time></trkpt><trkpt lat="16.2454962" lon="-61.3541973"><ele>28.0</ele><time>2026-03-28T13:50:12.974Z</time></trkpt><trkpt lat="16.2455591" lon="-61.3542699"><ele>27.999999999999996</ele><time>2026-03-28T13:50:13.978Z</time></trkpt><trkpt lat="16.245615" lon="-61.3543589"><ele>27.999999999999996</ele><time>2026-03-28T13:50:14.979Z</time></trkpt><trkpt lat="16.2456702" lon="-61.3544455"><ele>28.0</ele><time>2026-03-28T13:50:15.982Z</time></trkpt><trkpt lat="16.2457125" lon="-61.3545425"><ele>28.0</ele><time>2026-03-28T13:50:17.039Z</time></trkpt><trkpt lat="16.2457563" lon="-61.3546359"><ele>29.2</ele><time>2026-03-28T13:50:18.01Z</time></trkpt><trkpt lat="16.2457979" lon="-61.3547358"><ele>30.4</ele><time>2026-03-28T13:50:19.052Z</time></trkpt><trkpt lat="16.2458331" lon="-61.3548431"><ele>31.599999999999998</ele><time>2026-03-28T13:50:19.983Z</time></trkpt><trkpt lat="16.2458708" lon="-61.3549494"><ele>32.8</ele><time>2026-03-28T13:50:20.995Z</time></trkpt><trkpt lat="16.245906" lon="-61.3550527"><ele>34.0</ele><time>2026-03-28T13:50:21.975Z</time></trkpt><trkpt lat="16.24594" lon="-61.3551593"><ele>34.0</ele><time>2026-03-28T13:50:22.978Z</time></trkpt><trkpt lat="16.2459752" lon="-61.3552647"><ele>34.0</ele><time>2026-03-28T13:50:23.994Z</time></trkpt><trkpt lat="16.2460037" lon="-61.3553713"><ele>34.0</ele><time>2026-03-28T13:50:24.991Z</time></trkpt><trkpt lat="16.2460495" lon="-61.3554775"><ele>34.0</ele><time>2026-03-28T13:50:25.991Z</time></trkpt><trkpt lat="16.2460951" lon="-61.3555797"><ele>34.0</ele><time>2026-03-28T13:50:26.996Z</time></trkpt><trkpt lat="16.2461437" lon="-61.3556774"><ele>33.6</ele><time>2026-03-28T13:50:27.987Z</time></trkpt><trkpt lat="16.246191" lon="-61.3557719"><ele>33.2</ele><time>2026-03-28T13:50:28.973Z</time></trkpt><trkpt lat="16.2462405" lon="-61.3558651"><ele>32.800000000000004</ele><time>2026-03-28T13:50:29.99Z</time></trkpt><trkpt lat="16.2462966" lon="-61.3559626"><ele>32.4</ele><time>2026-03-28T13:50:30.979Z</time></trkpt><trkpt lat="16.246361" lon="-61.3560552"><ele>32.0</ele><time>2026-03-28T13:50:31.98Z</time></trkpt><trkpt lat="16.2464225" lon="-61.3561459"><ele>31.400000000000002</ele><time>2026-03-28T13:50:32.992Z</time></trkpt><trkpt lat="16.2464929" lon="-61.3562342"><ele>30.800000000000004</ele><time>2026-03-28T13:50:34.042Z</time></trkpt><trkpt lat="16.246559" lon="-61.3563195"><ele>30.2</ele><time>2026-03-28T13:50:35.055Z</time></trkpt><trkpt lat="16.2466284" lon="-61.3563986"><ele>29.6</ele><time>2026-03-28T13:50:35.965Z</time></trkpt><trkpt lat="16.2466991" lon="-61.3564759"><ele>29.0</ele><time>2026-03-28T13:50:36.978Z</time></trkpt><trkpt lat="16.2467702" lon="-61.3565451"><ele>29.000000000000004</ele><time>2026-03-28T13:50:37.983Z</time></trkpt><trkpt lat="16.2468359" lon="-61.3566064"><ele>29.0</ele><time>2026-03-28T13:50:39.054Z</time></trkpt><trkpt lat="16.2468885" lon="-61.3566672"><ele>29.000000000000004</ele><time>2026-03-28T13:50:40.034Z</time></trkpt><trkpt lat="16.2469352" lon="-61.3567231"><ele>29.000000000000004</ele><time>2026-03-28T13:50:40.976Z</time></trkpt><trkpt lat="16.2469876" lon="-61.3567717"><ele>29.0</ele><time>2026-03-28T13:50:41.992Z</time></trkpt><trkpt lat="16.2470399" lon="-61.3568126"><ele>29.000000000000004</ele><time>2026-03-28T13:50:42.976Z</time></trkpt><trkpt lat="16.2470948" lon="-61.3568524"><ele>29.000000000000004</ele><time>2026-03-28T13:50:44.031Z</time></trkpt><trkpt lat="16.2471546" lon="-61.3568899"><ele>28.999999999999996</ele><time>2026-03-28T13:50:45.034Z</time></trkpt><trkpt lat="16.2472217" lon="-61.3569271"><ele>29.0</ele><time>2026-03-28T13:50:45.978Z</time></trkpt><trkpt lat="16.2472847" lon="-61.3569777"><ele>29.0</ele><time>2026-03-28T13:50:46.978Z</time></trkpt><trkpt lat="16.2473586" lon="-61.3570341"><ele>29.0</ele><time>2026-03-28T13:50:47.973Z</time></trkpt><trkpt lat="16.2474293" lon="-61.3570897"><ele>28.999999999999996</ele><time>2026-03-28T13:50:49.065Z</time></trkpt><trkpt lat="16.2475066" lon="-61.3571561"><ele>29.0</ele><time>2026-03-28T13:50:50.041Z</time></trkpt><trkpt lat="16.2475816" lon="-61.3572239"><ele>29.0</ele><time>2026-03-28T13:50:50.97Z</time></trkpt><trkpt lat="16.2476561" lon="-61.3572935"><ele>29.0</ele><time>2026-03-28T13:50:51.981Z</time></trkpt><trkpt lat="16.2477244" lon="-61.357372"><ele>29.0</ele><time>2026-03-28T13:50:52.98Z</time></trkpt><trkpt lat="16.2477842" lon="-61.3574658"><ele>29.0</ele><time>2026-03-28T13:50:54.063Z</time></trkpt><trkpt lat="16.2478334" lon="-61.3575637"><ele>29.0</ele><time>2026-03-28T13:50:55.057Z</time></trkpt><trkpt lat="16.2478778" lon="-61.3576666"><ele>29.0</ele><time>2026-03-28T13:50:55.977Z</time></trkpt><trkpt lat="16.2479164" lon="-61.3577645"><ele>29.0</ele><time>2026-03-28T13:50:56.981Z</time></trkpt><trkpt lat="16.2479554" lon="-61.3578591"><ele>29.0</ele><time>2026-03-28T13:50:57.978Z</time></trkpt><trkpt lat="16.248" lon="-61.3579495"><ele>29.0</ele><time>2026-03-28T13:50:58.984Z</time></trkpt><trkpt lat="16.2480325" lon="-61.358037"><ele>29.0</ele><time>2026-03-28T13:50:59.981Z</time></trkpt><trkpt lat="16.2480633" lon="-61.3581274"><ele>28.799999999999997</ele><time>2026-03-28T13:51:00.983Z</time></trkpt><trkpt lat="16.2480948" lon="-61.3582164"><ele>28.599999999999998</ele><time>2026-03-28T13:51:01.977Z</time></trkpt><trkpt lat="16.2481349" lon="-61.3583051"><ele>28.4</ele><time>2026-03-28T13:51:02.976Z</time></trkpt><trkpt lat="16.2481711" lon="-61.3583937"><ele>28.2</ele><time>2026-03-28T13:51:03.974Z</time></trkpt><trkpt lat="16.2482136" lon="-61.3584784"><ele>28.0</ele><time>2026-03-28T13:51:04.982Z</time></trkpt><trkpt lat="16.2482595" lon="-61.3585591"><ele>27.166666666666668</ele><time>2026-03-28T13:51:05.986Z</time></trkpt><trkpt lat="16.2483017" lon="-61.3586269"><ele>26.333333333333336</ele><time>2026-03-28T13:51:07.074Z</time></trkpt><trkpt lat="16.2483404" lon="-61.3586828"><ele>25.5</ele><time>2026-03-28T13:51:08.046Z</time></trkpt><trkpt lat="16.2484238" lon="-61.3587515"><ele>24.666666666666668</ele><time>2026-03-28T13:51:10.055Z</time></trkpt><trkpt lat="16.2484836" lon="-61.3587852"><ele>23.833333333333336</ele><time>2026-03-28T13:51:11.976Z</time></trkpt><trkpt lat="16.2485585" lon="-61.3588153"><ele>23.0</ele><time>2026-03-28T13:51:15.064Z</time></trkpt><trkpt lat="16.2486402" lon="-61.3588294"><ele>23.0</ele><time>2026-03-28T13:51:16.985Z</time></trkpt><trkpt lat="16.2487311" lon="-61.3588071"><ele>23.0</ele><time>2026-03-28T13:51:18.984Z</time></trkpt><trkpt lat="16.2487858" lon="-61.3587604"><ele>23.0</ele><time>2026-03-28T13:51:19.984Z</time></trkpt><trkpt lat="16.2488394" lon="-61.3587064"><ele>23.0</ele><time>2026-03-28T13:51:20.984Z</time></trkpt><trkpt lat="16.2488932" lon="-61.3586521"><ele>23.0</ele><time>2026-03-28T13:51:21.982Z</time></trkpt><trkpt lat="16.2489413" lon="-61.3586035"><ele>23.0</ele><time>2026-03-28T13:51:22.981Z</time></trkpt><trkpt lat="16.248993" lon="-61.3585363"><ele>22.0</ele><time>2026-03-28T13:51:25.043Z</time></trkpt><trkpt lat="16.2490644" lon="-61.3584821"><ele>21.0</ele><time>2026-03-28T13:51:27.983Z</time></trkpt><trkpt lat="16.2491292" lon="-61.3584666"><ele>20.0</ele><time>2026-03-28T13:51:28.97Z</time></trkpt><trkpt lat="16.2492077" lon="-61.358451"><ele>19.0</ele><time>2026-03-28T13:51:29.969Z</time></trkpt><trkpt lat="16.2492934" lon="-61.3584341"><ele>18.0</ele><time>2026-03-28T13:51:30.983Z</time></trkpt><trkpt lat="16.2493723" lon="-61.3584162"><ele>17.0</ele><time>2026-03-28T13:51:31.976Z</time></trkpt><trkpt lat="16.2494474" lon="-61.3584146"><ele>16.999999999999996</ele><time>2026-03-28T13:51:32.976Z</time></trkpt><trkpt lat="16.249512" lon="-61.358434"><ele>17.0</ele><time>2026-03-28T13:51:33.971Z</time></trkpt><trkpt lat="16.2495814" lon="-61.3584562"><ele>17.0</ele><time>2026-03-28T13:51:34.98Z</time></trkpt><trkpt lat="16.249642" lon="-61.3584847"><ele>17.0</ele><time>2026-03-28T13:51:35.986Z</time></trkpt><trkpt lat="16.2497133" lon="-61.3585121"><ele>17.0</ele><time>2026-03-28T13:51:36.963Z</time></trkpt><trkpt lat="16.249791" lon="-61.3585266"><ele>16.999999999999996</ele><time>2026-03-28T13:51:37.993Z</time></trkpt><trkpt lat="16.249867" lon="-61.3585333"><ele>17.0</ele><time>2026-03-28T13:51:38.98Z</time></trkpt><trkpt lat="16.2499411" lon="-61.3585422"><ele>17.833333333333336</ele><time>2026-03-28T13:51:40.065Z</time></trkpt><trkpt lat="16.2500042" lon="-61.3585562"><ele>18.666666666666668</ele><time>2026-03-28T13:51:40.982Z</time></trkpt><trkpt lat="16.2500913" lon="-61.3585726"><ele>19.5</ele><time>2026-03-28T13:51:42.993Z</time></trkpt><trkpt lat="16.2501916" lon="-61.3586052"><ele>20.333333333333332</ele><time>2026-03-28T13:51:44.988Z</time></trkpt><trkpt lat="16.2503041" lon="-61.3586266"><ele>21.166666666666664</ele><time>2026-03-28T13:51:46.984Z</time></trkpt><trkpt lat="16.250375" lon="-61.3586455"><ele>22.0</ele><time>2026-03-28T13:51:49.037Z</time></trkpt><trkpt lat="16.250461" lon="-61.3586829"><ele>22.0</ele><time>2026-03-28T13:51:51.98Z</time></trkpt><trkpt lat="16.2505177" lon="-61.3587357"><ele>22.0</ele><time>2026-03-28T13:51:53.949Z</time></trkpt><trkpt lat="16.2505768" lon="-61.35879"><ele>22.0</ele><time>2026-03-28T13:51:56.945Z</time></trkpt><trkpt lat="16.2506364" lon="-61.3588438"><ele>22.0</ele><time>2026-03-28T13:51:58.974Z</time></trkpt><trkpt lat="16.2506927" lon="-61.3589206"><ele>22.0</ele><time>2026-03-28T13:52:00.964Z</time></trkpt><trkpt lat="16.2507585" lon="-61.3589663"><ele>22.0</ele><time>2026-03-28T13:52:02.972Z</time></trkpt><trkpt lat="16.2508269" lon="-61.358939"><ele>22.833333333333332</ele><time>2026-03-28T13:52:05.986Z</time></trkpt><trkpt lat="16.2508936" lon="-61.3588898"><ele>23.666666666666664</ele><time>2026-03-28T13:52:11.96Z</time></trkpt><trkpt lat="16.2509502" lon="-61.3588239"><ele>24.5</ele><time>2026-03-28T13:52:14.985Z</time></trkpt><trkpt lat="16.2509752" lon="-61.3589024"><ele>25.333333333333332</ele><time>2026-03-28T13:52:25.981Z</time></trkpt><trkpt lat="16.2510411" lon="-61.3589484"><ele>26.166666666666668</ele><time>2026-03-28T13:52:29.98Z</time></trkpt><trkpt lat="16.2511114" lon="-61.3589951"><ele>27.0</ele><time>2026-03-28T13:52:31.969Z</time></trkpt><trkpt lat="16.2511812" lon="-61.3590144"><ele>27.8</ele><time>2026-03-28T13:52:32.977Z</time></trkpt><trkpt lat="16.251266" lon="-61.3590337"><ele>28.6</ele><time>2026-03-28T13:52:33.988Z</time></trkpt><trkpt lat="16.2513713" lon="-61.3590364"><ele>29.400000000000002</ele><time>2026-03-28T13:52:34.986Z</time></trkpt><trkpt lat="16.2514743" lon="-61.3590462"><ele>30.200000000000003</ele><time>2026-03-28T13:52:35.979Z</time></trkpt><trkpt lat="16.2515741" lon="-61.3590556"><ele>31.0</ele><time>2026-03-28T13:52:36.978Z</time></trkpt><trkpt lat="16.2516653" lon="-61.3590705"><ele>31.0</ele><time>2026-03-28T13:52:37.974Z</time></trkpt><trkpt lat="16.2517499" lon="-61.3590998"><ele>31.000000000000004</ele><time>2026-03-28T13:52:38.981Z</time></trkpt><trkpt lat="16.2518235" lon="-61.3591369"><ele>31.0</ele><time>2026-03-28T13:52:39.967Z</time></trkpt><trkpt lat="16.2518824" lon="-61.3591718"><ele>31.0</ele><time>2026-03-28T13:52:40.985Z</time></trkpt><trkpt lat="16.2519337" lon="-61.3592146"><ele>31.000000000000004</ele><time>2026-03-28T13:52:41.978Z</time></trkpt><trkpt lat="16.2519782" lon="-61.359267"><ele>31.0</ele><time>2026-03-28T13:52:42.977Z</time></trkpt><trkpt lat="16.2520168" lon="-61.3593309"><ele>31.0</ele><time>2026-03-28T13:52:43.982Z</time></trkpt><trkpt lat="16.2520604" lon="-61.3594112"><ele>31.000000000000004</ele><time>2026-03-28T13:52:44.981Z</time></trkpt><trkpt lat="16.2521049" lon="-61.3594926"><ele>31.0</ele><time>2026-03-28T13:52:45.955Z</time></trkpt><trkpt lat="16.2521358" lon="-61.3595739"><ele>31.0</ele><time>2026-03-28T13:52:46.978Z</time></trkpt><trkpt lat="16.2521581" lon="-61.3596633"><ele>31.0</ele><time>2026-03-28T13:52:47.987Z</time></trkpt><trkpt lat="16.2521769" lon="-61.359756"><ele>31.000000000000004</ele><time>2026-03-28T13:52:48.988Z</time></trkpt><trkpt lat="16.2521905" lon="-61.3598468"><ele>31.0</ele><time>2026-03-28T13:52:49.991Z</time></trkpt><trkpt lat="16.2522007" lon="-61.3599358"><ele>30.666666666666668</ele><time>2026-03-28T13:52:50.958Z</time></trkpt><trkpt lat="16.2522087" lon="-61.3600233"><ele>30.333333333333336</ele><time>2026-03-28T13:52:51.98Z</time></trkpt><trkpt lat="16.2522216" lon="-61.3601134"><ele>30.0</ele><time>2026-03-28T13:52:52.99Z</time></trkpt><trkpt lat="16.2522215" lon="-61.3601925"><ele>29.666666666666664</ele><time>2026-03-28T13:52:53.986Z</time></trkpt><trkpt lat="16.2522137" lon="-61.3602683"><ele>29.333333333333332</ele><time>2026-03-28T13:52:54.974Z</time></trkpt><trkpt lat="16.2522075" lon="-61.3603457"><ele>29.0</ele><time>2026-03-28T13:52:55.986Z</time></trkpt><trkpt lat="16.2522019" lon="-61.3604189"><ele>29.000000000000004</ele><time>2026-03-28T13:52:57.052Z</time></trkpt><trkpt lat="16.252195" lon="-61.3604893"><ele>29.0</ele><time>2026-03-28T13:52:58.044Z</time></trkpt><trkpt lat="16.2522014" lon="-61.3605645"><ele>29.000000000000004</ele><time>2026-03-28T13:52:58.998Z</time></trkpt><trkpt lat="16.2522146" lon="-61.3606392"><ele>29.000000000000004</ele><time>2026-03-28T13:52:59.972Z</time></trkpt><trkpt lat="16.252231" lon="-61.3607128"><ele>29.0</ele><time>2026-03-28T13:53:00.979Z</time></trkpt><trkpt lat="16.2522468" lon="-61.3607863"><ele>29.000000000000004</ele><time>2026-03-28T13:53:01.981Z</time></trkpt><trkpt lat="16.252257" lon="-61.360863"><ele>29.000000000000004</ele><time>2026-03-28T13:53:03.013Z</time></trkpt><trkpt lat="16.2522657" lon="-61.3609416"><ele>29.166666666666664</ele><time>2026-03-28T13:53:03.978Z</time></trkpt><trkpt lat="16.2522758" lon="-61.3610189"><ele>29.333333333333332</ele><time>2026-03-28T13:53:05.076Z</time></trkpt><trkpt lat="16.2523116" lon="-61.3611332"><ele>29.5</ele><time>2026-03-28T13:53:06.976Z</time></trkpt><trkpt lat="16.2523265" lon="-61.3612452"><ele>29.666666666666664</ele><time>2026-03-28T13:53:08.972Z</time></trkpt><trkpt lat="16.2523138" lon="-61.3613151"><ele>29.833333333333332</ele><time>2026-03-28T13:53:09.98Z</time></trkpt><trkpt lat="16.2522964" lon="-61.3613867"><ele>30.0</ele><time>2026-03-28T13:53:10.982Z</time></trkpt><trkpt lat="16.2522762" lon="-61.3614638"><ele>30.166666666666668</ele><time>2026-03-28T13:53:11.979Z</time></trkpt><trkpt lat="16.252258" lon="-61.3615483"><ele>30.333333333333336</ele><time>2026-03-28T13:53:13.071Z</time></trkpt><trkpt lat="16.2522378" lon="-61.3616444"><ele>30.5</ele><time>2026-03-28T13:53:14.049Z</time></trkpt><trkpt lat="16.2522275" lon="-61.361748"><ele>30.666666666666668</ele><time>2026-03-28T13:53:14.974Z</time></trkpt><trkpt lat="16.2522274" lon="-61.3618393"><ele>30.833333333333336</ele><time>2026-03-28T13:53:15.976Z</time></trkpt><trkpt lat="16.2522355" lon="-61.361919"><ele>31.0</ele><time>2026-03-28T13:53:16.963Z</time></trkpt><trkpt lat="16.2522649" lon="-61.3619984"><ele>31.000000000000004</ele><time>2026-03-28T13:53:17.978Z</time></trkpt><trkpt lat="16.2523135" lon="-61.3620718"><ele>31.0</ele><time>2026-03-28T13:53:18.977Z</time></trkpt><trkpt lat="16.2523616" lon="-61.3621395"><ele>31.0</ele><time>2026-03-28T13:53:19.99Z</time></trkpt><trkpt lat="16.2524157" lon="-61.3622005"><ele>31.0</ele><time>2026-03-28T13:53:20.961Z</time></trkpt><trkpt lat="16.2524656" lon="-61.3622708"><ele>31.000000000000004</ele><time>2026-03-28T13:53:21.987Z</time></trkpt><trkpt lat="16.2525135" lon="-61.3623411"><ele>31.0</ele><time>2026-03-28T13:53:22.946Z</time></trkpt><trkpt lat="16.2525546" lon="-61.362411"><ele>31.000000000000004</ele><time>2026-03-28T13:53:23.956Z</time></trkpt><trkpt lat="16.2525968" lon="-61.3624784"><ele>31.0</ele><time>2026-03-28T13:53:24.984Z</time></trkpt><trkpt lat="16.2526246" lon="-61.3625497"><ele>31.0</ele><time>2026-03-28T13:53:25.979Z</time></trkpt><trkpt lat="16.2526411" lon="-61.3626281"><ele>31.0</ele><time>2026-03-28T13:53:26.982Z</time></trkpt><trkpt lat="16.2526514" lon="-61.3627171"><ele>31.000000000000004</ele><time>2026-03-28T13:53:27.984Z</time></trkpt><trkpt lat="16.2526594" lon="-61.3628044"><ele>31.0</ele><time>2026-03-28T13:53:29.054Z</time></trkpt><trkpt lat="16.2526712" lon="-61.3629013"><ele>31.0</ele><time>2026-03-28T13:53:29.975Z</time></trkpt><trkpt lat="16.2526814" lon="-61.3630087"><ele>31.0</ele><time>2026-03-28T13:53:30.973Z</time></trkpt><trkpt lat="16.2526891" lon="-61.3631163"><ele>31.0</ele><time>2026-03-28T13:53:31.98Z</time></trkpt><trkpt lat="16.2526985" lon="-61.3632192"><ele>31.0</ele><time>2026-03-28T13:53:33.065Z</time></trkpt><trkpt lat="16.2527115" lon="-61.363329"><ele>31.0</ele><time>2026-03-28T13:53:34.036Z</time></trkpt><trkpt lat="16.2527298" lon="-61.3634334"><ele>32.2</ele><time>2026-03-28T13:53:34.976Z</time></trkpt><trkpt lat="16.2527458" lon="-61.3635408"><ele>33.400000000000006</ele><time>2026-03-28T13:53:35.98Z</time></trkpt><trkpt lat="16.2527557" lon="-61.3636424"><ele>34.6</ele><time>2026-03-28T13:53:36.983Z</time></trkpt><trkpt lat="16.2527666" lon="-61.3637337"><ele>35.800000000000004</ele><time>2026-03-28T13:53:38.046Z</time></trkpt><trkpt lat="16.2527752" lon="-61.3638093"><ele>37.0</ele><time>2026-03-28T13:53:38.983Z</time></trkpt><trkpt lat="16.2527674" lon="-61.3639204"><ele>37.8</ele><time>2026-03-28T13:53:40.986Z</time></trkpt><trkpt lat="16.2527546" lon="-61.3639933"><ele>38.6</ele><time>2026-03-28T13:53:42.97Z</time></trkpt><trkpt lat="16.2527413" lon="-61.3640913"><ele>39.4</ele><time>2026-03-28T13:53:46.99Z</time></trkpt><trkpt lat="16.2527262" lon="-61.3641922"><ele>40.199999999999996</ele><time>2026-03-28T13:53:48.971Z</time></trkpt><trkpt lat="16.2527105" lon="-61.3642974"><ele>41.0</ele><time>2026-03-28T13:53:50.982Z</time></trkpt><trkpt lat="16.2527038" lon="-61.3643944"><ele>41.0</ele><time>2026-03-28T13:53:53.033Z</time></trkpt><trkpt lat="16.2526886" lon="-61.3645097"><ele>41.0</ele><time>2026-03-28T13:53:55.047Z</time></trkpt><trkpt lat="16.2526641" lon="-61.3645956"><ele>41.0</ele><time>2026-03-28T13:53:55.975Z</time></trkpt><trkpt lat="16.2526505" lon="-61.36469"><ele>41.0</ele><time>2026-03-28T13:53:56.975Z</time></trkpt><trkpt lat="16.2526411" lon="-61.3647775"><ele>41.0</ele><time>2026-03-28T13:53:57.972Z</time></trkpt><trkpt lat="16.2526369" lon="-61.3648533"><ele>41.0</ele><time>2026-03-28T13:53:58.975Z</time></trkpt><trkpt lat="16.2527048" lon="-61.3649541"><ele>40.599999999999994</ele><time>2026-03-28T13:54:00.95Z</time></trkpt><trkpt lat="16.2527847" lon="-61.3649777"><ele>40.199999999999996</ele><time>2026-03-28T13:54:01.985Z</time></trkpt><trkpt lat="16.2528703" lon="-61.3650129"><ele>39.8</ele><time>2026-03-28T13:54:02.979Z</time></trkpt><trkpt lat="16.2529635" lon="-61.3650488"><ele>39.4</ele><time>2026-03-28T13:54:04.039Z</time></trkpt><trkpt lat="16.253059" lon="-61.3651023"><ele>39.0</ele><time>2026-03-28T13:54:05.039Z</time></trkpt><trkpt lat="16.2531632" lon="-61.3651459"><ele>37.6</ele><time>2026-03-28T13:54:05.966Z</time></trkpt><trkpt lat="16.2532638" lon="-61.365185"><ele>36.2</ele><time>2026-03-28T13:54:06.978Z</time></trkpt><trkpt lat="16.2533612" lon="-61.3651951"><ele>34.800000000000004</ele><time>2026-03-28T13:54:07.981Z</time></trkpt><trkpt lat="16.2534468" lon="-61.3651744"><ele>33.4</ele><time>2026-03-28T13:54:08.988Z</time></trkpt><trkpt lat="16.2535253" lon="-61.3651198"><ele>32.0</ele><time>2026-03-28T13:54:10.055Z</time></trkpt><trkpt lat="16.2535849" lon="-61.3650255"><ele>32.0</ele><time>2026-03-28T13:54:10.981Z</time></trkpt><trkpt lat="16.2536311" lon="-61.3649341"><ele>32.0</ele><time>2026-03-28T13:54:11.982Z</time></trkpt><trkpt lat="16.253673" lon="-61.3648386"><ele>32.0</ele><time>2026-03-28T13:54:12.991Z</time></trkpt><trkpt lat="16.2537008" lon="-61.3647506"><ele>32.0</ele><time>2026-03-28T13:54:13.978Z</time></trkpt><trkpt lat="16.2537148" lon="-61.3646581"><ele>32.0</ele><time>2026-03-28T13:54:14.981Z</time></trkpt><trkpt lat="16.2537232" lon="-61.3645732"><ele>31.833333333333332</ele><time>2026-03-28T13:54:15.982Z</time></trkpt><trkpt lat="16.2537352" lon="-61.3645009"><ele>31.666666666666664</ele><time>2026-03-28T13:54:16.992Z</time></trkpt><trkpt lat="16.2537693" lon="-61.364402"><ele>31.5</ele><time>2026-03-28T13:54:18.988Z</time></trkpt><trkpt lat="16.2538231" lon="-61.3643147"><ele>31.333333333333336</ele><time>2026-03-28T13:54:20.988Z</time></trkpt><trkpt lat="16.2538564" lon="-61.3642489"><ele>31.166666666666668</ele><time>2026-03-28T13:54:21.977Z</time></trkpt><trkpt lat="16.2538935" lon="-61.3641847"><ele>31.0</ele><time>2026-03-28T13:54:22.98Z</time></trkpt><trkpt lat="16.2539262" lon="-61.3641172"><ele>29.833333333333336</ele><time>2026-03-28T13:54:24.039Z</time></trkpt><trkpt lat="16.2539604" lon="-61.3640604"><ele>28.666666666666668</ele><time>2026-03-28T13:54:25.031Z</time></trkpt><trkpt lat="16.2539955" lon="-61.3640037"><ele>27.5</ele><time>2026-03-28T13:54:25.985Z</time></trkpt><trkpt lat="16.2540535" lon="-61.3638986"><ele>26.333333333333336</ele><time>2026-03-28T13:54:27.95Z</time></trkpt><trkpt lat="16.254104" lon="-61.3638463"><ele>25.166666666666668</ele><time>2026-03-28T13:54:28.981Z</time></trkpt><trkpt lat="16.2541549" lon="-61.3637936"><ele>24.0</ele><time>2026-03-28T13:54:29.978Z</time></trkpt><trkpt lat="16.2542253" lon="-61.3637248"><ele>24.0</ele><time>2026-03-28T13:54:31.983Z</time></trkpt><trkpt lat="16.2542904" lon="-61.3637055"><ele>24.0</ele><time>2026-03-28T13:54:35.961Z</time></trkpt><trkpt lat="16.2543374" lon="-61.3637649"><ele>24.0</ele><time>2026-03-28T13:54:38.982Z</time></trkpt><trkpt lat="16.2544076" lon="-61.3638339"><ele>24.0</ele><time>2026-03-28T13:54:41.945Z</time></trkpt><trkpt lat="16.254429" lon="-61.3639104"><ele>24.0</ele><time>2026-03-28T13:54:42.98Z</time></trkpt><trkpt lat="16.2544486" lon="-61.3639873"><ele>24.0</ele><time>2026-03-28T13:54:44.073Z</time></trkpt><trkpt lat="16.2544648" lon="-61.3640631"><ele>24.0</ele><time>2026-03-28T13:54:45.042Z</time></trkpt><trkpt lat="16.2544782" lon="-61.3641387"><ele>24.0</ele><time>2026-03-28T13:54:45.965Z</time></trkpt><trkpt lat="16.2544833" lon="-61.3642281"><ele>24.0</ele><time>2026-03-28T13:54:46.982Z</time></trkpt><trkpt lat="16.2544739" lon="-61.3643142"><ele>24.0</ele><time>2026-03-28T13:54:47.979Z</time></trkpt><trkpt lat="16.2544493" lon="-61.3644092"><ele>24.0</ele><time>2026-03-28T13:54:48.986Z</time></trkpt><trkpt lat="16.2544221" lon="-61.3645123"><ele>24.0</ele><time>2026-03-28T13:54:49.972Z</time></trkpt><trkpt lat="16.2543975" lon="-61.3646206"><ele>24.0</ele><time>2026-03-28T13:54:50.975Z</time></trkpt><trkpt lat="16.2543761" lon="-61.3647246"><ele>24.0</ele><time>2026-03-28T13:54:51.972Z</time></trkpt><trkpt lat="16.2543584" lon="-61.3648223"><ele>24.0</ele><time>2026-03-28T13:54:53.054Z</time></trkpt><trkpt lat="16.2543424" lon="-61.3649124"><ele>24.0</ele><time>2026-03-28T13:54:54.029Z</time></trkpt><trkpt lat="16.2543367" lon="-61.3650046"><ele>24.0</ele><time>2026-03-28T13:54:55.036Z</time></trkpt><trkpt lat="16.2543183" lon="-61.3650961"><ele>24.0</ele><time>2026-03-28T13:54:55.972Z</time></trkpt><trkpt lat="16.2542961" lon="-61.3652028"><ele>24.0</ele><time>2026-03-28T13:54:56.986Z</time></trkpt><trkpt lat="16.2542833" lon="-61.3653038"><ele>24.0</ele><time>2026-03-28T13:54:57.951Z</time></trkpt><trkpt lat="16.2542793" lon="-61.3654039"><ele>24.0</ele><time>2026-03-28T13:54:58.971Z</time></trkpt><trkpt lat="16.2542917" lon="-61.3655045"><ele>24.0</ele><time>2026-03-28T13:54:59.981Z</time></trkpt><trkpt lat="16.254323" lon="-61.3655789"><ele>24.2</ele><time>2026-03-28T13:55:00.977Z</time></trkpt><trkpt lat="16.2543652" lon="-61.3656421"><ele>24.4</ele><time>2026-03-28T13:55:01.971Z</time></trkpt><trkpt lat="16.25443" lon="-61.3656981"><ele>24.6</ele><time>2026-03-28T13:55:02.975Z</time></trkpt><trkpt lat="16.2544931" lon="-61.365752"><ele>24.8</ele><time>2026-03-28T13:55:03.974Z</time></trkpt><trkpt lat="16.2545673" lon="-61.3658153"><ele>25.0</ele><time>2026-03-28T13:55:04.971Z</time></trkpt><trkpt lat="16.2546562" lon="-61.3658941"><ele>25.0</ele><time>2026-03-28T13:55:05.97Z</time></trkpt><trkpt lat="16.2547427" lon="-61.3659757"><ele>25.0</ele><time>2026-03-28T13:55:06.97Z</time></trkpt><trkpt lat="16.2548245" lon="-61.3660715"><ele>25.0</ele><time>2026-03-28T13:55:07.975Z</time></trkpt><trkpt lat="16.2549147" lon="-61.3661422"><ele>25.0</ele><time>2026-03-28T13:55:08.972Z</time></trkpt><trkpt lat="16.2549996" lon="-61.366207"><ele>25.4</ele><time>2026-03-28T13:55:09.981Z</time></trkpt><trkpt lat="16.2550869" lon="-61.3662661"><ele>25.8</ele><time>2026-03-28T13:55:10.976Z</time></trkpt><trkpt lat="16.2551678" lon="-61.3663203"><ele>26.200000000000003</ele><time>2026-03-28T13:55:11.976Z</time></trkpt><trkpt lat="16.2552433" lon="-61.3663911"><ele>26.6</ele><time>2026-03-28T13:55:12.977Z</time></trkpt><trkpt lat="16.2552968" lon="-61.3664642"><ele>27.0</ele><time>2026-03-28T13:55:13.978Z</time></trkpt><trkpt lat="16.2553418" lon="-61.3665416"><ele>27.200000000000003</ele><time>2026-03-28T13:55:14.977Z</time></trkpt><trkpt lat="16.25538" lon="-61.366617"><ele>27.400000000000002</ele><time>2026-03-28T13:55:15.97Z</time></trkpt><trkpt lat="16.2554141" lon="-61.3666921"><ele>27.599999999999998</ele><time>2026-03-28T13:55:16.952Z</time></trkpt><trkpt lat="16.2554442" lon="-61.3667602"><ele>27.799999999999997</ele><time>2026-03-28T13:55:17.975Z</time></trkpt><trkpt lat="16.2554686" lon="-61.3668698"><ele>28.0</ele><time>2026-03-28T13:55:18.949Z</time></trkpt><trkpt lat="16.2554878" lon="-61.3669811"><ele>28.000000000000004</ele><time>2026-03-28T13:55:19.964Z</time></trkpt><trkpt lat="16.2555152" lon="-61.3670889"><ele>28.0</ele><time>2026-03-28T13:55:20.977Z</time></trkpt><trkpt lat="16.2555335" lon="-61.3671816"><ele>28.0</ele><time>2026-03-28T13:55:21.969Z</time></trkpt><trkpt lat="16.2555538" lon="-61.3672527"><ele>28.0</ele><time>2026-03-28T13:55:22.972Z</time></trkpt><trkpt lat="16.2555854" lon="-61.3673255"><ele>28.000000000000004</ele><time>2026-03-28T13:55:23.972Z</time></trkpt><trkpt lat="16.2556353" lon="-61.3674031"><ele>28.0</ele><time>2026-03-28T13:55:24.985Z</time></trkpt><trkpt lat="16.2556974" lon="-61.3674819"><ele>27.166666666666668</ele><time>2026-03-28T13:55:25.99Z</time></trkpt><trkpt lat="16.2557689" lon="-61.367551"><ele>26.333333333333336</ele><time>2026-03-28T13:55:26.988Z</time></trkpt><trkpt lat="16.2558466" lon="-61.367641"><ele>25.5</ele><time>2026-03-28T13:55:27.979Z</time></trkpt><trkpt lat="16.2558912" lon="-61.3677155"><ele>24.666666666666668</ele><time>2026-03-28T13:55:28.978Z</time></trkpt><trkpt lat="16.2559224" lon="-61.3677771"><ele>23.833333333333336</ele><time>2026-03-28T13:55:29.978Z</time></trkpt><trkpt lat="16.2559485" lon="-61.367839"><ele>23.0</ele><time>2026-03-28T13:55:30.982Z</time></trkpt><trkpt lat="16.2559789" lon="-61.3679046"><ele>23.0</ele><time>2026-03-28T13:55:31.982Z</time></trkpt><trkpt lat="16.2559934" lon="-61.3679699"><ele>23.0</ele><time>2026-03-28T13:55:32.977Z</time></trkpt><trkpt lat="16.2559756" lon="-61.3681114"><ele>23.0</ele><time>2026-03-28T13:55:34.98Z</time></trkpt><trkpt lat="16.2559711" lon="-61.3681974"><ele>23.0</ele><time>2026-03-28T13:55:35.976Z</time></trkpt><trkpt lat="16.255976" lon="-61.3682997"><ele>23.0</ele><time>2026-03-28T13:55:36.979Z</time></trkpt><trkpt lat="16.2559526" lon="-61.3684204"><ele>23.599999999999998</ele><time>2026-03-28T13:55:37.977Z</time></trkpt><trkpt lat="16.2559198" lon="-61.3685376"><ele>24.2</ele><time>2026-03-28T13:55:38.975Z</time></trkpt><trkpt lat="16.2559236" lon="-61.3686404"><ele>24.8</ele><time>2026-03-28T13:55:39.975Z</time></trkpt><trkpt lat="16.2559257" lon="-61.368748"><ele>25.4</ele><time>2026-03-28T13:55:40.975Z</time></trkpt><trkpt lat="16.2559356" lon="-61.3688615"><ele>26.0</ele><time>2026-03-28T13:55:41.985Z</time></trkpt><trkpt lat="16.25594" lon="-61.3689646"><ele>26.499999999999996</ele><time>2026-03-28T13:55:42.971Z</time></trkpt><trkpt lat="16.2559564" lon="-61.3690605"><ele>27.0</ele><time>2026-03-28T13:55:43.98Z</time></trkpt><trkpt lat="16.2559831" lon="-61.3691383"><ele>27.5</ele><time>2026-03-28T13:55:44.973Z</time></trkpt><trkpt lat="16.2559983" lon="-61.3692037"><ele>28.0</ele><time>2026-03-28T13:55:45.979Z</time></trkpt><trkpt lat="16.2560101" lon="-61.3692956"><ele>28.499999999999996</ele><time>2026-03-28T13:55:47.978Z</time></trkpt><trkpt lat="16.2560724" lon="-61.3693728"><ele>29.0</ele><time>2026-03-28T13:55:49.969Z</time></trkpt><trkpt lat="16.2561654" lon="-61.3694292"><ele>28.999999999999996</ele><time>2026-03-28T13:55:51.983Z</time></trkpt><trkpt lat="16.2562497" lon="-61.3694619"><ele>29.0</ele><time>2026-03-28T13:55:53.992Z</time></trkpt><trkpt lat="16.2563377" lon="-61.3695383"><ele>29.0</ele><time>2026-03-28T13:55:55.98Z</time></trkpt><trkpt lat="16.2564077" lon="-61.3696068"><ele>29.0</ele><time>2026-03-28T13:55:57.987Z</time></trkpt><trkpt lat="16.2564287" lon="-61.369682"><ele>28.999999999999996</ele><time>2026-03-28T13:55:58.976Z</time></trkpt><trkpt lat="16.2564532" lon="-61.3697444"><ele>29.0</ele><time>2026-03-28T13:55:59.962Z</time></trkpt><trkpt lat="16.2564811" lon="-61.3698083"><ele>29.0</ele><time>2026-03-28T13:56:00.966Z</time></trkpt><trkpt lat="16.2565809" lon="-61.3698463"><ele>29.0</ele><time>2026-03-28T13:56:02.979Z</time></trkpt><trkpt lat="16.2566688" lon="-61.3698175"><ele>29.0</ele><time>2026-03-28T13:56:03.953Z</time></trkpt><trkpt lat="16.2567384" lon="-61.36977"><ele>29.0</ele><time>2026-03-28T13:56:04.969Z</time></trkpt><trkpt lat="16.2568225" lon="-61.3697029"><ele>29.0</ele><time>2026-03-28T13:56:05.982Z</time></trkpt><trkpt lat="16.2569094" lon="-61.3696209"><ele>28.6</ele><time>2026-03-28T13:56:07.061Z</time></trkpt><trkpt lat="16.2569935" lon="-61.3695385"><ele>28.2</ele><time>2026-03-28T13:56:07.996Z</time></trkpt><trkpt lat="16.2570527" lon="-61.369434"><ele>27.800000000000004</ele><time>2026-03-28T13:56:09.047Z</time></trkpt><trkpt lat="16.2571023" lon="-61.3693277"><ele>27.400000000000002</ele><time>2026-03-28T13:56:10.05Z</time></trkpt><trkpt lat="16.2571341" lon="-61.3692374"><ele>27.0</ele><time>2026-03-28T13:56:10.968Z</time></trkpt><trkpt lat="16.2571516" lon="-61.3691687"><ele>27.0</ele><time>2026-03-28T13:56:11.98Z</time></trkpt><trkpt lat="16.2571325" lon="-61.3690845"><ele>27.0</ele><time>2026-03-28T13:56:12.965Z</time></trkpt><trkpt lat="16.2571038" lon="-61.3689911"><ele>27.0</ele><time>2026-03-28T13:56:13.974Z</time></trkpt><trkpt lat="16.2570844" lon="-61.3688947"><ele>27.0</ele><time>2026-03-28T13:56:14.974Z</time></trkpt><trkpt lat="16.2570801" lon="-61.3688003"><ele>27.0</ele><time>2026-03-28T13:56:15.969Z</time></trkpt><trkpt lat="16.2570743" lon="-61.3687173"><ele>27.0</ele><time>2026-03-28T13:56:16.978Z</time></trkpt><trkpt lat="16.2570822" lon="-61.3686428"><ele>27.333333333333332</ele><time>2026-03-28T13:56:17.969Z</time></trkpt><trkpt lat="16.2570875" lon="-61.3685626"><ele>27.666666666666664</ele><time>2026-03-28T13:56:18.958Z</time></trkpt><trkpt lat="16.2570915" lon="-61.3684826"><ele>28.0</ele><time>2026-03-28T13:56:19.972Z</time></trkpt><trkpt lat="16.2570879" lon="-61.3684036"><ele>28.333333333333332</ele><time>2026-03-28T13:56:20.97Z</time></trkpt><trkpt lat="16.2570777" lon="-61.3683302"><ele>28.666666666666664</ele><time>2026-03-28T13:56:21.976Z</time></trkpt><trkpt lat="16.2570678" lon="-61.3682128"><ele>29.0</ele><time>2026-03-28T13:56:23.974Z</time></trkpt><trkpt lat="16.2570648" lon="-61.3681338"><ele>28.999999999999996</ele><time>2026-03-28T13:56:25.063Z</time></trkpt><trkpt lat="16.2570602" lon="-61.3680577"><ele>29.0</ele><time>2026-03-28T13:56:25.974Z</time></trkpt><trkpt lat="16.2570582" lon="-61.3679805"><ele>29.0</ele><time>2026-03-28T13:56:26.978Z</time></trkpt><trkpt lat="16.2570449" lon="-61.367897"><ele>29.0</ele><time>2026-03-28T13:56:27.951Z</time></trkpt><trkpt lat="16.2570292" lon="-61.3678193"><ele>28.999999999999996</ele><time>2026-03-28T13:56:28.978Z</time></trkpt><trkpt lat="16.2570168" lon="-61.367753"><ele>29.0</ele><time>2026-03-28T13:56:29.977Z</time></trkpt><trkpt lat="16.2570508" lon="-61.3676357"><ele>29.0</ele><time>2026-03-28T13:56:31.981Z</time></trkpt><trkpt lat="16.2570953" lon="-61.3675866"><ele>29.0</ele><time>2026-03-28T13:56:33.047Z</time></trkpt><trkpt lat="16.2571647" lon="-61.3674919"><ele>29.0</ele><time>2026-03-28T13:56:35.057Z</time></trkpt><trkpt lat="16.2572081" lon="-61.367387"><ele>29.0</ele><time>2026-03-28T13:56:36.974Z</time></trkpt><trkpt lat="16.2572176" lon="-61.3672638"><ele>29.0</ele><time>2026-03-28T13:56:38.977Z</time></trkpt><trkpt lat="16.2572049" lon="-61.3671366"><ele>29.42857142857143</ele><time>2026-03-28T13:56:40.973Z</time></trkpt><trkpt lat="16.2571988" lon="-61.3670699"><ele>29.857142857142858</ele><time>2026-03-28T13:56:42.041Z</time></trkpt><trkpt lat="16.2571873" lon="-61.3669995"><ele>30.285714285714285</ele><time>2026-03-28T13:56:43.06Z</time></trkpt><trkpt lat="16.257167" lon="-61.3669274"><ele>30.714285714285715</ele><time>2026-03-28T13:56:43.97Z</time></trkpt><trkpt lat="16.2571428" lon="-61.3668507"><ele>31.14285714285714</ele><time>2026-03-28T13:56:44.978Z</time></trkpt><trkpt lat="16.2571231" lon="-61.366775"><ele>31.57142857142857</ele><time>2026-03-28T13:56:45.978Z</time></trkpt><trkpt lat="16.2571184" lon="-61.3666926"><ele>32.0</ele><time>2026-03-28T13:56:47.035Z</time></trkpt><trkpt lat="16.2571177" lon="-61.3666189"><ele>31.999999999999996</ele><time>2026-03-28T13:56:48.042Z</time></trkpt><trkpt lat="16.2571156" lon="-61.3665133"><ele>32.0</ele><time>2026-03-28T13:56:49.972Z</time></trkpt><trkpt lat="16.2571081" lon="-61.3664414"><ele>32.0</ele><time>2026-03-28T13:56:51.964Z</time></trkpt><trkpt lat="16.2571128" lon="-61.3663618"><ele>32.0</ele><time>2026-03-28T13:56:54.056Z</time></trkpt><trkpt lat="16.2570822" lon="-61.3662951"><ele>31.999999999999996</ele><time>2026-03-28T13:56:56.972Z</time></trkpt><trkpt lat="16.2570421" lon="-61.3662328"><ele>32.0</ele><time>2026-03-28T13:56:58.973Z</time></trkpt><trkpt lat="16.2569682" lon="-61.3661342"><ele>31.285714285714285</ele><time>2026-03-28T13:57:00.951Z</time></trkpt><trkpt lat="16.2569262" lon="-61.3660787"><ele>30.57142857142857</ele><time>2026-03-28T13:57:01.985Z</time></trkpt><trkpt lat="16.2568766" lon="-61.3660119"><ele>29.857142857142854</ele><time>2026-03-28T13:57:02.978Z</time></trkpt><trkpt lat="16.2568268" lon="-61.365948"><ele>29.142857142857142</ele><time>2026-03-28T13:57:03.984Z</time></trkpt><trkpt lat="16.2567773" lon="-61.3658952"><ele>28.428571428571427</ele><time>2026-03-28T13:57:04.977Z</time></trkpt><trkpt lat="16.256741" lon="-61.3658368"><ele>27.714285714285715</ele><time>2026-03-28T13:57:05.98Z</time></trkpt><trkpt lat="16.2567163" lon="-61.36577"><ele>27.0</ele><time>2026-03-28T13:57:06.975Z</time></trkpt><trkpt lat="16.2566936" lon="-61.3656939"><ele>27.0</ele><time>2026-03-28T13:57:07.981Z</time></trkpt><trkpt lat="16.2566673" lon="-61.3656194"><ele>27.0</ele><time>2026-03-28T13:57:08.987Z</time></trkpt><trkpt lat="16.2566361" lon="-61.3655462"><ele>27.0</ele><time>2026-03-28T13:57:09.976Z</time></trkpt><trkpt lat="16.2566057" lon="-61.3654731"><ele>27.0</ele><time>2026-03-28T13:57:10.979Z</time></trkpt><trkpt lat="16.2565871" lon="-61.3654101"><ele>27.0</ele><time>2026-03-28T13:57:11.965Z</time></trkpt><trkpt lat="16.2565541" lon="-61.3653069"><ele>27.0</ele><time>2026-03-28T13:57:13.976Z</time></trkpt><trkpt lat="16.2565216" lon="-61.3652415"><ele>26.666666666666668</ele><time>2026-03-28T13:57:15.942Z</time></trkpt><trkpt lat="16.2564894" lon="-61.3651809"><ele>26.333333333333336</ele><time>2026-03-28T13:57:17.981Z</time></trkpt><trkpt lat="16.2564449" lon="-61.3650648"><ele>26.0</ele><time>2026-03-28T13:57:20.036Z</time></trkpt><trkpt lat="16.2564044" lon="-61.36496"><ele>25.666666666666668</ele><time>2026-03-28T13:57:21.98Z</time></trkpt><trkpt lat="16.2563856" lon="-61.3648863"><ele>25.333333333333336</ele><time>2026-03-28T13:57:22.976Z</time></trkpt><trkpt lat="16.2563601" lon="-61.3648123"><ele>25.0</ele><time>2026-03-28T13:57:23.983Z</time></trkpt><trkpt lat="16.2563346" lon="-61.364733"><ele>25.666666666666668</ele><time>2026-03-28T13:57:24.98Z</time></trkpt><trkpt lat="16.2563135" lon="-61.3646485"><ele>26.333333333333336</ele><time>2026-03-28T13:57:25.973Z</time></trkpt><trkpt lat="16.2563023" lon="-61.3645592"><ele>27.0</ele><time>2026-03-28T13:57:27.056Z</time></trkpt><trkpt lat="16.2562865" lon="-61.3644829"><ele>27.666666666666664</ele><time>2026-03-28T13:57:28.041Z</time></trkpt><trkpt lat="16.2562636" lon="-61.3644066"><ele>28.333333333333332</ele><time>2026-03-28T13:57:29.028Z</time></trkpt><trkpt lat="16.2562601" lon="-61.3643374"><ele>29.0</ele><time>2026-03-28T13:57:29.982Z</time></trkpt><trkpt lat="16.2562661" lon="-61.3642688"><ele>28.999999999999996</ele><time>2026-03-28T13:57:30.983Z</time></trkpt><trkpt lat="16.2562858" lon="-61.3641951"><ele>29.0</ele><time>2026-03-28T13:57:31.981Z</time></trkpt><trkpt lat="16.2562921" lon="-61.3641196"><ele>29.0</ele><time>2026-03-28T13:57:32.981Z</time></trkpt><trkpt lat="16.2562739" lon="-61.3640562"><ele>29.0</ele><time>2026-03-28T13:57:33.986Z</time></trkpt><trkpt lat="16.2562027" lon="-61.3639564"><ele>28.999999999999996</ele><time>2026-03-28T13:57:35.976Z</time></trkpt><trkpt lat="16.2561569" lon="-61.3638797"><ele>29.0</ele><time>2026-03-28T13:57:38.062Z</time></trkpt><trkpt lat="16.2561039" lon="-61.3638088"><ele>28.833333333333332</ele><time>2026-03-28T13:57:39.986Z</time></trkpt><trkpt lat="16.2560487" lon="-61.363745"><ele>28.666666666666664</ele><time>2026-03-28T13:57:42.042Z</time></trkpt><trkpt lat="16.2559936" lon="-61.3636752"><ele>28.5</ele><time>2026-03-28T13:57:44.027Z</time></trkpt><trkpt lat="16.2559682" lon="-61.3635836"><ele>28.333333333333336</ele><time>2026-03-28T13:57:45.971Z</time></trkpt><trkpt lat="16.2560081" lon="-61.3634923"><ele>28.166666666666668</ele><time>2026-03-28T13:57:47.972Z</time></trkpt><trkpt lat="16.2560576" lon="-61.3634131"><ele>28.0</ele><time>2026-03-28T13:57:49.954Z</time></trkpt><trkpt lat="16.2561087" lon="-61.3633377"><ele>28.000000000000004</ele><time>2026-03-28T13:57:52.973Z</time></trkpt><trkpt lat="16.256163" lon="-61.3632828"><ele>28.0</ele><time>2026-03-28T13:57:54.979Z</time></trkpt><trkpt lat="16.2562152" lon="-61.3632199"><ele>28.0</ele><time>2026-03-28T13:57:56.98Z</time></trkpt><trkpt lat="16.2562133" lon="-61.363148"><ele>28.0</ele><time>2026-03-28T13:57:59.042Z</time></trkpt><trkpt lat="16.2561663" lon="-61.3630631"><ele>28.000000000000004</ele><time>2026-03-28T13:58:00.973Z</time></trkpt><trkpt lat="16.2561434" lon="-61.3629532"><ele>28.0</ele><time>2026-03-28T13:58:02.969Z</time></trkpt><trkpt lat="16.2561276" lon="-61.36282"><ele>27.2</ele><time>2026-03-28T13:58:04.979Z</time></trkpt><trkpt lat="16.2561258" lon="-61.3627382"><ele>26.4</ele><time>2026-03-28T13:58:05.954Z</time></trkpt><trkpt lat="16.2561305" lon="-61.3626386"><ele>25.599999999999998</ele><time>2026-03-28T13:58:06.956Z</time></trkpt><trkpt lat="16.2561282" lon="-61.3625379"><ele>24.799999999999997</ele><time>2026-03-28T13:58:07.95Z</time></trkpt><trkpt lat="16.256128" lon="-61.3624372"><ele>24.0</ele><time>2026-03-28T13:58:09.042Z</time></trkpt><trkpt lat="16.2561293" lon="-61.3623401"><ele>24.0</ele><time>2026-03-28T13:58:09.975Z</time></trkpt><trkpt lat="16.2561246" lon="-61.3622511"><ele>24.0</ele><time>2026-03-28T13:58:10.977Z</time></trkpt><trkpt lat="16.2561177" lon="-61.3621689"><ele>24.0</ele><time>2026-03-28T13:58:11.978Z</time></trkpt><trkpt lat="16.2561006" lon="-61.3620569"><ele>24.0</ele><time>2026-03-28T13:58:13.979Z</time></trkpt><trkpt lat="16.2560928" lon="-61.3619732"><ele>24.0</ele><time>2026-03-28T13:58:15.974Z</time></trkpt><trkpt lat="16.2561049" lon="-61.3618545"><ele>24.0</ele><time>2026-03-28T13:58:17.981Z</time></trkpt><trkpt lat="16.2561336" lon="-61.3617478"><ele>24.0</ele><time>2026-03-28T13:58:19.981Z</time></trkpt><trkpt lat="16.2561825" lon="-61.3616678"><ele>24.0</ele><time>2026-03-28T13:58:21.981Z</time></trkpt><trkpt lat="16.256254" lon="-61.3616612"><ele>24.0</ele><time>2026-03-28T13:59:20.964Z</time></trkpt><trkpt lat="16.2563356" lon="-61.3616907"><ele>24.0</ele><time>2026-03-28T13:59:22.977Z</time></trkpt><trkpt lat="16.2563935" lon="-61.3616509"><ele>24.0</ele><time>2026-03-28T13:59:27.966Z</time></trkpt><trkpt lat="16.2563238" lon="-61.3616314"><ele>23.999999999999996</ele><time>2026-03-28T13:59:31.035Z</time></trkpt><trkpt lat="16.2562671" lon="-61.3616608"><ele>24.0</ele><time>2026-03-28T13:59:32.952Z</time></trkpt><trkpt lat="16.2562821" lon="-61.3615871"><ele>24.0</ele><time>2026-03-28T13:59:53.965Z</time></trkpt><trkpt lat="16.2563295" lon="-61.361532"><ele>24.0</ele><time>2026-03-28T13:59:54.973Z</time></trkpt><trkpt lat="16.256368" lon="-61.3614763"><ele>24.0</ele><time>2026-03-28T13:59:55.984Z</time></trkpt><trkpt lat="16.2564192" lon="-61.3614206"><ele>23.999999999999996</ele><time>2026-03-28T13:59:57.052Z</time></trkpt><trkpt lat="16.2564882" lon="-61.3613508"><ele>24.0</ele><time>2026-03-28T13:59:58.986Z</time></trkpt><trkpt lat="16.256546" lon="-61.3613192"><ele>25.166666666666668</ele><time>2026-03-28T14:00:00.979Z</time></trkpt><trkpt lat="16.256619" lon="-61.3612594"><ele>26.333333333333336</ele><time>2026-03-28T14:00:03.982Z</time></trkpt><trkpt lat="16.2567005" lon="-61.3612293"><ele>27.5</ele><time>2026-03-28T14:00:06.977Z</time></trkpt><trkpt lat="16.2567632" lon="-61.3612014"><ele>28.666666666666668</ele><time>2026-03-28T14:00:10.002Z</time></trkpt><trkpt lat="16.256826" lon="-61.3612363"><ele>29.833333333333336</ele><time>2026-03-28T14:00:12.976Z</time></trkpt><trkpt lat="16.2569447" lon="-61.3612718"><ele>31.0</ele><time>2026-03-28T14:00:14.98Z</time></trkpt><trkpt lat="16.2570605" lon="-61.3613063"><ele>31.000000000000004</ele><time>2026-03-28T14:00:17.033Z</time></trkpt><trkpt lat="16.2571665" lon="-61.3613213"><ele>31.0</ele><time>2026-03-28T14:00:18.976Z</time></trkpt><trkpt lat="16.257235" lon="-61.3613351"><ele>31.0</ele><time>2026-03-28T14:00:21.957Z</time></trkpt><trkpt lat="16.2573367" lon="-61.3613618"><ele>31.0</ele><time>2026-03-28T14:00:24.984Z</time></trkpt><trkpt lat="16.257399" lon="-61.3613732"><ele>31.000000000000004</ele><time>2026-03-28T14:00:40.971Z</time></trkpt><trkpt lat="16.2573342" lon="-61.3613788"><ele>31.0</ele><time>2026-03-28T14:00:46.971Z</time></trkpt><trkpt lat="16.2572604" lon="-61.361356"><ele>31.0</ele><time>2026-03-28T14:00:48.973Z</time></trkpt><trkpt lat="16.2571616" lon="-61.361348"><ele>31.0</ele><time>2026-03-28T14:00:51.986Z</time></trkpt><trkpt lat="16.2570321" lon="-61.3613211"><ele>31.0</ele><time>2026-03-28T14:00:53.991Z</time></trkpt><trkpt lat="16.2569588" lon="-61.3613017"><ele>31.0</ele><time>2026-03-28T14:00:54.987Z</time></trkpt><trkpt lat="16.2568808" lon="-61.3612776"><ele>31.0</ele><time>2026-03-28T14:00:55.981Z</time></trkpt><trkpt lat="16.256819" lon="-61.3612417"><ele>31.0</ele><time>2026-03-28T14:00:57.07Z</time></trkpt><trkpt lat="16.256745" lon="-61.3611801"><ele>31.0</ele><time>2026-03-28T14:00:58.99Z</time></trkpt><trkpt lat="16.2567612" lon="-61.3610639"><ele>31.0</ele><time>2026-03-28T14:01:00.977Z</time></trkpt><trkpt lat="16.256795" lon="-61.3609543"><ele>31.0</ele><time>2026-03-28T14:01:02.992Z</time></trkpt><trkpt lat="16.2569037" lon="-61.3609463"><ele>31.0</ele><time>2026-03-28T14:01:05.983Z</time></trkpt><trkpt lat="16.2569713" lon="-61.3609415"><ele>31.000000000000004</ele><time>2026-03-28T14:01:06.948Z</time></trkpt><trkpt lat="16.2570395" lon="-61.3609308"><ele>31.0</ele><time>2026-03-28T14:01:07.949Z</time></trkpt><trkpt lat="16.2571495" lon="-61.3609259"><ele>31.0</ele><time>2026-03-28T14:01:09.983Z</time></trkpt><trkpt lat="16.2572214" lon="-61.3609349"><ele>31.0</ele><time>2026-03-28T14:01:11.987Z</time></trkpt><trkpt lat="16.2572923" lon="-61.3609725"><ele>31.000000000000004</ele><time>2026-03-28T14:01:14.964Z</time></trkpt><trkpt lat="16.2573767" lon="-61.3609995"><ele>31.0</ele><time>2026-03-28T14:01:17.987Z</time></trkpt><trkpt lat="16.2574671" lon="-61.3610319"><ele>31.0</ele><time>2026-03-28T14:01:20.977Z</time></trkpt><trkpt lat="16.2575809" lon="-61.3610827"><ele>31.0</ele><time>2026-03-28T14:01:22.982Z</time></trkpt><trkpt lat="16.257658" lon="-61.3611002"><ele>31.0</ele><time>2026-03-28T14:01:23.991Z</time></trkpt><trkpt lat="16.2577363" lon="-61.3611174"><ele>31.0</ele><time>2026-03-28T14:01:24.968Z</time></trkpt><trkpt lat="16.2578229" lon="-61.361124"><ele>31.0</ele><time>2026-03-28T14:01:25.988Z</time></trkpt><trkpt lat="16.2579092" lon="-61.3611437"><ele>31.000000000000004</ele><time>2026-03-28T14:01:26.986Z</time></trkpt><trkpt lat="16.2580014" lon="-61.3611664"><ele>31.0</ele><time>2026-03-28T14:01:27.989Z</time></trkpt><trkpt lat="16.2580874" lon="-61.3611841"><ele>31.0</ele><time>2026-03-28T14:01:28.959Z</time></trkpt><trkpt lat="16.2581568" lon="-61.3611995"><ele>31.0</ele><time>2026-03-28T14:01:29.996Z</time></trkpt><trkpt lat="16.2582243" lon="-61.3612008"><ele>31.000000000000004</ele><time>2026-03-28T14:01:30.985Z</time></trkpt><trkpt lat="16.258301" lon="-61.3612052"><ele>31.0</ele><time>2026-03-28T14:01:32.989Z</time></trkpt><trkpt lat="16.2584004" lon="-61.3612312"><ele>30.857142857142858</ele><time>2026-03-28T14:01:35.973Z</time></trkpt><trkpt lat="16.2584808" lon="-61.3612628"><ele>30.714285714285715</ele><time>2026-03-28T14:01:37.991Z</time></trkpt><trkpt lat="16.2585048" lon="-61.3613279"><ele>30.571428571428573</ele><time>2026-03-28T14:01:48.964Z</time></trkpt><trkpt lat="16.2584679" lon="-61.3613884"><ele>30.42857142857143</ele><time>2026-03-28T14:01:52.981Z</time></trkpt><trkpt lat="16.2584157" lon="-61.3614395"><ele>30.285714285714285</ele><time>2026-03-28T14:01:54.953Z</time></trkpt><trkpt lat="16.2583643" lon="-61.3614777"><ele>30.142857142857146</ele><time>2026-03-28T14:01:56.964Z</time></trkpt><trkpt lat="16.2583157" lon="-61.3615401"><ele>30.0</ele><time>2026-03-28T14:01:59.967Z</time></trkpt><trkpt lat="16.2583706" lon="-61.3615933"><ele>31.166666666666668</ele><time>2026-03-28T14:02:01.973Z</time></trkpt><trkpt lat="16.2584426" lon="-61.3616202"><ele>32.333333333333336</ele><time>2026-03-28T14:02:02.977Z</time></trkpt><trkpt lat="16.2585201" lon="-61.3616357"><ele>33.5</ele><time>2026-03-28T14:02:03.991Z</time></trkpt><trkpt lat="16.2586009" lon="-61.3616608"><ele>34.66666666666667</ele><time>2026-03-28T14:02:04.978Z</time></trkpt><trkpt lat="16.2586893" lon="-61.3616811"><ele>35.833333333333336</ele><time>2026-03-28T14:02:05.986Z</time></trkpt><trkpt lat="16.2587779" lon="-61.3617057"><ele>37.0</ele><time>2026-03-28T14:02:06.973Z</time></trkpt><trkpt lat="16.25887" lon="-61.3617379"><ele>37.4</ele><time>2026-03-28T14:02:07.977Z</time></trkpt><trkpt lat="16.258958" lon="-61.3617759"><ele>37.800000000000004</ele><time>2026-03-28T14:02:08.971Z</time></trkpt><trkpt lat="16.259047" lon="-61.3618092"><ele>38.2</ele><time>2026-03-28T14:02:09.973Z</time></trkpt><trkpt lat="16.2591426" lon="-61.3618342"><ele>38.6</ele><time>2026-03-28T14:02:11.058Z</time></trkpt><trkpt lat="16.2592354" lon="-61.3618538"><ele>39.0</ele><time>2026-03-28T14:02:11.978Z</time></trkpt><trkpt lat="16.2593278" lon="-61.3618789"><ele>39.0</ele><time>2026-03-28T14:02:12.99Z</time></trkpt><trkpt lat="16.2594211" lon="-61.3618969"><ele>39.0</ele><time>2026-03-28T14:02:13.983Z</time></trkpt><trkpt lat="16.2595087" lon="-61.3619145"><ele>39.0</ele><time>2026-03-28T14:02:14.957Z</time></trkpt><trkpt lat="16.2595929" lon="-61.3619302"><ele>39.0</ele><time>2026-03-28T14:02:15.981Z</time></trkpt><trkpt lat="16.2596741" lon="-61.3619481"><ele>39.0</ele><time>2026-03-28T14:02:16.985Z</time></trkpt><trkpt lat="16.2597604" lon="-61.361965"><ele>39.0</ele><time>2026-03-28T14:02:17.975Z</time></trkpt><trkpt lat="16.2598471" lon="-61.3619787"><ele>39.0</ele><time>2026-03-28T14:02:18.99Z</time></trkpt><trkpt lat="16.2599369" lon="-61.3619998"><ele>39.0</ele><time>2026-03-28T14:02:20.006Z</time></trkpt><trkpt lat="16.2600242" lon="-61.3620172"><ele>39.0</ele><time>2026-03-28T14:02:20.972Z</time></trkpt><trkpt lat="16.2601061" lon="-61.362033"><ele>39.0</ele><time>2026-03-28T14:02:21.979Z</time></trkpt><trkpt lat="16.2601829" lon="-61.3620538"><ele>39.0</ele><time>2026-03-28T14:02:22.983Z</time></trkpt><trkpt lat="16.2602556" lon="-61.3620733"><ele>39.0</ele><time>2026-03-28T14:02:24.988Z</time></trkpt><trkpt lat="16.260303" lon="-61.3621289"><ele>39.5</ele><time>2026-03-28T14:02:29.978Z</time></trkpt><trkpt lat="16.2603022" lon="-61.3622771"><ele>40.0</ele><time>2026-03-28T14:02:31.971Z</time></trkpt><trkpt lat="16.2603032" lon="-61.3623855"><ele>40.5</ele><time>2026-03-28T14:02:32.98Z</time></trkpt><trkpt lat="16.260306" lon="-61.362495"><ele>41.0</ele><time>2026-03-28T14:02:33.965Z</time></trkpt><trkpt lat="16.2603334" lon="-61.3626071"><ele>41.0</ele><time>2026-03-28T14:02:34.985Z</time></trkpt><trkpt lat="16.2603858" lon="-61.3627191"><ele>41.0</ele><time>2026-03-28T14:02:36.031Z</time></trkpt><trkpt lat="16.2604524" lon="-61.3628265"><ele>41.0</ele><time>2026-03-28T14:02:37.026Z</time></trkpt><trkpt lat="16.2605309" lon="-61.3629277"><ele>41.0</ele><time>2026-03-28T14:02:37.972Z</time></trkpt><trkpt lat="16.2605994" lon="-61.3630288"><ele>40.75</ele><time>2026-03-28T14:02:38.98Z</time></trkpt><trkpt lat="16.2606892" lon="-61.363138"><ele>40.5</ele><time>2026-03-28T14:02:39.976Z</time></trkpt><trkpt lat="16.2607643" lon="-61.3632487"><ele>40.25</ele><time>2026-03-28T14:02:40.978Z</time></trkpt><trkpt lat="16.2608349" lon="-61.3633506"><ele>40.0</ele><time>2026-03-28T14:02:41.976Z</time></trkpt><trkpt lat="16.2609055" lon="-61.3634538"><ele>40.0</ele><time>2026-03-28T14:02:42.979Z</time></trkpt><trkpt lat="16.2609529" lon="-61.3635778"><ele>40.0</ele><time>2026-03-28T14:02:43.973Z</time></trkpt><trkpt lat="16.2609758" lon="-61.3637013"><ele>40.0</ele><time>2026-03-28T14:02:45.085Z</time></trkpt><trkpt lat="16.2609849" lon="-61.3638249"><ele>40.0</ele><time>2026-03-28T14:02:45.975Z</time></trkpt><trkpt lat="16.2609741" lon="-61.3639567"><ele>39.25</ele><time>2026-03-28T14:02:46.982Z</time></trkpt><trkpt lat="16.2609654" lon="-61.3640794"><ele>38.5</ele><time>2026-03-28T14:02:47.967Z</time></trkpt><trkpt lat="16.2609663" lon="-61.364204"><ele>37.75</ele><time>2026-03-28T14:02:48.976Z</time></trkpt><trkpt lat="16.260957" lon="-61.3643258"><ele>37.0</ele><time>2026-03-28T14:02:49.98Z</time></trkpt><trkpt lat="16.2609534" lon="-61.364447"><ele>37.0</ele><time>2026-03-28T14:02:50.984Z</time></trkpt><trkpt lat="16.2609438" lon="-61.3645646"><ele>37.0</ele><time>2026-03-28T14:02:52.037Z</time></trkpt><trkpt lat="16.2609356" lon="-61.3646874"><ele>37.0</ele><time>2026-03-28T14:02:52.975Z</time></trkpt><trkpt lat="16.2609348" lon="-61.3648099"><ele>37.0</ele><time>2026-03-28T14:02:54.046Z</time></trkpt><trkpt lat="16.2609302" lon="-61.3649348"><ele>37.333333333333336</ele><time>2026-03-28T14:02:54.975Z</time></trkpt><trkpt lat="16.2609352" lon="-61.3650478"><ele>37.66666666666667</ele><time>2026-03-28T14:02:55.979Z</time></trkpt><trkpt lat="16.2609498" lon="-61.3651391"><ele>38.0</ele><time>2026-03-28T14:02:56.977Z</time></trkpt><trkpt lat="16.2609872" lon="-61.3652108"><ele>38.333333333333336</ele><time>2026-03-28T14:02:57.974Z</time></trkpt><trkpt lat="16.2610381" lon="-61.3652667"><ele>38.666666666666664</ele><time>2026-03-28T14:02:58.979Z</time></trkpt><trkpt lat="16.2610902" lon="-61.3653204"><ele>39.0</ele><time>2026-03-28T14:03:00.033Z</time></trkpt><trkpt lat="16.2611517" lon="-61.3653639"><ele>39.0</ele><time>2026-03-28T14:03:01.036Z</time></trkpt><trkpt lat="16.2612249" lon="-61.3653867"><ele>39.0</ele><time>2026-03-28T14:03:01.977Z</time></trkpt><trkpt lat="16.2612919" lon="-61.3653987"><ele>39.0</ele><time>2026-03-28T14:03:02.976Z</time></trkpt><trkpt lat="16.2613674" lon="-61.365402"><ele>39.0</ele><time>2026-03-28T14:03:03.985Z</time></trkpt><trkpt lat="16.2614463" lon="-61.3654043"><ele>39.0</ele><time>2026-03-28T14:03:05.083Z</time></trkpt><trkpt lat="16.2615734" lon="-61.365421"><ele>39.0</ele><time>2026-03-28T14:03:07.043Z</time></trkpt><trkpt lat="16.2616373" lon="-61.3654287"><ele>39.666666666666664</ele><time>2026-03-28T14:03:07.97Z</time></trkpt><trkpt lat="16.2617149" lon="-61.3654359"><ele>40.333333333333336</ele><time>2026-03-28T14:03:08.957Z</time></trkpt><trkpt lat="16.2617931" lon="-61.3654474"><ele>41.0</ele><time>2026-03-28T14:03:09.975Z</time></trkpt><trkpt lat="16.2618946" lon="-61.3654499"><ele>41.66666666666667</ele><time>2026-03-28T14:03:11.967Z</time></trkpt><trkpt lat="16.2619777" lon="-61.3654402"><ele>42.333333333333336</ele><time>2026-03-28T14:03:14.987Z</time></trkpt><trkpt lat="16.262047" lon="-61.365377"><ele>43.0</ele><time>2026-03-28T14:03:17.978Z</time></trkpt><trkpt lat="16.2620947" lon="-61.3652701"><ele>43.0</ele><time>2026-03-28T14:03:19.977Z</time></trkpt><trkpt lat="16.2621289" lon="-61.3652132"><ele>43.0</ele><time>2026-03-28T14:03:20.98Z</time></trkpt><trkpt lat="16.2622225" lon="-61.3651298"><ele>43.0</ele><time>2026-03-28T14:03:22.98Z</time></trkpt><trkpt lat="16.2622784" lon="-61.3650967"><ele>43.0</ele><time>2026-03-28T14:03:23.977Z</time></trkpt><trkpt lat="16.2623344" lon="-61.3650577"><ele>43.0</ele><time>2026-03-28T14:03:24.976Z</time></trkpt><trkpt lat="16.2624268" lon="-61.3649818"><ele>43.0</ele><time>2026-03-28T14:03:26.981Z</time></trkpt><trkpt lat="16.2624645" lon="-61.3649252"><ele>42.0</ele><time>2026-03-28T14:03:27.953Z</time></trkpt><trkpt lat="16.2624996" lon="-61.364861"><ele>41.0</ele><time>2026-03-28T14:03:28.983Z</time></trkpt><trkpt lat="16.2625262" lon="-61.3647905"><ele>40.0</ele><time>2026-03-28T14:03:29.984Z</time></trkpt><trkpt lat="16.262546" lon="-61.3647072"><ele>39.0</ele><time>2026-03-28T14:03:30.963Z</time></trkpt><trkpt lat="16.2625602" lon="-61.3646256"><ele>38.0</ele><time>2026-03-28T14:03:31.972Z</time></trkpt><trkpt lat="16.262583" lon="-61.3645637"><ele>37.0</ele><time>2026-03-28T14:03:32.978Z</time></trkpt><trkpt lat="16.262603" lon="-61.3644518"><ele>36.2</ele><time>2026-03-28T14:03:34.962Z</time></trkpt><trkpt lat="16.2625994" lon="-61.3643634"><ele>35.400000000000006</ele><time>2026-03-28T14:03:36.968Z</time></trkpt><trkpt lat="16.2626602" lon="-61.3643049"><ele>34.599999999999994</ele><time>2026-03-28T14:03:39.979Z</time></trkpt><trkpt lat="16.2627448" lon="-61.3642687"><ele>33.8</ele><time>2026-03-28T14:03:42.977Z</time></trkpt><trkpt lat="16.2628443" lon="-61.3642804"><ele>33.0</ele><time>2026-03-28T14:03:45.965Z</time></trkpt><trkpt lat="16.262945" lon="-61.3642838"><ele>33.0</ele><time>2026-03-28T14:03:47.961Z</time></trkpt><trkpt lat="16.2630041" lon="-61.3643234"><ele>33.0</ele><time>2026-03-28T14:03:50.973Z</time></trkpt><trkpt lat="16.2629558" lon="-61.3643675"><ele>33.0</ele><time>2026-03-28T14:03:53.979Z</time></trkpt><trkpt lat="16.2628901" lon="-61.3643445"><ele>33.0</ele><time>2026-03-28T14:03:56.974Z</time></trkpt><trkpt lat="16.262824" lon="-61.3643041"><ele>33.0</ele><time>2026-03-28T14:04:12.98Z</time></trkpt><trkpt lat="16.2627691" lon="-61.364261"><ele>33.0</ele><time>2026-03-28T14:04:14.972Z</time></trkpt><trkpt lat="16.262707" lon="-61.3642077"><ele>33.0</ele><time>2026-03-28T14:04:16.967Z</time></trkpt><trkpt lat="16.262659" lon="-61.3641078"><ele>33.0</ele><time>2026-03-28T14:04:18.949Z</time></trkpt><trkpt lat="16.2626095" lon="-61.3639952"><ele>33.0</ele><time>2026-03-28T14:04:20.944Z</time></trkpt><trkpt lat="16.2625801" lon="-61.3639332"><ele>33.0</ele><time>2026-03-28T14:04:21.947Z</time></trkpt><trkpt lat="16.2625113" lon="-61.3638536"><ele>33.0</ele><time>2026-03-28T14:04:23.977Z</time></trkpt><trkpt lat="16.2624247" lon="-61.3637834"><ele>33.0</ele><time>2026-03-28T14:04:25.949Z</time></trkpt><trkpt lat="16.2623421" lon="-61.3637221"><ele>33.333333333333336</ele><time>2026-03-28T14:04:27.999Z</time></trkpt><trkpt lat="16.2622753" lon="-61.3637277"><ele>33.666666666666664</ele><time>2026-03-28T14:04:32.986Z</time></trkpt><trkpt lat="16.2622478" lon="-61.3636508"><ele>34.0</ele><time>2026-03-28T14:04:35.969Z</time></trkpt><trkpt lat="16.2622383" lon="-61.363559"><ele>34.33333333333333</ele><time>2026-03-28T14:04:37.974Z</time></trkpt><trkpt lat="16.2622516" lon="-61.3634379"><ele>34.666666666666664</ele><time>2026-03-28T14:04:39.974Z</time></trkpt><trkpt lat="16.2623087" lon="-61.3633815"><ele>35.0</ele><time>2026-03-28T14:04:41.978Z</time></trkpt><trkpt lat="16.2623838" lon="-61.3633504"><ele>35.0</ele><time>2026-03-28T14:04:44.976Z</time></trkpt><trkpt lat="16.2624382" lon="-61.3633914"><ele>35.0</ele><time>2026-03-28T14:04:48.978Z</time></trkpt><trkpt lat="16.2624631" lon="-61.3634815"><ele>35.0</ele><time>2026-03-28T14:04:51.971Z</time></trkpt><trkpt lat="16.2625169" lon="-61.3635314"><ele>35.0</ele><time>2026-03-28T14:05:06.963Z</time></trkpt><trkpt lat="16.262437" lon="-61.3634922"><ele>35.0</ele><time>2026-03-28T14:05:21.958Z</time></trkpt><trkpt lat="16.2625027" lon="-61.3635205"><ele>35.0</ele><time>2026-03-28T14:05:32.976Z</time></trkpt><trkpt lat="16.2625535" lon="-61.3635662"><ele>35.0</ele><time>2026-03-28T14:05:36.976Z</time></trkpt><trkpt lat="16.2624878" lon="-61.3635949"><ele>35.0</ele><time>2026-03-28T14:05:43.96Z</time></trkpt><trkpt lat="16.2624429" lon="-61.3635366"><ele>35.0</ele><time>2026-03-28T14:05:46.963Z</time></trkpt><trkpt lat="16.2625069" lon="-61.3635373"><ele>35.0</ele><time>2026-03-28T14:05:50.963Z</time></trkpt><trkpt lat="16.2625749" lon="-61.3635878"><ele>35.0</ele><time>2026-03-28T14:05:53.977Z</time></trkpt><trkpt lat="16.2626433" lon="-61.3636509"><ele>35.0</ele><time>2026-03-28T14:05:55.974Z</time></trkpt><trkpt lat="16.2627084" lon="-61.3637168"><ele>35.0</ele><time>2026-03-28T14:05:57.98Z</time></trkpt><trkpt lat="16.2627615" lon="-61.3637846"><ele>35.0</ele><time>2026-03-28T14:05:59.977Z</time></trkpt><trkpt lat="16.2628371" lon="-61.3638572"><ele>35.0</ele><time>2026-03-28T14:06:01.978Z</time></trkpt><trkpt lat="16.2629355" lon="-61.3639238"><ele>35.0</ele><time>2026-03-28T14:06:03.985Z</time></trkpt><trkpt lat="16.2630549" lon="-61.3638824"><ele>35.0</ele><time>2026-03-28T14:06:05.982Z</time></trkpt><trkpt lat="16.2630994" lon="-61.3638277"><ele>34.666666666666664</ele><time>2026-03-28T14:06:06.99Z</time></trkpt><trkpt lat="16.2631402" lon="-61.3637662"><ele>34.33333333333333</ele><time>2026-03-28T14:06:07.978Z</time></trkpt><trkpt lat="16.2631911" lon="-61.3637203"><ele>34.0</ele><time>2026-03-28T14:06:09.978Z</time></trkpt><trkpt lat="16.2631899" lon="-61.3637867"><ele>33.666666666666664</ele><time>2026-03-28T14:06:13.967Z</time></trkpt><trkpt lat="16.2631393" lon="-61.3638849"><ele>33.333333333333336</ele><time>2026-03-28T14:06:15.973Z</time></trkpt><trkpt lat="16.2630663" lon="-61.3639564"><ele>33.0</ele><time>2026-03-28T14:06:17.98Z</time></trkpt><trkpt lat="16.2630245" lon="-61.3640109"><ele>33.0</ele><time>2026-03-28T14:06:19.971Z</time></trkpt><trkpt lat="16.2630087" lon="-61.3641222"><ele>33.0</ele><time>2026-03-28T14:06:21.972Z</time></trkpt><trkpt lat="16.2630038" lon="-61.3642418"><ele>33.0</ele><time>2026-03-28T14:06:23.985Z</time></trkpt><trkpt lat="16.2629957" lon="-61.3643099"><ele>33.0</ele><time>2026-03-28T14:06:24.985Z</time></trkpt><trkpt lat="16.262973" lon="-61.3643824"><ele>33.0</ele><time>2026-03-28T14:06:26.978Z</time></trkpt><trkpt lat="16.262887" lon="-61.3643814"><ele>33.0</ele><time>2026-03-28T14:08:24.972Z</time></trkpt><trkpt lat="16.2629447" lon="-61.3643388"><ele>33.0</ele><time>2026-03-28T14:14:53.974Z</time></trkpt><trkpt lat="16.2630062" lon="-61.3643549"><ele>33.0</ele><time>2026-03-28T14:16:46.974Z</time></trkpt><trkpt lat="16.2629274" lon="-61.3643863"><ele>33.0</ele><time>2026-03-28T14:18:53.965Z</time></trkpt><trkpt lat="16.2628596" lon="-61.3643709"><ele>33.0</ele><time>2026-03-28T14:18:57.031Z</time></trkpt><trkpt lat="16.2628028" lon="-61.3643347"><ele>33.0</ele><time>2026-03-28T14:19:02.036Z</time></trkpt><trkpt lat="16.2627376" lon="-61.3643022"><ele>33.0</ele><time>2026-03-28T14:19:04.956Z</time></trkpt><trkpt lat="16.2626781" lon="-61.3642529"><ele>33.0</ele><time>2026-03-28T14:19:08.957Z</time></trkpt><trkpt lat="16.2626433" lon="-61.3641678"><ele>33.0</ele><time>2026-03-28T14:19:11.96Z</time></trkpt><trkpt lat="16.2626754" lon="-61.3640697"><ele>33.0</ele><time>2026-03-28T14:19:13.967Z</time></trkpt><trkpt lat="16.2627371" lon="-61.363987"><ele>33.0</ele><time>2026-03-28T14:19:15.971Z</time></trkpt><trkpt lat="16.2628252" lon="-61.3639151"><ele>33.0</ele><time>2026-03-28T14:19:17.966Z</time></trkpt><trkpt lat="16.2629393" lon="-61.3638566"><ele>33.0</ele><time>2026-03-28T14:19:20.039Z</time></trkpt><trkpt lat="16.2630511" lon="-61.3638062"><ele>31.5</ele><time>2026-03-28T14:19:21.985Z</time></trkpt><trkpt lat="16.2631533" lon="-61.3637751"><ele>30.0</ele><time>2026-03-28T14:19:23.96Z</time></trkpt><trkpt lat="16.2632698" lon="-61.3637353"><ele>28.5</ele><time>2026-03-28T14:19:25.964Z</time></trkpt><trkpt lat="16.263325" lon="-61.3637012"><ele>27.0</ele><time>2026-03-28T14:19:26.992Z</time></trkpt><trkpt lat="16.2633701" lon="-61.363629"><ele>25.5</ele><time>2026-03-28T14:19:28.962Z</time></trkpt><trkpt lat="16.2634237" lon="-61.3635879"><ele>24.0</ele><time>2026-03-28T14:19:34.042Z</time></trkpt><trkpt lat="16.2634854" lon="-61.3635731"><ele>24.0</ele><time>2026-03-28T14:19:35.946Z</time></trkpt><trkpt lat="16.2635538" lon="-61.3635359"><ele>24.0</ele><time>2026-03-28T14:19:37.951Z</time></trkpt><trkpt lat="16.2636256" lon="-61.3635342"><ele>24.0</ele><time>2026-03-28T14:19:46.964Z</time></trkpt><trkpt lat="16.2636891" lon="-61.3635077"><ele>24.0</ele><time>2026-03-28T14:19:49.039Z</time></trkpt><trkpt lat="16.2638332" lon="-61.3634826"><ele>24.0</ele><time>2026-03-28T14:19:51.976Z</time></trkpt><trkpt lat="16.2639018" lon="-61.3634649"><ele>24.0</ele><time>2026-03-28T14:19:52.966Z</time></trkpt><trkpt lat="16.2639596" lon="-61.3634386"><ele>24.833333333333332</ele><time>2026-03-28T14:19:53.98Z</time></trkpt><trkpt lat="16.2640605" lon="-61.3634701"><ele>25.666666666666664</ele><time>2026-03-28T14:19:55.974Z</time></trkpt><trkpt lat="16.2641599" lon="-61.3635362"><ele>26.5</ele><time>2026-03-28T14:19:58.038Z</time></trkpt><trkpt lat="16.2642095" lon="-61.363578"><ele>27.333333333333332</ele><time>2026-03-28T14:19:59.034Z</time></trkpt><trkpt lat="16.2642452" lon="-61.363633"><ele>28.166666666666664</ele><time>2026-03-28T14:19:59.973Z</time></trkpt><trkpt lat="16.2642741" lon="-61.3636968"><ele>29.0</ele><time>2026-03-28T14:20:00.965Z</time></trkpt><trkpt lat="16.2642885" lon="-61.3637703"><ele>29.0</ele><time>2026-03-28T14:20:01.953Z</time></trkpt><trkpt lat="16.264359" lon="-61.3638626"><ele>29.0</ele><time>2026-03-28T14:20:03.979Z</time></trkpt><trkpt lat="16.2644626" lon="-61.3638772"><ele>29.0</ele><time>2026-03-28T14:20:05.974Z</time></trkpt><trkpt lat="16.2645353" lon="-61.3638516"><ele>29.0</ele><time>2026-03-28T14:20:06.985Z</time></trkpt><trkpt lat="16.2646209" lon="-61.3638136"><ele>29.0</ele><time>2026-03-28T14:20:07.981Z</time></trkpt><trkpt lat="16.2647155" lon="-61.3637683"><ele>31.0</ele><time>2026-03-28T14:20:08.978Z</time></trkpt><trkpt lat="16.26481" lon="-61.3637194"><ele>33.0</ele><time>2026-03-28T14:20:09.986Z</time></trkpt><trkpt lat="16.2648923" lon="-61.3636845"><ele>35.0</ele><time>2026-03-28T14:20:10.985Z</time></trkpt><trkpt lat="16.2649656" lon="-61.3636625"><ele>37.0</ele><time>2026-03-28T14:20:11.994Z</time></trkpt><trkpt lat="16.265086" lon="-61.3636746"><ele>39.0</ele><time>2026-03-28T14:20:14.056Z</time></trkpt><trkpt lat="16.2651443" lon="-61.3637033"><ele>39.0</ele><time>2026-03-28T14:20:15.05Z</time></trkpt><trkpt lat="16.2652226" lon="-61.3637216"><ele>39.0</ele><time>2026-03-28T14:20:16.984Z</time></trkpt><trkpt lat="16.2652783" lon="-61.3636883"><ele>39.0</ele><time>2026-03-28T14:20:21.984Z</time></trkpt><trkpt lat="16.2652468" lon="-61.3637836"><ele>39.0</ele><time>2026-03-28T14:20:23.949Z</time></trkpt><trkpt lat="16.265233" lon="-61.36387"><ele>39.0</ele><time>2026-03-28T14:20:24.971Z</time></trkpt><trkpt lat="16.2652307" lon="-61.363958"><ele>39.0</ele><time>2026-03-28T14:20:25.974Z</time></trkpt><trkpt lat="16.2652302" lon="-61.3640488"><ele>38.333333333333336</ele><time>2026-03-28T14:20:26.983Z</time></trkpt><trkpt lat="16.265222" lon="-61.3641305"><ele>37.666666666666664</ele><time>2026-03-28T14:20:27.98Z</time></trkpt><trkpt lat="16.2652147" lon="-61.3642112"><ele>37.0</ele><time>2026-03-28T14:20:28.976Z</time></trkpt><trkpt lat="16.2652074" lon="-61.3642987"><ele>36.33333333333333</ele><time>2026-03-28T14:20:29.985Z</time></trkpt><trkpt lat="16.2651989" lon="-61.3643817"><ele>35.666666666666664</ele><time>2026-03-28T14:20:30.974Z</time></trkpt><trkpt lat="16.2651899" lon="-61.3644538"><ele>35.0</ele><time>2026-03-28T14:20:31.984Z</time></trkpt><trkpt lat="16.2651889" lon="-61.3645703"><ele>35.0</ele><time>2026-03-28T14:20:33.985Z</time></trkpt><trkpt lat="16.2651935" lon="-61.3646858"><ele>35.0</ele><time>2026-03-28T14:20:35.983Z</time></trkpt><trkpt lat="16.2651932" lon="-61.3647565"><ele>35.0</ele><time>2026-03-28T14:20:37.993Z</time></trkpt><trkpt lat="16.2652523" lon="-61.3648195"><ele>35.0</ele><time>2026-03-28T14:20:40.985Z</time></trkpt><trkpt lat="16.2653571" lon="-61.3648251"><ele>35.0</ele><time>2026-03-28T14:20:43.04Z</time></trkpt><trkpt lat="16.2654288" lon="-61.3648164"><ele>35.0</ele><time>2026-03-28T14:20:43.982Z</time></trkpt><trkpt lat="16.2655133" lon="-61.3648048"><ele>35.0</ele><time>2026-03-28T14:20:44.979Z</time></trkpt><trkpt lat="16.2655986" lon="-61.364778"><ele>35.0</ele><time>2026-03-28T14:20:45.973Z</time></trkpt><trkpt lat="16.2656795" lon="-61.3647483"><ele>35.0</ele><time>2026-03-28T14:20:46.981Z</time></trkpt><trkpt lat="16.2657589" lon="-61.3647297"><ele>35.0</ele><time>2026-03-28T14:20:47.989Z</time></trkpt><trkpt lat="16.2658383" lon="-61.3647065"><ele>35.0</ele><time>2026-03-28T14:20:48.954Z</time></trkpt><trkpt lat="16.2659398" lon="-61.3646643"><ele>35.0</ele><time>2026-03-28T14:20:50.987Z</time></trkpt><trkpt lat="16.2660028" lon="-61.3646045"><ele>36.142857142857146</ele><time>2026-03-28T14:20:53.963Z</time></trkpt><trkpt lat="16.2660545" lon="-61.3645595"><ele>37.285714285714285</ele><time>2026-03-28T14:21:00.973Z</time></trkpt><trkpt lat="16.2660522" lon="-61.3644849"><ele>38.42857142857143</ele><time>2026-03-28T14:21:03.978Z</time></trkpt><trkpt lat="16.2660645" lon="-61.3644127"><ele>39.57142857142857</ele><time>2026-03-28T14:21:05.981Z</time></trkpt><trkpt lat="16.2660788" lon="-61.3643206"><ele>40.714285714285715</ele><time>2026-03-28T14:21:08.964Z</time></trkpt><trkpt lat="16.266125" lon="-61.3642583"><ele>41.85714285714286</ele><time>2026-03-28T14:21:11.968Z</time></trkpt><trkpt lat="16.2661689" lon="-61.3642047"><ele>43.0</ele><time>2026-03-28T14:21:15.982Z</time></trkpt><trkpt lat="16.2662269" lon="-61.364158"><ele>43.0</ele><time>2026-03-28T14:21:28.979Z</time></trkpt><trkpt lat="16.2662988" lon="-61.3641029"><ele>43.0</ele><time>2026-03-28T14:21:31.981Z</time></trkpt><trkpt lat="16.2663688" lon="-61.3640435"><ele>43.0</ele><time>2026-03-28T14:21:33.963Z</time></trkpt><trkpt lat="16.2664338" lon="-61.363985"><ele>43.0</ele><time>2026-03-28T14:21:35.95Z</time></trkpt><trkpt lat="16.2665091" lon="-61.3639152"><ele>43.0</ele><time>2026-03-28T14:21:37.978Z</time></trkpt><trkpt lat="16.2665887" lon="-61.3638634"><ele>40.66666666666667</ele><time>2026-03-28T14:21:39.975Z</time></trkpt><trkpt lat="16.2666596" lon="-61.3638031"><ele>38.333333333333336</ele><time>2026-03-28T14:21:41.994Z</time></trkpt><trkpt lat="16.2667151" lon="-61.3637405"><ele>36.0</ele><time>2026-03-28T14:21:43.971Z</time></trkpt><trkpt lat="16.2667742" lon="-61.3636897"><ele>33.666666666666664</ele><time>2026-03-28T14:21:45.975Z</time></trkpt><trkpt lat="16.2668456" lon="-61.3636519"><ele>31.333333333333332</ele><time>2026-03-28T14:21:47.976Z</time></trkpt><trkpt lat="16.2669205" lon="-61.3636199"><ele>29.0</ele><time>2026-03-28T14:21:49.966Z</time></trkpt><trkpt lat="16.2669854" lon="-61.3635838"><ele>28.999999999999996</ele><time>2026-03-28T14:21:51.961Z</time></trkpt><trkpt lat="16.2670558" lon="-61.3635357"><ele>29.0</ele><time>2026-03-28T14:21:54.988Z</time></trkpt><trkpt lat="16.2671188" lon="-61.3635192"><ele>29.0</ele><time>2026-03-28T14:21:57.975Z</time></trkpt><trkpt lat="16.2671652" lon="-61.3635638"><ele>29.0</ele><time>2026-03-28T14:22:00.965Z</time></trkpt><trkpt lat="16.267209" lon="-61.3636275"><ele>28.999999999999996</ele><time>2026-03-28T14:22:03.995Z</time></trkpt><trkpt lat="16.2672735" lon="-61.3637021"><ele>29.0</ele><time>2026-03-28T14:22:06.977Z</time></trkpt><trkpt lat="16.2673198" lon="-61.3637519"><ele>29.333333333333332</ele><time>2026-03-28T14:22:08.958Z</time></trkpt><trkpt lat="16.2673761" lon="-61.363792"><ele>29.666666666666664</ele><time>2026-03-28T14:22:11.975Z</time></trkpt><trkpt lat="16.2674487" lon="-61.3637934"><ele>30.0</ele><time>2026-03-28T14:22:14.98Z</time></trkpt><trkpt lat="16.2675415" lon="-61.3638216"><ele>30.333333333333336</ele><time>2026-03-28T14:22:17.983Z</time></trkpt><trkpt lat="16.2676112" lon="-61.363856"><ele>30.666666666666668</ele><time>2026-03-28T14:22:19.992Z</time></trkpt><trkpt lat="16.2676676" lon="-61.3639001"><ele>31.0</ele><time>2026-03-28T14:22:21.987Z</time></trkpt><trkpt lat="16.2677423" lon="-61.3639828"><ele>30.200000000000003</ele><time>2026-03-28T14:22:23.991Z</time></trkpt><trkpt lat="16.2678212" lon="-61.3640696"><ele>29.400000000000002</ele><time>2026-03-28T14:22:25.985Z</time></trkpt><trkpt lat="16.2678768" lon="-61.3641432"><ele>28.6</ele><time>2026-03-28T14:22:27.97Z</time></trkpt><trkpt lat="16.2679354" lon="-61.3642012"><ele>27.8</ele><time>2026-03-28T14:22:29.983Z</time></trkpt><trkpt lat="16.2680101" lon="-61.3642512"><ele>27.0</ele><time>2026-03-28T14:22:31.966Z</time></trkpt><trkpt lat="16.2680806" lon="-61.3642823"><ele>26.666666666666668</ele><time>2026-03-28T14:22:34.98Z</time></trkpt><trkpt lat="16.2681585" lon="-61.3642921"><ele>26.333333333333336</ele><time>2026-03-28T14:22:37.981Z</time></trkpt><trkpt lat="16.2682173" lon="-61.3643191"><ele>26.0</ele><time>2026-03-28T14:22:39.983Z</time></trkpt><trkpt lat="16.2683074" lon="-61.3643652"><ele>25.666666666666668</ele><time>2026-03-28T14:22:41.984Z</time></trkpt><trkpt lat="16.2683722" lon="-61.364409"><ele>25.333333333333336</ele><time>2026-03-28T14:22:43.955Z</time></trkpt><trkpt lat="16.268337" lon="-61.3643323"><ele>25.0</ele><time>2026-03-28T14:23:42.987Z</time></trkpt><trkpt lat="16.2683382" lon="-61.3642512"><ele>25.000000000000004</ele><time>2026-03-28T14:23:45.98Z</time></trkpt><trkpt lat="16.2683362" lon="-61.3641793"><ele>25.0</ele><time>2026-03-28T14:23:47.984Z</time></trkpt><trkpt lat="16.2683723" lon="-61.3641184"><ele>25.0</ele><time>2026-03-28T14:23:59.973Z</time></trkpt><trkpt lat="16.2683775" lon="-61.3640401"><ele>25.0</ele><time>2026-03-28T14:24:04.954Z</time></trkpt><trkpt lat="16.2683973" lon="-61.3639769"><ele>25.0</ele><time>2026-03-28T14:24:07.992Z</time></trkpt><trkpt lat="16.2684572" lon="-61.3639552"><ele>25.000000000000004</ele><time>2026-03-28T14:24:09.971Z</time></trkpt><trkpt lat="16.2685191" lon="-61.3639916"><ele>25.0</ele><time>2026-03-28T14:24:12.995Z</time></trkpt><trkpt lat="16.2684527" lon="-61.3640024"><ele>25.000000000000004</ele><time>2026-03-28T14:25:04.967Z</time></trkpt><trkpt lat="16.2684039" lon="-61.3640647"><ele>25.0</ele><time>2026-03-28T14:25:14.983Z</time></trkpt><trkpt lat="16.2683961" lon="-61.364135"><ele>25.0</ele><time>2026-03-28T14:25:18.985Z</time></trkpt><trkpt lat="16.2683603" lon="-61.3640807"><ele>25.0</ele><time>2026-03-28T14:28:19.976Z</time></trkpt><trkpt lat="16.2683697" lon="-61.3640037"><ele>25.0</ele><time>2026-03-28T14:28:33.979Z</time></trkpt><trkpt lat="16.2684252" lon="-61.3639715"><ele>25.000000000000004</ele><time>2026-03-28T14:28:40.962Z</time></trkpt><trkpt lat="16.2683828" lon="-61.363902"><ele>25.0</ele><time>2026-03-28T14:29:43.981Z</time></trkpt><trkpt lat="16.2683784" lon="-61.3638362"><ele>25.000000000000004</ele><time>2026-03-28T14:29:44.98Z</time></trkpt><trkpt lat="16.2684135" lon="-61.3637786"><ele>25.0</ele><time>2026-03-28T14:29:47.975Z</time></trkpt><trkpt lat="16.2684785" lon="-61.3638188"><ele>25.0</ele><time>2026-03-28T14:29:50.973Z</time></trkpt><trkpt lat="16.2684642" lon="-61.363905"><ele>25.0</ele><time>2026-03-28T14:29:53.965Z</time></trkpt><trkpt lat="16.2684297" lon="-61.3639632"><ele>25.0</ele><time>2026-03-28T14:29:57.041Z</time></trkpt><trkpt lat="16.268389" lon="-61.3640306"><ele>25.000000000000004</ele><time>2026-03-28T14:30:34.975Z</time></trkpt><trkpt lat="16.2683659" lon="-61.3641067"><ele>25.0</ele><time>2026-03-28T14:30:40.967Z</time></trkpt><trkpt lat="16.2683264" lon="-61.3641858"><ele>25.000000000000004</ele><time>2026-03-28T14:30:45.955Z</time></trkpt><trkpt lat="16.2683108" lon="-61.3642595"><ele>25.0</ele><time>2026-03-28T14:30:47.974Z</time></trkpt><trkpt lat="16.2682868" lon="-61.3643486"><ele>25.0</ele><time>2026-03-28T14:30:50.974Z</time></trkpt><trkpt lat="16.2683636" lon="-61.364403"><ele>25.0</ele><time>2026-03-28T14:31:18.963Z</time></trkpt><trkpt lat="16.2684203" lon="-61.3644321"><ele>25.000000000000004</ele><time>2026-03-28T14:31:20.985Z</time></trkpt><trkpt lat="16.2685041" lon="-61.3644817"><ele>25.0</ele><time>2026-03-28T14:31:23.961Z</time></trkpt><trkpt lat="16.268561" lon="-61.3645159"><ele>25.000000000000004</ele><time>2026-03-28T14:31:24.976Z</time></trkpt><trkpt lat="16.2686167" lon="-61.3645514"><ele>25.0</ele><time>2026-03-28T14:31:25.979Z</time></trkpt><trkpt lat="16.2686968" lon="-61.3646149"><ele>25.0</ele><time>2026-03-28T14:31:28.05Z</time></trkpt><trkpt lat="16.2687525" lon="-61.364656"><ele>25.0</ele><time>2026-03-28T14:31:29.973Z</time></trkpt><trkpt lat="16.2687348" lon="-61.3647542"><ele>25.000000000000004</ele><time>2026-03-28T14:31:34.034Z</time></trkpt><trkpt lat="16.2687213" lon="-61.3648365"><ele>25.0</ele><time>2026-03-28T14:31:36.975Z</time></trkpt><trkpt lat="16.2686727" lon="-61.3649289"><ele>25.333333333333336</ele><time>2026-03-28T14:31:39.968Z</time></trkpt><trkpt lat="16.2686326" lon="-61.365022"><ele>25.666666666666668</ele><time>2026-03-28T14:31:42.041Z</time></trkpt><trkpt lat="16.2686061" lon="-61.3650993"><ele>26.0</ele><time>2026-03-28T14:31:44.042Z</time></trkpt><trkpt lat="16.2685794" lon="-61.3651767"><ele>26.333333333333336</ele><time>2026-03-28T14:31:45.96Z</time></trkpt><trkpt lat="16.2685442" lon="-61.3652552"><ele>26.666666666666668</ele><time>2026-03-28T14:31:47.964Z</time></trkpt><trkpt lat="16.2685228" lon="-61.3653188"><ele>27.0</ele><time>2026-03-28T14:31:49.976Z</time></trkpt><trkpt lat="16.2685426" lon="-61.3653852"><ele>27.0</ele><time>2026-03-28T14:31:52.959Z</time></trkpt><trkpt lat="16.2686108" lon="-61.365385"><ele>27.0</ele><time>2026-03-28T14:32:57.959Z</time></trkpt><trkpt lat="16.2686747" lon="-61.3654183"><ele>27.0</ele><time>2026-03-28T14:33:00.954Z</time></trkpt><trkpt lat="16.2687031" lon="-61.3654809"><ele>27.0</ele><time>2026-03-28T14:33:22.964Z</time></trkpt><trkpt lat="16.2687519" lon="-61.3655375"><ele>27.0</ele><time>2026-03-28T14:33:26.965Z</time></trkpt><trkpt lat="16.2688109" lon="-61.3655696"><ele>27.0</ele><time>2026-03-28T14:33:30.974Z</time></trkpt><trkpt lat="16.2688774" lon="-61.3655914"><ele>27.0</ele><time>2026-03-28T14:33:34.98Z</time></trkpt><trkpt lat="16.2689643" lon="-61.3656108"><ele>27.0</ele><time>2026-03-28T14:33:39.963Z</time></trkpt><trkpt lat="16.2690418" lon="-61.3656255"><ele>27.0</ele><time>2026-03-28T14:33:51.973Z</time></trkpt><trkpt lat="16.2691167" lon="-61.3656405"><ele>27.0</ele><time>2026-03-28T14:33:55.976Z</time></trkpt><trkpt lat="16.26917" lon="-61.3655892"><ele>27.0</ele><time>2026-03-28T14:34:29.971Z</time></trkpt><trkpt lat="16.2691709" lon="-61.3655069"><ele>27.0</ele><time>2026-03-28T14:34:31.963Z</time></trkpt><trkpt lat="16.2691016" lon="-61.365496"><ele>27.0</ele><time>2026-03-28T14:34:48.98Z</time></trkpt><trkpt lat="16.2690542" lon="-61.3655427"><ele>27.0</ele><time>2026-03-28T14:34:52.963Z</time></trkpt><trkpt lat="16.2690805" lon="-61.3656027"><ele>27.0</ele><time>2026-03-28T14:34:59.969Z</time></trkpt><trkpt lat="16.2691458" lon="-61.3656279"><ele>27.0</ele><time>2026-03-28T14:35:22.978Z</time></trkpt><trkpt lat="16.2691791" lon="-61.3656926"><ele>27.0</ele><time>2026-03-28T14:35:26.96Z</time></trkpt><trkpt lat="16.2692486" lon="-61.3656855"><ele>27.0</ele><time>2026-03-28T14:35:29.972Z</time></trkpt><trkpt lat="16.2693126" lon="-61.365653"><ele>27.0</ele><time>2026-03-28T14:35:31.988Z</time></trkpt><trkpt lat="16.2693763" lon="-61.3656424"><ele>27.0</ele><time>2026-03-28T14:35:33.968Z</time></trkpt><trkpt lat="16.2694385" lon="-61.3656644"><ele>27.0</ele><time>2026-03-28T14:35:37.99Z</time></trkpt><trkpt lat="16.2694923" lon="-61.3657039"><ele>27.0</ele><time>2026-03-28T14:35:40.988Z</time></trkpt><trkpt lat="16.2695583" lon="-61.3657587"><ele>27.000000000000004</ele><time>2026-03-28T14:35:43.968Z</time></trkpt><trkpt lat="16.2696214" lon="-61.365816"><ele>27.000000000000004</ele><time>2026-03-28T14:35:45.978Z</time></trkpt><trkpt lat="16.2696753" lon="-61.3658534"><ele>27.0</ele><time>2026-03-28T14:35:46.966Z</time></trkpt><trkpt lat="16.2697385" lon="-61.3659584"><ele>27.0</ele><time>2026-03-28T14:35:48.98Z</time></trkpt><trkpt lat="16.2697992" lon="-61.366064"><ele>27.666666666666668</ele><time>2026-03-28T14:35:51.048Z</time></trkpt><trkpt lat="16.2698474" lon="-61.3661533"><ele>28.333333333333336</ele><time>2026-03-28T14:35:52.971Z</time></trkpt><trkpt lat="16.2698642" lon="-61.3662416"><ele>29.0</ele><time>2026-03-28T14:35:56.034Z</time></trkpt><trkpt lat="16.2698913" lon="-61.3663062"><ele>29.666666666666668</ele><time>2026-03-28T14:35:57.978Z</time></trkpt><trkpt lat="16.2699086" lon="-61.3663712"><ele>30.333333333333336</ele><time>2026-03-28T14:36:07.974Z</time></trkpt><trkpt lat="16.2699601" lon="-61.3664833"><ele>31.0</ele><time>2026-03-28T14:36:10.975Z</time></trkpt><trkpt lat="16.270009" lon="-61.3665901"><ele>29.666666666666668</ele><time>2026-03-28T14:36:12.978Z</time></trkpt><trkpt lat="16.2700376" lon="-61.3667173"><ele>28.333333333333336</ele><time>2026-03-28T14:36:14.982Z</time></trkpt><trkpt lat="16.27006" lon="-61.3667939"><ele>27.0</ele><time>2026-03-28T14:36:15.98Z</time></trkpt><trkpt lat="16.2700988" lon="-61.3668631"><ele>25.666666666666668</ele><time>2026-03-28T14:36:16.978Z</time></trkpt><trkpt lat="16.2701402" lon="-61.3669286"><ele>24.333333333333336</ele><time>2026-03-28T14:36:17.973Z</time></trkpt><trkpt lat="16.2701869" lon="-61.3669815"><ele>23.0</ele><time>2026-03-28T14:36:18.979Z</time></trkpt><trkpt lat="16.2702348" lon="-61.3670262"><ele>23.0</ele><time>2026-03-28T14:36:20.06Z</time></trkpt><trkpt lat="16.270287" lon="-61.3670697"><ele>23.0</ele><time>2026-03-28T14:36:21.036Z</time></trkpt><trkpt lat="16.2703628" lon="-61.3671456"><ele>23.0</ele><time>2026-03-28T14:36:22.946Z</time></trkpt><trkpt lat="16.2704073" lon="-61.367202"><ele>23.0</ele><time>2026-03-28T14:36:25.946Z</time></trkpt><trkpt lat="16.2703789" lon="-61.367267"><ele>23.0</ele><time>2026-03-28T14:36:36.982Z</time></trkpt><trkpt lat="16.2703409" lon="-61.3673451"><ele>23.0</ele><time>2026-03-28T14:36:40.979Z</time></trkpt><trkpt lat="16.2703209" lon="-61.3674222"><ele>24.333333333333336</ele><time>2026-03-28T14:36:43.966Z</time></trkpt><trkpt lat="16.2702849" lon="-61.3674993"><ele>25.666666666666668</ele><time>2026-03-28T14:36:46.97Z</time></trkpt><trkpt lat="16.270285" lon="-61.3675696"><ele>27.0</ele><time>2026-03-28T14:36:48.985Z</time></trkpt><trkpt lat="16.270285" lon="-61.3676525"><ele>28.333333333333336</ele><time>2026-03-28T14:36:50.978Z</time></trkpt><trkpt lat="16.2703235" lon="-61.3677383"><ele>29.666666666666668</ele><time>2026-03-28T14:36:52.948Z</time></trkpt><trkpt lat="16.2703658" lon="-61.3678035"><ele>31.0</ele><time>2026-03-28T14:36:54.955Z</time></trkpt><trkpt lat="16.2704064" lon="-61.367859"><ele>31.000000000000004</ele><time>2026-03-28T14:36:56.97Z</time></trkpt><trkpt lat="16.2704465" lon="-61.3679192"><ele>31.0</ele><time>2026-03-28T14:36:58.988Z</time></trkpt><trkpt lat="16.2704785" lon="-61.3679808"><ele>31.0</ele><time>2026-03-28T14:37:00.971Z</time></trkpt><trkpt lat="16.2704652" lon="-61.3680653"><ele>31.0</ele><time>2026-03-28T14:37:03.972Z</time></trkpt><trkpt lat="16.2704475" lon="-61.36815"><ele>31.000000000000004</ele><time>2026-03-28T14:37:06.97Z</time></trkpt><trkpt lat="16.2704677" lon="-61.368218"><ele>31.0</ele><time>2026-03-28T14:37:08.971Z</time></trkpt><trkpt lat="16.2705062" lon="-61.3683053"><ele>32.4</ele><time>2026-03-28T14:37:10.98Z</time></trkpt><trkpt lat="16.2705748" lon="-61.3684113"><ele>33.8</ele><time>2026-03-28T14:37:12.975Z</time></trkpt><trkpt lat="16.2706117" lon="-61.3684714"><ele>35.199999999999996</ele><time>2026-03-28T14:37:13.983Z</time></trkpt><trkpt lat="16.2706927" lon="-61.3685469"><ele>36.6</ele><time>2026-03-28T14:37:15.965Z</time></trkpt><trkpt lat="16.2707597" lon="-61.3685281"><ele>38.0</ele><time>2026-03-28T14:37:17.975Z</time></trkpt><trkpt lat="16.2708475" lon="-61.3685111"><ele>38.166666666666664</ele><time>2026-03-28T14:37:19.972Z</time></trkpt><trkpt lat="16.2709134" lon="-61.3685301"><ele>38.33333333333333</ele><time>2026-03-28T14:37:20.969Z</time></trkpt><trkpt lat="16.2709936" lon="-61.3685535"><ele>38.5</ele><time>2026-03-28T14:37:21.97Z</time></trkpt><trkpt lat="16.2710879" lon="-61.3685824"><ele>38.666666666666664</ele><time>2026-03-28T14:37:22.956Z</time></trkpt><trkpt lat="16.2711789" lon="-61.3686149"><ele>38.833333333333336</ele><time>2026-03-28T14:37:23.949Z</time></trkpt><trkpt lat="16.2712743" lon="-61.3686475"><ele>39.0</ele><time>2026-03-28T14:37:24.964Z</time></trkpt><trkpt lat="16.2713663" lon="-61.3686862"><ele>39.0</ele><time>2026-03-28T14:37:25.966Z</time></trkpt><trkpt lat="16.2714441" lon="-61.3687052"><ele>39.0</ele><time>2026-03-28T14:37:26.969Z</time></trkpt><trkpt lat="16.271511" lon="-61.3686876"><ele>39.0</ele><time>2026-03-28T14:37:28.974Z</time></trkpt><trkpt lat="16.2714245" lon="-61.3687131"><ele>39.0</ele><time>2026-03-28T14:37:38.962Z</time></trkpt><trkpt lat="16.2712912" lon="-61.3686657"><ele>39.0</ele><time>2026-03-28T14:37:40.973Z</time></trkpt><trkpt lat="16.2712016" lon="-61.368623"><ele>39.0</ele><time>2026-03-28T14:37:41.98Z</time></trkpt><trkpt lat="16.271105" lon="-61.3685871"><ele>39.0</ele><time>2026-03-28T14:37:42.966Z</time></trkpt><trkpt lat="16.2710143" lon="-61.3685645"><ele>39.0</ele><time>2026-03-28T14:37:43.966Z</time></trkpt><trkpt lat="16.2709252" lon="-61.3685352"><ele>39.0</ele><time>2026-03-28T14:37:44.974Z</time></trkpt><trkpt lat="16.2708464" lon="-61.368502"><ele>39.0</ele><time>2026-03-28T14:37:45.95Z</time></trkpt><trkpt lat="16.2707757" lon="-61.3684617"><ele>39.0</ele><time>2026-03-28T14:37:46.982Z</time></trkpt><trkpt lat="16.2707075" lon="-61.3684244"><ele>39.0</ele><time>2026-03-28T14:37:47.973Z</time></trkpt><trkpt lat="16.2706534" lon="-61.3683782"><ele>39.0</ele><time>2026-03-28T14:37:48.982Z</time></trkpt><trkpt lat="16.2706154" lon="-61.368325"><ele>39.0</ele><time>2026-03-28T14:37:49.946Z</time></trkpt><trkpt lat="16.2705582" lon="-61.3682337"><ele>39.0</ele><time>2026-03-28T14:37:51.976Z</time></trkpt><trkpt lat="16.27051" lon="-61.3681649"><ele>39.0</ele><time>2026-03-28T14:37:53.972Z</time></trkpt><trkpt lat="16.2705024" lon="-61.3680898"><ele>37.85714285714286</ele><time>2026-03-28T14:37:55.975Z</time></trkpt><trkpt lat="16.2705111" lon="-61.3680231"><ele>36.71428571428571</ele><time>2026-03-28T14:37:57.976Z</time></trkpt><trkpt lat="16.2705635" lon="-61.3679578"><ele>35.57142857142857</ele><time>2026-03-28T14:38:00.986Z</time></trkpt><trkpt lat="16.2706249" lon="-61.3679298"><ele>34.42857142857143</ele><time>2026-03-28T14:38:03.972Z</time></trkpt><trkpt lat="16.2706835" lon="-61.3678856"><ele>33.28571428571429</ele><time>2026-03-28T14:38:08.962Z</time></trkpt><trkpt lat="16.2706825" lon="-61.3678199"><ele>32.142857142857146</ele><time>2026-03-28T14:38:11.975Z</time></trkpt><trkpt lat="16.2706822" lon="-61.367753"><ele>31.0</ele><time>2026-03-28T14:38:18.965Z</time></trkpt><trkpt lat="16.2706134" lon="-61.3677575"><ele>31.0</ele><time>2026-03-28T14:38:24.965Z</time></trkpt><trkpt lat="16.2705306" lon="-61.3677638"><ele>31.000000000000004</ele><time>2026-03-28T14:38:26.978Z</time></trkpt><trkpt lat="16.2704659" lon="-61.3677469"><ele>31.0</ele><time>2026-03-28T14:38:28.961Z</time></trkpt><trkpt lat="16.2704308" lon="-61.3676909"><ele>31.0</ele><time>2026-03-28T14:38:32.984Z</time></trkpt><trkpt lat="16.2703927" lon="-61.3676142"><ele>31.000000000000004</ele><time>2026-03-28T14:38:35.971Z</time></trkpt><trkpt lat="16.2704189" lon="-61.367549"><ele>31.0</ele><time>2026-03-28T14:38:39.961Z</time></trkpt><trkpt lat="16.2704643" lon="-61.3674892"><ele>31.0</ele><time>2026-03-28T14:38:44.972Z</time></trkpt><trkpt lat="16.2704828" lon="-61.367424"><ele>31.000000000000004</ele><time>2026-03-28T14:38:48.968Z</time></trkpt><trkpt lat="16.2704855" lon="-61.3673572"><ele>31.0</ele><time>2026-03-28T14:38:56.974Z</time></trkpt><trkpt lat="16.2705513" lon="-61.3673244"><ele>31.0</ele><time>2026-03-28T14:39:29.968Z</time></trkpt><trkpt lat="16.2706382" lon="-61.3673262"><ele>31.0</ele><time>2026-03-28T14:39:32.975Z</time></trkpt><trkpt lat="16.2707076" lon="-61.3673263"><ele>31.000000000000004</ele><time>2026-03-28T14:39:34.974Z</time></trkpt><trkpt lat="16.2707891" lon="-61.36732"><ele>31.0</ele><time>2026-03-28T14:39:37.966Z</time></trkpt><trkpt lat="16.2708696" lon="-61.3673214"><ele>30.833333333333336</ele><time>2026-03-28T14:39:40.982Z</time></trkpt><trkpt lat="16.2709416" lon="-61.3672966"><ele>30.666666666666668</ele><time>2026-03-28T14:39:47.978Z</time></trkpt><trkpt lat="16.2710076" lon="-61.3672775"><ele>30.5</ele><time>2026-03-28T14:39:49.984Z</time></trkpt><trkpt lat="16.2710817" lon="-61.367224"><ele>30.333333333333336</ele><time>2026-03-28T14:39:51.978Z</time></trkpt><trkpt lat="16.271127" lon="-61.3671433"><ele>30.166666666666668</ele><time>2026-03-28T14:39:53.969Z</time></trkpt><trkpt lat="16.2711679" lon="-61.3670653"><ele>30.0</ele><time>2026-03-28T14:39:55.967Z</time></trkpt><trkpt lat="16.2712046" lon="-61.367009"><ele>30.42857142857143</ele><time>2026-03-28T14:39:57.966Z</time></trkpt><trkpt lat="16.2712462" lon="-61.3669397"><ele>30.857142857142854</ele><time>2026-03-28T14:40:00.96Z</time></trkpt><trkpt lat="16.2712499" lon="-61.3668741"><ele>31.285714285714285</ele><time>2026-03-28T14:40:04.057Z</time></trkpt><trkpt lat="16.2713041" lon="-61.3668086"><ele>31.714285714285715</ele><time>2026-03-28T14:40:06.974Z</time></trkpt><trkpt lat="16.2713562" lon="-61.3667703"><ele>32.142857142857146</ele><time>2026-03-28T14:40:14.97Z</time></trkpt><trkpt lat="16.2713805" lon="-61.3668368"><ele>32.57142857142857</ele><time>2026-03-28T14:40:23.965Z</time></trkpt><trkpt lat="16.2714033" lon="-61.3669059"><ele>33.0</ele><time>2026-03-28T14:40:29.994Z</time></trkpt><trkpt lat="16.2714648" lon="-61.3669806"><ele>34.333333333333336</ele><time>2026-03-28T14:40:33.976Z</time></trkpt><trkpt lat="16.2715397" lon="-61.3670023"><ele>35.666666666666664</ele><time>2026-03-28T14:40:35.979Z</time></trkpt><trkpt lat="16.2716157" lon="-61.3670159"><ele>37.0</ele><time>2026-03-28T14:40:37.94Z</time></trkpt><trkpt lat="16.2716998" lon="-61.367031"><ele>38.33333333333333</ele><time>2026-03-28T14:40:39.951Z</time></trkpt><trkpt lat="16.2717777" lon="-61.3670346"><ele>39.666666666666664</ele><time>2026-03-28T14:40:42.944Z</time></trkpt><trkpt lat="16.2718375" lon="-61.3669937"><ele>41.0</ele><time>2026-03-28T14:40:55.938Z</time></trkpt><trkpt lat="16.2718942" lon="-61.3669584"><ele>41.0</ele><time>2026-03-28T14:40:58.975Z</time></trkpt><trkpt lat="16.2719536" lon="-61.3668959"><ele>41.0</ele><time>2026-03-28T14:41:00.964Z</time></trkpt><trkpt lat="16.2720154" lon="-61.3668296"><ele>41.0</ele><time>2026-03-28T14:41:02.977Z</time></trkpt><trkpt lat="16.2720408" lon="-61.3667681"><ele>41.0</ele><time>2026-03-28T14:41:04.99Z</time></trkpt><trkpt lat="16.2720681" lon="-61.3666712"><ele>41.0</ele><time>2026-03-28T14:41:06.981Z</time></trkpt><trkpt lat="16.2720642" lon="-61.3665764"><ele>41.0</ele><time>2026-03-28T14:41:08.984Z</time></trkpt><trkpt lat="16.2719997" lon="-61.3665013"><ele>40.99999999999999</ele><time>2026-03-28T14:41:10.972Z</time></trkpt><trkpt lat="16.2719471" lon="-61.3664559"><ele>41.0</ele><time>2026-03-28T14:41:11.976Z</time></trkpt><trkpt lat="16.2718871" lon="-61.3664155"><ele>41.0</ele><time>2026-03-28T14:41:12.975Z</time></trkpt><trkpt lat="16.2718258" lon="-61.3663782"><ele>41.0</ele><time>2026-03-28T14:41:13.982Z</time></trkpt><trkpt lat="16.2717692" lon="-61.3663466"><ele>41.0</ele><time>2026-03-28T14:41:14.974Z</time></trkpt><trkpt lat="16.271711" lon="-61.3663155"><ele>40.99999999999999</ele><time>2026-03-28T14:41:15.982Z</time></trkpt><trkpt lat="16.2716509" lon="-61.3662896"><ele>41.0</ele><time>2026-03-28T14:41:16.979Z</time></trkpt><trkpt lat="16.2715655" lon="-61.3662244"><ele>41.5</ele><time>2026-03-28T14:41:18.994Z</time></trkpt><trkpt lat="16.2715504" lon="-61.3660984"><ele>42.0</ele><time>2026-03-28T14:41:20.989Z</time></trkpt><trkpt lat="16.2715609" lon="-61.366024"><ele>42.5</ele><time>2026-03-28T14:41:21.986Z</time></trkpt><trkpt lat="16.2715816" lon="-61.3659482"><ele>43.0</ele><time>2026-03-28T14:41:22.986Z</time></trkpt><trkpt lat="16.2716014" lon="-61.3658726"><ele>43.5</ele><time>2026-03-28T14:41:23.988Z</time></trkpt><trkpt lat="16.2716218" lon="-61.3657945"><ele>44.0</ele><time>2026-03-28T14:41:24.953Z</time></trkpt><trkpt lat="16.2716331" lon="-61.3657211"><ele>44.0</ele><time>2026-03-28T14:41:25.972Z</time></trkpt><trkpt lat="16.2716373" lon="-61.3656541"><ele>44.0</ele><time>2026-03-28T14:41:26.979Z</time></trkpt><trkpt lat="16.2716519" lon="-61.3655668"><ele>44.0</ele><time>2026-03-28T14:41:28.983Z</time></trkpt><trkpt lat="16.2716849" lon="-61.3654833"><ele>44.0</ele><time>2026-03-28T14:41:30.989Z</time></trkpt><trkpt lat="16.2717003" lon="-61.3653988"><ele>44.0</ele><time>2026-03-28T14:41:32.981Z</time></trkpt><trkpt lat="16.2717025" lon="-61.3653278"><ele>44.0</ele><time>2026-03-28T14:41:35.965Z</time></trkpt><trkpt lat="16.2716565" lon="-61.3652671"><ele>43.5</ele><time>2026-03-28T14:41:39.969Z</time></trkpt><trkpt lat="16.271586" lon="-61.3652063"><ele>43.0</ele><time>2026-03-28T14:41:42.974Z</time></trkpt><trkpt lat="16.2715264" lon="-61.3651295"><ele>42.5</ele><time>2026-03-28T14:41:45.966Z</time></trkpt><trkpt lat="16.2715039" lon="-61.3650467"><ele>42.0</ele><time>2026-03-28T14:41:48.99Z</time></trkpt><trkpt lat="16.2714958" lon="-61.3649514"><ele>41.5</ele><time>2026-03-28T14:41:51.989Z</time></trkpt><trkpt lat="16.2714963" lon="-61.3648718"><ele>41.0</ele><time>2026-03-28T14:41:53.981Z</time></trkpt><trkpt lat="16.2715371" lon="-61.3648201"><ele>41.0</ele><time>2026-03-28T14:41:55.968Z</time></trkpt><trkpt lat="16.2715808" lon="-61.3647484"><ele>41.0</ele><time>2026-03-28T14:41:58.969Z</time></trkpt><trkpt lat="16.2715726" lon="-61.3646775"><ele>41.0</ele><time>2026-03-28T14:42:00.973Z</time></trkpt><trkpt lat="16.2715317" lon="-61.364596"><ele>41.0</ele><time>2026-03-28T14:42:02.961Z</time></trkpt><trkpt lat="16.2714676" lon="-61.364507"><ele>41.0</ele><time>2026-03-28T14:42:04.984Z</time></trkpt><trkpt lat="16.2713875" lon="-61.3644731"><ele>41.0</ele><time>2026-03-28T14:42:06.98Z</time></trkpt><trkpt lat="16.2713362" lon="-61.364431"><ele>40.83333333333333</ele><time>2026-03-28T14:42:08.974Z</time></trkpt><trkpt lat="16.2713628" lon="-61.36436"><ele>40.666666666666664</ele><time>2026-03-28T14:42:11.97Z</time></trkpt><trkpt lat="16.2714042" lon="-61.3642942"><ele>40.5</ele><time>2026-03-28T14:42:14.983Z</time></trkpt><trkpt lat="16.2714444" lon="-61.3642257"><ele>40.333333333333336</ele><time>2026-03-28T14:42:30.974Z</time></trkpt><trkpt lat="16.2714805" lon="-61.3641383"><ele>40.16666666666667</ele><time>2026-03-28T14:42:32.973Z</time></trkpt><trkpt lat="16.2715168" lon="-61.3640509"><ele>40.0</ele><time>2026-03-28T14:42:34.978Z</time></trkpt><trkpt lat="16.2715537" lon="-61.3639341"><ele>39.833333333333336</ele><time>2026-03-28T14:42:36.968Z</time></trkpt><trkpt lat="16.271536" lon="-61.3638455"><ele>39.66666666666667</ele><time>2026-03-28T14:42:38.946Z</time></trkpt><trkpt lat="16.2714449" lon="-61.3637933"><ele>39.5</ele><time>2026-03-28T14:42:40.987Z</time></trkpt><trkpt lat="16.2713757" lon="-61.3637728"><ele>39.333333333333336</ele><time>2026-03-28T14:42:41.976Z</time></trkpt><trkpt lat="16.2713109" lon="-61.3637534"><ele>39.166666666666664</ele><time>2026-03-28T14:42:42.975Z</time></trkpt><trkpt lat="16.2712485" lon="-61.3637282"><ele>39.0</ele><time>2026-03-28T14:42:43.952Z</time></trkpt><trkpt lat="16.2711709" lon="-61.363696"><ele>39.0</ele><time>2026-03-28T14:42:44.981Z</time></trkpt><trkpt lat="16.2710899" lon="-61.3636608"><ele>39.0</ele><time>2026-03-28T14:42:45.984Z</time></trkpt><trkpt lat="16.2710063" lon="-61.3636316"><ele>39.0</ele><time>2026-03-28T14:42:46.946Z</time></trkpt><trkpt lat="16.2709156" lon="-61.3636022"><ele>39.0</ele><time>2026-03-28T14:42:47.978Z</time></trkpt><trkpt lat="16.2708275" lon="-61.3635646"><ele>39.0</ele><time>2026-03-28T14:42:48.979Z</time></trkpt><trkpt lat="16.2707383" lon="-61.3635261"><ele>39.0</ele><time>2026-03-28T14:42:49.982Z</time></trkpt><trkpt lat="16.2706497" lon="-61.3634913"><ele>39.0</ele><time>2026-03-28T14:42:50.987Z</time></trkpt><trkpt lat="16.2705621" lon="-61.3634539"><ele>39.0</ele><time>2026-03-28T14:42:51.977Z</time></trkpt><trkpt lat="16.2704751" lon="-61.3634193"><ele>39.0</ele><time>2026-03-28T14:42:52.967Z</time></trkpt><trkpt lat="16.2703876" lon="-61.3633846"><ele>39.0</ele><time>2026-03-28T14:42:53.986Z</time></trkpt><trkpt lat="16.2703029" lon="-61.3633469"><ele>38.8</ele><time>2026-03-28T14:42:54.98Z</time></trkpt><trkpt lat="16.2702139" lon="-61.3633123"><ele>38.599999999999994</ele><time>2026-03-28T14:42:55.973Z</time></trkpt><trkpt lat="16.270125" lon="-61.3632726"><ele>38.4</ele><time>2026-03-28T14:42:56.959Z</time></trkpt><trkpt lat="16.2700345" lon="-61.3632302"><ele>38.199999999999996</ele><time>2026-03-28T14:42:57.967Z</time></trkpt><trkpt lat="16.2699471" lon="-61.3631892"><ele>38.0</ele><time>2026-03-28T14:42:58.978Z</time></trkpt><trkpt lat="16.2698501" lon="-61.3631523"><ele>38.166666666666664</ele><time>2026-03-28T14:42:59.982Z</time></trkpt><trkpt lat="16.2697574" lon="-61.363112"><ele>38.33333333333333</ele><time>2026-03-28T14:43:00.98Z</time></trkpt><trkpt lat="16.2696682" lon="-61.3630795"><ele>38.5</ele><time>2026-03-28T14:43:01.978Z</time></trkpt><trkpt lat="16.2695758" lon="-61.3630463"><ele>38.666666666666664</ele><time>2026-03-28T14:43:02.982Z</time></trkpt><trkpt lat="16.2694962" lon="-61.3630132"><ele>38.833333333333336</ele><time>2026-03-28T14:43:03.989Z</time></trkpt><trkpt lat="16.269435" lon="-61.3629861"><ele>39.0</ele><time>2026-03-28T14:43:04.986Z</time></trkpt><trkpt lat="16.2693381" lon="-61.3629547"><ele>39.0</ele><time>2026-03-28T14:43:06.971Z</time></trkpt><trkpt lat="16.2692495" lon="-61.3629168"><ele>39.0</ele><time>2026-03-28T14:43:08.977Z</time></trkpt><trkpt lat="16.2692202" lon="-61.3628543"><ele>39.0</ele><time>2026-03-28T14:43:11.04Z</time></trkpt><trkpt lat="16.2692751" lon="-61.3627667"><ele>39.0</ele><time>2026-03-28T14:43:12.972Z</time></trkpt><trkpt lat="16.2693169" lon="-61.3627151"><ele>39.0</ele><time>2026-03-28T14:43:13.981Z</time></trkpt><trkpt lat="16.2693598" lon="-61.3626596"><ele>39.0</ele><time>2026-03-28T14:43:14.958Z</time></trkpt><trkpt lat="16.2694026" lon="-61.3626002"><ele>39.0</ele><time>2026-03-28T14:43:15.978Z</time></trkpt><trkpt lat="16.2694482" lon="-61.3625406"><ele>39.0</ele><time>2026-03-28T14:43:16.986Z</time></trkpt><trkpt lat="16.2694857" lon="-61.3624842"><ele>39.0</ele><time>2026-03-28T14:43:17.993Z</time></trkpt><trkpt lat="16.2695581" lon="-61.3623755"><ele>39.0</ele><time>2026-03-28T14:43:19.959Z</time></trkpt><trkpt lat="16.2695958" lon="-61.36232"><ele>39.0</ele><time>2026-03-28T14:43:20.976Z</time></trkpt><trkpt lat="16.2696431" lon="-61.362265"><ele>39.0</ele><time>2026-03-28T14:43:23.037Z</time></trkpt><trkpt lat="16.2696916" lon="-61.3622027"><ele>38.833333333333336</ele><time>2026-03-28T14:43:23.976Z</time></trkpt><trkpt lat="16.2697374" lon="-61.3621372"><ele>38.666666666666664</ele><time>2026-03-28T14:43:24.98Z</time></trkpt><trkpt lat="16.2697832" lon="-61.3620742"><ele>38.5</ele><time>2026-03-28T14:43:25.98Z</time></trkpt><trkpt lat="16.2698304" lon="-61.3620038"><ele>38.33333333333333</ele><time>2026-03-28T14:43:26.984Z</time></trkpt><trkpt lat="16.2698766" lon="-61.3619362"><ele>38.166666666666664</ele><time>2026-03-28T14:43:27.984Z</time></trkpt><trkpt lat="16.269926" lon="-61.3618627"><ele>38.0</ele><time>2026-03-28T14:43:28.993Z</time></trkpt><trkpt lat="16.2699776" lon="-61.3617884"><ele>38.5</ele><time>2026-03-28T14:43:29.969Z</time></trkpt><trkpt lat="16.2700274" lon="-61.3617108"><ele>39.0</ele><time>2026-03-28T14:43:30.954Z</time></trkpt><trkpt lat="16.2700724" lon="-61.3616379"><ele>39.5</ele><time>2026-03-28T14:43:31.989Z</time></trkpt><trkpt lat="16.2701178" lon="-61.3615644"><ele>40.0</ele><time>2026-03-28T14:43:32.981Z</time></trkpt><trkpt lat="16.2701652" lon="-61.3614899"><ele>40.5</ele><time>2026-03-28T14:43:33.981Z</time></trkpt><trkpt lat="16.2702158" lon="-61.3614115"><ele>41.0</ele><time>2026-03-28T14:43:34.978Z</time></trkpt><trkpt lat="16.2702684" lon="-61.3613273"><ele>41.75</ele><time>2026-03-28T14:43:35.997Z</time></trkpt><trkpt lat="16.270367" lon="-61.3611665"><ele>42.5</ele><time>2026-03-28T14:43:37.821Z</time></trkpt><trkpt lat="16.2704121" lon="-61.3610991"><ele>43.25</ele><time>2026-03-28T14:43:38.827Z</time></trkpt><trkpt lat="16.2704554" lon="-61.3610416"><ele>44.0</ele><time>2026-03-28T14:43:39.801Z</time></trkpt><trkpt lat="16.2705287" lon="-61.3609416"><ele>44.0</ele><time>2026-03-28T14:43:42.035Z</time></trkpt><trkpt lat="16.2705983" lon="-61.3608412"><ele>44.0</ele><time>2026-03-28T14:43:43.984Z</time></trkpt><trkpt lat="16.2706809" lon="-61.3607431"><ele>44.0</ele><time>2026-03-28T14:43:46.764Z</time></trkpt><trkpt lat="16.2706608" lon="-61.3606654"><ele>44.0</ele><time>2026-03-28T14:44:20.946Z</time></trkpt><trkpt lat="16.2706016" lon="-61.3606189"><ele>44.0</ele><time>2026-03-28T14:44:21.987Z</time></trkpt><trkpt lat="16.2705334" lon="-61.3605555"><ele>43.6</ele><time>2026-03-28T14:44:22.965Z</time></trkpt><trkpt lat="16.2704713" lon="-61.3604794"><ele>43.2</ele><time>2026-03-28T14:44:23.895Z</time></trkpt><trkpt lat="16.2704075" lon="-61.3604082"><ele>42.800000000000004</ele><time>2026-03-28T14:44:25.042Z</time></trkpt><trkpt lat="16.2703414" lon="-61.3603264"><ele>42.400000000000006</ele><time>2026-03-28T14:44:25.982Z</time></trkpt><trkpt lat="16.2702717" lon="-61.3602453"><ele>42.0</ele><time>2026-03-28T14:44:26.965Z</time></trkpt><trkpt lat="16.2702018" lon="-61.3601637"><ele>42.0</ele><time>2026-03-28T14:44:27.978Z</time></trkpt><trkpt lat="16.2701331" lon="-61.3600796"><ele>42.0</ele><time>2026-03-28T14:44:28.978Z</time></trkpt><trkpt lat="16.2700642" lon="-61.3599945"><ele>42.0</ele><time>2026-03-28T14:44:29.982Z</time></trkpt><trkpt lat="16.2700024" lon="-61.3599243"><ele>42.0</ele><time>2026-03-28T14:44:30.977Z</time></trkpt><trkpt lat="16.2699377" lon="-61.3598479"><ele>42.0</ele><time>2026-03-28T14:44:31.972Z</time></trkpt><trkpt lat="16.2698758" lon="-61.3597654"><ele>42.166666666666664</ele><time>2026-03-28T14:44:32.981Z</time></trkpt><trkpt lat="16.2698155" lon="-61.3596929"><ele>42.333333333333336</ele><time>2026-03-28T14:44:34.045Z</time></trkpt><trkpt lat="16.2697597" lon="-61.3596264"><ele>42.5</ele><time>2026-03-28T14:44:34.984Z</time></trkpt><trkpt lat="16.2697172" lon="-61.3595756"><ele>42.66666666666667</ele><time>2026-03-28T14:44:35.994Z</time></trkpt><trkpt lat="16.2696529" lon="-61.3595073"><ele>42.833333333333336</ele><time>2026-03-28T14:44:37.987Z</time></trkpt><trkpt lat="16.2697056" lon="-61.3594094"><ele>43.0</ele><time>2026-03-28T14:44:40.972Z</time></trkpt><trkpt lat="16.2697772" lon="-61.3593832"><ele>42.199999999999996</ele><time>2026-03-28T14:44:41.979Z</time></trkpt><trkpt lat="16.269872" lon="-61.3593758"><ele>41.4</ele><time>2026-03-28T14:44:42.971Z</time></trkpt><trkpt lat="16.2699645" lon="-61.3593665"><ele>40.599999999999994</ele><time>2026-03-28T14:44:43.977Z</time></trkpt><trkpt lat="16.2700609" lon="-61.3593453"><ele>39.8</ele><time>2026-03-28T14:44:44.972Z</time></trkpt><trkpt lat="16.2701694" lon="-61.3593113"><ele>39.0</ele><time>2026-03-28T14:44:45.966Z</time></trkpt><trkpt lat="16.2702788" lon="-61.3592711"><ele>39.0</ele><time>2026-03-28T14:44:46.974Z</time></trkpt><trkpt lat="16.2703917" lon="-61.3592179"><ele>39.0</ele><time>2026-03-28T14:44:47.973Z</time></trkpt><trkpt lat="16.2704974" lon="-61.3591557"><ele>39.0</ele><time>2026-03-28T14:44:48.909Z</time></trkpt><trkpt lat="16.2706013" lon="-61.3590921"><ele>39.0</ele><time>2026-03-28T14:44:50.037Z</time></trkpt><trkpt lat="16.2706952" lon="-61.3590258"><ele>39.25</ele><time>2026-03-28T14:44:51.028Z</time></trkpt><trkpt lat="16.2707831" lon="-61.3589471"><ele>39.5</ele><time>2026-03-28T14:44:51.975Z</time></trkpt><trkpt lat="16.2708759" lon="-61.358865"><ele>39.75</ele><time>2026-03-28T14:44:52.977Z</time></trkpt><trkpt lat="16.270966" lon="-61.3587812"><ele>40.0</ele><time>2026-03-28T14:44:53.966Z</time></trkpt><trkpt lat="16.2710501" lon="-61.3586923"><ele>40.5</ele><time>2026-03-28T14:44:54.977Z</time></trkpt><trkpt lat="16.2711268" lon="-61.3585931"><ele>41.0</ele><time>2026-03-28T14:44:55.97Z</time></trkpt><trkpt lat="16.2711946" lon="-61.3584955"><ele>41.5</ele><time>2026-03-28T14:44:56.969Z</time></trkpt><trkpt lat="16.2712628" lon="-61.3583962"><ele>42.0</ele><time>2026-03-28T14:44:57.97Z</time></trkpt><trkpt lat="16.2713277" lon="-61.358294"><ele>42.0</ele><time>2026-03-28T14:44:58.974Z</time></trkpt><trkpt lat="16.2713806" lon="-61.3581875"><ele>42.0</ele><time>2026-03-28T14:44:59.95Z</time></trkpt><trkpt lat="16.2714239" lon="-61.3580801"><ele>42.0</ele><time>2026-03-28T14:45:00.958Z</time></trkpt><trkpt lat="16.2714593" lon="-61.3579672"><ele>42.0</ele><time>2026-03-28T14:45:01.959Z</time></trkpt><trkpt lat="16.2714966" lon="-61.3578587"><ele>41.75</ele><time>2026-03-28T14:45:02.96Z</time></trkpt><trkpt lat="16.2715283" lon="-61.357745"><ele>41.5</ele><time>2026-03-28T14:45:03.976Z</time></trkpt><trkpt lat="16.2715592" lon="-61.3576345"><ele>41.25</ele><time>2026-03-28T14:45:04.96Z</time></trkpt><trkpt lat="16.2715909" lon="-61.3575266"><ele>41.0</ele><time>2026-03-28T14:45:05.983Z</time></trkpt><trkpt lat="16.2716212" lon="-61.3574074"><ele>41.0</ele><time>2026-03-28T14:45:06.988Z</time></trkpt><trkpt lat="16.2716507" lon="-61.3572942"><ele>41.0</ele><time>2026-03-28T14:45:07.986Z</time></trkpt><trkpt lat="16.2716845" lon="-61.3571835"><ele>41.0</ele><time>2026-03-28T14:45:08.979Z</time></trkpt><trkpt lat="16.2717168" lon="-61.3570726"><ele>41.0</ele><time>2026-03-28T14:45:09.977Z</time></trkpt><trkpt lat="16.2717524" lon="-61.3569662"><ele>41.0</ele><time>2026-03-28T14:45:10.983Z</time></trkpt><trkpt lat="16.2717986" lon="-61.3568538"><ele>41.25</ele><time>2026-03-28T14:45:11.971Z</time></trkpt><trkpt lat="16.2718426" lon="-61.3567434"><ele>41.5</ele><time>2026-03-28T14:45:12.979Z</time></trkpt><trkpt lat="16.271891" lon="-61.356637"><ele>41.75</ele><time>2026-03-28T14:45:13.962Z</time></trkpt><trkpt lat="16.2719483" lon="-61.3565358"><ele>42.0</ele><time>2026-03-28T14:45:14.984Z</time></trkpt><trkpt lat="16.2720106" lon="-61.3564422"><ele>42.0</ele><time>2026-03-28T14:45:15.98Z</time></trkpt><trkpt lat="16.272083" lon="-61.3563538"><ele>42.0</ele><time>2026-03-28T14:45:16.991Z</time></trkpt><trkpt lat="16.2721705" lon="-61.3562809"><ele>42.0</ele><time>2026-03-28T14:45:17.978Z</time></trkpt><trkpt lat="16.2722729" lon="-61.3562201"><ele>42.0</ele><time>2026-03-28T14:45:18.983Z</time></trkpt><trkpt lat="16.2723758" lon="-61.3561656"><ele>42.0</ele><time>2026-03-28T14:45:19.945Z</time></trkpt><trkpt lat="16.2724893" lon="-61.356118"><ele>42.0</ele><time>2026-03-28T14:45:20.974Z</time></trkpt><trkpt lat="16.2726018" lon="-61.3560687"><ele>42.0</ele><time>2026-03-28T14:45:21.982Z</time></trkpt><trkpt lat="16.2727148" lon="-61.356027"><ele>42.0</ele><time>2026-03-28T14:45:22.954Z</time></trkpt><trkpt lat="16.2728266" lon="-61.3559861"><ele>42.0</ele><time>2026-03-28T14:45:23.974Z</time></trkpt><trkpt lat="16.2729372" lon="-61.3559442"><ele>42.0</ele><time>2026-03-28T14:45:24.977Z</time></trkpt><trkpt lat="16.2730523" lon="-61.3559103"><ele>42.0</ele><time>2026-03-28T14:45:25.974Z</time></trkpt><trkpt lat="16.2731647" lon="-61.3558668"><ele>42.0</ele><time>2026-03-28T14:45:26.948Z</time></trkpt><trkpt lat="16.2732738" lon="-61.3558226"><ele>42.0</ele><time>2026-03-28T14:45:27.987Z</time></trkpt><trkpt lat="16.2733847" lon="-61.3557731"><ele>42.0</ele><time>2026-03-28T14:45:28.975Z</time></trkpt><trkpt lat="16.2734941" lon="-61.3557192"><ele>42.0</ele><time>2026-03-28T14:45:29.973Z</time></trkpt><trkpt lat="16.2735982" lon="-61.3556668"><ele>42.0</ele><time>2026-03-28T14:45:30.969Z</time></trkpt><trkpt lat="16.2737018" lon="-61.3556044"><ele>42.25</ele><time>2026-03-28T14:45:31.983Z</time></trkpt><trkpt lat="16.2737993" lon="-61.3555366"><ele>42.5</ele><time>2026-03-28T14:45:32.97Z</time></trkpt><trkpt lat="16.2738975" lon="-61.3554711"><ele>42.75</ele><time>2026-03-28T14:45:33.981Z</time></trkpt><trkpt lat="16.2739949" lon="-61.3554044"><ele>43.0</ele><time>2026-03-28T14:45:34.974Z</time></trkpt><trkpt lat="16.2740882" lon="-61.3553406"><ele>43.0</ele><time>2026-03-28T14:45:35.974Z</time></trkpt><trkpt lat="16.2741892" lon="-61.3552715"><ele>43.0</ele><time>2026-03-28T14:45:36.971Z</time></trkpt><trkpt lat="16.2742856" lon="-61.3552053"><ele>43.0</ele><time>2026-03-28T14:45:37.976Z</time></trkpt><trkpt lat="16.2743849" lon="-61.3551422"><ele>43.0</ele><time>2026-03-28T14:45:38.974Z</time></trkpt><trkpt lat="16.2744808" lon="-61.3550747"><ele>43.0</ele><time>2026-03-28T14:45:39.977Z</time></trkpt><trkpt lat="16.2745799" lon="-61.3550058"><ele>43.0</ele><time>2026-03-28T14:45:40.976Z</time></trkpt><trkpt lat="16.2746771" lon="-61.3549333"><ele>43.0</ele><time>2026-03-28T14:45:41.978Z</time></trkpt><trkpt lat="16.274773" lon="-61.3548733"><ele>43.0</ele><time>2026-03-28T14:45:42.98Z</time></trkpt><trkpt lat="16.2748702" lon="-61.3548119"><ele>43.25</ele><time>2026-03-28T14:45:43.984Z</time></trkpt><trkpt lat="16.2749714" lon="-61.354741"><ele>43.5</ele><time>2026-03-28T14:45:44.936Z</time></trkpt><trkpt lat="16.2750707" lon="-61.3546717"><ele>43.75</ele><time>2026-03-28T14:45:46.055Z</time></trkpt><trkpt lat="16.2751678" lon="-61.3546072"><ele>44.0</ele><time>2026-03-28T14:45:46.959Z</time></trkpt><trkpt lat="16.2752661" lon="-61.3545454"><ele>44.0</ele><time>2026-03-28T14:45:47.968Z</time></trkpt><trkpt lat="16.2753672" lon="-61.354484"><ele>44.0</ele><time>2026-03-28T14:45:48.983Z</time></trkpt><trkpt lat="16.2754653" lon="-61.3544209"><ele>44.0</ele><time>2026-03-28T14:45:49.973Z</time></trkpt><trkpt lat="16.2755662" lon="-61.3543521"><ele>44.0</ele><time>2026-03-28T14:45:50.976Z</time></trkpt><trkpt lat="16.2756658" lon="-61.3542822"><ele>43.0</ele><time>2026-03-28T14:45:51.958Z</time></trkpt><trkpt lat="16.2757599" lon="-61.354211"><ele>42.0</ele><time>2026-03-28T14:45:52.947Z</time></trkpt><trkpt lat="16.2758577" lon="-61.3541468"><ele>41.0</ele><time>2026-03-28T14:45:54.017Z</time></trkpt><trkpt lat="16.2759566" lon="-61.3540843"><ele>40.0</ele><time>2026-03-28T14:45:54.957Z</time></trkpt><trkpt lat="16.276063" lon="-61.3540163"><ele>40.0</ele><time>2026-03-28T14:45:56.031Z</time></trkpt><trkpt lat="16.2761639" lon="-61.3539459"><ele>40.0</ele><time>2026-03-28T14:45:56.971Z</time></trkpt><trkpt lat="16.2762653" lon="-61.3538791"><ele>40.0</ele><time>2026-03-28T14:45:57.969Z</time></trkpt><trkpt lat="16.2763641" lon="-61.3538157"><ele>40.0</ele><time>2026-03-28T14:45:58.97Z</time></trkpt><trkpt lat="16.2764643" lon="-61.3537522"><ele>39.66666666666667</ele><time>2026-03-28T14:45:59.967Z</time></trkpt><trkpt lat="16.2765627" lon="-61.3536886"><ele>39.333333333333336</ele><time>2026-03-28T14:46:00.978Z</time></trkpt><trkpt lat="16.2767505" lon="-61.3535598"><ele>39.0</ele><time>2026-03-28T14:46:02.831Z</time></trkpt><trkpt lat="16.2768453" lon="-61.3534978"><ele>39.0</ele><time>2026-03-28T14:46:03.832Z</time></trkpt><trkpt lat="16.2769422" lon="-61.3534331"><ele>39.0</ele><time>2026-03-28T14:46:04.84Z</time></trkpt><trkpt lat="16.277037" lon="-61.3533673"><ele>39.0</ele><time>2026-03-28T14:46:05.829Z</time></trkpt><trkpt lat="16.2771388" lon="-61.3532994"><ele>39.0</ele><time>2026-03-28T14:46:07.05Z</time></trkpt><trkpt lat="16.2772365" lon="-61.3532355"><ele>39.0</ele><time>2026-03-28T14:46:07.975Z</time></trkpt><trkpt lat="16.2773337" lon="-61.3531654"><ele>39.0</ele><time>2026-03-28T14:46:08.976Z</time></trkpt><trkpt lat="16.2774327" lon="-61.353096"><ele>39.0</ele><time>2026-03-28T14:46:09.992Z</time></trkpt><trkpt lat="16.2775335" lon="-61.3530373"><ele>39.0</ele><time>2026-03-28T14:46:11.055Z</time></trkpt><trkpt lat="16.2776292" lon="-61.3529727"><ele>39.0</ele><time>2026-03-28T14:46:12.037Z</time></trkpt><trkpt lat="16.2777257" lon="-61.3529091"><ele>39.0</ele><time>2026-03-28T14:46:12.967Z</time></trkpt><trkpt lat="16.2778244" lon="-61.3528404"><ele>39.0</ele><time>2026-03-28T14:46:13.982Z</time></trkpt><trkpt lat="16.2779244" lon="-61.3527722"><ele>39.0</ele><time>2026-03-28T14:46:14.983Z</time></trkpt><trkpt lat="16.2780215" lon="-61.3527026"><ele>38.0</ele><time>2026-03-28T14:46:15.943Z</time></trkpt><trkpt lat="16.2781233" lon="-61.3526384"><ele>37.0</ele><time>2026-03-28T14:46:17.034Z</time></trkpt><trkpt lat="16.2782226" lon="-61.3525763"><ele>36.0</ele><time>2026-03-28T14:46:17.98Z</time></trkpt><trkpt lat="16.278318" lon="-61.3525154"><ele>35.0</ele><time>2026-03-28T14:46:18.97Z</time></trkpt><trkpt lat="16.278417" lon="-61.3524478"><ele>35.0</ele><time>2026-03-28T14:46:19.979Z</time></trkpt><trkpt lat="16.2785149" lon="-61.35238"><ele>35.0</ele><time>2026-03-28T14:46:21.052Z</time></trkpt><trkpt lat="16.2786115" lon="-61.3523091"><ele>35.0</ele><time>2026-03-28T14:46:22.034Z</time></trkpt><trkpt lat="16.2787127" lon="-61.3522396"><ele>35.0</ele><time>2026-03-28T14:46:22.978Z</time></trkpt><trkpt lat="16.278814" lon="-61.3521684"><ele>34.6</ele><time>2026-03-28T14:46:23.985Z</time></trkpt><trkpt lat="16.2789108" lon="-61.3521055"><ele>34.2</ele><time>2026-03-28T14:46:24.97Z</time></trkpt><trkpt lat="16.2790046" lon="-61.3520483"><ele>33.8</ele><time>2026-03-28T14:46:26.044Z</time></trkpt><trkpt lat="16.2790966" lon="-61.3519879"><ele>33.4</ele><time>2026-03-28T14:46:27.031Z</time></trkpt><trkpt lat="16.2791847" lon="-61.3519215"><ele>33.0</ele><time>2026-03-28T14:46:27.987Z</time></trkpt><trkpt lat="16.2792719" lon="-61.3518483"><ele>33.0</ele><time>2026-03-28T14:46:28.991Z</time></trkpt><trkpt lat="16.2793554" lon="-61.351762"><ele>33.0</ele><time>2026-03-28T14:46:29.982Z</time></trkpt><trkpt lat="16.2794317" lon="-61.3516765"><ele>33.0</ele><time>2026-03-28T14:46:30.975Z</time></trkpt><trkpt lat="16.2795028" lon="-61.3515887"><ele>33.0</ele><time>2026-03-28T14:46:31.986Z</time></trkpt><trkpt lat="16.2795804" lon="-61.3514871"><ele>33.0</ele><time>2026-03-28T14:46:32.984Z</time></trkpt><trkpt lat="16.279656" lon="-61.3513925"><ele>33.0</ele><time>2026-03-28T14:46:33.98Z</time></trkpt><trkpt lat="16.2797289" lon="-61.3512954"><ele>33.0</ele><time>2026-03-28T14:46:34.981Z</time></trkpt><trkpt lat="16.2797997" lon="-61.3511982"><ele>33.0</ele><time>2026-03-28T14:46:35.98Z</time></trkpt><trkpt lat="16.279864" lon="-61.3511036"><ele>34.75</ele><time>2026-03-28T14:46:37.043Z</time></trkpt><trkpt lat="16.2799257" lon="-61.3510047"><ele>36.5</ele><time>2026-03-28T14:46:37.977Z</time></trkpt><trkpt lat="16.2799808" lon="-61.350893"><ele>38.25</ele><time>2026-03-28T14:46:38.981Z</time></trkpt><trkpt lat="16.2800351" lon="-61.3507816"><ele>40.0</ele><time>2026-03-28T14:46:39.987Z</time></trkpt><trkpt lat="16.2800811" lon="-61.3506694"><ele>40.0</ele><time>2026-03-28T14:46:40.977Z</time></trkpt><trkpt lat="16.2801201" lon="-61.3505528"><ele>40.0</ele><time>2026-03-28T14:46:41.985Z</time></trkpt><trkpt lat="16.280152" lon="-61.3504396"><ele>40.0</ele><time>2026-03-28T14:46:42.976Z</time></trkpt><trkpt lat="16.2801888" lon="-61.350322"><ele>40.0</ele><time>2026-03-28T14:46:43.979Z</time></trkpt><trkpt lat="16.2802201" lon="-61.3501986"><ele>39.5</ele><time>2026-03-28T14:46:45.028Z</time></trkpt><trkpt lat="16.2802391" lon="-61.3500815"><ele>39.0</ele><time>2026-03-28T14:46:46.037Z</time></trkpt><trkpt lat="16.2802518" lon="-61.349964"><ele>38.5</ele><time>2026-03-28T14:46:47.041Z</time></trkpt><trkpt lat="16.2802573" lon="-61.3498461"><ele>38.0</ele><time>2026-03-28T14:46:47.976Z</time></trkpt><trkpt lat="16.2802596" lon="-61.3497235"><ele>38.0</ele><time>2026-03-28T14:46:48.979Z</time></trkpt><trkpt lat="16.2802643" lon="-61.3496024"><ele>38.0</ele><time>2026-03-28T14:46:49.979Z</time></trkpt><trkpt lat="16.280265" lon="-61.3494842"><ele>38.0</ele><time>2026-03-28T14:46:51.039Z</time></trkpt><trkpt lat="16.2802628" lon="-61.3493616"><ele>38.0</ele><time>2026-03-28T14:46:52.039Z</time></trkpt><trkpt lat="16.2802618" lon="-61.3492405"><ele>38.0</ele><time>2026-03-28T14:46:52.979Z</time></trkpt><trkpt lat="16.2802633" lon="-61.349116"><ele>38.0</ele><time>2026-03-28T14:46:53.978Z</time></trkpt><trkpt lat="16.2802611" lon="-61.3489965"><ele>38.0</ele><time>2026-03-28T14:46:54.979Z</time></trkpt><trkpt lat="16.2802584" lon="-61.3488793"><ele>38.0</ele><time>2026-03-28T14:46:55.967Z</time></trkpt><trkpt lat="16.2802644" lon="-61.3487573"><ele>38.75</ele><time>2026-03-28T14:46:57.015Z</time></trkpt><trkpt lat="16.2802689" lon="-61.3486402"><ele>39.5</ele><time>2026-03-28T14:46:57.979Z</time></trkpt><trkpt lat="16.2802712" lon="-61.3485202"><ele>40.25</ele><time>2026-03-28T14:46:58.976Z</time></trkpt><trkpt lat="16.280269" lon="-61.3483973"><ele>41.0</ele><time>2026-03-28T14:46:59.984Z</time></trkpt><trkpt lat="16.2802722" lon="-61.3482744"><ele>41.0</ele><time>2026-03-28T14:47:01.06Z</time></trkpt><trkpt lat="16.2802789" lon="-61.3481557"><ele>41.0</ele><time>2026-03-28T14:47:02.053Z</time></trkpt><trkpt lat="16.2802831" lon="-61.3480354"><ele>41.0</ele><time>2026-03-28T14:47:02.974Z</time></trkpt><trkpt lat="16.2802851" lon="-61.3479189"><ele>41.0</ele><time>2026-03-28T14:47:03.98Z</time></trkpt><trkpt lat="16.2802854" lon="-61.3478033"><ele>41.0</ele><time>2026-03-28T14:47:04.969Z</time></trkpt><trkpt lat="16.2802981" lon="-61.3475707"><ele>41.0</ele><time>2026-03-28T14:47:07.044Z</time></trkpt><trkpt lat="16.2803017" lon="-61.34745"><ele>41.0</ele><time>2026-03-28T14:47:07.977Z</time></trkpt><trkpt lat="16.280305" lon="-61.3473269"><ele>40.75</ele><time>2026-03-28T14:47:08.982Z</time></trkpt><trkpt lat="16.2803069" lon="-61.3472077"><ele>40.5</ele><time>2026-03-28T14:47:09.97Z</time></trkpt><trkpt lat="16.280313" lon="-61.3470914"><ele>40.25</ele><time>2026-03-28T14:47:10.975Z</time></trkpt><trkpt lat="16.2803173" lon="-61.3469687"><ele>40.0</ele><time>2026-03-28T14:47:11.976Z</time></trkpt><trkpt lat="16.2803207" lon="-61.3468468"><ele>40.0</ele><time>2026-03-28T14:47:12.979Z</time></trkpt><trkpt lat="16.2803168" lon="-61.34673"><ele>40.0</ele><time>2026-03-28T14:47:13.963Z</time></trkpt><trkpt lat="16.2803189" lon="-61.3466118"><ele>40.0</ele><time>2026-03-28T14:47:14.96Z</time></trkpt><trkpt lat="16.280326" lon="-61.3464927"><ele>40.0</ele><time>2026-03-28T14:47:15.966Z</time></trkpt><trkpt lat="16.2803253" lon="-61.3463685"><ele>40.0</ele><time>2026-03-28T14:47:17.022Z</time></trkpt><trkpt lat="16.2803251" lon="-61.346254"><ele>40.0</ele><time>2026-03-28T14:47:17.979Z</time></trkpt><trkpt lat="16.2803253" lon="-61.3461297"><ele>40.0</ele><time>2026-03-28T14:47:18.986Z</time></trkpt><trkpt lat="16.2803266" lon="-61.3460069"><ele>40.0</ele><time>2026-03-28T14:47:19.979Z</time></trkpt><trkpt lat="16.280324" lon="-61.3458881"><ele>40.0</ele><time>2026-03-28T14:47:20.984Z</time></trkpt><trkpt lat="16.280324" lon="-61.3457724"><ele>40.0</ele><time>2026-03-28T14:47:21.985Z</time></trkpt><trkpt lat="16.2803272" lon="-61.3456556"><ele>40.0</ele><time>2026-03-28T14:47:22.98Z</time></trkpt><trkpt lat="16.2803278" lon="-61.3455375"><ele>40.0</ele><time>2026-03-28T14:47:24.072Z</time></trkpt><trkpt lat="16.280328" lon="-61.345415"><ele>40.25</ele><time>2026-03-28T14:47:25.035Z</time></trkpt><trkpt lat="16.2803276" lon="-61.3452962"><ele>40.5</ele><time>2026-03-28T14:47:26.055Z</time></trkpt><trkpt lat="16.2803338" lon="-61.3451717"><ele>40.75</ele><time>2026-03-28T14:47:27.051Z</time></trkpt><trkpt lat="16.2803365" lon="-61.3450503"><ele>41.0</ele><time>2026-03-28T14:47:27.983Z</time></trkpt><trkpt lat="16.2803455" lon="-61.3449317"><ele>41.0</ele><time>2026-03-28T14:47:28.985Z</time></trkpt><trkpt lat="16.2803472" lon="-61.3448099"><ele>41.0</ele><time>2026-03-28T14:47:29.979Z</time></trkpt><trkpt lat="16.2803471" lon="-61.3446865"><ele>41.0</ele><time>2026-03-28T14:47:31.056Z</time></trkpt><trkpt lat="16.2803485" lon="-61.3445642"><ele>41.0</ele><time>2026-03-28T14:47:31.958Z</time></trkpt><trkpt lat="16.2803586" lon="-61.3444483"><ele>41.166666666666664</ele><time>2026-03-28T14:47:32.987Z</time></trkpt><trkpt lat="16.2803633" lon="-61.3443451"><ele>41.33333333333333</ele><time>2026-03-28T14:47:33.992Z</time></trkpt><trkpt lat="16.2803606" lon="-61.3442599"><ele>41.5</ele><time>2026-03-28T14:47:35.033Z</time></trkpt><trkpt lat="16.2803639" lon="-61.3441814"><ele>41.666666666666664</ele><time>2026-03-28T14:47:35.991Z</time></trkpt><trkpt lat="16.2803737" lon="-61.3440915"><ele>41.833333333333336</ele><time>2026-03-28T14:47:36.977Z</time></trkpt><trkpt lat="16.2803877" lon="-61.3439951"><ele>42.0</ele><time>2026-03-28T14:47:37.986Z</time></trkpt><trkpt lat="16.2804148" lon="-61.3438908"><ele>42.0</ele><time>2026-03-28T14:47:39.039Z</time></trkpt><trkpt lat="16.2804496" lon="-61.3437821"><ele>42.0</ele><time>2026-03-28T14:47:39.964Z</time></trkpt><trkpt lat="16.2804848" lon="-61.3436741"><ele>42.0</ele><time>2026-03-28T14:47:41.032Z</time></trkpt><trkpt lat="16.2805103" lon="-61.3435624"><ele>42.0</ele><time>2026-03-28T14:47:42.045Z</time></trkpt><trkpt lat="16.280537" lon="-61.3434482"><ele>42.0</ele><time>2026-03-28T14:47:42.979Z</time></trkpt><trkpt lat="16.280574" lon="-61.3433298"><ele>42.75</ele><time>2026-03-28T14:47:43.987Z</time></trkpt><trkpt lat="16.2806126" lon="-61.3432143"><ele>43.5</ele><time>2026-03-28T14:47:44.984Z</time></trkpt><trkpt lat="16.280651" lon="-61.3431052"><ele>44.25</ele><time>2026-03-28T14:47:46.052Z</time></trkpt><trkpt lat="16.2806944" lon="-61.3429921"><ele>45.0</ele><time>2026-03-28T14:47:47.031Z</time></trkpt><trkpt lat="16.2807353" lon="-61.3428784"><ele>45.25</ele><time>2026-03-28T14:47:47.979Z</time></trkpt><trkpt lat="16.2807755" lon="-61.3427687"><ele>45.5</ele><time>2026-03-28T14:47:48.986Z</time></trkpt><trkpt lat="16.2808113" lon="-61.3426569"><ele>45.75</ele><time>2026-03-28T14:47:50.007Z</time></trkpt><trkpt lat="16.2808438" lon="-61.342544"><ele>46.0</ele><time>2026-03-28T14:47:50.985Z</time></trkpt><trkpt lat="16.2808796" lon="-61.3424284"><ele>46.0</ele><time>2026-03-28T14:47:51.991Z</time></trkpt><trkpt lat="16.2809213" lon="-61.3423176"><ele>46.0</ele><time>2026-03-28T14:47:52.975Z</time></trkpt><trkpt lat="16.2809608" lon="-61.3422047"><ele>46.0</ele><time>2026-03-28T14:47:53.99Z</time></trkpt><trkpt lat="16.2809995" lon="-61.3420901"><ele>46.0</ele><time>2026-03-28T14:47:54.989Z</time></trkpt><trkpt lat="16.28104" lon="-61.3419815"><ele>45.75</ele><time>2026-03-28T14:47:55.997Z</time></trkpt><trkpt lat="16.2810777" lon="-61.3418722"><ele>45.5</ele><time>2026-03-28T14:47:56.982Z</time></trkpt><trkpt lat="16.2811147" lon="-61.3417593"><ele>45.25</ele><time>2026-03-28T14:47:57.986Z</time></trkpt><trkpt lat="16.2811505" lon="-61.3416478"><ele>45.0</ele><time>2026-03-28T14:47:58.982Z</time></trkpt><trkpt lat="16.2811828" lon="-61.3415338"><ele>45.0</ele><time>2026-03-28T14:47:59.98Z</time></trkpt><trkpt lat="16.2812162" lon="-61.3414199"><ele>45.0</ele><time>2026-03-28T14:48:00.984Z</time></trkpt><trkpt lat="16.2812517" lon="-61.3413073"><ele>45.0</ele><time>2026-03-28T14:48:01.972Z</time></trkpt><trkpt lat="16.2812892" lon="-61.341197"><ele>45.0</ele><time>2026-03-28T14:48:02.971Z</time></trkpt><trkpt lat="16.2813233" lon="-61.3410858"><ele>45.25</ele><time>2026-03-28T14:48:03.973Z</time></trkpt><trkpt lat="16.2813609" lon="-61.3409739"><ele>45.5</ele><time>2026-03-28T14:48:05.055Z</time></trkpt><trkpt lat="16.2813958" lon="-61.34086"><ele>45.75</ele><time>2026-03-28T14:48:06.038Z</time></trkpt><trkpt lat="16.2814287" lon="-61.340743"><ele>46.0</ele><time>2026-03-28T14:48:07.04Z</time></trkpt><trkpt lat="16.281461" lon="-61.3406243"><ele>45.599999999999994</ele><time>2026-03-28T14:48:07.978Z</time></trkpt><trkpt lat="16.2814926" lon="-61.3405059"><ele>45.2</ele><time>2026-03-28T14:48:08.989Z</time></trkpt><trkpt lat="16.2815256" lon="-61.3404048"><ele>44.8</ele><time>2026-03-28T14:48:09.958Z</time></trkpt><trkpt lat="16.2815638" lon="-61.3403222"><ele>44.400000000000006</ele><time>2026-03-28T14:48:10.975Z</time></trkpt><trkpt lat="16.2816251" lon="-61.3402587"><ele>44.0</ele><time>2026-03-28T14:48:11.985Z</time></trkpt><trkpt lat="16.2817066" lon="-61.34021"><ele>44.0</ele><time>2026-03-28T14:48:12.987Z</time></trkpt><trkpt lat="16.2817882" lon="-61.3401623"><ele>44.0</ele><time>2026-03-28T14:48:14.057Z</time></trkpt><trkpt lat="16.2818677" lon="-61.3400946"><ele>44.0</ele><time>2026-03-28T14:48:15.041Z</time></trkpt><trkpt lat="16.281934" lon="-61.3400077"><ele>44.0</ele><time>2026-03-28T14:48:15.979Z</time></trkpt><trkpt lat="16.2819899" lon="-61.3399265"><ele>44.0</ele><time>2026-03-28T14:48:16.982Z</time></trkpt><trkpt lat="16.282048" lon="-61.3398552"><ele>44.0</ele><time>2026-03-28T14:48:17.983Z</time></trkpt><trkpt lat="16.2821112" lon="-61.3398078"><ele>44.0</ele><time>2026-03-28T14:48:19.022Z</time></trkpt><trkpt lat="16.282179" lon="-61.3397742"><ele>44.0</ele><time>2026-03-28T14:48:20.021Z</time></trkpt><trkpt lat="16.2822466" lon="-61.33976"><ele>44.0</ele><time>2026-03-28T14:48:21.036Z</time></trkpt><trkpt lat="16.2823296" lon="-61.3397668"><ele>44.0</ele><time>2026-03-28T14:48:22.018Z</time></trkpt><trkpt lat="16.2824249" lon="-61.3397943"><ele>44.0</ele><time>2026-03-28T14:48:22.973Z</time></trkpt><trkpt lat="16.2825401" lon="-61.3398345"><ele>44.2</ele><time>2026-03-28T14:48:23.974Z</time></trkpt><trkpt lat="16.2826519" lon="-61.3398648"><ele>44.400000000000006</ele><time>2026-03-28T14:48:24.967Z</time></trkpt><trkpt lat="16.2827571" lon="-61.3398929"><ele>44.6</ele><time>2026-03-28T14:48:25.982Z</time></trkpt><trkpt lat="16.2828514" lon="-61.3399146"><ele>44.8</ele><time>2026-03-28T14:48:26.981Z</time></trkpt><trkpt lat="16.282923" lon="-61.3399237"><ele>45.0</ele><time>2026-03-28T14:48:27.971Z</time></trkpt><trkpt lat="16.2830052" lon="-61.339875"><ele>45.0</ele><time>2026-03-28T14:48:29.949Z</time></trkpt><trkpt lat="16.2830429" lon="-61.3397532"><ele>45.0</ele><time>2026-03-28T14:48:31.98Z</time></trkpt><trkpt lat="16.2830622" lon="-61.3396613"><ele>45.0</ele><time>2026-03-28T14:48:32.965Z</time></trkpt><trkpt lat="16.2830693" lon="-61.3395488"><ele>45.0</ele><time>2026-03-28T14:48:33.974Z</time></trkpt><trkpt lat="16.2830775" lon="-61.3394193"><ele>45.0</ele><time>2026-03-28T14:48:34.979Z</time></trkpt><trkpt lat="16.2830864" lon="-61.3392918"><ele>43.75</ele><time>2026-03-28T14:48:35.975Z</time></trkpt><trkpt lat="16.283098" lon="-61.3391686"><ele>42.5</ele><time>2026-03-28T14:48:36.951Z</time></trkpt><trkpt lat="16.2831148" lon="-61.3390508"><ele>41.25</ele><time>2026-03-28T14:48:37.974Z</time></trkpt><trkpt lat="16.2831292" lon="-61.3389299"><ele>40.0</ele><time>2026-03-28T14:48:38.985Z</time></trkpt><trkpt lat="16.2831465" lon="-61.3388142"><ele>40.0</ele><time>2026-03-28T14:48:39.988Z</time></trkpt><trkpt lat="16.2831664" lon="-61.3386979"><ele>40.0</ele><time>2026-03-28T14:48:40.978Z</time></trkpt><trkpt lat="16.2831852" lon="-61.3385801"><ele>40.0</ele><time>2026-03-28T14:48:41.974Z</time></trkpt><trkpt lat="16.283213" lon="-61.3384655"><ele>40.0</ele><time>2026-03-28T14:48:42.974Z</time></trkpt><trkpt lat="16.2832446" lon="-61.3383476"><ele>40.0</ele><time>2026-03-28T14:48:43.979Z</time></trkpt><trkpt lat="16.2832748" lon="-61.3382365"><ele>40.0</ele><time>2026-03-28T14:48:45.038Z</time></trkpt><trkpt lat="16.2833036" lon="-61.3381232"><ele>40.0</ele><time>2026-03-28T14:48:45.978Z</time></trkpt><trkpt lat="16.2833244" lon="-61.3380122"><ele>40.0</ele><time>2026-03-28T14:48:46.978Z</time></trkpt><trkpt lat="16.2833486" lon="-61.3378983"><ele>40.0</ele><time>2026-03-28T14:48:47.973Z</time></trkpt><trkpt lat="16.2833729" lon="-61.3377865"><ele>40.25</ele><time>2026-03-28T14:48:48.978Z</time></trkpt><trkpt lat="16.2833984" lon="-61.3376747"><ele>40.5</ele><time>2026-03-28T14:48:49.97Z</time></trkpt><trkpt lat="16.283426" lon="-61.3375617"><ele>40.75</ele><time>2026-03-28T14:48:50.974Z</time></trkpt><trkpt lat="16.2834596" lon="-61.3374477"><ele>41.0</ele><time>2026-03-28T14:48:51.977Z</time></trkpt><trkpt lat="16.2835017" lon="-61.3373312"><ele>40.25</ele><time>2026-03-28T14:48:52.979Z</time></trkpt><trkpt lat="16.2835414" lon="-61.337216"><ele>39.5</ele><time>2026-03-28T14:48:53.987Z</time></trkpt><trkpt lat="16.2835763" lon="-61.3371044"><ele>38.75</ele><time>2026-03-28T14:48:54.978Z</time></trkpt><trkpt lat="16.2836096" lon="-61.3369915"><ele>38.0</ele><time>2026-03-28T14:48:55.979Z</time></trkpt><trkpt lat="16.2836467" lon="-61.33688"><ele>38.0</ele><time>2026-03-28T14:48:56.985Z</time></trkpt><trkpt lat="16.2836862" lon="-61.3367678"><ele>38.0</ele><time>2026-03-28T14:48:57.981Z</time></trkpt><trkpt lat="16.2837302" lon="-61.3366546"><ele>38.0</ele><time>2026-03-28T14:48:58.979Z</time></trkpt><trkpt lat="16.2837774" lon="-61.3365435"><ele>38.0</ele><time>2026-03-28T14:48:59.98Z</time></trkpt><trkpt lat="16.2838219" lon="-61.336434"><ele>38.25</ele><time>2026-03-28T14:49:00.985Z</time></trkpt><trkpt lat="16.283873" lon="-61.3363244"><ele>38.5</ele><time>2026-03-28T14:49:01.979Z</time></trkpt><trkpt lat="16.2839233" lon="-61.3362171"><ele>38.75</ele><time>2026-03-28T14:49:02.979Z</time></trkpt><trkpt lat="16.2839789" lon="-61.3361102"><ele>39.0</ele><time>2026-03-28T14:49:03.986Z</time></trkpt><trkpt lat="16.2840425" lon="-61.3360089"><ele>39.0</ele><time>2026-03-28T14:49:04.985Z</time></trkpt><trkpt lat="16.2841193" lon="-61.3359167"><ele>39.0</ele><time>2026-03-28T14:49:05.983Z</time></trkpt><trkpt lat="16.2842133" lon="-61.3358412"><ele>39.0</ele><time>2026-03-28T14:49:06.97Z</time></trkpt><trkpt lat="16.2843218" lon="-61.3357843"><ele>39.0</ele><time>2026-03-28T14:49:07.982Z</time></trkpt><trkpt lat="16.2844347" lon="-61.3357483"><ele>39.0</ele><time>2026-03-28T14:49:08.985Z</time></trkpt><trkpt lat="16.2845507" lon="-61.3357272"><ele>39.0</ele><time>2026-03-28T14:49:09.99Z</time></trkpt><trkpt lat="16.2846579" lon="-61.3357099"><ele>39.0</ele><time>2026-03-28T14:49:11.051Z</time></trkpt><trkpt lat="16.2847458" lon="-61.3356933"><ele>39.0</ele><time>2026-03-28T14:49:12.055Z</time></trkpt><trkpt lat="16.2848177" lon="-61.3356602"><ele>39.0</ele><time>2026-03-28T14:49:12.987Z</time></trkpt><trkpt lat="16.2848732" lon="-61.3355963"><ele>37.8</ele><time>2026-03-28T14:49:13.985Z</time></trkpt><trkpt lat="16.284917" lon="-61.3355034"><ele>36.599999999999994</ele><time>2026-03-28T14:49:14.975Z</time></trkpt><trkpt lat="16.284961" lon="-61.3354007"><ele>35.4</ele><time>2026-03-28T14:49:15.98Z</time></trkpt><trkpt lat="16.2849955" lon="-61.3352949"><ele>34.199999999999996</ele><time>2026-03-28T14:49:16.983Z</time></trkpt><trkpt lat="16.2850247" lon="-61.3351883"><ele>33.0</ele><time>2026-03-28T14:49:17.991Z</time></trkpt><trkpt lat="16.2850541" lon="-61.3350745"><ele>33.0</ele><time>2026-03-28T14:49:19.065Z</time></trkpt><trkpt lat="16.2850829" lon="-61.3349577"><ele>33.0</ele><time>2026-03-28T14:49:20.043Z</time></trkpt><trkpt lat="16.2851156" lon="-61.3348459"><ele>33.0</ele><time>2026-03-28T14:49:21.042Z</time></trkpt><trkpt lat="16.28515" lon="-61.3347272"><ele>33.0</ele><time>2026-03-28T14:49:22.03Z</time></trkpt><trkpt lat="16.2851765" lon="-61.3346092"><ele>32.8</ele><time>2026-03-28T14:49:22.983Z</time></trkpt><trkpt lat="16.2852009" lon="-61.3344905"><ele>32.599999999999994</ele><time>2026-03-28T14:49:23.981Z</time></trkpt><trkpt lat="16.285232" lon="-61.3343759"><ele>32.400000000000006</ele><time>2026-03-28T14:49:24.987Z</time></trkpt><trkpt lat="16.2852618" lon="-61.3342634"><ele>32.2</ele><time>2026-03-28T14:49:25.975Z</time></trkpt><trkpt lat="16.2852907" lon="-61.3341592"><ele>32.0</ele><time>2026-03-28T14:49:26.98Z</time></trkpt><trkpt lat="16.285313" lon="-61.3340515"><ele>32.0</ele><time>2026-03-28T14:49:27.984Z</time></trkpt><trkpt lat="16.2853303" lon="-61.333957"><ele>32.0</ele><time>2026-03-28T14:49:28.982Z</time></trkpt><trkpt lat="16.2853673" lon="-61.3338814"><ele>32.0</ele><time>2026-03-28T14:49:30.078Z</time></trkpt><trkpt lat="16.2854528" lon="-61.3337456"><ele>32.0</ele><time>2026-03-28T14:49:31.985Z</time></trkpt><trkpt lat="16.2855071" lon="-61.3336817"><ele>32.0</ele><time>2026-03-28T14:49:32.972Z</time></trkpt><trkpt lat="16.2855614" lon="-61.3336216"><ele>31.8</ele><time>2026-03-28T14:49:33.983Z</time></trkpt><trkpt lat="16.2856204" lon="-61.3335667"><ele>31.6</ele><time>2026-03-28T14:49:34.976Z</time></trkpt><trkpt lat="16.2856972" lon="-61.3335234"><ele>31.400000000000002</ele><time>2026-03-28T14:49:35.981Z</time></trkpt><trkpt lat="16.2857794" lon="-61.3334711"><ele>31.200000000000003</ele><time>2026-03-28T14:49:36.986Z</time></trkpt><trkpt lat="16.2858688" lon="-61.3334121"><ele>31.0</ele><time>2026-03-28T14:49:37.978Z</time></trkpt><trkpt lat="16.2859565" lon="-61.3333546"><ele>31.000000000000004</ele><time>2026-03-28T14:49:38.971Z</time></trkpt><trkpt lat="16.2860246" lon="-61.3333061"><ele>31.0</ele><time>2026-03-28T14:49:39.973Z</time></trkpt><trkpt lat="16.2860894" lon="-61.3332487"><ele>31.0</ele><time>2026-03-28T14:49:40.979Z</time></trkpt><trkpt lat="16.2861493" lon="-61.3331764"><ele>31.0</ele><time>2026-03-28T14:49:41.966Z</time></trkpt><trkpt lat="16.2862039" lon="-61.3331054"><ele>31.000000000000004</ele><time>2026-03-28T14:49:42.985Z</time></trkpt><trkpt lat="16.2862533" lon="-61.3330498"><ele>31.0</ele><time>2026-03-28T14:49:43.974Z</time></trkpt><trkpt lat="16.2863018" lon="-61.3329771"><ele>31.166666666666668</ele><time>2026-03-28T14:49:45.061Z</time></trkpt><trkpt lat="16.2863346" lon="-61.3329038"><ele>31.333333333333336</ele><time>2026-03-28T14:49:45.975Z</time></trkpt><trkpt lat="16.28636" lon="-61.332827"><ele>31.5</ele><time>2026-03-28T14:49:46.981Z</time></trkpt><trkpt lat="16.2863691" lon="-61.3327499"><ele>31.666666666666664</ele><time>2026-03-28T14:49:47.972Z</time></trkpt><trkpt lat="16.2863629" lon="-61.3326627"><ele>31.833333333333332</ele><time>2026-03-28T14:49:48.974Z</time></trkpt><trkpt lat="16.2863423" lon="-61.3325781"><ele>32.0</ele><time>2026-03-28T14:49:49.969Z</time></trkpt><trkpt lat="16.2863205" lon="-61.3324849"><ele>31.999999999999996</ele><time>2026-03-28T14:49:50.969Z</time></trkpt><trkpt lat="16.2862834" lon="-61.332405"><ele>32.0</ele><time>2026-03-28T14:49:52.036Z</time></trkpt><trkpt lat="16.2862444" lon="-61.3323369"><ele>32.0</ele><time>2026-03-28T14:49:52.956Z</time></trkpt><trkpt lat="16.2862017" lon="-61.3322689"><ele>32.0</ele><time>2026-03-28T14:49:54.026Z</time></trkpt><trkpt lat="16.2861594" lon="-61.3321907"><ele>31.999999999999996</ele><time>2026-03-28T14:49:54.971Z</time></trkpt><trkpt lat="16.2861104" lon="-61.3321268"><ele>32.0</ele><time>2026-03-28T14:49:55.98Z</time></trkpt><trkpt lat="16.2860594" lon="-61.332055"><ele>31.8</ele><time>2026-03-28T14:49:56.974Z</time></trkpt><trkpt lat="16.2860131" lon="-61.331981"><ele>31.6</ele><time>2026-03-28T14:49:57.978Z</time></trkpt><trkpt lat="16.2859798" lon="-61.3318942"><ele>31.400000000000002</ele><time>2026-03-28T14:49:58.978Z</time></trkpt><trkpt lat="16.2859564" lon="-61.3317991"><ele>31.200000000000003</ele><time>2026-03-28T14:49:59.981Z</time></trkpt><trkpt lat="16.2859268" lon="-61.3317057"><ele>31.0</ele><time>2026-03-28T14:50:00.921Z</time></trkpt><trkpt lat="16.2859009" lon="-61.3316036"><ele>31.0</ele><time>2026-03-28T14:50:01.87Z</time></trkpt><trkpt lat="16.2858818" lon="-61.3315019"><ele>31.0</ele><time>2026-03-28T14:50:02.87Z</time></trkpt><trkpt lat="16.2858742" lon="-61.3314051"><ele>31.0</ele><time>2026-03-28T14:50:03.876Z</time></trkpt><trkpt lat="16.2858587" lon="-61.3313051"><ele>31.0</ele><time>2026-03-28T14:50:04.863Z</time></trkpt><trkpt lat="16.2858394" lon="-61.3312131"><ele>31.0</ele><time>2026-03-28T14:50:05.872Z</time></trkpt><trkpt lat="16.2858284" lon="-61.3311246"><ele>30.833333333333336</ele><time>2026-03-28T14:50:06.861Z</time></trkpt><trkpt lat="16.2858269" lon="-61.3310448"><ele>30.666666666666668</ele><time>2026-03-28T14:50:07.872Z</time></trkpt><trkpt lat="16.2858595" lon="-61.3309217"><ele>30.5</ele><time>2026-03-28T14:50:10.033Z</time></trkpt><trkpt lat="16.2858892" lon="-61.3308593"><ele>30.333333333333336</ele><time>2026-03-28T14:50:10.969Z</time></trkpt><trkpt lat="16.285923" lon="-61.3307835"><ele>30.166666666666668</ele><time>2026-03-28T14:50:11.986Z</time></trkpt><trkpt lat="16.2859573" lon="-61.3307012"><ele>30.0</ele><time>2026-03-28T14:50:12.983Z</time></trkpt><trkpt lat="16.2859807" lon="-61.3306183"><ele>29.666666666666668</ele><time>2026-03-28T14:50:13.991Z</time></trkpt><trkpt lat="16.285991" lon="-61.3305364"><ele>29.333333333333336</ele><time>2026-03-28T14:50:14.981Z</time></trkpt><trkpt lat="16.285976" lon="-61.330457"><ele>29.0</ele><time>2026-03-28T14:50:15.981Z</time></trkpt><trkpt lat="16.2859434" lon="-61.3303776"><ele>28.666666666666668</ele><time>2026-03-28T14:50:16.97Z</time></trkpt><trkpt lat="16.2859074" lon="-61.3302879"><ele>28.333333333333336</ele><time>2026-03-28T14:50:17.979Z</time></trkpt><trkpt lat="16.2858602" lon="-61.3301957"><ele>28.0</ele><time>2026-03-28T14:50:19.056Z</time></trkpt><trkpt lat="16.2858195" lon="-61.3300967"><ele>28.0</ele><time>2026-03-28T14:50:19.975Z</time></trkpt><trkpt lat="16.285798" lon="-61.3299843"><ele>28.0</ele><time>2026-03-28T14:50:20.984Z</time></trkpt><trkpt lat="16.2857865" lon="-61.3298642"><ele>28.0</ele><time>2026-03-28T14:50:21.977Z</time></trkpt><trkpt lat="16.2857865" lon="-61.3297446"><ele>28.0</ele><time>2026-03-28T14:50:22.985Z</time></trkpt><trkpt lat="16.2857919" lon="-61.3296283"><ele>27.75</ele><time>2026-03-28T14:50:23.977Z</time></trkpt><trkpt lat="16.2858014" lon="-61.3295113"><ele>27.5</ele><time>2026-03-28T14:50:24.983Z</time></trkpt><trkpt lat="16.2858118" lon="-61.3293938"><ele>27.25</ele><time>2026-03-28T14:50:25.97Z</time></trkpt><trkpt lat="16.285817" lon="-61.3292747"><ele>27.0</ele><time>2026-03-28T14:50:27.033Z</time></trkpt><trkpt lat="16.2858218" lon="-61.3291581"><ele>27.0</ele><time>2026-03-28T14:50:27.978Z</time></trkpt><trkpt lat="16.2858289" lon="-61.3290416"><ele>27.000000000000004</ele><time>2026-03-28T14:50:28.982Z</time></trkpt><trkpt lat="16.2858349" lon="-61.3289276"><ele>27.000000000000004</ele><time>2026-03-28T14:50:30.001Z</time></trkpt><trkpt lat="16.2858411" lon="-61.3288196"><ele>27.0</ele><time>2026-03-28T14:50:31.029Z</time></trkpt><trkpt lat="16.2858479" lon="-61.3287161"><ele>27.0</ele><time>2026-03-28T14:50:31.937Z</time></trkpt><trkpt lat="16.2858492" lon="-61.3286202"><ele>27.200000000000003</ele><time>2026-03-28T14:50:32.887Z</time></trkpt><trkpt lat="16.2858455" lon="-61.3285262"><ele>27.400000000000002</ele><time>2026-03-28T14:50:33.891Z</time></trkpt><trkpt lat="16.2858406" lon="-61.3284236"><ele>27.599999999999998</ele><time>2026-03-28T14:50:34.884Z</time></trkpt><trkpt lat="16.2858364" lon="-61.3283222"><ele>27.799999999999997</ele><time>2026-03-28T14:50:35.856Z</time></trkpt><trkpt lat="16.2858334" lon="-61.3282148"><ele>28.0</ele><time>2026-03-28T14:50:37.051Z</time></trkpt><trkpt lat="16.2858268" lon="-61.3281033"><ele>28.2</ele><time>2026-03-28T14:50:37.98Z</time></trkpt><trkpt lat="16.2858211" lon="-61.3279917"><ele>28.4</ele><time>2026-03-28T14:50:38.976Z</time></trkpt><trkpt lat="16.2858164" lon="-61.3278812"><ele>28.599999999999998</ele><time>2026-03-28T14:50:39.984Z</time></trkpt><trkpt lat="16.28581" lon="-61.3277669"><ele>28.799999999999997</ele><time>2026-03-28T14:50:40.955Z</time></trkpt><trkpt lat="16.285805" lon="-61.3276559"><ele>29.0</ele><time>2026-03-28T14:50:41.981Z</time></trkpt><trkpt lat="16.2858045" lon="-61.3275421"><ele>29.0</ele><time>2026-03-28T14:50:42.978Z</time></trkpt><trkpt lat="16.2858032" lon="-61.3274274"><ele>29.0</ele><time>2026-03-28T14:50:43.987Z</time></trkpt><trkpt lat="16.2858066" lon="-61.3273162"><ele>29.0</ele><time>2026-03-28T14:50:44.991Z</time></trkpt><trkpt lat="16.2858076" lon="-61.3272108"><ele>29.0</ele><time>2026-03-28T14:50:46.063Z</time></trkpt><trkpt lat="16.2858113" lon="-61.3271187"><ele>29.0</ele><time>2026-03-28T14:50:47.041Z</time></trkpt><trkpt lat="16.2858151" lon="-61.3270353"><ele>29.4</ele><time>2026-03-28T14:50:47.98Z</time></trkpt><trkpt lat="16.2858137" lon="-61.3269413"><ele>29.799999999999997</ele><time>2026-03-28T14:50:48.984Z</time></trkpt><trkpt lat="16.2858122" lon="-61.3268356"><ele>30.200000000000003</ele><time>2026-03-28T14:50:49.984Z</time></trkpt><trkpt lat="16.2858058" lon="-61.3267255"><ele>30.6</ele><time>2026-03-28T14:50:51.043Z</time></trkpt><trkpt lat="16.2858037" lon="-61.3266183"><ele>31.0</ele><time>2026-03-28T14:50:52.05Z</time></trkpt><trkpt lat="16.2858086" lon="-61.3265123"><ele>31.0</ele><time>2026-03-28T14:50:52.964Z</time></trkpt><trkpt lat="16.2858201" lon="-61.3264075"><ele>31.0</ele><time>2026-03-28T14:50:53.981Z</time></trkpt><trkpt lat="16.2858399" lon="-61.3263011"><ele>31.0</ele><time>2026-03-28T14:50:54.977Z</time></trkpt><trkpt lat="16.2858564" lon="-61.3261899"><ele>31.0</ele><time>2026-03-28T14:50:55.981Z</time></trkpt><trkpt lat="16.285874" lon="-61.326075"><ele>31.0</ele><time>2026-03-28T14:50:56.975Z</time></trkpt><trkpt lat="16.2859006" lon="-61.3259615"><ele>31.25</ele><time>2026-03-28T14:50:57.985Z</time></trkpt><trkpt lat="16.2859279" lon="-61.3258508"><ele>31.5</ele><time>2026-03-28T14:50:59.039Z</time></trkpt><trkpt lat="16.2859578" lon="-61.3257356"><ele>31.75</ele><time>2026-03-28T14:51:00.046Z</time></trkpt><trkpt lat="16.2859841" lon="-61.3256208"><ele>32.0</ele><time>2026-03-28T14:51:00.977Z</time></trkpt><trkpt lat="16.2860133" lon="-61.325505"><ele>32.5</ele><time>2026-03-28T14:51:01.985Z</time></trkpt><trkpt lat="16.2860411" lon="-61.3253839"><ele>33.0</ele><time>2026-03-28T14:51:02.948Z</time></trkpt><trkpt lat="16.2860697" lon="-61.3252696"><ele>33.5</ele><time>2026-03-28T14:51:03.967Z</time></trkpt><trkpt lat="16.2861026" lon="-61.3251591"><ele>34.0</ele><time>2026-03-28T14:51:04.979Z</time></trkpt><trkpt lat="16.2861407" lon="-61.325044"><ele>34.0</ele><time>2026-03-28T14:51:05.978Z</time></trkpt><trkpt lat="16.2861712" lon="-61.3249294"><ele>34.0</ele><time>2026-03-28T14:51:06.986Z</time></trkpt><trkpt lat="16.2862028" lon="-61.3248126"><ele>34.0</ele><time>2026-03-28T14:51:07.975Z</time></trkpt><trkpt lat="16.2862362" lon="-61.3247022"><ele>34.0</ele><time>2026-03-28T14:51:08.976Z</time></trkpt><trkpt lat="16.2862712" lon="-61.324589"><ele>33.0</ele><time>2026-03-28T14:51:09.974Z</time></trkpt><trkpt lat="16.2863073" lon="-61.3244689"><ele>32.0</ele><time>2026-03-28T14:51:10.978Z</time></trkpt><trkpt lat="16.2863432" lon="-61.3243581"><ele>31.0</ele><time>2026-03-28T14:51:11.982Z</time></trkpt><trkpt lat="16.2863812" lon="-61.3242463"><ele>30.0</ele><time>2026-03-28T14:51:12.985Z</time></trkpt><trkpt lat="16.2864153" lon="-61.3241325"><ele>30.5</ele><time>2026-03-28T14:51:13.972Z</time></trkpt><trkpt lat="16.286446" lon="-61.3240178"><ele>31.0</ele><time>2026-03-28T14:51:15.056Z</time></trkpt><trkpt lat="16.2864776" lon="-61.3239019"><ele>31.5</ele><time>2026-03-28T14:51:16.039Z</time></trkpt><trkpt lat="16.286515" lon="-61.3237899"><ele>32.0</ele><time>2026-03-28T14:51:17.049Z</time></trkpt><trkpt lat="16.2865533" lon="-61.3236807"><ele>32.0</ele><time>2026-03-28T14:51:17.979Z</time></trkpt><trkpt lat="16.2865919" lon="-61.3235683"><ele>32.0</ele><time>2026-03-28T14:51:18.98Z</time></trkpt><trkpt lat="16.2866278" lon="-61.3234618"><ele>32.0</ele><time>2026-03-28T14:51:20.016Z</time></trkpt><trkpt lat="16.2866584" lon="-61.3233554"><ele>32.0</ele><time>2026-03-28T14:51:21.03Z</time></trkpt><trkpt lat="16.2866828" lon="-61.3232475"><ele>32.0</ele><time>2026-03-28T14:51:22.044Z</time></trkpt><trkpt lat="16.2867067" lon="-61.3231381"><ele>32.6</ele><time>2026-03-28T14:51:22.982Z</time></trkpt><trkpt lat="16.2867345" lon="-61.3230247"><ele>33.2</ele><time>2026-03-28T14:51:23.982Z</time></trkpt><trkpt lat="16.2867605" lon="-61.3229132"><ele>33.8</ele><time>2026-03-28T14:51:24.977Z</time></trkpt><trkpt lat="16.2867894" lon="-61.3228027"><ele>34.4</ele><time>2026-03-28T14:51:26.047Z</time></trkpt><trkpt lat="16.286825" lon="-61.3226905"><ele>35.0</ele><time>2026-03-28T14:51:27.036Z</time></trkpt><trkpt lat="16.2868577" lon="-61.3225751"><ele>35.0</ele><time>2026-03-28T14:51:27.99Z</time></trkpt><trkpt lat="16.2868926" lon="-61.322464"><ele>35.0</ele><time>2026-03-28T14:51:28.993Z</time></trkpt><trkpt lat="16.2869307" lon="-61.3223521"><ele>35.0</ele><time>2026-03-28T14:51:30.02Z</time></trkpt><trkpt lat="16.286966" lon="-61.3222422"><ele>35.0</ele><time>2026-03-28T14:51:31.036Z</time></trkpt><trkpt lat="16.2869986" lon="-61.3221266"><ele>35.2</ele><time>2026-03-28T14:51:32.058Z</time></trkpt><trkpt lat="16.2870331" lon="-61.3220116"><ele>35.4</ele><time>2026-03-28T14:51:32.974Z</time></trkpt><trkpt lat="16.2870647" lon="-61.3218962"><ele>35.6</ele><time>2026-03-28T14:51:33.985Z</time></trkpt><trkpt lat="16.287096" lon="-61.3217882"><ele>35.8</ele><time>2026-03-28T14:51:34.997Z</time></trkpt><trkpt lat="16.2871257" lon="-61.3216819"><ele>36.0</ele><time>2026-03-28T14:51:35.904Z</time></trkpt><trkpt lat="16.2871576" lon="-61.3215766"><ele>36.0</ele><time>2026-03-28T14:51:37.048Z</time></trkpt><trkpt lat="16.287183" lon="-61.3214769"><ele>36.0</ele><time>2026-03-28T14:51:37.985Z</time></trkpt><trkpt lat="16.2872075" lon="-61.3213848"><ele>36.0</ele><time>2026-03-28T14:51:38.984Z</time></trkpt><trkpt lat="16.2872329" lon="-61.3212974"><ele>36.0</ele><time>2026-03-28T14:51:39.973Z</time></trkpt><trkpt lat="16.2872548" lon="-61.3212127"><ele>36.0</ele><time>2026-03-28T14:51:41.037Z</time></trkpt><trkpt lat="16.2872706" lon="-61.3211304"><ele>36.0</ele><time>2026-03-28T14:51:42.038Z</time></trkpt><trkpt lat="16.2872903" lon="-61.3210528"><ele>36.0</ele><time>2026-03-28T14:51:42.975Z</time></trkpt><trkpt lat="16.2873096" lon="-61.3209777"><ele>36.0</ele><time>2026-03-28T14:51:43.983Z</time></trkpt><trkpt lat="16.2873263" lon="-61.3209043"><ele>36.0</ele><time>2026-03-28T14:51:44.973Z</time></trkpt><trkpt lat="16.2873444" lon="-61.3208337"><ele>36.0</ele><time>2026-03-28T14:51:45.982Z</time></trkpt><trkpt lat="16.2873549" lon="-61.320765"><ele>36.0</ele><time>2026-03-28T14:51:46.975Z</time></trkpt><trkpt lat="16.2873835" lon="-61.3206542"><ele>36.0</ele><time>2026-03-28T14:51:48.952Z</time></trkpt><trkpt lat="16.2874222" lon="-61.3205567"><ele>36.0</ele><time>2026-03-28T14:51:50.977Z</time></trkpt><trkpt lat="16.2874536" lon="-61.3204965"><ele>36.0</ele><time>2026-03-28T14:51:53.97Z</time></trkpt><trkpt lat="16.2875261" lon="-61.3204918"><ele>36.0</ele><time>2026-03-28T14:52:40.964Z</time></trkpt><trkpt lat="16.2876233" lon="-61.3204868"><ele>36.0</ele><time>2026-03-28T14:52:41.985Z</time></trkpt><trkpt lat="16.2877265" lon="-61.3204959"><ele>36.0</ele><time>2026-03-28T14:52:42.982Z</time></trkpt><trkpt lat="16.2878227" lon="-61.3205208"><ele>36.0</ele><time>2026-03-28T14:52:43.981Z</time></trkpt><trkpt lat="16.2879292" lon="-61.3205564"><ele>36.5</ele><time>2026-03-28T14:52:45.039Z</time></trkpt><trkpt lat="16.288046" lon="-61.3205854"><ele>37.0</ele><time>2026-03-28T14:52:46.038Z</time></trkpt><trkpt lat="16.2881635" lon="-61.3206182"><ele>37.5</ele><time>2026-03-28T14:52:47.032Z</time></trkpt><trkpt lat="16.2882754" lon="-61.3206479"><ele>38.0</ele><time>2026-03-28T14:52:47.977Z</time></trkpt><trkpt lat="16.2883887" lon="-61.320675"><ele>38.0</ele><time>2026-03-28T14:52:48.985Z</time></trkpt><trkpt lat="16.2885027" lon="-61.3207091"><ele>38.0</ele><time>2026-03-28T14:52:49.978Z</time></trkpt><trkpt lat="16.2886233" lon="-61.3207401"><ele>38.0</ele><time>2026-03-28T14:52:50.984Z</time></trkpt><trkpt lat="16.288736" lon="-61.3207718"><ele>38.0</ele><time>2026-03-28T14:52:51.98Z</time></trkpt><trkpt lat="16.2888476" lon="-61.3208088"><ele>38.5</ele><time>2026-03-28T14:52:52.971Z</time></trkpt><trkpt lat="16.2889639" lon="-61.3208373"><ele>39.0</ele><time>2026-03-28T14:52:54.044Z</time></trkpt><trkpt lat="16.2890758" lon="-61.32087"><ele>39.5</ele><time>2026-03-28T14:52:55.046Z</time></trkpt><trkpt lat="16.2891911" lon="-61.3209052"><ele>40.0</ele><time>2026-03-28T14:52:55.977Z</time></trkpt><trkpt lat="16.2893041" lon="-61.320934"><ele>40.0</ele><time>2026-03-28T14:52:56.977Z</time></trkpt><trkpt lat="16.2894192" lon="-61.320961"><ele>40.0</ele><time>2026-03-28T14:52:57.986Z</time></trkpt><trkpt lat="16.289538" lon="-61.320994"><ele>40.0</ele><time>2026-03-28T14:52:58.982Z</time></trkpt><trkpt lat="16.2896524" lon="-61.3210247"><ele>40.0</ele><time>2026-03-28T14:52:59.988Z</time></trkpt><trkpt lat="16.2897616" lon="-61.32106"><ele>40.25</ele><time>2026-03-28T14:53:00.98Z</time></trkpt><trkpt lat="16.2898722" lon="-61.3210987"><ele>40.5</ele><time>2026-03-28T14:53:02.046Z</time></trkpt><trkpt lat="16.2899827" lon="-61.3211275"><ele>40.75</ele><time>2026-03-28T14:53:02.98Z</time></trkpt><trkpt lat="16.2900905" lon="-61.3211541"><ele>41.0</ele><time>2026-03-28T14:53:03.982Z</time></trkpt><trkpt lat="16.2901966" lon="-61.3211802"><ele>41.0</ele><time>2026-03-28T14:53:04.986Z</time></trkpt><trkpt lat="16.290305" lon="-61.3212121"><ele>41.0</ele><time>2026-03-28T14:53:06.071Z</time></trkpt><trkpt lat="16.2904166" lon="-61.3212455"><ele>41.0</ele><time>2026-03-28T14:53:07.04Z</time></trkpt><trkpt lat="16.2905319" lon="-61.3212763"><ele>41.0</ele><time>2026-03-28T14:53:07.977Z</time></trkpt><trkpt lat="16.2906436" lon="-61.3213053"><ele>41.0</ele><time>2026-03-28T14:53:08.981Z</time></trkpt><trkpt lat="16.2907593" lon="-61.3213404"><ele>41.0</ele><time>2026-03-28T14:53:09.973Z</time></trkpt><trkpt lat="16.290869" lon="-61.3213759"><ele>41.0</ele><time>2026-03-28T14:53:11.036Z</time></trkpt><trkpt lat="16.2909783" lon="-61.3214089"><ele>41.0</ele><time>2026-03-28T14:53:12.054Z</time></trkpt><trkpt lat="16.2910777" lon="-61.3214348"><ele>41.0</ele><time>2026-03-28T14:53:12.992Z</time></trkpt><trkpt lat="16.2911569" lon="-61.3214382"><ele>41.0</ele><time>2026-03-28T14:53:13.994Z</time></trkpt><trkpt lat="16.2912488" lon="-61.3213592"><ele>41.0</ele><time>2026-03-28T14:53:15.99Z</time></trkpt><trkpt lat="16.2912769" lon="-61.3212858"><ele>41.0</ele><time>2026-03-28T14:53:16.995Z</time></trkpt><trkpt lat="16.2912978" lon="-61.3211894"><ele>41.0</ele><time>2026-03-28T14:53:17.989Z</time></trkpt><trkpt lat="16.2913238" lon="-61.3210805"><ele>40.5</ele><time>2026-03-28T14:53:18.983Z</time></trkpt><trkpt lat="16.2913556" lon="-61.320958"><ele>40.0</ele><time>2026-03-28T14:53:19.991Z</time></trkpt><trkpt lat="16.2913893" lon="-61.3208441"><ele>39.5</ele><time>2026-03-28T14:53:21.032Z</time></trkpt><trkpt lat="16.2914242" lon="-61.3207252"><ele>39.0</ele><time>2026-03-28T14:53:21.978Z</time></trkpt><trkpt lat="16.2914584" lon="-61.3206128"><ele>39.25</ele><time>2026-03-28T14:53:22.98Z</time></trkpt><trkpt lat="16.2914885" lon="-61.3205034"><ele>39.5</ele><time>2026-03-28T14:53:23.982Z</time></trkpt><trkpt lat="16.291528" lon="-61.3203913"><ele>39.75</ele><time>2026-03-28T14:53:24.976Z</time></trkpt><trkpt lat="16.2915645" lon="-61.3202789"><ele>40.0</ele><time>2026-03-28T14:53:25.981Z</time></trkpt><trkpt lat="16.2916085" lon="-61.3201671"><ele>40.0</ele><time>2026-03-28T14:53:27.047Z</time></trkpt><trkpt lat="16.2916519" lon="-61.3200582"><ele>40.0</ele><time>2026-03-28T14:53:27.972Z</time></trkpt><trkpt lat="16.2916928" lon="-61.3199688"><ele>40.0</ele><time>2026-03-28T14:53:28.992Z</time></trkpt><trkpt lat="16.2917267" lon="-61.3199067"><ele>40.0</ele><time>2026-03-28T14:53:29.977Z</time></trkpt><trkpt lat="16.2918216" lon="-61.3198527"><ele>40.0</ele><time>2026-03-28T14:53:31.976Z</time></trkpt><trkpt lat="16.2919509" lon="-61.3198867"><ele>40.0</ele><time>2026-03-28T14:53:33.989Z</time></trkpt><trkpt lat="16.292037" lon="-61.3199191"><ele>40.0</ele><time>2026-03-28T14:53:34.986Z</time></trkpt><trkpt lat="16.2921402" lon="-61.3199626"><ele>40.0</ele><time>2026-03-28T14:53:35.979Z</time></trkpt><trkpt lat="16.2922363" lon="-61.3200105"><ele>40.0</ele><time>2026-03-28T14:53:37.056Z</time></trkpt><trkpt lat="16.2923343" lon="-61.3200432"><ele>40.0</ele><time>2026-03-28T14:53:37.967Z</time></trkpt><trkpt lat="16.2924196" lon="-61.3200693"><ele>40.0</ele><time>2026-03-28T14:53:38.981Z</time></trkpt><trkpt lat="16.2925087" lon="-61.3201054"><ele>40.0</ele><time>2026-03-28T14:53:39.988Z</time></trkpt><trkpt lat="16.2926076" lon="-61.3201469"><ele>40.0</ele><time>2026-03-28T14:53:40.982Z</time></trkpt><trkpt lat="16.2927015" lon="-61.3201924"><ele>40.0</ele><time>2026-03-28T14:53:41.989Z</time></trkpt><trkpt lat="16.2927915" lon="-61.3202458"><ele>40.0</ele><time>2026-03-28T14:53:42.995Z</time></trkpt><trkpt lat="16.292883" lon="-61.3203064"><ele>40.0</ele><time>2026-03-28T14:53:44.036Z</time></trkpt><trkpt lat="16.2929808" lon="-61.3203735"><ele>40.0</ele><time>2026-03-28T14:53:45.042Z</time></trkpt><trkpt lat="16.293079" lon="-61.3204259"><ele>40.0</ele><time>2026-03-28T14:53:45.975Z</time></trkpt><trkpt lat="16.2931803" lon="-61.3204735"><ele>40.0</ele><time>2026-03-28T14:53:46.988Z</time></trkpt><trkpt lat="16.2932784" lon="-61.3205119"><ele>40.0</ele><time>2026-03-28T14:53:47.979Z</time></trkpt><trkpt lat="16.2933776" lon="-61.3205415"><ele>39.8</ele><time>2026-03-28T14:53:48.978Z</time></trkpt><trkpt lat="16.2934805" lon="-61.3205668"><ele>39.6</ele><time>2026-03-28T14:53:49.983Z</time></trkpt><trkpt lat="16.2935788" lon="-61.3205872"><ele>39.4</ele><time>2026-03-28T14:53:50.979Z</time></trkpt><trkpt lat="16.2936738" lon="-61.3206068"><ele>39.2</ele><time>2026-03-28T14:53:51.98Z</time></trkpt><trkpt lat="16.2937682" lon="-61.3206377"><ele>39.0</ele><time>2026-03-28T14:53:52.979Z</time></trkpt><trkpt lat="16.2938671" lon="-61.3206727"><ele>38.25</ele><time>2026-03-28T14:53:53.985Z</time></trkpt><trkpt lat="16.2939759" lon="-61.3207161"><ele>37.5</ele><time>2026-03-28T14:53:55.023Z</time></trkpt><trkpt lat="16.2940873" lon="-61.3207512"><ele>36.75</ele><time>2026-03-28T14:53:55.978Z</time></trkpt><trkpt lat="16.2941989" lon="-61.3207901"><ele>36.0</ele><time>2026-03-28T14:53:56.986Z</time></trkpt><trkpt lat="16.2943026" lon="-61.3208258"><ele>36.0</ele><time>2026-03-28T14:53:57.985Z</time></trkpt><trkpt lat="16.294407" lon="-61.3208649"><ele>36.0</ele><time>2026-03-28T14:53:58.985Z</time></trkpt><trkpt lat="16.2945104" lon="-61.3209051"><ele>36.0</ele><time>2026-03-28T14:53:59.982Z</time></trkpt><trkpt lat="16.2946092" lon="-61.320949"><ele>36.0</ele><time>2026-03-28T14:54:00.968Z</time></trkpt><trkpt lat="16.2947099" lon="-61.3209888"><ele>36.0</ele><time>2026-03-28T14:54:01.984Z</time></trkpt><trkpt lat="16.2948078" lon="-61.3210252"><ele>35.5</ele><time>2026-03-28T14:54:02.98Z</time></trkpt><trkpt lat="16.294897" lon="-61.3210565"><ele>35.0</ele><time>2026-03-28T14:54:03.982Z</time></trkpt><trkpt lat="16.2949852" lon="-61.3210808"><ele>34.5</ele><time>2026-03-28T14:54:04.979Z</time></trkpt><trkpt lat="16.2950588" lon="-61.3210955"><ele>34.0</ele><time>2026-03-28T14:54:06.055Z</time></trkpt><trkpt lat="16.2951456" lon="-61.3211363"><ele>33.5</ele><time>2026-03-28T14:54:07.979Z</time></trkpt><trkpt lat="16.2952158" lon="-61.3211416"><ele>33.0</ele><time>2026-03-28T14:54:48.98Z</time></trkpt><trkpt lat="16.295273" lon="-61.3210534"><ele>33.0</ele><time>2026-03-28T14:54:51.973Z</time></trkpt><trkpt lat="16.295298" lon="-61.3209877"><ele>33.0</ele><time>2026-03-28T14:54:52.969Z</time></trkpt><trkpt lat="16.2953403" lon="-61.3208803"><ele>33.0</ele><time>2026-03-28T14:54:53.978Z</time></trkpt><trkpt lat="16.2953997" lon="-61.3207772"><ele>33.0</ele><time>2026-03-28T14:54:54.987Z</time></trkpt><trkpt lat="16.2954614" lon="-61.320674"><ele>33.0</ele><time>2026-03-28T14:54:55.977Z</time></trkpt><trkpt lat="16.2955083" lon="-61.3205799"><ele>32.5</ele><time>2026-03-28T14:54:56.988Z</time></trkpt><trkpt lat="16.2955523" lon="-61.320472"><ele>32.0</ele><time>2026-03-28T14:54:58.032Z</time></trkpt><trkpt lat="16.2955902" lon="-61.3203622"><ele>31.5</ele><time>2026-03-28T14:54:58.979Z</time></trkpt><trkpt lat="16.2956208" lon="-61.3202391"><ele>31.0</ele><time>2026-03-28T14:54:59.983Z</time></trkpt><trkpt lat="16.2956493" lon="-61.3201107"><ele>30.75</ele><time>2026-03-28T14:55:00.984Z</time></trkpt><trkpt lat="16.2956682" lon="-61.3199825"><ele>30.5</ele><time>2026-03-28T14:55:01.968Z</time></trkpt><trkpt lat="16.2956733" lon="-61.3198604"><ele>30.25</ele><time>2026-03-28T14:55:02.978Z</time></trkpt><trkpt lat="16.295675" lon="-61.3197327"><ele>30.0</ele><time>2026-03-28T14:55:03.979Z</time></trkpt><trkpt lat="16.2956509" lon="-61.3196102"><ele>30.0</ele><time>2026-03-28T14:55:04.981Z</time></trkpt><trkpt lat="16.2956176" lon="-61.3194951"><ele>30.0</ele><time>2026-03-28T14:55:06.029Z</time></trkpt><trkpt lat="16.2955732" lon="-61.3193811"><ele>30.0</ele><time>2026-03-28T14:55:06.981Z</time></trkpt><trkpt lat="16.295528" lon="-61.319262"><ele>30.0</ele><time>2026-03-28T14:55:07.983Z</time></trkpt><trkpt lat="16.2954885" lon="-61.3191462"><ele>30.0</ele><time>2026-03-28T14:55:08.969Z</time></trkpt><trkpt lat="16.2954473" lon="-61.3190357"><ele>30.0</ele><time>2026-03-28T14:55:09.973Z</time></trkpt><trkpt lat="16.2954033" lon="-61.3189227"><ele>30.0</ele><time>2026-03-28T14:55:10.953Z</time></trkpt><trkpt lat="16.2953597" lon="-61.3188071"><ele>30.0</ele><time>2026-03-28T14:55:11.979Z</time></trkpt><trkpt lat="16.2953187" lon="-61.3186954"><ele>31.0</ele><time>2026-03-28T14:55:12.983Z</time></trkpt><trkpt lat="16.2952787" lon="-61.3185819"><ele>32.0</ele><time>2026-03-28T14:55:13.981Z</time></trkpt><trkpt lat="16.2952362" lon="-61.3184663"><ele>33.0</ele><time>2026-03-28T14:55:14.97Z</time></trkpt><trkpt lat="16.2951931" lon="-61.3183519"><ele>34.0</ele><time>2026-03-28T14:55:15.99Z</time></trkpt><trkpt lat="16.295157" lon="-61.3182408"><ele>34.0</ele><time>2026-03-28T14:55:16.995Z</time></trkpt><trkpt lat="16.2951155" lon="-61.3181245"><ele>34.0</ele><time>2026-03-28T14:55:18.07Z</time></trkpt><trkpt lat="16.2950737" lon="-61.3180111"><ele>34.0</ele><time>2026-03-28T14:55:19.035Z</time></trkpt><trkpt lat="16.2950284" lon="-61.3178953"><ele>34.0</ele><time>2026-03-28T14:55:20.053Z</time></trkpt><trkpt lat="16.2949838" lon="-61.3177813"><ele>34.0</ele><time>2026-03-28T14:55:21.032Z</time></trkpt><trkpt lat="16.2949404" lon="-61.3176641"><ele>34.0</ele><time>2026-03-28T14:55:21.976Z</time></trkpt><trkpt lat="16.2949046" lon="-61.3175508"><ele>34.0</ele><time>2026-03-28T14:55:22.97Z</time></trkpt><trkpt lat="16.2948651" lon="-61.3174345"><ele>34.0</ele><time>2026-03-28T14:55:23.963Z</time></trkpt><trkpt lat="16.294825" lon="-61.3173202"><ele>33.0</ele><time>2026-03-28T14:55:25.038Z</time></trkpt><trkpt lat="16.2947791" lon="-61.3172081"><ele>32.0</ele><time>2026-03-28T14:55:25.99Z</time></trkpt><trkpt lat="16.2947421" lon="-61.3171038"><ele>31.0</ele><time>2026-03-28T14:55:26.988Z</time></trkpt><trkpt lat="16.2947094" lon="-61.3169932"><ele>30.0</ele><time>2026-03-28T14:55:27.988Z</time></trkpt><trkpt lat="16.294686" lon="-61.3168846"><ele>29.0</ele><time>2026-03-28T14:55:28.987Z</time></trkpt><trkpt lat="16.2946645" lon="-61.3167653"><ele>29.0</ele><time>2026-03-28T14:55:29.973Z</time></trkpt><trkpt lat="16.2946629" lon="-61.3166414"><ele>29.0</ele><time>2026-03-28T14:55:30.978Z</time></trkpt><trkpt lat="16.2946706" lon="-61.3165204"><ele>29.0</ele><time>2026-03-28T14:55:31.987Z</time></trkpt><trkpt lat="16.2946861" lon="-61.3163971"><ele>29.0</ele><time>2026-03-28T14:55:32.982Z</time></trkpt><trkpt lat="16.2946974" lon="-61.316277"><ele>29.75</ele><time>2026-03-28T14:55:33.985Z</time></trkpt><trkpt lat="16.2947161" lon="-61.3161608"><ele>30.5</ele><time>2026-03-28T14:55:34.988Z</time></trkpt><trkpt lat="16.2947328" lon="-61.3160363"><ele>31.25</ele><time>2026-03-28T14:55:35.998Z</time></trkpt><trkpt lat="16.2947472" lon="-61.3159153"><ele>32.0</ele><time>2026-03-28T14:55:36.986Z</time></trkpt><trkpt lat="16.2947547" lon="-61.315795"><ele>32.0</ele><time>2026-03-28T14:55:37.983Z</time></trkpt><trkpt lat="16.2947566" lon="-61.3156699"><ele>32.0</ele><time>2026-03-28T14:55:38.983Z</time></trkpt><trkpt lat="16.2947547" lon="-61.3155557"><ele>32.0</ele><time>2026-03-28T14:55:39.991Z</time></trkpt><trkpt lat="16.2947517" lon="-61.3154406"><ele>32.0</ele><time>2026-03-28T14:55:40.979Z</time></trkpt><trkpt lat="16.2947504" lon="-61.3153344"><ele>32.0</ele><time>2026-03-28T14:55:41.986Z</time></trkpt><trkpt lat="16.2947397" lon="-61.3152329"><ele>32.800000000000004</ele><time>2026-03-28T14:55:42.986Z</time></trkpt><trkpt lat="16.2947159" lon="-61.3151359"><ele>33.6</ele><time>2026-03-28T14:55:43.983Z</time></trkpt><trkpt lat="16.294691" lon="-61.3150474"><ele>34.400000000000006</ele><time>2026-03-28T14:55:44.99Z</time></trkpt><trkpt lat="16.2946672" lon="-61.3149551"><ele>35.2</ele><time>2026-03-28T14:55:45.982Z</time></trkpt><trkpt lat="16.2946386" lon="-61.3148566"><ele>36.0</ele><time>2026-03-28T14:55:46.982Z</time></trkpt><trkpt lat="16.2946121" lon="-61.3147481"><ele>35.0</ele><time>2026-03-28T14:55:47.986Z</time></trkpt><trkpt lat="16.2945809" lon="-61.3146371"><ele>34.0</ele><time>2026-03-28T14:55:48.973Z</time></trkpt><trkpt lat="16.2945511" lon="-61.3145217"><ele>33.0</ele><time>2026-03-28T14:55:49.982Z</time></trkpt><trkpt lat="16.2945229" lon="-61.3144088"><ele>32.0</ele><time>2026-03-28T14:55:50.988Z</time></trkpt><trkpt lat="16.2944918" lon="-61.3142908"><ele>32.0</ele><time>2026-03-28T14:55:51.982Z</time></trkpt><trkpt lat="16.2944494" lon="-61.3141759"><ele>32.0</ele><time>2026-03-28T14:55:52.991Z</time></trkpt><trkpt lat="16.2944124" lon="-61.3140714"><ele>32.0</ele><time>2026-03-28T14:55:53.995Z</time></trkpt><trkpt lat="16.2943744" lon="-61.3139653"><ele>32.0</ele><time>2026-03-28T14:55:54.996Z</time></trkpt><trkpt lat="16.2943398" lon="-61.3138551"><ele>32.0</ele><time>2026-03-28T14:55:56.054Z</time></trkpt><trkpt lat="16.2943056" lon="-61.3137383"><ele>32.25</ele><time>2026-03-28T14:55:56.971Z</time></trkpt><trkpt lat="16.2942743" lon="-61.3136227"><ele>32.5</ele><time>2026-03-28T14:55:57.986Z</time></trkpt><trkpt lat="16.2942417" lon="-61.3135094"><ele>32.75</ele><time>2026-03-28T14:55:58.993Z</time></trkpt><trkpt lat="16.2942109" lon="-61.3133954"><ele>33.0</ele><time>2026-03-28T14:55:59.981Z</time></trkpt><trkpt lat="16.2941866" lon="-61.3132839"><ele>33.0</ele><time>2026-03-28T14:56:00.965Z</time></trkpt><trkpt lat="16.2941737" lon="-61.3131832"><ele>33.0</ele><time>2026-03-28T14:56:01.984Z</time></trkpt><trkpt lat="16.2941654" lon="-61.3130915"><ele>33.0</ele><time>2026-03-28T14:56:02.987Z</time></trkpt><trkpt lat="16.2941638" lon="-61.312997"><ele>33.0</ele><time>2026-03-28T14:56:04.035Z</time></trkpt><trkpt lat="16.2941609" lon="-61.3129087"><ele>33.0</ele><time>2026-03-28T14:56:05.053Z</time></trkpt><trkpt lat="16.2941631" lon="-61.3128179"><ele>33.0</ele><time>2026-03-28T14:56:06.037Z</time></trkpt><trkpt lat="16.294174" lon="-61.3127279"><ele>33.166666666666664</ele><time>2026-03-28T14:56:06.977Z</time></trkpt><trkpt lat="16.2941911" lon="-61.3126406"><ele>33.333333333333336</ele><time>2026-03-28T14:56:07.992Z</time></trkpt><trkpt lat="16.2942163" lon="-61.3125613"><ele>33.5</ele><time>2026-03-28T14:56:08.99Z</time></trkpt><trkpt lat="16.2942441" lon="-61.3124782"><ele>33.66666666666667</ele><time>2026-03-28T14:56:10.031Z</time></trkpt><trkpt lat="16.2942666" lon="-61.3123945"><ele>33.833333333333336</ele><time>2026-03-28T14:56:11.043Z</time></trkpt><trkpt lat="16.2942829" lon="-61.312314"><ele>34.0</ele><time>2026-03-28T14:56:11.985Z</time></trkpt><trkpt lat="16.2942979" lon="-61.3122286"><ele>33.4</ele><time>2026-03-28T14:56:12.984Z</time></trkpt><trkpt lat="16.2943041" lon="-61.3121404"><ele>32.8</ele><time>2026-03-28T14:56:13.99Z</time></trkpt><trkpt lat="16.2943115" lon="-61.3120496"><ele>32.2</ele><time>2026-03-28T14:56:15.065Z</time></trkpt><trkpt lat="16.294326" lon="-61.3119542"><ele>31.6</ele><time>2026-03-28T14:56:16.054Z</time></trkpt><trkpt lat="16.2943441" lon="-61.3118514"><ele>31.0</ele><time>2026-03-28T14:56:16.981Z</time></trkpt><trkpt lat="16.2943641" lon="-61.3117475"><ele>31.0</ele><time>2026-03-28T14:56:17.987Z</time></trkpt><trkpt lat="16.2943836" lon="-61.3116388"><ele>31.0</ele><time>2026-03-28T14:56:18.987Z</time></trkpt><trkpt lat="16.2944056" lon="-61.3115245"><ele>31.0</ele><time>2026-03-28T14:56:20.057Z</time></trkpt><trkpt lat="16.2944263" lon="-61.3114074"><ele>31.0</ele><time>2026-03-28T14:56:21.038Z</time></trkpt><trkpt lat="16.2944359" lon="-61.3112921"><ele>31.0</ele><time>2026-03-28T14:56:21.977Z</time></trkpt><trkpt lat="16.2944437" lon="-61.31118"><ele>30.8</ele><time>2026-03-28T14:56:22.983Z</time></trkpt><trkpt lat="16.2944561" lon="-61.3110677"><ele>30.6</ele><time>2026-03-28T14:56:23.979Z</time></trkpt><trkpt lat="16.2944716" lon="-61.310957"><ele>30.4</ele><time>2026-03-28T14:56:25.046Z</time></trkpt><trkpt lat="16.2944852" lon="-61.3108454"><ele>30.2</ele><time>2026-03-28T14:56:26.048Z</time></trkpt><trkpt lat="16.2945045" lon="-61.3107394"><ele>30.0</ele><time>2026-03-28T14:56:26.968Z</time></trkpt><trkpt lat="16.2945242" lon="-61.3106513"><ele>30.166666666666668</ele><time>2026-03-28T14:56:27.986Z</time></trkpt><trkpt lat="16.2945327" lon="-61.3105658"><ele>30.333333333333336</ele><time>2026-03-28T14:56:28.996Z</time></trkpt><trkpt lat="16.2945469" lon="-61.3104911"><ele>30.5</ele><time>2026-03-28T14:56:30.027Z</time></trkpt><trkpt lat="16.2945822" lon="-61.3104183"><ele>30.666666666666668</ele><time>2026-03-28T14:56:30.992Z</time></trkpt><trkpt lat="16.2946104" lon="-61.310341"><ele>30.833333333333336</ele><time>2026-03-28T14:56:31.994Z</time></trkpt><trkpt lat="16.2946231" lon="-61.3102628"><ele>31.0</ele><time>2026-03-28T14:56:32.985Z</time></trkpt><trkpt lat="16.2946335" lon="-61.3101757"><ele>31.0</ele><time>2026-03-28T14:56:33.995Z</time></trkpt><trkpt lat="16.2946502" lon="-61.3100884"><ele>31.0</ele><time>2026-03-28T14:56:34.989Z</time></trkpt><trkpt lat="16.294676" lon="-61.3099987"><ele>31.0</ele><time>2026-03-28T14:56:35.989Z</time></trkpt><trkpt lat="16.2947058" lon="-61.3099028"><ele>31.0</ele><time>2026-03-28T14:56:36.992Z</time></trkpt><trkpt lat="16.2947336" lon="-61.3098006"><ele>31.0</ele><time>2026-03-28T14:56:38.04Z</time></trkpt><trkpt lat="16.2947616" lon="-61.3097005"><ele>30.200000000000003</ele><time>2026-03-28T14:56:39.072Z</time></trkpt><trkpt lat="16.2947963" lon="-61.3095981"><ele>29.400000000000002</ele><time>2026-03-28T14:56:39.984Z</time></trkpt><trkpt lat="16.2948284" lon="-61.309495"><ele>28.6</ele><time>2026-03-28T14:56:40.991Z</time></trkpt><trkpt lat="16.2948568" lon="-61.309393"><ele>27.8</ele><time>2026-03-28T14:56:41.98Z</time></trkpt><trkpt lat="16.2948728" lon="-61.3093022"><ele>27.0</ele><time>2026-03-28T14:56:42.991Z</time></trkpt><trkpt lat="16.294878" lon="-61.3092273"><ele>27.0</ele><time>2026-03-28T14:56:43.989Z</time></trkpt><trkpt lat="16.2948946" lon="-61.309136"><ele>27.0</ele><time>2026-03-28T14:56:46.011Z</time></trkpt><trkpt lat="16.2949882" lon="-61.3090855"><ele>27.0</ele><time>2026-03-28T14:56:47.97Z</time></trkpt><trkpt lat="16.2950591" lon="-61.3090701"><ele>27.0</ele><time>2026-03-28T14:56:48.989Z</time></trkpt><trkpt lat="16.2951413" lon="-61.3090578"><ele>27.0</ele><time>2026-03-28T14:56:49.988Z</time></trkpt><trkpt lat="16.295229" lon="-61.3090359"><ele>27.0</ele><time>2026-03-28T14:56:50.985Z</time></trkpt><trkpt lat="16.2953256" lon="-61.3090162"><ele>27.0</ele><time>2026-03-28T14:56:51.984Z</time></trkpt><trkpt lat="16.2954321" lon="-61.3089954"><ele>27.000000000000004</ele><time>2026-03-28T14:56:53.041Z</time></trkpt><trkpt lat="16.2955393" lon="-61.3089829"><ele>27.000000000000004</ele><time>2026-03-28T14:56:54.032Z</time></trkpt><trkpt lat="16.2956476" lon="-61.3089733"><ele>27.0</ele><time>2026-03-28T14:56:55.038Z</time></trkpt><trkpt lat="16.2957567" lon="-61.3089616"><ele>27.0</ele><time>2026-03-28T14:56:55.979Z</time></trkpt><trkpt lat="16.2958634" lon="-61.30895"><ele>27.6</ele><time>2026-03-28T14:56:56.975Z</time></trkpt><trkpt lat="16.295968" lon="-61.3089413"><ele>28.200000000000003</ele><time>2026-03-28T14:56:57.986Z</time></trkpt><trkpt lat="16.2960674" lon="-61.3089245"><ele>28.8</ele><time>2026-03-28T14:56:59.053Z</time></trkpt><trkpt lat="16.2961615" lon="-61.3089104"><ele>29.4</ele><time>2026-03-28T14:56:59.98Z</time></trkpt><trkpt lat="16.2962503" lon="-61.3089002"><ele>30.0</ele><time>2026-03-28T14:57:01.063Z</time></trkpt><trkpt lat="16.2963291" lon="-61.3088856"><ele>29.8</ele><time>2026-03-28T14:57:01.974Z</time></trkpt><trkpt lat="16.296424" lon="-61.308865"><ele>29.6</ele><time>2026-03-28T14:57:02.986Z</time></trkpt><trkpt lat="16.2965235" lon="-61.3088498"><ele>29.4</ele><time>2026-03-28T14:57:03.984Z</time></trkpt><trkpt lat="16.2966184" lon="-61.3088313"><ele>29.2</ele><time>2026-03-28T14:57:04.98Z</time></trkpt><trkpt lat="16.2967179" lon="-61.3088137"><ele>29.0</ele><time>2026-03-28T14:57:06.067Z</time></trkpt><trkpt lat="16.2968181" lon="-61.3087991"><ele>29.0</ele><time>2026-03-28T14:57:06.972Z</time></trkpt><trkpt lat="16.2969162" lon="-61.3087796"><ele>29.0</ele><time>2026-03-28T14:57:07.979Z</time></trkpt><trkpt lat="16.2970119" lon="-61.3087578"><ele>29.0</ele><time>2026-03-28T14:57:08.978Z</time></trkpt><trkpt lat="16.2971062" lon="-61.3087352"><ele>29.0</ele><time>2026-03-28T14:57:10.017Z</time></trkpt><trkpt lat="16.2971912" lon="-61.308713"><ele>29.0</ele><time>2026-03-28T14:57:11.028Z</time></trkpt><trkpt lat="16.297272" lon="-61.3086912"><ele>29.71428571428572</ele><time>2026-03-28T14:57:11.984Z</time></trkpt><trkpt lat="16.297343" lon="-61.3086653"><ele>30.42857142857143</ele><time>2026-03-28T14:57:12.971Z</time></trkpt><trkpt lat="16.2974055" lon="-61.3086493"><ele>31.142857142857142</ele><time>2026-03-28T14:57:13.988Z</time></trkpt><trkpt lat="16.2974895" lon="-61.3086208"><ele>31.857142857142858</ele><time>2026-03-28T14:57:16.027Z</time></trkpt><trkpt lat="16.297551" lon="-61.3085979"><ele>32.57142857142857</ele><time>2026-03-28T14:57:17.988Z</time></trkpt><trkpt lat="16.2975982" lon="-61.3085528"><ele>33.285714285714285</ele><time>2026-03-28T14:57:31.972Z</time></trkpt><trkpt lat="16.2975915" lon="-61.3084685"><ele>34.0</ele><time>2026-03-28T14:57:33.983Z</time></trkpt><trkpt lat="16.2975723" lon="-61.3084002"><ele>34.0</ele><time>2026-03-28T14:57:34.986Z</time></trkpt><trkpt lat="16.2975446" lon="-61.3083384"><ele>34.0</ele><time>2026-03-28T14:57:36Z</time></trkpt><trkpt lat="16.2974897" lon="-61.3082131"><ele>34.0</ele><time>2026-03-28T14:57:37.98Z</time></trkpt><trkpt lat="16.2974555" lon="-61.3081517"><ele>34.0</ele><time>2026-03-28T14:57:38.991Z</time></trkpt><trkpt lat="16.2974339" lon="-61.3080895"><ele>34.0</ele><time>2026-03-28T14:57:39.975Z</time></trkpt><trkpt lat="16.2974429" lon="-61.3080212"><ele>34.0</ele><time>2026-03-28T14:57:42.981Z</time></trkpt><trkpt lat="16.2974825" lon="-61.3081052"><ele>34.0</ele><time>2026-03-28T14:57:49.973Z</time></trkpt><trkpt lat="16.2975163" lon="-61.308207"><ele>34.0</ele><time>2026-03-28T14:57:51.979Z</time></trkpt><trkpt lat="16.2975345" lon="-61.3082969"><ele>34.0</ele><time>2026-03-28T14:57:52.97Z</time></trkpt><trkpt lat="16.2975558" lon="-61.3084019"><ele>34.0</ele><time>2026-03-28T14:57:53.985Z</time></trkpt><trkpt lat="16.2975745" lon="-61.3084919"><ele>34.0</ele><time>2026-03-28T14:57:54.977Z</time></trkpt><trkpt lat="16.2976164" lon="-61.3085621"><ele>34.0</ele><time>2026-03-28T14:57:56.991Z</time></trkpt><trkpt lat="16.2976799" lon="-61.3085376"><ele>34.0</ele><time>2026-03-28T14:57:58.984Z</time></trkpt><trkpt lat="16.2978188" lon="-61.3084964"><ele>34.0</ele><time>2026-03-28T14:58:01.039Z</time></trkpt><trkpt lat="16.2978971" lon="-61.3084758"><ele>34.0</ele><time>2026-03-28T14:58:01.987Z</time></trkpt><trkpt lat="16.297983" lon="-61.3084506"><ele>34.0</ele><time>2026-03-28T14:58:02.986Z</time></trkpt><trkpt lat="16.2980752" lon="-61.3084266"><ele>34.6</ele><time>2026-03-28T14:58:03.96Z</time></trkpt><trkpt lat="16.2981783" lon="-61.3084043"><ele>35.2</ele><time>2026-03-28T14:58:05.069Z</time></trkpt><trkpt lat="16.2982727" lon="-61.3083911"><ele>35.800000000000004</ele><time>2026-03-28T14:58:05.977Z</time></trkpt><trkpt lat="16.2983651" lon="-61.3083737"><ele>36.4</ele><time>2026-03-28T14:58:06.982Z</time></trkpt><trkpt lat="16.2984486" lon="-61.3083522"><ele>37.0</ele><time>2026-03-28T14:58:07.979Z</time></trkpt><trkpt lat="16.2985179" lon="-61.3083393"><ele>37.0</ele><time>2026-03-28T14:58:08.978Z</time></trkpt><trkpt lat="16.2985938" lon="-61.3083175"><ele>37.0</ele><time>2026-03-28T14:58:10.041Z</time></trkpt><trkpt lat="16.2986672" lon="-61.3082927"><ele>37.0</ele><time>2026-03-28T14:58:11.041Z</time></trkpt><trkpt lat="16.2987409" lon="-61.3082675"><ele>37.0</ele><time>2026-03-28T14:58:11.976Z</time></trkpt><trkpt lat="16.2988097" lon="-61.3082423"><ele>37.0</ele><time>2026-03-28T14:58:12.975Z</time></trkpt><trkpt lat="16.2988749" lon="-61.3082176"><ele>37.0</ele><time>2026-03-28T14:58:13.991Z</time></trkpt><trkpt lat="16.2989475" lon="-61.3081999"><ele>37.0</ele><time>2026-03-28T14:58:15.048Z</time></trkpt><trkpt lat="16.2990243" lon="-61.3081772"><ele>37.0</ele><time>2026-03-28T14:58:16.041Z</time></trkpt><trkpt lat="16.2991044" lon="-61.3081527"><ele>37.0</ele><time>2026-03-28T14:58:16.973Z</time></trkpt><trkpt lat="16.2991769" lon="-61.3081282"><ele>37.0</ele><time>2026-03-28T14:58:17.983Z</time></trkpt><trkpt lat="16.2992536" lon="-61.3081073"><ele>37.0</ele><time>2026-03-28T14:58:18.977Z</time></trkpt><trkpt lat="16.2993312" lon="-61.3080837"><ele>37.0</ele><time>2026-03-28T14:58:20.065Z</time></trkpt><trkpt lat="16.299408" lon="-61.3080661"><ele>37.333333333333336</ele><time>2026-03-28T14:58:21.061Z</time></trkpt><trkpt lat="16.2994735" lon="-61.3080494"><ele>37.66666666666667</ele><time>2026-03-28T14:58:21.972Z</time></trkpt><trkpt lat="16.2995513" lon="-61.3080108"><ele>38.0</ele><time>2026-03-28T14:58:24.046Z</time></trkpt><trkpt lat="16.299605" lon="-61.3079565"><ele>38.333333333333336</ele><time>2026-03-28T14:58:26.965Z</time></trkpt><trkpt lat="16.2995308" lon="-61.3079264"><ele>38.666666666666664</ele><time>2026-03-28T14:58:44.972Z</time></trkpt><trkpt lat="16.2994792" lon="-61.3078569"><ele>39.0</ele><time>2026-03-28T14:58:46.972Z</time></trkpt><trkpt lat="16.299466" lon="-61.3077459"><ele>39.0</ele><time>2026-03-28T14:58:48.978Z</time></trkpt><trkpt lat="16.2994904" lon="-61.3076249"><ele>39.0</ele><time>2026-03-28T14:58:50.972Z</time></trkpt><trkpt lat="16.2995181" lon="-61.3075076"><ele>39.0</ele><time>2026-03-28T14:58:52.973Z</time></trkpt><trkpt lat="16.2995121" lon="-61.3074159"><ele>39.0</ele><time>2026-03-28T14:58:54.98Z</time></trkpt><trkpt lat="16.2995803" lon="-61.3073805"><ele>39.0</ele><time>2026-03-28T14:58:57.976Z</time></trkpt><trkpt lat="16.2996729" lon="-61.3073694"><ele>39.0</ele><time>2026-03-28T14:58:59.967Z</time></trkpt><trkpt lat="16.2997742" lon="-61.3073447"><ele>39.0</ele><time>2026-03-28T14:59:01.948Z</time></trkpt><trkpt lat="16.2998822" lon="-61.3072857"><ele>39.0</ele><time>2026-03-28T14:59:03.971Z</time></trkpt><trkpt lat="16.2999381" lon="-61.3072552"><ele>39.0</ele><time>2026-03-28T14:59:04.96Z</time></trkpt><trkpt lat="16.3000158" lon="-61.3071841"><ele>39.0</ele><time>2026-03-28T14:59:06.952Z</time></trkpt><trkpt lat="16.300103" lon="-61.307103"><ele>39.166666666666664</ele><time>2026-03-28T14:59:08.953Z</time></trkpt><trkpt lat="16.3001876" lon="-61.3070707"><ele>39.333333333333336</ele><time>2026-03-28T14:59:11.021Z</time></trkpt><trkpt lat="16.300263" lon="-61.3070462"><ele>39.5</ele><time>2026-03-28T14:59:12.975Z</time></trkpt><trkpt lat="16.3003151" lon="-61.3070065"><ele>39.66666666666667</ele><time>2026-03-28T14:59:14.972Z</time></trkpt><trkpt lat="16.3003424" lon="-61.3069465"><ele>39.833333333333336</ele><time>2026-03-28T14:59:16.974Z</time></trkpt><trkpt lat="16.3003915" lon="-61.3068776"><ele>40.0</ele><time>2026-03-28T14:59:18.97Z</time></trkpt><trkpt lat="16.3004503" lon="-61.3068246"><ele>40.0</ele><time>2026-03-28T14:59:21.982Z</time></trkpt><trkpt lat="16.3005097" lon="-61.3067997"><ele>40.0</ele><time>2026-03-28T14:59:24.054Z</time></trkpt><trkpt lat="16.3006209" lon="-61.3067407"><ele>40.0</ele><time>2026-03-28T14:59:26.035Z</time></trkpt><trkpt lat="16.3006842" lon="-61.3067173"><ele>40.0</ele><time>2026-03-28T14:59:26.977Z</time></trkpt><trkpt lat="16.3007497" lon="-61.3067037"><ele>40.0</ele><time>2026-03-28T14:59:27.979Z</time></trkpt><trkpt lat="16.3008611" lon="-61.3066928"><ele>40.0</ele><time>2026-03-28T14:59:29.95Z</time></trkpt><trkpt lat="16.3009269" lon="-61.3066853"><ele>39.333333333333336</ele><time>2026-03-28T14:59:31.984Z</time></trkpt><trkpt lat="16.3010326" lon="-61.3066841"><ele>38.66666666666667</ele><time>2026-03-28T14:59:35.09Z</time></trkpt><trkpt lat="16.3011151" lon="-61.3066874"><ele>38.0</ele><time>2026-03-28T14:59:36.974Z</time></trkpt><trkpt lat="16.3012045" lon="-61.3067172"><ele>37.333333333333336</ele><time>2026-03-28T14:59:38.983Z</time></trkpt><trkpt lat="16.3012723" lon="-61.3067412"><ele>36.666666666666664</ele><time>2026-03-28T14:59:40.991Z</time></trkpt><trkpt lat="16.3013262" lon="-61.3067862"><ele>36.0</ele><time>2026-03-28T15:00:48.985Z</time></trkpt><trkpt lat="16.3013941" lon="-61.3067399"><ele>35.85714285714286</ele><time>2026-03-28T15:01:49.975Z</time></trkpt><trkpt lat="16.3014552" lon="-61.306724"><ele>35.714285714285715</ele><time>2026-03-28T15:01:55.97Z</time></trkpt><trkpt lat="16.3015198" lon="-61.3067118"><ele>35.57142857142857</ele><time>2026-03-28T15:03:16.984Z</time></trkpt><trkpt lat="16.3015831" lon="-61.3067383"><ele>35.42857142857143</ele><time>2026-03-28T15:03:22.98Z</time></trkpt><trkpt lat="16.3016567" lon="-61.30672"><ele>35.285714285714285</ele><time>2026-03-28T15:04:36.009Z</time></trkpt><trkpt lat="16.3017221" lon="-61.3067019"><ele>35.142857142857146</ele><time>2026-03-28T15:04:46.969Z</time></trkpt><trkpt lat="16.3017829" lon="-61.3066788"><ele>35.0</ele><time>2026-03-28T15:04:56.054Z</time></trkpt><trkpt lat="16.3017196" lon="-61.3066859"><ele>35.0</ele><time>2026-03-28T15:05:04.953Z</time></trkpt><trkpt lat="16.3016679" lon="-61.3067262"><ele>35.0</ele><time>2026-03-28T15:05:11.942Z</time></trkpt><trkpt lat="16.3017125" lon="-61.3066792"><ele>35.0</ele><time>2026-03-28T15:05:39.963Z</time></trkpt><trkpt lat="16.3017894" lon="-61.3066303"><ele>35.0</ele><time>2026-03-28T15:05:42.971Z</time></trkpt><trkpt lat="16.3018517" lon="-61.3065817"><ele>35.0</ele><time>2026-03-28T15:05:46.038Z</time></trkpt><trkpt lat="16.3018984" lon="-61.3065094"><ele>35.0</ele><time>2026-03-28T15:06:11.977Z</time></trkpt><trkpt lat="16.3019619" lon="-61.3064906"><ele>35.0</ele><time>2026-03-28T15:06:40.981Z</time></trkpt><trkpt lat="16.3020178" lon="-61.306448"><ele>34.857142857142854</ele><time>2026-03-28T15:06:42.983Z</time></trkpt><trkpt lat="16.3020674" lon="-61.3064037"><ele>34.714285714285715</ele><time>2026-03-28T15:06:44.984Z</time></trkpt><trkpt lat="16.3021129" lon="-61.306344"><ele>34.57142857142857</ele><time>2026-03-28T15:06:48.051Z</time></trkpt><trkpt lat="16.3021752" lon="-61.3062833"><ele>34.42857142857143</ele><time>2026-03-28T15:06:51.976Z</time></trkpt><trkpt lat="16.3022369" lon="-61.3062291"><ele>34.285714285714285</ele><time>2026-03-28T15:06:55.039Z</time></trkpt><trkpt lat="16.3022513" lon="-61.30616"><ele>34.14285714285714</ele><time>2026-03-28T15:07:24.988Z</time></trkpt><trkpt lat="16.3022031" lon="-61.306103"><ele>34.0</ele><time>2026-03-28T15:07:30.981Z</time></trkpt><trkpt lat="16.3021572" lon="-61.3060507"><ele>33.99999999999999</ele><time>2026-03-28T15:08:25.977Z</time></trkpt><trkpt lat="16.3022057" lon="-61.3059872"><ele>34.0</ele><time>2026-03-28T15:12:49.977Z</time></trkpt><trkpt lat="16.3022313" lon="-61.3059268"><ele>34.0</ele><time>2026-03-28T15:12:52.99Z</time></trkpt><trkpt lat="16.3022668" lon="-61.3058668"><ele>34.0</ele><time>2026-03-28T15:13:17.978Z</time></trkpt><trkpt lat="16.3023136" lon="-61.3058192"><ele>34.0</ele><time>2026-03-28T15:13:19.966Z</time></trkpt><trkpt lat="16.3023627" lon="-61.30575"><ele>33.99999999999999</ele><time>2026-03-28T15:13:22.974Z</time></trkpt><trkpt lat="16.3024013" lon="-61.3056917"><ele>34.0</ele><time>2026-03-28T15:13:24.976Z</time></trkpt><trkpt lat="16.3024795" lon="-61.3056688"><ele>34.0</ele><time>2026-03-28T15:13:27.976Z</time></trkpt><trkpt lat="16.3025873" lon="-61.3056366"><ele>34.0</ele><time>2026-03-28T15:13:30.983Z</time></trkpt><trkpt lat="16.3026636" lon="-61.3056119"><ele>34.0</ele><time>2026-03-28T15:13:32.984Z</time></trkpt><trkpt lat="16.3027305" lon="-61.3055917"><ele>34.0</ele><time>2026-03-28T15:13:34.978Z</time></trkpt><trkpt lat="16.3028041" lon="-61.3055591"><ele>34.0</ele><time>2026-03-28T15:13:36.985Z</time></trkpt><trkpt lat="16.3028919" lon="-61.3055313"><ele>34.0</ele><time>2026-03-28T15:13:38.966Z</time></trkpt><trkpt lat="16.302974" lon="-61.305507"><ele>34.0</ele><time>2026-03-28T15:13:40.95Z</time></trkpt><trkpt lat="16.3030583" lon="-61.3054768"><ele>34.0</ele><time>2026-03-28T15:13:42.952Z</time></trkpt><trkpt lat="16.3031527" lon="-61.3054502"><ele>34.0</ele><time>2026-03-28T15:13:44.942Z</time></trkpt><trkpt lat="16.3032583" lon="-61.3054216"><ele>34.0</ele><time>2026-03-28T15:13:46.974Z</time></trkpt><trkpt lat="16.3033283" lon="-61.3054146"><ele>34.0</ele><time>2026-03-28T15:13:48.98Z</time></trkpt><trkpt lat="16.3034137" lon="-61.3054017"><ele>34.0</ele><time>2026-03-28T15:13:50.978Z</time></trkpt><trkpt lat="16.3035019" lon="-61.3053835"><ele>34.0</ele><time>2026-03-28T15:13:52.987Z</time></trkpt><trkpt lat="16.3036354" lon="-61.3053464"><ele>34.0</ele><time>2026-03-28T15:13:54.979Z</time></trkpt><trkpt lat="16.3037104" lon="-61.305329"><ele>34.0</ele><time>2026-03-28T15:13:55.994Z</time></trkpt><trkpt lat="16.3037938" lon="-61.305318"><ele>34.0</ele><time>2026-03-28T15:13:56.988Z</time></trkpt><trkpt lat="16.3038733" lon="-61.3053006"><ele>34.16666666666667</ele><time>2026-03-28T15:13:57.988Z</time></trkpt><trkpt lat="16.3039495" lon="-61.3052831"><ele>34.333333333333336</ele><time>2026-03-28T15:13:58.989Z</time></trkpt><trkpt lat="16.3040294" lon="-61.3052653"><ele>34.5</ele><time>2026-03-28T15:13:59.989Z</time></trkpt><trkpt lat="16.3041082" lon="-61.305254"><ele>34.666666666666664</ele><time>2026-03-28T15:14:00.986Z</time></trkpt><trkpt lat="16.3041903" lon="-61.30524"><ele>34.83333333333333</ele><time>2026-03-28T15:14:01.984Z</time></trkpt><trkpt lat="16.3042715" lon="-61.3052275"><ele>35.0</ele><time>2026-03-28T15:14:02.982Z</time></trkpt><trkpt lat="16.3043558" lon="-61.3052136"><ele>35.0</ele><time>2026-03-28T15:14:03.981Z</time></trkpt><trkpt lat="16.304434" lon="-61.3052018"><ele>35.0</ele><time>2026-03-28T15:14:04.986Z</time></trkpt><trkpt lat="16.3045159" lon="-61.3051856"><ele>35.0</ele><time>2026-03-28T15:14:05.976Z</time></trkpt><trkpt lat="16.3045998" lon="-61.3051682"><ele>35.0</ele><time>2026-03-28T15:14:06.957Z</time></trkpt><trkpt lat="16.3046845" lon="-61.3051536"><ele>35.0</ele><time>2026-03-28T15:14:07.969Z</time></trkpt><trkpt lat="16.3047643" lon="-61.3051396"><ele>35.0</ele><time>2026-03-28T15:14:08.978Z</time></trkpt><trkpt lat="16.3048375" lon="-61.3051222"><ele>35.5</ele><time>2026-03-28T15:14:09.975Z</time></trkpt><trkpt lat="16.3049048" lon="-61.3051103"><ele>36.0</ele><time>2026-03-28T15:14:10.962Z</time></trkpt><trkpt lat="16.3050034" lon="-61.3050857"><ele>36.5</ele><time>2026-03-28T15:14:12.98Z</time></trkpt><trkpt lat="16.3050678" lon="-61.3050601"><ele>37.0</ele><time>2026-03-28T15:14:16.983Z</time></trkpt><trkpt lat="16.3051079" lon="-61.3051506"><ele>37.5</ele><time>2026-03-28T15:14:28.971Z</time></trkpt><trkpt lat="16.3051575" lon="-61.3052116"><ele>38.0</ele><time>2026-03-28T15:14:30.977Z</time></trkpt><trkpt lat="16.3052018" lon="-61.3052931"><ele>38.0</ele><time>2026-03-28T15:14:32.978Z</time></trkpt><trkpt lat="16.3052422" lon="-61.3053912"><ele>38.0</ele><time>2026-03-28T15:14:34.974Z</time></trkpt><trkpt lat="16.3052931" lon="-61.3054706"><ele>38.0</ele><time>2026-03-28T15:14:36.968Z</time></trkpt><trkpt lat="16.3053452" lon="-61.3056011"><ele>38.0</ele><time>2026-03-28T15:14:38.977Z</time></trkpt><trkpt lat="16.3053577" lon="-61.305679"><ele>38.0</ele><time>2026-03-28T15:14:39.967Z</time></trkpt><trkpt lat="16.3053692" lon="-61.3057544"><ele>37.83333333333333</ele><time>2026-03-28T15:14:40.973Z</time></trkpt><trkpt lat="16.3053758" lon="-61.3058241"><ele>37.666666666666664</ele><time>2026-03-28T15:14:41.963Z</time></trkpt><trkpt lat="16.3053903" lon="-61.3059054"><ele>37.5</ele><time>2026-03-28T15:14:43.97Z</time></trkpt><trkpt lat="16.3054018" lon="-61.3059878"><ele>37.333333333333336</ele><time>2026-03-28T15:14:45.971Z</time></trkpt><trkpt lat="16.3054169" lon="-61.3060731"><ele>37.16666666666667</ele><time>2026-03-28T15:14:48.982Z</time></trkpt><trkpt lat="16.3054931" lon="-61.3061297"><ele>37.0</ele><time>2026-03-28T15:14:51.978Z</time></trkpt><trkpt lat="16.3056066" lon="-61.3061455"><ele>37.4</ele><time>2026-03-28T15:14:53.979Z</time></trkpt><trkpt lat="16.3057325" lon="-61.3061338"><ele>37.800000000000004</ele><time>2026-03-28T15:14:55.989Z</time></trkpt><trkpt lat="16.3058497" lon="-61.306109"><ele>38.2</ele><time>2026-03-28T15:14:57.98Z</time></trkpt><trkpt lat="16.3059133" lon="-61.3060912"><ele>38.6</ele><time>2026-03-28T15:14:58.98Z</time></trkpt><trkpt lat="16.3060315" lon="-61.3060492"><ele>39.0</ele><time>2026-03-28T15:15:00.976Z</time></trkpt><trkpt lat="16.3061397" lon="-61.3060116"><ele>39.0</ele><time>2026-03-28T15:15:02.976Z</time></trkpt><trkpt lat="16.3062104" lon="-61.3059922"><ele>39.0</ele><time>2026-03-28T15:15:04.967Z</time></trkpt><trkpt lat="16.3062769" lon="-61.3059778"><ele>39.0</ele><time>2026-03-28T15:15:15.971Z</time></trkpt><trkpt lat="16.3062595" lon="-61.3058388"><ele>39.0</ele><time>2026-03-28T15:15:18.981Z</time></trkpt><trkpt lat="16.3062375" lon="-61.3057385"><ele>39.0</ele><time>2026-03-28T15:15:19.987Z</time></trkpt><trkpt lat="16.3062085" lon="-61.3056353"><ele>39.4</ele><time>2026-03-28T15:15:20.988Z</time></trkpt><trkpt lat="16.3061773" lon="-61.3055253"><ele>39.8</ele><time>2026-03-28T15:15:21.973Z</time></trkpt><trkpt lat="16.3061491" lon="-61.3054163"><ele>40.199999999999996</ele><time>2026-03-28T15:15:22.991Z</time></trkpt><trkpt lat="16.3061186" lon="-61.3053126"><ele>40.599999999999994</ele><time>2026-03-28T15:15:23.98Z</time></trkpt><trkpt lat="16.3060872" lon="-61.3052028"><ele>41.0</ele><time>2026-03-28T15:15:24.988Z</time></trkpt><trkpt lat="16.3060539" lon="-61.3050815"><ele>41.0</ele><time>2026-03-28T15:15:25.991Z</time></trkpt><trkpt lat="16.3060146" lon="-61.3049649"><ele>41.0</ele><time>2026-03-28T15:15:26.98Z</time></trkpt><trkpt lat="16.30598" lon="-61.3048478"><ele>41.0</ele><time>2026-03-28T15:15:27.982Z</time></trkpt><trkpt lat="16.3059476" lon="-61.3047308"><ele>41.0</ele><time>2026-03-28T15:15:28.994Z</time></trkpt><trkpt lat="16.3059134" lon="-61.3046072"><ele>41.0</ele><time>2026-03-28T15:15:29.979Z</time></trkpt><trkpt lat="16.3058727" lon="-61.3044866"><ele>41.0</ele><time>2026-03-28T15:15:30.987Z</time></trkpt><trkpt lat="16.3058303" lon="-61.3043694"><ele>41.0</ele><time>2026-03-28T15:15:31.987Z</time></trkpt><trkpt lat="16.3057896" lon="-61.3042484"><ele>41.0</ele><time>2026-03-28T15:15:32.993Z</time></trkpt><trkpt lat="16.3057528" lon="-61.304129"><ele>41.0</ele><time>2026-03-28T15:15:33.985Z</time></trkpt><trkpt lat="16.3057167" lon="-61.3040139"><ele>41.0</ele><time>2026-03-28T15:15:34.979Z</time></trkpt><trkpt lat="16.3056793" lon="-61.3038959"><ele>41.0</ele><time>2026-03-28T15:15:35.986Z</time></trkpt><trkpt lat="16.3056467" lon="-61.3037805"><ele>41.0</ele><time>2026-03-28T15:15:36.987Z</time></trkpt><trkpt lat="16.3056122" lon="-61.3036651"><ele>41.0</ele><time>2026-03-28T15:15:37.991Z</time></trkpt><trkpt lat="16.3055774" lon="-61.3035441"><ele>41.0</ele><time>2026-03-28T15:15:38.983Z</time></trkpt><trkpt lat="16.3055417" lon="-61.3034286"><ele>41.0</ele><time>2026-03-28T15:15:39.983Z</time></trkpt><trkpt lat="16.30551" lon="-61.3033146"><ele>41.0</ele><time>2026-03-28T15:15:41.056Z</time></trkpt><trkpt lat="16.305476" lon="-61.3031991"><ele>41.0</ele><time>2026-03-28T15:15:42.049Z</time></trkpt><trkpt lat="16.3054421" lon="-61.3030818"><ele>41.0</ele><time>2026-03-28T15:15:43.035Z</time></trkpt><trkpt lat="16.3054038" lon="-61.3029647"><ele>41.0</ele><time>2026-03-28T15:15:43.993Z</time></trkpt><trkpt lat="16.3053684" lon="-61.3028487"><ele>41.0</ele><time>2026-03-28T15:15:44.982Z</time></trkpt><trkpt lat="16.305333" lon="-61.3027336"><ele>41.0</ele><time>2026-03-28T15:15:45.986Z</time></trkpt><trkpt lat="16.3052978" lon="-61.3026189"><ele>41.0</ele><time>2026-03-28T15:15:47.037Z</time></trkpt><trkpt lat="16.3052633" lon="-61.3024999"><ele>41.0</ele><time>2026-03-28T15:15:47.997Z</time></trkpt><trkpt lat="16.3052299" lon="-61.3023898"><ele>41.0</ele><time>2026-03-28T15:15:48.963Z</time></trkpt><trkpt lat="16.3051963" lon="-61.3022876"><ele>41.0</ele><time>2026-03-28T15:15:49.96Z</time></trkpt><trkpt lat="16.3051668" lon="-61.3021978"><ele>41.33333333333333</ele><time>2026-03-28T15:15:50.973Z</time></trkpt><trkpt lat="16.3051439" lon="-61.302132"><ele>41.666666666666664</ele><time>2026-03-28T15:15:51.964Z</time></trkpt><trkpt lat="16.3051218" lon="-61.3020478"><ele>42.0</ele><time>2026-03-28T15:15:53.986Z</time></trkpt><trkpt lat="16.3051201" lon="-61.3019466"><ele>42.333333333333336</ele><time>2026-03-28T15:16:21.968Z</time></trkpt><trkpt lat="16.3051469" lon="-61.3018484"><ele>42.66666666666667</ele><time>2026-03-28T15:16:23.974Z</time></trkpt><trkpt lat="16.3051965" lon="-61.3017843"><ele>43.0</ele><time>2026-03-28T15:16:25.953Z</time></trkpt><trkpt lat="16.305294" lon="-61.3017297"><ele>43.0</ele><time>2026-03-28T15:16:27.978Z</time></trkpt><trkpt lat="16.3053684" lon="-61.3016826"><ele>43.0</ele><time>2026-03-28T15:16:28.981Z</time></trkpt><trkpt lat="16.3054371" lon="-61.3016476"><ele>43.0</ele><time>2026-03-28T15:16:30.032Z</time></trkpt><trkpt lat="16.3055165" lon="-61.3016264"><ele>43.0</ele><time>2026-03-28T15:16:30.993Z</time></trkpt><trkpt lat="16.3055891" lon="-61.3016041"><ele>43.0</ele><time>2026-03-28T15:16:31.988Z</time></trkpt><trkpt lat="16.3056651" lon="-61.3015843"><ele>43.0</ele><time>2026-03-28T15:16:32.986Z</time></trkpt><trkpt lat="16.3057415" lon="-61.3015559"><ele>42.714285714285715</ele><time>2026-03-28T15:16:33.982Z</time></trkpt><trkpt lat="16.305814" lon="-61.3015343"><ele>42.42857142857143</ele><time>2026-03-28T15:16:34.984Z</time></trkpt><trkpt lat="16.3058828" lon="-61.3015156"><ele>42.14285714285714</ele><time>2026-03-28T15:16:35.984Z</time></trkpt><trkpt lat="16.3059541" lon="-61.3015059"><ele>41.85714285714286</ele><time>2026-03-28T15:16:36.994Z</time></trkpt><trkpt lat="16.3060178" lon="-61.3014909"><ele>41.57142857142857</ele><time>2026-03-28T15:16:38.059Z</time></trkpt><trkpt lat="16.3060911" lon="-61.301471"><ele>41.285714285714285</ele><time>2026-03-28T15:16:39.03Z</time></trkpt><trkpt lat="16.3061645" lon="-61.3014561"><ele>41.0</ele><time>2026-03-28T15:16:39.979Z</time></trkpt><trkpt lat="16.3062423" lon="-61.3014397"><ele>41.0</ele><time>2026-03-28T15:16:40.979Z</time></trkpt><trkpt lat="16.3063209" lon="-61.3014277"><ele>41.0</ele><time>2026-03-28T15:16:41.986Z</time></trkpt><trkpt lat="16.3063978" lon="-61.3014012"><ele>41.0</ele><time>2026-03-28T15:16:43.045Z</time></trkpt><trkpt lat="16.3064764" lon="-61.3013646"><ele>41.0</ele><time>2026-03-28T15:16:44.03Z</time></trkpt><trkpt lat="16.3065543" lon="-61.3013185"><ele>41.0</ele><time>2026-03-28T15:16:44.981Z</time></trkpt><trkpt lat="16.3066275" lon="-61.3012581"><ele>41.0</ele><time>2026-03-28T15:16:45.992Z</time></trkpt><trkpt lat="16.3066935" lon="-61.3011867"><ele>40.599999999999994</ele><time>2026-03-28T15:16:46.975Z</time></trkpt><trkpt lat="16.3067646" lon="-61.3011146"><ele>40.199999999999996</ele><time>2026-03-28T15:16:48.034Z</time></trkpt><trkpt lat="16.3068417" lon="-61.3010432"><ele>39.8</ele><time>2026-03-28T15:16:49.03Z</time></trkpt><trkpt lat="16.3069301" lon="-61.3009757"><ele>39.4</ele><time>2026-03-28T15:16:49.977Z</time></trkpt><trkpt lat="16.307025" lon="-61.3009144"><ele>39.0</ele><time>2026-03-28T15:16:50.979Z</time></trkpt><trkpt lat="16.3071195" lon="-61.3008569"><ele>39.0</ele><time>2026-03-28T15:16:51.996Z</time></trkpt><trkpt lat="16.3072141" lon="-61.3007991"><ele>39.0</ele><time>2026-03-28T15:16:53.052Z</time></trkpt><trkpt lat="16.3073095" lon="-61.300737"><ele>39.0</ele><time>2026-03-28T15:16:54.065Z</time></trkpt><trkpt lat="16.3074014" lon="-61.3006732"><ele>39.0</ele><time>2026-03-28T15:16:54.974Z</time></trkpt><trkpt lat="16.3074913" lon="-61.300604"><ele>39.0</ele><time>2026-03-28T15:16:55.979Z</time></trkpt><trkpt lat="16.3075841" lon="-61.300537"><ele>39.4</ele><time>2026-03-28T15:16:56.973Z</time></trkpt><trkpt lat="16.3076714" lon="-61.3004675"><ele>39.8</ele><time>2026-03-28T15:16:57.972Z</time></trkpt><trkpt lat="16.307759" lon="-61.3004006"><ele>40.199999999999996</ele><time>2026-03-28T15:16:58.958Z</time></trkpt><trkpt lat="16.3078404" lon="-61.300343"><ele>40.599999999999994</ele><time>2026-03-28T15:16:59.979Z</time></trkpt><trkpt lat="16.3079127" lon="-61.3002873"><ele>41.0</ele><time>2026-03-28T15:17:00.988Z</time></trkpt><trkpt lat="16.307983" lon="-61.3002367"><ele>41.0</ele><time>2026-03-28T15:17:01.978Z</time></trkpt><trkpt lat="16.3080537" lon="-61.3001941"><ele>41.0</ele><time>2026-03-28T15:17:02.972Z</time></trkpt><trkpt lat="16.3081264" lon="-61.3001476"><ele>41.0</ele><time>2026-03-28T15:17:04.036Z</time></trkpt><trkpt lat="16.3082133" lon="-61.3001086"><ele>41.0</ele><time>2026-03-28T15:17:04.969Z</time></trkpt><trkpt lat="16.3083039" lon="-61.3000711"><ele>41.0</ele><time>2026-03-28T15:17:05.952Z</time></trkpt><trkpt lat="16.3083999" lon="-61.3000356"><ele>40.8</ele><time>2026-03-28T15:17:06.969Z</time></trkpt><trkpt lat="16.3084995" lon="-61.2999996"><ele>40.599999999999994</ele><time>2026-03-28T15:17:07.955Z</time></trkpt><trkpt lat="16.3086025" lon="-61.299969"><ele>40.4</ele><time>2026-03-28T15:17:08.981Z</time></trkpt><trkpt lat="16.3087128" lon="-61.299936"><ele>40.2</ele><time>2026-03-28T15:17:09.982Z</time></trkpt><trkpt lat="16.3088262" lon="-61.2999032"><ele>40.0</ele><time>2026-03-28T15:17:10.98Z</time></trkpt><trkpt lat="16.3089355" lon="-61.2998678"><ele>39.2</ele><time>2026-03-28T15:17:11.977Z</time></trkpt><trkpt lat="16.3090405" lon="-61.2998268"><ele>38.4</ele><time>2026-03-28T15:17:12.979Z</time></trkpt><trkpt lat="16.3091386" lon="-61.2997967"><ele>37.6</ele><time>2026-03-28T15:17:13.988Z</time></trkpt><trkpt lat="16.3092347" lon="-61.2997659"><ele>36.8</ele><time>2026-03-28T15:17:14.98Z</time></trkpt><trkpt lat="16.3093285" lon="-61.2997328"><ele>36.0</ele><time>2026-03-28T15:17:15.976Z</time></trkpt><trkpt lat="16.3094237" lon="-61.299704"><ele>36.0</ele><time>2026-03-28T15:17:16.975Z</time></trkpt><trkpt lat="16.3095228" lon="-61.299675"><ele>36.0</ele><time>2026-03-28T15:17:17.986Z</time></trkpt><trkpt lat="16.3096234" lon="-61.2996482"><ele>36.0</ele><time>2026-03-28T15:17:19.042Z</time></trkpt><trkpt lat="16.3097244" lon="-61.2996155"><ele>36.0</ele><time>2026-03-28T15:17:19.988Z</time></trkpt><trkpt lat="16.3098262" lon="-61.2995887"><ele>36.0</ele><time>2026-03-28T15:17:20.988Z</time></trkpt><trkpt lat="16.3099246" lon="-61.2995577"><ele>36.0</ele><time>2026-03-28T15:17:22.051Z</time></trkpt><trkpt lat="16.3100267" lon="-61.2995308"><ele>36.0</ele><time>2026-03-28T15:17:23.044Z</time></trkpt><trkpt lat="16.3101308" lon="-61.2994987"><ele>36.0</ele><time>2026-03-28T15:17:24.047Z</time></trkpt><trkpt lat="16.3102433" lon="-61.2994625"><ele>36.0</ele><time>2026-03-28T15:17:24.983Z</time></trkpt><trkpt lat="16.3103536" lon="-61.2994256"><ele>36.0</ele><time>2026-03-28T15:17:25.982Z</time></trkpt><trkpt lat="16.31046" lon="-61.2993868"><ele>36.0</ele><time>2026-03-28T15:17:26.985Z</time></trkpt><trkpt lat="16.3105665" lon="-61.2993425"><ele>36.0</ele><time>2026-03-28T15:17:28.026Z</time></trkpt><trkpt lat="16.3106697" lon="-61.2993063"><ele>36.0</ele><time>2026-03-28T15:17:29.043Z</time></trkpt><trkpt lat="16.3107798" lon="-61.2992679"><ele>36.0</ele><time>2026-03-28T15:17:29.981Z</time></trkpt><trkpt lat="16.3108959" lon="-61.2992289"><ele>36.2</ele><time>2026-03-28T15:17:30.981Z</time></trkpt><trkpt lat="16.3110013" lon="-61.299186"><ele>36.400000000000006</ele><time>2026-03-28T15:17:31.983Z</time></trkpt><trkpt lat="16.3111044" lon="-61.2991526"><ele>36.6</ele><time>2026-03-28T15:17:32.975Z</time></trkpt><trkpt lat="16.311208" lon="-61.2991171"><ele>36.800000000000004</ele><time>2026-03-28T15:17:33.98Z</time></trkpt><trkpt lat="16.3113185" lon="-61.2990743"><ele>37.0</ele><time>2026-03-28T15:17:34.993Z</time></trkpt><trkpt lat="16.3114314" lon="-61.2990318"><ele>37.0</ele><time>2026-03-28T15:17:35.988Z</time></trkpt><trkpt lat="16.31154" lon="-61.2989887"><ele>37.0</ele><time>2026-03-28T15:17:37.029Z</time></trkpt><trkpt lat="16.3116464" lon="-61.2989449"><ele>37.0</ele><time>2026-03-28T15:17:38.063Z</time></trkpt><trkpt lat="16.3117534" lon="-61.2988955"><ele>37.0</ele><time>2026-03-28T15:17:39.051Z</time></trkpt><trkpt lat="16.311855" lon="-61.2988492"><ele>36.6</ele><time>2026-03-28T15:17:39.977Z</time></trkpt><trkpt lat="16.3119616" lon="-61.2988049"><ele>36.2</ele><time>2026-03-28T15:17:41.044Z</time></trkpt><trkpt lat="16.312069" lon="-61.2987676"><ele>35.8</ele><time>2026-03-28T15:17:41.984Z</time></trkpt><trkpt lat="16.3121717" lon="-61.2987322"><ele>35.4</ele><time>2026-03-28T15:17:43.071Z</time></trkpt><trkpt lat="16.3122767" lon="-61.2986968"><ele>35.0</ele><time>2026-03-28T15:17:43.995Z</time></trkpt><trkpt lat="16.3123893" lon="-61.2986625"><ele>34.75</ele><time>2026-03-28T15:17:44.975Z</time></trkpt><trkpt lat="16.312501" lon="-61.2986272"><ele>34.5</ele><time>2026-03-28T15:17:45.989Z</time></trkpt><trkpt lat="16.312613" lon="-61.2985942"><ele>34.25</ele><time>2026-03-28T15:17:46.993Z</time></trkpt><trkpt lat="16.3127252" lon="-61.2985633"><ele>34.0</ele><time>2026-03-28T15:17:47.968Z</time></trkpt><trkpt lat="16.3128378" lon="-61.2985275"><ele>34.0</ele><time>2026-03-28T15:17:48.977Z</time></trkpt><trkpt lat="16.312953" lon="-61.2984923"><ele>34.0</ele><time>2026-03-28T15:17:49.996Z</time></trkpt><trkpt lat="16.3130685" lon="-61.2984563"><ele>34.0</ele><time>2026-03-28T15:17:50.985Z</time></trkpt><trkpt lat="16.3131779" lon="-61.298421"><ele>34.0</ele><time>2026-03-28T15:17:52.04Z</time></trkpt><trkpt lat="16.3132876" lon="-61.2983867"><ele>33.75</ele><time>2026-03-28T15:17:53.033Z</time></trkpt><trkpt lat="16.3134009" lon="-61.2983527"><ele>33.5</ele><time>2026-03-28T15:17:53.979Z</time></trkpt><trkpt lat="16.3135176" lon="-61.2983231"><ele>33.25</ele><time>2026-03-28T15:17:54.975Z</time></trkpt><trkpt lat="16.3136317" lon="-61.2982991"><ele>33.0</ele><time>2026-03-28T15:17:55.978Z</time></trkpt><trkpt lat="16.3137385" lon="-61.2982698"><ele>33.0</ele><time>2026-03-28T15:17:56.984Z</time></trkpt><trkpt lat="16.3138504" lon="-61.2982412"><ele>33.0</ele><time>2026-03-28T15:17:57.982Z</time></trkpt><trkpt lat="16.3139606" lon="-61.2982106"><ele>33.0</ele><time>2026-03-28T15:17:58.991Z</time></trkpt><trkpt lat="16.3140757" lon="-61.2981814"><ele>33.0</ele><time>2026-03-28T15:17:59.982Z</time></trkpt><trkpt lat="16.3141905" lon="-61.2981542"><ele>33.25</ele><time>2026-03-28T15:18:00.991Z</time></trkpt><trkpt lat="16.3143085" lon="-61.2981296"><ele>33.5</ele><time>2026-03-28T15:18:02.075Z</time></trkpt><trkpt lat="16.3144241" lon="-61.2981086"><ele>33.75</ele><time>2026-03-28T15:18:02.987Z</time></trkpt><trkpt lat="16.3145421" lon="-61.2980874"><ele>34.0</ele><time>2026-03-28T15:18:03.976Z</time></trkpt><trkpt lat="16.3146576" lon="-61.2980647"><ele>33.5</ele><time>2026-03-28T15:18:04.983Z</time></trkpt><trkpt lat="16.3147719" lon="-61.2980501"><ele>33.0</ele><time>2026-03-28T15:18:05.987Z</time></trkpt><trkpt lat="16.3148834" lon="-61.2980369"><ele>32.5</ele><time>2026-03-28T15:18:06.979Z</time></trkpt><trkpt lat="16.3149999" lon="-61.2980141"><ele>32.0</ele><time>2026-03-28T15:18:07.982Z</time></trkpt><trkpt lat="16.3151141" lon="-61.2979871"><ele>32.0</ele><time>2026-03-28T15:18:08.989Z</time></trkpt><trkpt lat="16.3152279" lon="-61.2979596"><ele>32.0</ele><time>2026-03-28T15:18:09.981Z</time></trkpt><trkpt lat="16.3153397" lon="-61.2979309"><ele>32.0</ele><time>2026-03-28T15:18:10.983Z</time></trkpt><trkpt lat="16.3154528" lon="-61.2979041"><ele>32.0</ele><time>2026-03-28T15:18:11.986Z</time></trkpt><trkpt lat="16.3155693" lon="-61.2978823"><ele>31.5</ele><time>2026-03-28T15:18:13.061Z</time></trkpt><trkpt lat="16.3156854" lon="-61.2978635"><ele>31.0</ele><time>2026-03-28T15:18:14.041Z</time></trkpt><trkpt lat="16.3158012" lon="-61.2978424"><ele>30.5</ele><time>2026-03-28T15:18:14.983Z</time></trkpt><trkpt lat="16.3159144" lon="-61.2978188"><ele>30.0</ele><time>2026-03-28T15:18:15.985Z</time></trkpt><trkpt lat="16.3160313" lon="-61.2977952"><ele>30.0</ele><time>2026-03-28T15:18:16.999Z</time></trkpt><trkpt lat="16.3161506" lon="-61.2977757"><ele>30.0</ele><time>2026-03-28T15:18:17.985Z</time></trkpt><trkpt lat="16.3162624" lon="-61.2977548"><ele>30.0</ele><time>2026-03-28T15:18:18.979Z</time></trkpt><trkpt lat="16.3163741" lon="-61.2977393"><ele>30.0</ele><time>2026-03-28T15:18:19.946Z</time></trkpt><trkpt lat="16.3164861" lon="-61.2977211"><ele>29.25</ele><time>2026-03-28T15:18:21.052Z</time></trkpt><trkpt lat="16.3165982" lon="-61.2976968"><ele>28.5</ele><time>2026-03-28T15:18:22.031Z</time></trkpt><trkpt lat="16.3167125" lon="-61.2976756"><ele>27.75</ele><time>2026-03-28T15:18:23.028Z</time></trkpt><trkpt lat="16.3168253" lon="-61.297653"><ele>27.0</ele><time>2026-03-28T15:18:24.022Z</time></trkpt><trkpt lat="16.3169403" lon="-61.2976263"><ele>27.0</ele><time>2026-03-28T15:18:24.978Z</time></trkpt><trkpt lat="16.3170521" lon="-61.2975957"><ele>27.0</ele><time>2026-03-28T15:18:25.961Z</time></trkpt><trkpt lat="16.3171657" lon="-61.2975723"><ele>27.0</ele><time>2026-03-28T15:18:27.062Z</time></trkpt><trkpt lat="16.3172821" lon="-61.2975517"><ele>27.0</ele><time>2026-03-28T15:18:27.972Z</time></trkpt><trkpt lat="16.3173953" lon="-61.297533"><ele>27.25</ele><time>2026-03-28T15:18:28.98Z</time></trkpt><trkpt lat="16.3175146" lon="-61.2975108"><ele>27.5</ele><time>2026-03-28T15:18:29.969Z</time></trkpt><trkpt lat="16.3176276" lon="-61.2974943"><ele>27.75</ele><time>2026-03-28T15:18:30.984Z</time></trkpt><trkpt lat="16.3177376" lon="-61.297479"><ele>28.0</ele><time>2026-03-28T15:18:31.98Z</time></trkpt><trkpt lat="16.3178487" lon="-61.2974702"><ele>28.0</ele><time>2026-03-28T15:18:33.059Z</time></trkpt><trkpt lat="16.3179566" lon="-61.2974551"><ele>27.999999999999996</ele><time>2026-03-28T15:18:34.031Z</time></trkpt><trkpt lat="16.3180647" lon="-61.2974428"><ele>27.999999999999996</ele><time>2026-03-28T15:18:34.976Z</time></trkpt><trkpt lat="16.3181734" lon="-61.2974289"><ele>28.0</ele><time>2026-03-28T15:18:35.982Z</time></trkpt><trkpt lat="16.318282" lon="-61.2974115"><ele>28.0</ele><time>2026-03-28T15:18:36.959Z</time></trkpt><trkpt lat="16.3183857" lon="-61.2973932"><ele>29.4</ele><time>2026-03-28T15:18:37.981Z</time></trkpt><trkpt lat="16.3184855" lon="-61.2973785"><ele>30.799999999999997</ele><time>2026-03-28T15:18:38.978Z</time></trkpt><trkpt lat="16.318585" lon="-61.2973762"><ele>32.2</ele><time>2026-03-28T15:18:39.983Z</time></trkpt><trkpt lat="16.3186852" lon="-61.2973795"><ele>33.6</ele><time>2026-03-28T15:18:40.964Z</time></trkpt><trkpt lat="16.3187865" lon="-61.2973788"><ele>35.0</ele><time>2026-03-28T15:18:41.989Z</time></trkpt><trkpt lat="16.3188946" lon="-61.2973684"><ele>36.0</ele><time>2026-03-28T15:18:42.972Z</time></trkpt><trkpt lat="16.3190087" lon="-61.2973533"><ele>37.0</ele><time>2026-03-28T15:18:44.053Z</time></trkpt><trkpt lat="16.3191232" lon="-61.2973249"><ele>38.0</ele><time>2026-03-28T15:18:44.986Z</time></trkpt><trkpt lat="16.31924" lon="-61.2973027"><ele>39.0</ele><time>2026-03-28T15:18:45.983Z</time></trkpt><trkpt lat="16.3193574" lon="-61.2972748"><ele>38.5</ele><time>2026-03-28T15:18:46.976Z</time></trkpt><trkpt lat="16.3194831" lon="-61.2972359"><ele>38.0</ele><time>2026-03-28T15:18:47.988Z</time></trkpt><trkpt lat="16.3195993" lon="-61.2971981"><ele>37.5</ele><time>2026-03-28T15:18:48.986Z</time></trkpt><trkpt lat="16.3197109" lon="-61.2971717"><ele>37.0</ele><time>2026-03-28T15:18:49.977Z</time></trkpt><trkpt lat="16.3198163" lon="-61.2971521"><ele>36.66666666666667</ele><time>2026-03-28T15:18:50.983Z</time></trkpt><trkpt lat="16.3199123" lon="-61.2971288"><ele>36.333333333333336</ele><time>2026-03-28T15:18:51.986Z</time></trkpt><trkpt lat="16.3199886" lon="-61.2971093"><ele>36.0</ele><time>2026-03-28T15:18:52.982Z</time></trkpt><trkpt lat="16.3200593" lon="-61.2970774"><ele>35.666666666666664</ele><time>2026-03-28T15:18:54.968Z</time></trkpt><trkpt lat="16.320125" lon="-61.2970374"><ele>35.33333333333333</ele><time>2026-03-28T15:19:01.048Z</time></trkpt><trkpt lat="16.3201849" lon="-61.2970143"><ele>35.0</ele><time>2026-03-28T15:19:01.983Z</time></trkpt><trkpt lat="16.3202511" lon="-61.2969917"><ele>35.0</ele><time>2026-03-28T15:19:02.986Z</time></trkpt><trkpt lat="16.3203221" lon="-61.2969738"><ele>35.0</ele><time>2026-03-28T15:19:03.981Z</time></trkpt><trkpt lat="16.320396" lon="-61.2969577"><ele>35.0</ele><time>2026-03-28T15:19:04.99Z</time></trkpt><trkpt lat="16.3204761" lon="-61.296939"><ele>35.0</ele><time>2026-03-28T15:19:05.989Z</time></trkpt><trkpt lat="16.3205724" lon="-61.296913"><ele>35.0</ele><time>2026-03-28T15:19:06.99Z</time></trkpt><trkpt lat="16.3206711" lon="-61.2968813"><ele>35.0</ele><time>2026-03-28T15:19:07.982Z</time></trkpt><trkpt lat="16.3207755" lon="-61.2968522"><ele>34.5</ele><time>2026-03-28T15:19:09.056Z</time></trkpt><trkpt lat="16.3208825" lon="-61.2968156"><ele>34.0</ele><time>2026-03-28T15:19:09.971Z</time></trkpt><trkpt lat="16.3209955" lon="-61.2967874"><ele>33.5</ele><time>2026-03-28T15:19:10.983Z</time></trkpt><trkpt lat="16.3211061" lon="-61.2967559"><ele>33.0</ele><time>2026-03-28T15:19:11.976Z</time></trkpt><trkpt lat="16.3212182" lon="-61.2967185"><ele>33.0</ele><time>2026-03-28T15:19:12.983Z</time></trkpt><trkpt lat="16.3213194" lon="-61.2966842"><ele>33.0</ele><time>2026-03-28T15:19:13.979Z</time></trkpt><trkpt lat="16.3214106" lon="-61.2966504"><ele>33.0</ele><time>2026-03-28T15:19:14.982Z</time></trkpt><trkpt lat="16.3214993" lon="-61.2966222"><ele>33.0</ele><time>2026-03-28T15:19:16.049Z</time></trkpt><trkpt lat="16.3215814" lon="-61.2966027"><ele>33.0</ele><time>2026-03-28T15:19:16.993Z</time></trkpt><trkpt lat="16.3216536" lon="-61.2965873"><ele>33.333333333333336</ele><time>2026-03-28T15:19:18.038Z</time></trkpt><trkpt lat="16.3217327" lon="-61.2965354"><ele>33.666666666666664</ele><time>2026-03-28T15:19:19.973Z</time></trkpt><trkpt lat="16.3218175" lon="-61.2965101"><ele>34.0</ele><time>2026-03-28T15:19:22.969Z</time></trkpt><trkpt lat="16.3218893" lon="-61.2964929"><ele>34.33333333333333</ele><time>2026-03-28T15:19:27.989Z</time></trkpt><trkpt lat="16.3219594" lon="-61.2964775"><ele>34.666666666666664</ele><time>2026-03-28T15:19:33.048Z</time></trkpt><trkpt lat="16.3218759" lon="-61.2964898"><ele>35.0</ele><time>2026-03-28T15:19:58.966Z</time></trkpt><trkpt lat="16.3218281" lon="-61.2965366"><ele>35.0</ele><time>2026-03-28T15:20:08.973Z</time></trkpt><trkpt lat="16.3219106" lon="-61.2965038"><ele>35.0</ele><time>2026-03-28T15:20:13.968Z</time></trkpt><trkpt lat="16.3219596" lon="-61.2964303"><ele>35.0</ele><time>2026-03-28T15:20:20.978Z</time></trkpt><trkpt lat="16.3220037" lon="-61.2963608"><ele>35.0</ele><time>2026-03-28T15:20:23.953Z</time></trkpt><trkpt lat="16.3220066" lon="-61.2962885"><ele>35.0</ele><time>2026-03-28T15:20:28.976Z</time></trkpt><trkpt lat="16.3220451" lon="-61.2962267"><ele>35.0</ele><time>2026-03-28T15:20:34.97Z</time></trkpt><trkpt lat="16.3220908" lon="-61.2961365"><ele>34.33333333333333</ele><time>2026-03-28T15:20:41.981Z</time></trkpt><trkpt lat="16.322123" lon="-61.2960709"><ele>33.666666666666664</ele><time>2026-03-28T15:20:48.981Z</time></trkpt><trkpt lat="16.3221631" lon="-61.2960073"><ele>33.0</ele><time>2026-03-28T15:20:53.973Z</time></trkpt><trkpt lat="16.3222328" lon="-61.2959695"><ele>32.333333333333336</ele><time>2026-03-28T15:20:57.979Z</time></trkpt><trkpt lat="16.3222871" lon="-61.2958914"><ele>31.666666666666668</ele><time>2026-03-28T15:21:03.967Z</time></trkpt><trkpt lat="16.322324" lon="-61.2958193"><ele>31.0</ele><time>2026-03-28T15:21:06.98Z</time></trkpt><trkpt lat="16.3223678" lon="-61.2957388"><ele>29.666666666666668</ele><time>2026-03-28T15:21:09.977Z</time></trkpt><trkpt lat="16.3223821" lon="-61.2956738"><ele>28.333333333333336</ele><time>2026-03-28T15:21:12.95Z</time></trkpt><trkpt lat="16.3223652" lon="-61.2955963"><ele>27.0</ele><time>2026-03-28T15:21:17.976Z</time></trkpt><trkpt lat="16.3223206" lon="-61.2955071"><ele>25.666666666666668</ele><time>2026-03-28T15:21:24.967Z</time></trkpt><trkpt lat="16.3222486" lon="-61.2953965"><ele>24.333333333333336</ele><time>2026-03-28T15:21:41.964Z</time></trkpt><trkpt lat="16.3222081" lon="-61.2953333"><ele>23.0</ele><time>2026-03-28T15:21:47.978Z</time></trkpt><trkpt lat="16.3221333" lon="-61.2952799"><ele>23.0</ele><time>2026-03-28T15:21:53.996Z</time></trkpt><trkpt lat="16.3220586" lon="-61.2952579"><ele>23.0</ele><time>2026-03-28T15:21:58.98Z</time></trkpt><trkpt lat="16.3220083" lon="-61.2952166"><ele>23.0</ele><time>2026-03-28T15:22:06.982Z</time></trkpt><trkpt lat="16.3219225" lon="-61.295176"><ele>23.0</ele><time>2026-03-28T15:22:10.984Z</time></trkpt><trkpt lat="16.3218622" lon="-61.2951298"><ele>23.0</ele><time>2026-03-28T15:22:13.956Z</time></trkpt><trkpt lat="16.3217963" lon="-61.295109"><ele>23.0</ele><time>2026-03-28T15:22:18.977Z</time></trkpt><trkpt lat="16.3217221" lon="-61.2950846"><ele>23.0</ele><time>2026-03-28T15:22:27.979Z</time></trkpt><trkpt lat="16.3216637" lon="-61.2950411"><ele>23.0</ele><time>2026-03-28T15:22:31.969Z</time></trkpt><trkpt lat="16.3216141" lon="-61.2949831"><ele>23.0</ele><time>2026-03-28T15:22:39.966Z</time></trkpt><trkpt lat="16.3215602" lon="-61.2949075"><ele>23.0</ele><time>2026-03-28T15:22:50.962Z</time></trkpt><trkpt lat="16.3214988" lon="-61.2948724"><ele>23.0</ele><time>2026-03-28T15:22:57.976Z</time></trkpt><trkpt lat="16.3214543" lon="-61.2948213"><ele>23.0</ele><time>2026-03-28T15:23:00.964Z</time></trkpt><trkpt lat="16.3214216" lon="-61.2947455"><ele>28.0</ele><time>2026-03-28T15:23:14.053Z</time></trkpt><trkpt lat="16.3213753" lon="-61.2946974"><ele>33.0</ele><time>2026-03-28T15:23:20.011Z</time></trkpt><trkpt lat="16.3218759" lon="-61.2964898"><ele>33.333333333333336</ele><time>2026-03-28T15:19:58.966Z</time></trkpt><trkpt lat="16.3218281" lon="-61.2965366"><ele>33.666666666666664</ele><time>2026-03-28T15:20:08.973Z</time></trkpt><trkpt lat="16.3219106" lon="-61.2965038"><ele>34.0</ele><time>2026-03-28T15:20:13.968Z</time></trkpt><trkpt lat="16.3219596" lon="-61.2964303"><ele>34.33333333333333</ele><time>2026-03-28T15:20:20.978Z</time></trkpt><trkpt lat="16.3220037" lon="-61.2963608"><ele>34.666666666666664</ele><time>2026-03-28T15:20:23.953Z</time></trkpt><trkpt lat="16.3220066" lon="-61.2962885"><ele>35.0</ele><time>2026-03-28T15:20:28.976Z</time></trkpt><trkpt lat="16.3220451" lon="-61.2962267"><ele>34.33333333333333</ele><time>2026-03-28T15:20:34.97Z</time></trkpt><trkpt lat="16.3220908" lon="-61.2961365"><ele>33.666666666666664</ele><time>2026-03-28T15:20:41.981Z</time></trkpt><trkpt lat="16.322123" lon="-61.2960709"><ele>33.0</ele><time>2026-03-28T15:20:48.981Z</time></trkpt><trkpt lat="16.3221631" lon="-61.2960073"><ele>32.333333333333336</ele><time>2026-03-28T15:20:53.973Z</time></trkpt><trkpt lat="16.3222328" lon="-61.2959695"><ele>31.666666666666668</ele><time>2026-03-28T15:20:57.979Z</time></trkpt><trkpt lat="16.3222871" lon="-61.2958914"><ele>31.0</ele><time>2026-03-28T15:21:03.967Z</time></trkpt><trkpt lat="16.322324" lon="-61.2958193"><ele>28.400000000000002</ele><time>2026-03-28T15:21:06.98Z</time></trkpt><trkpt lat="16.3223678" lon="-61.2957388"><ele>25.8</ele><time>2026-03-28T15:21:09.977Z</time></trkpt><trkpt lat="16.3223821" lon="-61.2956738"><ele>23.200000000000003</ele><time>2026-03-28T15:21:12.95Z</time></trkpt><trkpt lat="16.3223652" lon="-61.2955963"><ele>20.6</ele><time>2026-03-28T15:21:17.976Z</time></trkpt><trkpt lat="16.3223206" lon="-61.2955071"><ele>18.0</ele><time>2026-03-28T15:21:24.967Z</time></trkpt><trkpt lat="16.3222486" lon="-61.2953965"><ele>18.833333333333332</ele><time>2026-03-28T15:21:41.964Z</time></trkpt><trkpt lat="16.3222081" lon="-61.2953333"><ele>19.666666666666668</ele><time>2026-03-28T15:21:47.978Z</time></trkpt><trkpt lat="16.3221333" lon="-61.2952799"><ele>20.5</ele><time>2026-03-28T15:21:53.996Z</time></trkpt><trkpt lat="16.3220586" lon="-61.2952579"><ele>21.333333333333336</ele><time>2026-03-28T15:21:58.98Z</time></trkpt><trkpt lat="16.3220083" lon="-61.2952166"><ele>22.166666666666668</ele><time>2026-03-28T15:22:06.982Z</time></trkpt><trkpt lat="16.3219225" lon="-61.295176"><ele>23.0</ele><time>2026-03-28T15:22:10.984Z</time></trkpt><trkpt lat="16.3218622" lon="-61.2951298"><ele>23.0</ele><time>2026-03-28T15:22:13.956Z</time></trkpt><trkpt lat="16.3217963" lon="-61.295109"><ele>23.0</ele><time>2026-03-28T15:22:18.977Z</time></trkpt><trkpt lat="16.3217221" lon="-61.2950846"><ele>23.0</ele><time>2026-03-28T15:22:27.979Z</time></trkpt><trkpt lat="16.3216637" lon="-61.2950411"><ele>23.0</ele><time>2026-03-28T15:22:31.969Z</time></trkpt><trkpt lat="16.3216141" lon="-61.2949831"><ele>23.0</ele><time>2026-03-28T15:22:39.966Z</time></trkpt><trkpt lat="16.3215602" lon="-61.2949075"><ele>23.0</ele><time>2026-03-28T15:22:50.962Z</time></trkpt><trkpt lat="16.3214988" lon="-61.2948724"><ele>23.0</ele><time>2026-03-28T15:22:57.976Z</time></trkpt><trkpt lat="16.3214543" lon="-61.2948213"><ele>23.0</ele><time>2026-03-28T15:23:00.964Z</time></trkpt><trkpt lat="16.3214216" lon="-61.2947455"><ele>23.0</ele><time>2026-03-28T15:23:14.053Z</time></trkpt><trkpt lat="16.3213753" lon="-61.2946974"><ele>23.0</ele><time>2026-03-28T15:23:20.011Z</time></trkpt><trkpt lat="16.3213268" lon="-61.2946514"><ele>23.0</ele><time>2026-03-28T15:24:08.987Z</time></trkpt><trkpt lat="16.3212647" lon="-61.2946297"><ele>23.0</ele><time>2026-03-28T15:24:16.983Z</time></trkpt><trkpt lat="16.3212378" lon="-61.2945607"><ele>23.0</ele><time>2026-03-28T15:24:59.981Z</time></trkpt><trkpt lat="16.3212616" lon="-61.2944764"><ele>24.42857142857143</ele><time>2026-03-28T15:25:02.972Z</time></trkpt><trkpt lat="16.3212542" lon="-61.2944053"><ele>25.857142857142854</ele><time>2026-03-28T15:25:08.988Z</time></trkpt><trkpt lat="16.3212873" lon="-61.2943446"><ele>27.285714285714285</ele><time>2026-03-28T15:25:13.972Z</time></trkpt><trkpt lat="16.3212779" lon="-61.2942735"><ele>28.714285714285715</ele><time>2026-03-28T15:25:16.981Z</time></trkpt><trkpt lat="16.3212578" lon="-61.2942068"><ele>30.142857142857146</ele><time>2026-03-28T15:25:19.982Z</time></trkpt><trkpt lat="16.3212761" lon="-61.2941303"><ele>31.57142857142857</ele><time>2026-03-28T15:25:22.977Z</time></trkpt><trkpt lat="16.3212911" lon="-61.2940374"><ele>33.0</ele><time>2026-03-28T15:25:25.986Z</time></trkpt><trkpt lat="16.321321" lon="-61.2939699"><ele>32.5</ele><time>2026-03-28T15:25:30.976Z</time></trkpt><trkpt lat="16.3213343" lon="-61.2939009"><ele>32.0</ele><time>2026-03-28T15:25:33.985Z</time></trkpt><trkpt lat="16.3213084" lon="-61.2938273"><ele>31.5</ele><time>2026-03-28T15:25:36.991Z</time></trkpt><trkpt lat="16.3212843" lon="-61.2937625"><ele>31.0</ele><time>2026-03-28T15:25:39.984Z</time></trkpt><trkpt lat="16.3212659" lon="-61.2936817"><ele>30.5</ele><time>2026-03-28T15:25:42.965Z</time></trkpt><trkpt lat="16.3212235" lon="-61.2936013"><ele>30.0</ele><time>2026-03-28T15:25:44.977Z</time></trkpt><trkpt lat="16.3211819" lon="-61.293527"><ele>30.0</ele><time>2026-03-28T15:25:46.976Z</time></trkpt><trkpt lat="16.321151" lon="-61.2934484"><ele>30.0</ele><time>2026-03-28T15:25:49.991Z</time></trkpt><trkpt lat="16.3211416" lon="-61.2933739"><ele>30.0</ele><time>2026-03-28T15:25:53.98Z</time></trkpt><trkpt lat="16.321143" lon="-61.2932841"><ele>30.0</ele><time>2026-03-28T15:25:57.963Z</time></trkpt><trkpt lat="16.321139" lon="-61.2932102"><ele>30.0</ele><time>2026-03-28T15:26:00.975Z</time></trkpt><trkpt lat="16.3211169" lon="-61.2931387"><ele>30.0</ele><time>2026-03-28T15:26:04.981Z</time></trkpt><trkpt lat="16.321123" lon="-61.2930659"><ele>29.0</ele><time>2026-03-28T15:26:07.982Z</time></trkpt><trkpt lat="16.3211345" lon="-61.2929844"><ele>28.0</ele><time>2026-03-28T15:26:11.98Z</time></trkpt><trkpt lat="16.3211292" lon="-61.2929182"><ele>27.0</ele><time>2026-03-28T15:26:14.986Z</time></trkpt><trkpt lat="16.321066" lon="-61.2928332"><ele>26.0</ele><time>2026-03-28T15:26:21.986Z</time></trkpt><trkpt lat="16.3210432" lon="-61.2927615"><ele>25.0</ele><time>2026-03-28T15:26:25.985Z</time></trkpt><trkpt lat="16.3210501" lon="-61.2926913"><ele>24.0</ele><time>2026-03-28T15:26:29.98Z</time></trkpt><trkpt lat="16.3210842" lon="-61.29263"><ele>23.999999999999996</ele><time>2026-03-28T15:26:33.991Z</time></trkpt><trkpt lat="16.3210965" lon="-61.2925644"><ele>24.0</ele><time>2026-03-28T15:26:38.982Z</time></trkpt><trkpt lat="16.3210838" lon="-61.2924947"><ele>24.0</ele><time>2026-03-28T15:26:44.046Z</time></trkpt><trkpt lat="16.3210574" lon="-61.2924287"><ele>24.0</ele><time>2026-03-28T15:26:46.98Z</time></trkpt><trkpt lat="16.321029" lon="-61.2923614"><ele>24.0</ele><time>2026-03-28T15:26:51.983Z</time></trkpt><trkpt lat="16.3210084" lon="-61.2922928"><ele>23.999999999999996</ele><time>2026-03-28T15:26:58.978Z</time></trkpt><trkpt lat="16.3210272" lon="-61.2922225"><ele>24.0</ele><time>2026-03-28T15:27:05.978Z</time></trkpt><trkpt lat="16.3209958" lon="-61.2921607"><ele>22.57142857142857</ele><time>2026-03-28T15:27:15.993Z</time></trkpt><trkpt lat="16.3209582" lon="-61.2921045"><ele>21.142857142857142</ele><time>2026-03-28T15:27:30.974Z</time></trkpt><trkpt lat="16.3208956" lon="-61.2920623"><ele>19.714285714285715</ele><time>2026-03-28T15:27:38.989Z</time></trkpt><trkpt lat="16.3208317" lon="-61.2920034"><ele>18.285714285714285</ele><time>2026-03-28T15:27:47.985Z</time></trkpt><trkpt lat="16.320794" lon="-61.2919485"><ele>16.857142857142858</ele><time>2026-03-28T15:27:51.981Z</time></trkpt><trkpt lat="16.3207882" lon="-61.2918723"><ele>15.428571428571429</ele><time>2026-03-28T15:27:57.966Z</time></trkpt><trkpt lat="16.3207569" lon="-61.2917941"><ele>14.0</ele><time>2026-03-28T15:28:05.965Z</time></trkpt><trkpt lat="16.3206962" lon="-61.29175"><ele>14.0</ele><time>2026-03-28T15:28:09.997Z</time></trkpt><trkpt lat="16.3206392" lon="-61.2917075"><ele>13.999999999999998</ele><time>2026-03-28T15:28:14.966Z</time></trkpt><trkpt lat="16.3206469" lon="-61.2916316"><ele>13.999999999999998</ele><time>2026-03-28T15:28:19.032Z</time></trkpt><trkpt lat="16.3208411" lon="-61.291534"><ele>14.0</ele><time>2026-03-28T15:28:33.964Z</time></trkpt><trkpt lat="16.3209022" lon="-61.2915559"><ele>14.0</ele><time>2026-03-28T15:28:44.967Z</time></trkpt><trkpt lat="16.320976" lon="-61.2915217"><ele>14.0</ele><time>2026-03-28T15:29:11.971Z</time></trkpt><trkpt lat="16.3210225" lon="-61.2914757"><ele>14.0</ele><time>2026-03-28T15:29:14.977Z</time></trkpt><trkpt lat="16.3210207" lon="-61.291542"><ele>14.0</ele><time>2026-03-28T15:29:27.984Z</time></trkpt><trkpt lat="16.3209588" lon="-61.2915604"><ele>14.0</ele><time>2026-03-28T15:29:37.978Z</time></trkpt><trkpt lat="16.3208881" lon="-61.2915973"><ele>14.0</ele><time>2026-03-28T15:29:39.968Z</time></trkpt><trkpt lat="16.3208236" lon="-61.2916297"><ele>14.0</ele><time>2026-03-28T15:29:41.964Z</time></trkpt><trkpt lat="16.3207668" lon="-61.2916676"><ele>14.0</ele><time>2026-03-28T15:29:44.025Z</time></trkpt><trkpt lat="16.3207063" lon="-61.2917096"><ele>14.0</ele><time>2026-03-28T15:29:46.962Z</time></trkpt><trkpt lat="16.3206475" lon="-61.2916531"><ele>14.0</ele><time>2026-03-28T15:30:03.97Z</time></trkpt><trkpt lat="16.320705" lon="-61.2916817"><ele>14.0</ele><time>2026-03-28T15:30:04.952Z</time></trkpt><trkpt lat="16.3206855" lon="-61.2915807"><ele>14.0</ele><time>2026-03-28T15:30:32.961Z</time></trkpt><trkpt lat="16.3206372" lon="-61.2915279"><ele>14.0</ele><time>2026-03-28T15:31:07.961Z</time></trkpt><trkpt lat="16.3205722" lon="-61.2915318"><ele>14.0</ele><time>2026-03-28T15:31:31.966Z</time></trkpt><trkpt lat="16.3206288" lon="-61.2915606"><ele>14.0</ele><time>2026-03-28T15:31:48.965Z</time></trkpt><trkpt lat="16.3206671" lon="-61.2914857"><ele>14.0</ele><time>2026-03-28T15:32:07.955Z</time></trkpt><trkpt lat="16.3207252" lon="-61.2914468"><ele>14.0</ele><time>2026-03-28T15:32:10.942Z</time></trkpt><trkpt lat="16.3206638" lon="-61.2914044"><ele>14.0</ele><time>2026-03-28T15:32:23.955Z</time></trkpt><trkpt lat="16.3205948" lon="-61.2913984"><ele>14.0</ele><time>2026-03-28T15:32:27.961Z</time></trkpt><trkpt lat="16.320655" lon="-61.2914403"><ele>14.0</ele><time>2026-03-28T15:32:33.961Z</time></trkpt><trkpt lat="16.3206874" lon="-61.2915077"><ele>14.0</ele><time>2026-03-28T15:32:39.939Z</time></trkpt><trkpt lat="16.3207076" lon="-61.2915773"><ele>14.0</ele><time>2026-03-28T15:34:24.966Z</time></trkpt><trkpt lat="16.3206583" lon="-61.2916225"><ele>14.0</ele><time>2026-03-28T15:35:58.974Z</time></trkpt><trkpt lat="16.3206944" lon="-61.2916813"><ele>14.0</ele><time>2026-03-28T15:36:18.942Z</time></trkpt><trkpt lat="16.3206257" lon="-61.2917134"><ele>14.0</ele><time>2026-03-28T15:36:48.972Z</time></trkpt><trkpt lat="16.320543" lon="-61.2917041"><ele>14.0</ele><time>2026-03-28T15:36:54.968Z</time></trkpt><trkpt lat="16.3204744" lon="-61.2916822"><ele>14.0</ele><time>2026-03-28T15:37:01.972Z</time></trkpt><trkpt lat="16.3204673" lon="-61.2916114"><ele>14.0</ele><time>2026-03-28T15:37:10.966Z</time></trkpt><trkpt lat="16.320434" lon="-61.291555"><ele>14.0</ele><time>2026-03-28T15:37:17.957Z</time></trkpt><trkpt lat="16.3204128" lon="-61.2914924"><ele>16.57142857142857</ele><time>2026-03-28T15:37:26.957Z</time></trkpt><trkpt lat="16.3204249" lon="-61.2914263"><ele>19.142857142857142</ele><time>2026-03-28T15:37:46.968Z</time></trkpt><trkpt lat="16.3204495" lon="-61.2913453"><ele>21.714285714285715</ele><time>2026-03-28T15:38:54.967Z</time></trkpt><trkpt lat="16.3204009" lon="-61.2914343"><ele>24.285714285714285</ele><time>2026-03-28T15:40:16.944Z</time></trkpt><trkpt lat="16.3203423" lon="-61.2914655"><ele>26.857142857142854</ele><time>2026-03-28T15:40:39.964Z</time></trkpt><trkpt lat="16.3204018" lon="-61.291491"><ele>29.428571428571427</ele><time>2026-03-28T15:41:25.969Z</time></trkpt><trkpt lat="16.3203446" lon="-61.2914494"><ele>32.0</ele><time>2026-03-28T15:41:39.971Z</time></trkpt><trkpt lat="16.3203662" lon="-61.2913811"><ele>32.857142857142854</ele><time>2026-03-28T15:43:53.965Z</time></trkpt><trkpt lat="16.3204193" lon="-61.2913376"><ele>33.71428571428571</ele><time>2026-03-28T15:44:03.97Z</time></trkpt><trkpt lat="16.3204135" lon="-61.2912592"><ele>34.57142857142857</ele><time>2026-03-28T15:44:41.977Z</time></trkpt><trkpt lat="16.3204185" lon="-61.2911803"><ele>35.42857142857143</ele><time>2026-03-28T15:44:57.972Z</time></trkpt><trkpt lat="16.3203843" lon="-61.2911174"><ele>36.28571428571429</ele><time>2026-03-28T15:45:06.971Z</time></trkpt><trkpt lat="16.3203424" lon="-61.2910585"><ele>37.14285714285714</ele><time>2026-03-28T15:45:12.959Z</time></trkpt><trkpt lat="16.3203018" lon="-61.2909986"><ele>38.0</ele><time>2026-03-28T15:45:18.964Z</time></trkpt><trkpt lat="16.3202619" lon="-61.2909298"><ele>38.0</ele><time>2026-03-28T15:45:25.061Z</time></trkpt><trkpt lat="16.3202461" lon="-61.2908564"><ele>38.0</ele><time>2026-03-28T15:45:28.982Z</time></trkpt><trkpt lat="16.3202509" lon="-61.2907863"><ele>38.0</ele><time>2026-03-28T15:45:33.06Z</time></trkpt><trkpt lat="16.3202349" lon="-61.2907166"><ele>38.0</ele><time>2026-03-28T15:45:35.952Z</time></trkpt><trkpt lat="16.3202116" lon="-61.2906063"><ele>38.0</ele><time>2026-03-28T15:45:37.946Z</time></trkpt><trkpt lat="16.3201723" lon="-61.2904872"><ele>38.0</ele><time>2026-03-28T15:45:39.935Z</time></trkpt><trkpt lat="16.3201327" lon="-61.2904148"><ele>38.0</ele><time>2026-03-28T15:45:41.942Z</time></trkpt><trkpt lat="16.320074" lon="-61.2903042"><ele>38.0</ele><time>2026-03-28T15:45:43.964Z</time></trkpt><trkpt lat="16.3200462" lon="-61.2902297"><ele>38.0</ele><time>2026-03-28T15:45:45.961Z</time></trkpt><trkpt lat="16.3200329" lon="-61.290158"><ele>38.0</ele><time>2026-03-28T15:45:47.977Z</time></trkpt><trkpt lat="16.3200293" lon="-61.290066"><ele>38.0</ele><time>2026-03-28T15:45:50.951Z</time></trkpt><trkpt lat="16.3200464" lon="-61.2899978"><ele>38.0</ele><time>2026-03-28T15:45:52.975Z</time></trkpt><trkpt lat="16.3200465" lon="-61.2899041"><ele>38.0</ele><time>2026-03-28T15:45:54.971Z</time></trkpt><trkpt lat="16.3200522" lon="-61.2898238"><ele>38.0</ele><time>2026-03-28T15:45:57.979Z</time></trkpt><trkpt lat="16.3200523" lon="-61.2897522"><ele>38.0</ele><time>2026-03-28T15:46:01.971Z</time></trkpt><trkpt lat="16.3200447" lon="-61.2896404"><ele>38.0</ele><time>2026-03-28T15:46:24.055Z</time></trkpt><trkpt lat="16.320049" lon="-61.2895587"><ele>38.0</ele><time>2026-03-28T15:46:25.973Z</time></trkpt><trkpt lat="16.320072" lon="-61.2894252"><ele>38.199999999999996</ele><time>2026-03-28T15:46:27.985Z</time></trkpt><trkpt lat="16.3200885" lon="-61.2893042"><ele>38.4</ele><time>2026-03-28T15:46:29.964Z</time></trkpt><trkpt lat="16.3200868" lon="-61.2892049"><ele>38.599999999999994</ele><time>2026-03-28T15:46:31.972Z</time></trkpt><trkpt lat="16.3200802" lon="-61.289087"><ele>38.8</ele><time>2026-03-28T15:46:34.061Z</time></trkpt><trkpt lat="16.3200859" lon="-61.2889701"><ele>39.0</ele><time>2026-03-28T15:46:35.972Z</time></trkpt><trkpt lat="16.3200869" lon="-61.2889014"><ele>39.166666666666664</ele><time>2026-03-28T15:46:36.973Z</time></trkpt><trkpt lat="16.3200896" lon="-61.2888333"><ele>39.333333333333336</ele><time>2026-03-28T15:46:37.984Z</time></trkpt><trkpt lat="16.3200805" lon="-61.2887159"><ele>39.5</ele><time>2026-03-28T15:46:39.969Z</time></trkpt><trkpt lat="16.3200404" lon="-61.2886216"><ele>39.66666666666667</ele><time>2026-03-28T15:46:41.972Z</time></trkpt><trkpt lat="16.3200333" lon="-61.2885418"><ele>39.833333333333336</ele><time>2026-03-28T15:46:43.954Z</time></trkpt><trkpt lat="16.320029" lon="-61.2884683"><ele>40.0</ele><time>2026-03-28T15:46:45.974Z</time></trkpt><trkpt lat="16.3200165" lon="-61.2883855"><ele>40.0</ele><time>2026-03-28T15:46:47.968Z</time></trkpt><trkpt lat="16.3200092" lon="-61.2883088"><ele>40.0</ele><time>2026-03-28T15:46:48.958Z</time></trkpt><trkpt lat="16.320003" lon="-61.2882276"><ele>40.0</ele><time>2026-03-28T15:46:49.975Z</time></trkpt><trkpt lat="16.3199942" lon="-61.288155"><ele>40.0</ele><time>2026-03-28T15:46:50.943Z</time></trkpt><trkpt lat="16.3199992" lon="-61.2880849"><ele>40.0</ele><time>2026-03-28T15:46:51.956Z</time></trkpt><trkpt lat="16.3200275" lon="-61.2879726"><ele>40.0</ele><time>2026-03-28T15:46:53.974Z</time></trkpt><trkpt lat="16.3200384" lon="-61.287896"><ele>40.4</ele><time>2026-03-28T15:46:55.965Z</time></trkpt><trkpt lat="16.3200619" lon="-61.2877936"><ele>40.8</ele><time>2026-03-28T15:46:57.973Z</time></trkpt><trkpt lat="16.3201241" lon="-61.2876961"><ele>41.2</ele><time>2026-03-28T15:46:59.96Z</time></trkpt><trkpt lat="16.3202032" lon="-61.2876272"><ele>41.6</ele><time>2026-03-28T15:47:01.981Z</time></trkpt><trkpt lat="16.3202884" lon="-61.287554"><ele>42.0</ele><time>2026-03-28T15:47:03.973Z</time></trkpt><trkpt lat="16.3203559" lon="-61.2874877"><ele>42.0</ele><time>2026-03-28T15:47:05.977Z</time></trkpt><trkpt lat="16.3204155" lon="-61.2874569"><ele>42.0</ele><time>2026-03-28T15:47:06.967Z</time></trkpt><trkpt lat="16.3205227" lon="-61.2874107"><ele>42.0</ele><time>2026-03-28T15:47:08.977Z</time></trkpt><trkpt lat="16.320637" lon="-61.2873775"><ele>42.0</ele><time>2026-03-28T15:47:10.981Z</time></trkpt><trkpt lat="16.3206989" lon="-61.2873628"><ele>42.0</ele><time>2026-03-28T15:47:11.977Z</time></trkpt><trkpt lat="16.3207628" lon="-61.2873556"><ele>42.0</ele><time>2026-03-28T15:47:12.981Z</time></trkpt><trkpt lat="16.320828" lon="-61.2873445"><ele>41.666666666666664</ele><time>2026-03-28T15:47:13.977Z</time></trkpt><trkpt lat="16.3208956" lon="-61.2873335"><ele>41.333333333333336</ele><time>2026-03-28T15:47:14.97Z</time></trkpt><trkpt lat="16.3210044" lon="-61.2872968"><ele>41.0</ele><time>2026-03-28T15:47:16.985Z</time></trkpt><trkpt lat="16.3210931" lon="-61.2872483"><ele>40.66666666666667</ele><time>2026-03-28T15:47:19.053Z</time></trkpt><trkpt lat="16.3211326" lon="-61.2871883"><ele>40.333333333333336</ele><time>2026-03-28T15:47:23.04Z</time></trkpt><trkpt lat="16.3211301" lon="-61.2870884"><ele>40.0</ele><time>2026-03-28T15:47:25.974Z</time></trkpt><trkpt lat="16.3211195" lon="-61.2870054"><ele>40.0</ele><time>2026-03-28T15:47:27.965Z</time></trkpt><trkpt lat="16.3210976" lon="-61.2869359"><ele>40.0</ele><time>2026-03-28T15:47:29.972Z</time></trkpt><trkpt lat="16.3210352" lon="-61.2868633"><ele>40.0</ele><time>2026-03-28T15:47:33.04Z</time></trkpt><trkpt lat="16.3209776" lon="-61.2867828"><ele>40.0</ele><time>2026-03-28T15:47:34.956Z</time></trkpt><trkpt lat="16.3209222" lon="-61.2867183"><ele>40.0</ele><time>2026-03-28T15:47:36.965Z</time></trkpt><trkpt lat="16.3208697" lon="-61.2866762"><ele>40.0</ele><time>2026-03-28T15:47:38.981Z</time></trkpt><trkpt lat="16.3207928" lon="-61.2866145"><ele>40.0</ele><time>2026-03-28T15:47:42.077Z</time></trkpt><trkpt lat="16.3207191" lon="-61.2865728"><ele>40.0</ele><time>2026-03-28T15:47:43.977Z</time></trkpt><trkpt lat="16.320657" lon="-61.2865388"><ele>40.0</ele><time>2026-03-28T15:47:45.972Z</time></trkpt><trkpt lat="16.3205995" lon="-61.2864889"><ele>40.0</ele><time>2026-03-28T15:47:48.989Z</time></trkpt><trkpt lat="16.3205554" lon="-61.2864255"><ele>40.0</ele><time>2026-03-28T15:47:50.977Z</time></trkpt><trkpt lat="16.3206131" lon="-61.2863281"><ele>40.0</ele><time>2026-03-28T15:47:54.035Z</time></trkpt><trkpt lat="16.3206609" lon="-61.2862376"><ele>38.833333333333336</ele><time>2026-03-28T15:47:55.969Z</time></trkpt><trkpt lat="16.3206902" lon="-61.2861372"><ele>37.66666666666667</ele><time>2026-03-28T15:47:57.974Z</time></trkpt><trkpt lat="16.3206765" lon="-61.286056"><ele>36.5</ele><time>2026-03-28T15:47:59.977Z</time></trkpt><trkpt lat="16.3207026" lon="-61.2859842"><ele>35.333333333333336</ele><time>2026-03-28T15:48:06.014Z</time></trkpt><trkpt lat="16.3206912" lon="-61.2859174"><ele>34.166666666666664</ele><time>2026-03-28T15:48:16.958Z</time></trkpt><trkpt lat="16.3206293" lon="-61.2858706"><ele>33.0</ele><time>2026-03-28T15:48:37.979Z</time></trkpt><trkpt lat="16.3206122" lon="-61.2857976"><ele>33.0</ele><time>2026-03-28T15:48:42.954Z</time></trkpt><trkpt lat="16.3206409" lon="-61.2858565"><ele>33.0</ele><time>2026-03-28T15:49:12.971Z</time></trkpt><trkpt lat="16.3206155" lon="-61.2859263"><ele>33.0</ele><time>2026-03-28T15:49:15.982Z</time></trkpt><trkpt lat="16.3205973" lon="-61.2860142"><ele>33.0</ele><time>2026-03-28T15:49:18.975Z</time></trkpt><trkpt lat="16.3206121" lon="-61.286084"><ele>33.0</ele><time>2026-03-28T15:49:21.973Z</time></trkpt><trkpt lat="16.3206368" lon="-61.2861503"><ele>33.0</ele><time>2026-03-28T15:49:25.963Z</time></trkpt><trkpt lat="16.3205899" lon="-61.2862204"><ele>33.0</ele><time>2026-03-28T15:49:30.977Z</time></trkpt><trkpt lat="16.3205523" lon="-61.2862792"><ele>34.0</ele><time>2026-03-28T15:49:32.975Z</time></trkpt><trkpt lat="16.320502" lon="-61.2863247"><ele>35.0</ele><time>2026-03-28T15:49:34.963Z</time></trkpt><trkpt lat="16.3205069" lon="-61.2863964"><ele>36.0</ele><time>2026-03-28T15:49:38.939Z</time></trkpt><trkpt lat="16.3205573" lon="-61.2864518"><ele>37.0</ele><time>2026-03-28T15:49:42.975Z</time></trkpt><trkpt lat="16.3206533" lon="-61.286489"><ele>38.0</ele><time>2026-03-28T15:49:45.978Z</time></trkpt><trkpt lat="16.3207093" lon="-61.2865212"><ele>39.0</ele><time>2026-03-28T15:49:47.972Z</time></trkpt><trkpt lat="16.3207704" lon="-61.2865537"><ele>40.0</ele><time>2026-03-28T15:49:51.955Z</time></trkpt><trkpt lat="16.3208205" lon="-61.2866148"><ele>40.0</ele><time>2026-03-28T15:49:54.963Z</time></trkpt><trkpt lat="16.3208741" lon="-61.2866526"><ele>40.0</ele><time>2026-03-28T15:50:07.971Z</time></trkpt><trkpt lat="16.3209474" lon="-61.2866498"><ele>40.0</ele><time>2026-03-28T15:50:13.932Z</time></trkpt><trkpt lat="16.321023" lon="-61.286639"><ele>40.0</ele><time>2026-03-28T15:50:15.966Z</time></trkpt><trkpt lat="16.3211014" lon="-61.2866315"><ele>40.0</ele><time>2026-03-28T15:50:17.958Z</time></trkpt><trkpt lat="16.3209743" lon="-61.2866327"><ele>40.0</ele><time>2026-03-28T15:50:19.956Z</time></trkpt><trkpt lat="16.3208673" lon="-61.2866533"><ele>40.0</ele><time>2026-03-28T15:50:21.959Z</time></trkpt><trkpt lat="16.3207984" lon="-61.2866801"><ele>40.0</ele><time>2026-03-28T15:50:24.952Z</time></trkpt><trkpt lat="16.3207233" lon="-61.2866911"><ele>40.0</ele><time>2026-03-28T15:50:30.949Z</time></trkpt><trkpt lat="16.3206489" lon="-61.2867108"><ele>40.0</ele><time>2026-03-28T15:50:35.96Z</time></trkpt><trkpt lat="16.3205801" lon="-61.2867243"><ele>40.0</ele><time>2026-03-28T15:50:41.962Z</time></trkpt><trkpt lat="16.3205058" lon="-61.2867142"><ele>40.0</ele><time>2026-03-28T15:50:45.955Z</time></trkpt><trkpt lat="16.3204408" lon="-61.2867075"><ele>40.0</ele><time>2026-03-28T15:50:48.962Z</time></trkpt><trkpt lat="16.3203729" lon="-61.286724"><ele>40.5</ele><time>2026-03-28T15:50:52.973Z</time></trkpt><trkpt lat="16.3202967" lon="-61.2867348"><ele>41.0</ele><time>2026-03-28T15:50:55.964Z</time></trkpt><trkpt lat="16.32022" lon="-61.2867198"><ele>41.5</ele><time>2026-03-28T15:50:58.955Z</time></trkpt><trkpt lat="16.3201293" lon="-61.2867067"><ele>42.0</ele><time>2026-03-28T15:51:01.957Z</time></trkpt><trkpt lat="16.3200096" lon="-61.286702"><ele>42.5</ele><time>2026-03-28T15:51:05.955Z</time></trkpt><trkpt lat="16.3199369" lon="-61.2866976"><ele>43.0</ele><time>2026-03-28T15:51:07.967Z</time></trkpt><trkpt lat="16.3198318" lon="-61.2866652"><ele>43.16666666666667</ele><time>2026-03-28T15:51:09.96Z</time></trkpt><trkpt lat="16.3197242" lon="-61.2866556"><ele>43.333333333333336</ele><time>2026-03-28T15:51:11.972Z</time></trkpt><trkpt lat="16.3196052" lon="-61.2866858"><ele>43.5</ele><time>2026-03-28T15:51:13.964Z</time></trkpt><trkpt lat="16.3195459" lon="-61.28671"><ele>43.666666666666664</ele><time>2026-03-28T15:51:14.971Z</time></trkpt><trkpt lat="16.3194688" lon="-61.2867144"><ele>43.83333333333333</ele><time>2026-03-28T15:51:16.966Z</time></trkpt><trkpt lat="16.3194049" lon="-61.2867023"><ele>44.0</ele><time>2026-03-28T15:51:18.966Z</time></trkpt><trkpt lat="16.3193242" lon="-61.2866945"><ele>44.0</ele><time>2026-03-28T15:51:20.953Z</time></trkpt><trkpt lat="16.3192418" lon="-61.2866963"><ele>44.0</ele><time>2026-03-28T15:51:22.969Z</time></trkpt><trkpt lat="16.319168" lon="-61.2866942"><ele>44.0</ele><time>2026-03-28T15:51:24.968Z</time></trkpt><trkpt lat="16.3190906" lon="-61.2866959"><ele>44.0</ele><time>2026-03-28T15:51:27.96Z</time></trkpt><trkpt lat="16.3189609" lon="-61.2867214"><ele>44.0</ele><time>2026-03-28T15:51:29.949Z</time></trkpt><trkpt lat="16.3188681" lon="-61.286723"><ele>44.2</ele><time>2026-03-28T15:51:30.967Z</time></trkpt><trkpt lat="16.3187694" lon="-61.2867214"><ele>44.400000000000006</ele><time>2026-03-28T15:51:31.969Z</time></trkpt><trkpt lat="16.3186657" lon="-61.2867278"><ele>44.6</ele><time>2026-03-28T15:51:32.966Z</time></trkpt><trkpt lat="16.318571" lon="-61.286731"><ele>44.8</ele><time>2026-03-28T15:51:33.954Z</time></trkpt><trkpt lat="16.3184798" lon="-61.2867299"><ele>45.0</ele><time>2026-03-28T15:51:35.062Z</time></trkpt><trkpt lat="16.3183846" lon="-61.2867288"><ele>45.0</ele><time>2026-03-28T15:51:35.964Z</time></trkpt><trkpt lat="16.3182957" lon="-61.2867347"><ele>45.0</ele><time>2026-03-28T15:51:36.973Z</time></trkpt><trkpt lat="16.3182118" lon="-61.286738"><ele>45.0</ele><time>2026-03-28T15:51:37.956Z</time></trkpt><trkpt lat="16.3181201" lon="-61.2867405"><ele>45.0</ele><time>2026-03-28T15:51:38.973Z</time></trkpt><trkpt lat="16.3180403" lon="-61.2867362"><ele>45.0</ele><time>2026-03-28T15:51:39.957Z</time></trkpt><trkpt lat="16.3179353" lon="-61.2867393"><ele>45.0</ele><time>2026-03-28T15:51:41.968Z</time></trkpt><trkpt lat="16.3178725" lon="-61.2867176"><ele>45.0</ele><time>2026-03-28T15:55:12.942Z</time></trkpt><trkpt lat="16.3178072" lon="-61.2866533"><ele>45.0</ele><time>2026-03-28T15:55:15.969Z</time></trkpt><trkpt lat="16.3177731" lon="-61.2865526"><ele>45.0</ele><time>2026-03-28T15:55:17.966Z</time></trkpt><trkpt lat="16.3177446" lon="-61.2864238"><ele>45.0</ele><time>2026-03-28T15:55:19.974Z</time></trkpt><trkpt lat="16.3177242" lon="-61.2862946"><ele>45.166666666666664</ele><time>2026-03-28T15:55:21.977Z</time></trkpt><trkpt lat="16.3177069" lon="-61.2862227"><ele>45.333333333333336</ele><time>2026-03-28T15:55:22.977Z</time></trkpt><trkpt lat="16.3176895" lon="-61.2861435"><ele>45.5</ele><time>2026-03-28T15:55:24.032Z</time></trkpt><trkpt lat="16.3176698" lon="-61.2860615"><ele>45.66666666666667</ele><time>2026-03-28T15:55:25.039Z</time></trkpt><trkpt lat="16.317652" lon="-61.2859783"><ele>45.833333333333336</ele><time>2026-03-28T15:55:25.982Z</time></trkpt><trkpt lat="16.3176351" lon="-61.2858853"><ele>46.0</ele><time>2026-03-28T15:55:26.994Z</time></trkpt><trkpt lat="16.317621" lon="-61.2857929"><ele>46.0</ele><time>2026-03-28T15:55:27.997Z</time></trkpt><trkpt lat="16.317607" lon="-61.2857029"><ele>46.0</ele><time>2026-03-28T15:55:28.974Z</time></trkpt><trkpt lat="16.3175921" lon="-61.2856192"><ele>46.0</ele><time>2026-03-28T15:55:29.996Z</time></trkpt><trkpt lat="16.317577" lon="-61.2855286"><ele>46.0</ele><time>2026-03-28T15:55:30.995Z</time></trkpt><trkpt lat="16.3175692" lon="-61.2854339"><ele>46.0</ele><time>2026-03-28T15:55:31.972Z</time></trkpt><trkpt lat="16.3175597" lon="-61.285344"><ele>46.0</ele><time>2026-03-28T15:55:32.987Z</time></trkpt><trkpt lat="16.3175428" lon="-61.28525"><ele>46.0</ele><time>2026-03-28T15:55:33.985Z</time></trkpt><trkpt lat="16.317512" lon="-61.2851523"><ele>46.0</ele><time>2026-03-28T15:55:35.002Z</time></trkpt><trkpt lat="16.317473" lon="-61.2850621"><ele>46.0</ele><time>2026-03-28T15:55:35.969Z</time></trkpt><trkpt lat="16.3174187" lon="-61.284983"><ele>46.0</ele><time>2026-03-28T15:55:36.982Z</time></trkpt><trkpt lat="16.3173444" lon="-61.2849202"><ele>46.0</ele><time>2026-03-28T15:55:37.989Z</time></trkpt><trkpt lat="16.3172658" lon="-61.2848591"><ele>45.8</ele><time>2026-03-28T15:55:38.992Z</time></trkpt><trkpt lat="16.3171866" lon="-61.2848009"><ele>45.599999999999994</ele><time>2026-03-28T15:55:39.996Z</time></trkpt><trkpt lat="16.3171014" lon="-61.2847389"><ele>45.4</ele><time>2026-03-28T15:55:40.981Z</time></trkpt><trkpt lat="16.3170083" lon="-61.2846715"><ele>45.2</ele><time>2026-03-28T15:55:41.984Z</time></trkpt><trkpt lat="16.3169079" lon="-61.2846001"><ele>45.0</ele><time>2026-03-28T15:55:42.983Z</time></trkpt><trkpt lat="16.3168006" lon="-61.284525"><ele>45.0</ele><time>2026-03-28T15:55:43.989Z</time></trkpt><trkpt lat="16.3166989" lon="-61.2844578"><ele>45.0</ele><time>2026-03-28T15:55:44.991Z</time></trkpt><trkpt lat="16.3166065" lon="-61.2843972"><ele>45.0</ele><time>2026-03-28T15:55:45.992Z</time></trkpt><trkpt lat="16.316516" lon="-61.2843456"><ele>45.0</ele><time>2026-03-28T15:55:46.981Z</time></trkpt><trkpt lat="16.3164273" lon="-61.2842889"><ele>45.0</ele><time>2026-03-28T15:55:48.03Z</time></trkpt><trkpt lat="16.3163404" lon="-61.2842269"><ele>44.4</ele><time>2026-03-28T15:55:49.032Z</time></trkpt><trkpt lat="16.3162594" lon="-61.2841749"><ele>43.8</ele><time>2026-03-28T15:55:50.049Z</time></trkpt><trkpt lat="16.3161744" lon="-61.2841284"><ele>43.2</ele><time>2026-03-28T15:55:50.973Z</time></trkpt><trkpt lat="16.3160948" lon="-61.2840739"><ele>42.6</ele><time>2026-03-28T15:55:52.058Z</time></trkpt><trkpt lat="16.3160201" lon="-61.2840157"><ele>42.0</ele><time>2026-03-28T15:55:53.047Z</time></trkpt><trkpt lat="16.3159451" lon="-61.2839599"><ele>42.6</ele><time>2026-03-28T15:55:54.04Z</time></trkpt><trkpt lat="16.3158706" lon="-61.2839099"><ele>43.2</ele><time>2026-03-28T15:55:55.03Z</time></trkpt><trkpt lat="16.3158034" lon="-61.2838575"><ele>43.8</ele><time>2026-03-28T15:55:55.978Z</time></trkpt><trkpt lat="16.3157277" lon="-61.283805"><ele>44.4</ele><time>2026-03-28T15:55:56.985Z</time></trkpt><trkpt lat="16.3156567" lon="-61.2837376"><ele>45.0</ele><time>2026-03-28T15:55:57.986Z</time></trkpt><trkpt lat="16.3156039" lon="-61.2836582"><ele>43.666666666666664</ele><time>2026-03-28T15:55:59.066Z</time></trkpt><trkpt lat="16.3155699" lon="-61.2835758"><ele>42.333333333333336</ele><time>2026-03-28T15:55:59.97Z</time></trkpt><trkpt lat="16.3155615" lon="-61.2834881"><ele>41.0</ele><time>2026-03-28T15:56:00.98Z</time></trkpt><trkpt lat="16.3155474" lon="-61.2834017"><ele>39.66666666666667</ele><time>2026-03-28T15:56:01.941Z</time></trkpt><trkpt lat="16.3155319" lon="-61.2833143"><ele>38.333333333333336</ele><time>2026-03-28T15:56:02.973Z</time></trkpt><trkpt lat="16.3155219" lon="-61.2832312"><ele>37.0</ele><time>2026-03-28T15:56:03.972Z</time></trkpt><trkpt lat="16.3155031" lon="-61.2831337"><ele>37.0</ele><time>2026-03-28T15:56:05.016Z</time></trkpt><trkpt lat="16.3154821" lon="-61.2830357"><ele>37.0</ele><time>2026-03-28T15:56:05.97Z</time></trkpt><trkpt lat="16.3154608" lon="-61.2829359"><ele>37.0</ele><time>2026-03-28T15:56:06.969Z</time></trkpt><trkpt lat="16.3154387" lon="-61.2828346"><ele>37.0</ele><time>2026-03-28T15:56:07.971Z</time></trkpt><trkpt lat="16.3154218" lon="-61.2827322"><ele>37.0</ele><time>2026-03-28T15:56:08.977Z</time></trkpt><trkpt lat="16.3154107" lon="-61.2826288"><ele>37.0</ele><time>2026-03-28T15:56:09.966Z</time></trkpt><trkpt lat="16.3154009" lon="-61.2825359"><ele>37.0</ele><time>2026-03-28T15:56:10.985Z</time></trkpt><trkpt lat="16.3153894" lon="-61.2824418"><ele>37.0</ele><time>2026-03-28T15:56:11.985Z</time></trkpt><trkpt lat="16.3153758" lon="-61.2823476"><ele>37.0</ele><time>2026-03-28T15:56:12.967Z</time></trkpt><trkpt lat="16.315361" lon="-61.2822525"><ele>37.0</ele><time>2026-03-28T15:56:14.054Z</time></trkpt><trkpt lat="16.315338" lon="-61.2821519"><ele>37.2</ele><time>2026-03-28T15:56:15.044Z</time></trkpt><trkpt lat="16.3153256" lon="-61.282054"><ele>37.400000000000006</ele><time>2026-03-28T15:56:15.972Z</time></trkpt><trkpt lat="16.3153071" lon="-61.2819541"><ele>37.599999999999994</ele><time>2026-03-28T15:56:16.967Z</time></trkpt><trkpt lat="16.3152842" lon="-61.2818586"><ele>37.8</ele><time>2026-03-28T15:56:17.977Z</time></trkpt><trkpt lat="16.3152584" lon="-61.2817561"><ele>38.0</ele><time>2026-03-28T15:56:18.97Z</time></trkpt><trkpt lat="16.3152321" lon="-61.2816544"><ele>38.0</ele><time>2026-03-28T15:56:19.97Z</time></trkpt><trkpt lat="16.315207" lon="-61.2815525"><ele>38.0</ele><time>2026-03-28T15:56:20.972Z</time></trkpt><trkpt lat="16.3151804" lon="-61.2814487"><ele>38.0</ele><time>2026-03-28T15:56:21.977Z</time></trkpt><trkpt lat="16.315159" lon="-61.2813451"><ele>38.0</ele><time>2026-03-28T15:56:23.053Z</time></trkpt><trkpt lat="16.3151413" lon="-61.2812423"><ele>38.0</ele><time>2026-03-28T15:56:24.036Z</time></trkpt><trkpt lat="16.3151247" lon="-61.2811405"><ele>38.199999999999996</ele><time>2026-03-28T15:56:25.044Z</time></trkpt><trkpt lat="16.3151102" lon="-61.2810443"><ele>38.4</ele><time>2026-03-28T15:56:25.971Z</time></trkpt><trkpt lat="16.3150896" lon="-61.2809408"><ele>38.599999999999994</ele><time>2026-03-28T15:56:27.043Z</time></trkpt><trkpt lat="16.3150661" lon="-61.280836"><ele>38.8</ele><time>2026-03-28T15:56:28.044Z</time></trkpt><trkpt lat="16.3150432" lon="-61.280736"><ele>39.0</ele><time>2026-03-28T15:56:29.065Z</time></trkpt><trkpt lat="16.3150159" lon="-61.2806354"><ele>39.6</ele><time>2026-03-28T15:56:30.059Z</time></trkpt><trkpt lat="16.3149963" lon="-61.2805378"><ele>40.2</ele><time>2026-03-28T15:56:30.982Z</time></trkpt><trkpt lat="16.3149784" lon="-61.2804343"><ele>40.800000000000004</ele><time>2026-03-28T15:56:31.978Z</time></trkpt><trkpt lat="16.3149618" lon="-61.2803305"><ele>41.4</ele><time>2026-03-28T15:56:32.973Z</time></trkpt><trkpt lat="16.3149463" lon="-61.2802265"><ele>42.0</ele><time>2026-03-28T15:56:34.068Z</time></trkpt><trkpt lat="16.314925" lon="-61.280124"><ele>42.0</ele><time>2026-03-28T15:56:34.978Z</time></trkpt><trkpt lat="16.3149119" lon="-61.2800264"><ele>42.0</ele><time>2026-03-28T15:56:35.98Z</time></trkpt><trkpt lat="16.314893" lon="-61.2799341"><ele>42.0</ele><time>2026-03-28T15:56:36.975Z</time></trkpt><trkpt lat="16.3148752" lon="-61.279839"><ele>42.0</ele><time>2026-03-28T15:56:38.056Z</time></trkpt><trkpt lat="16.3148589" lon="-61.2797476"><ele>42.0</ele><time>2026-03-28T15:56:39.041Z</time></trkpt><trkpt lat="16.3148393" lon="-61.2796538"><ele>42.400000000000006</ele><time>2026-03-28T15:56:39.968Z</time></trkpt><trkpt lat="16.3148169" lon="-61.2795567"><ele>42.800000000000004</ele><time>2026-03-28T15:56:40.969Z</time></trkpt><trkpt lat="16.314795" lon="-61.2794591"><ele>43.2</ele><time>2026-03-28T15:56:41.976Z</time></trkpt><trkpt lat="16.3147778" lon="-61.2793639"><ele>43.6</ele><time>2026-03-28T15:56:43.075Z</time></trkpt><trkpt lat="16.3147595" lon="-61.2792691"><ele>44.0</ele><time>2026-03-28T15:56:43.987Z</time></trkpt><trkpt lat="16.314741" lon="-61.2791778"><ele>43.0</ele><time>2026-03-28T15:56:45.056Z</time></trkpt><trkpt lat="16.3147185" lon="-61.2790974"><ele>42.0</ele><time>2026-03-28T15:56:45.965Z</time></trkpt><trkpt lat="16.3146962" lon="-61.2790249"><ele>41.0</ele><time>2026-03-28T15:56:46.983Z</time></trkpt><trkpt lat="16.3146778" lon="-61.2789557"><ele>40.0</ele><time>2026-03-28T15:56:47.978Z</time></trkpt><trkpt lat="16.3146611" lon="-61.278887"><ele>39.0</ele><time>2026-03-28T15:56:48.986Z</time></trkpt><trkpt lat="16.3146298" lon="-61.2787855"><ele>38.0</ele><time>2026-03-28T15:56:50.98Z</time></trkpt><trkpt lat="16.3145997" lon="-61.2787122"><ele>38.0</ele><time>2026-03-28T15:56:52.987Z</time></trkpt><trkpt lat="16.3146" lon="-61.2786374"><ele>38.0</ele><time>2026-03-28T15:56:58.974Z</time></trkpt><trkpt lat="16.3146882" lon="-61.2786144"><ele>38.0</ele><time>2026-03-28T15:57:01.974Z</time></trkpt><trkpt lat="16.3147751" lon="-61.2785623"><ele>38.0</ele><time>2026-03-28T15:57:03.977Z</time></trkpt><trkpt lat="16.3148179" lon="-61.2784869"><ele>38.0</ele><time>2026-03-28T15:57:05.977Z</time></trkpt><trkpt lat="16.3148608" lon="-61.278404"><ele>38.0</ele><time>2026-03-28T15:57:07.969Z</time></trkpt><trkpt lat="16.3148979" lon="-61.2783091"><ele>39.2</ele><time>2026-03-28T15:57:09.984Z</time></trkpt><trkpt lat="16.3149411" lon="-61.2782039"><ele>40.4</ele><time>2026-03-28T15:57:11.973Z</time></trkpt><trkpt lat="16.3149727" lon="-61.2780996"><ele>41.6</ele><time>2026-03-28T15:57:13.978Z</time></trkpt><trkpt lat="16.314976" lon="-61.278034"><ele>42.800000000000004</ele><time>2026-03-28T15:57:14.97Z</time></trkpt><trkpt lat="16.3149868" lon="-61.2779399"><ele>44.0</ele><time>2026-03-28T15:57:16.974Z</time></trkpt><trkpt lat="16.3150108" lon="-61.2778389"><ele>44.0</ele><time>2026-03-28T15:57:18.976Z</time></trkpt><trkpt lat="16.3150044" lon="-61.2777313"><ele>44.0</ele><time>2026-03-28T15:57:20.957Z</time></trkpt><trkpt lat="16.3150208" lon="-61.2776158"><ele>44.0</ele><time>2026-03-28T15:57:22.966Z</time></trkpt><trkpt lat="16.3150467" lon="-61.2775186"><ele>44.0</ele><time>2026-03-28T15:57:24.98Z</time></trkpt><trkpt lat="16.3150788" lon="-61.2774423"><ele>44.0</ele><time>2026-03-28T15:57:26.977Z</time></trkpt><trkpt lat="16.3150871" lon="-61.2773758"><ele>44.0</ele><time>2026-03-28T15:57:31.979Z</time></trkpt><trkpt lat="16.3150555" lon="-61.2773167"><ele>44.0</ele><time>2026-03-28T15:57:36.964Z</time></trkpt><trkpt lat="16.3149921" lon="-61.2772758"><ele>44.0</ele><time>2026-03-28T15:57:39.977Z</time></trkpt><trkpt lat="16.3149224" lon="-61.2772654"><ele>44.0</ele><time>2026-03-28T15:57:41.979Z</time></trkpt><trkpt lat="16.3148481" lon="-61.2772903"><ele>44.0</ele><time>2026-03-28T15:57:43.962Z</time></trkpt><trkpt lat="16.3147889" lon="-61.2773198"><ele>44.0</ele><time>2026-03-28T15:57:45.975Z</time></trkpt><trkpt lat="16.314723" lon="-61.27734"><ele>44.0</ele><time>2026-03-28T15:57:47.975Z</time></trkpt><trkpt lat="16.3146411" lon="-61.2773708"><ele>43.285714285714285</ele><time>2026-03-28T15:57:50.97Z</time></trkpt><trkpt lat="16.3145809" lon="-61.2773967"><ele>42.57142857142857</ele><time>2026-03-28T15:57:52.965Z</time></trkpt><trkpt lat="16.3145011" lon="-61.2774095"><ele>41.85714285714286</ele><time>2026-03-28T15:57:56.966Z</time></trkpt><trkpt lat="16.3144116" lon="-61.2774551"><ele>41.14285714285714</ele><time>2026-03-28T15:57:59.975Z</time></trkpt><trkpt lat="16.3143489" lon="-61.2774863"><ele>40.42857142857142</ele><time>2026-03-28T15:58:12.963Z</time></trkpt><trkpt lat="16.3142808" lon="-61.2774714"><ele>39.714285714285715</ele><time>2026-03-28T15:58:18.041Z</time></trkpt><trkpt lat="16.3142195" lon="-61.2774868"><ele>39.0</ele><time>2026-03-28T15:58:39.974Z</time></trkpt><trkpt lat="16.3141652" lon="-61.2775301"><ele>39.0</ele><time>2026-03-28T15:59:07.957Z</time></trkpt><trkpt lat="16.3140909" lon="-61.2775829"><ele>39.0</ele><time>2026-03-28T15:59:12.961Z</time></trkpt><trkpt lat="16.3140191" lon="-61.2776358"><ele>39.0</ele><time>2026-03-28T15:59:14.96Z</time></trkpt><trkpt lat="16.3139402" lon="-61.2777274"><ele>39.0</ele><time>2026-03-28T15:59:16.966Z</time></trkpt><trkpt lat="16.3138851" lon="-61.2778009"><ele>39.0</ele><time>2026-03-28T15:59:18.977Z</time></trkpt><trkpt lat="16.3138237" lon="-61.2778649"><ele>37.333333333333336</ele><time>2026-03-28T15:59:20.959Z</time></trkpt><trkpt lat="16.3137582" lon="-61.2779095"><ele>35.666666666666664</ele><time>2026-03-28T15:59:22.972Z</time></trkpt><trkpt lat="16.3136795" lon="-61.2779741"><ele>34.0</ele><time>2026-03-28T15:59:25.971Z</time></trkpt><trkpt lat="16.3136327" lon="-61.2780544"><ele>32.33333333333333</ele><time>2026-03-28T15:59:27.965Z</time></trkpt><trkpt lat="16.3135995" lon="-61.2781361"><ele>30.666666666666664</ele><time>2026-03-28T15:59:29.941Z</time></trkpt><trkpt lat="16.313556" lon="-61.2781938"><ele>29.0</ele><time>2026-03-28T15:59:31.944Z</time></trkpt><trkpt lat="16.3134973" lon="-61.2782199"><ele>29.0</ele><time>2026-03-28T15:59:34.954Z</time></trkpt><trkpt lat="16.3134547" lon="-61.2781342"><ele>29.0</ele><time>2026-03-28T15:59:36.968Z</time></trkpt><trkpt lat="16.3133694" lon="-61.2780786"><ele>29.0</ele><time>2026-03-28T15:59:38.977Z</time></trkpt><trkpt lat="16.3133052" lon="-61.2780635"><ele>29.0</ele><time>2026-03-28T15:59:39.965Z</time></trkpt><trkpt lat="16.3131993" lon="-61.2780905"><ele>29.0</ele><time>2026-03-28T15:59:41.981Z</time></trkpt><trkpt lat="16.3131056" lon="-61.2781155"><ele>29.499999999999996</ele><time>2026-03-28T15:59:43.985Z</time></trkpt><trkpt lat="16.3130262" lon="-61.2781472"><ele>30.0</ele><time>2026-03-28T15:59:45.976Z</time></trkpt><trkpt lat="16.3129447" lon="-61.278177"><ele>30.5</ele><time>2026-03-28T15:59:47.97Z</time></trkpt><trkpt lat="16.3128748" lon="-61.2782202"><ele>31.0</ele><time>2026-03-28T15:59:49.967Z</time></trkpt><trkpt lat="16.3128139" lon="-61.2782871"><ele>31.499999999999996</ele><time>2026-03-28T15:59:51.972Z</time></trkpt><trkpt lat="16.3127579" lon="-61.2783714"><ele>32.0</ele><time>2026-03-28T15:59:53.979Z</time></trkpt><trkpt lat="16.3127064" lon="-61.2784551"><ele>31.999999999999996</ele><time>2026-03-28T15:59:55.974Z</time></trkpt><trkpt lat="16.3126964" lon="-61.2785433"><ele>32.0</ele><time>2026-03-28T15:59:57.984Z</time></trkpt><trkpt lat="16.3126858" lon="-61.2786348"><ele>32.0</ele><time>2026-03-28T15:59:59.976Z</time></trkpt><trkpt lat="16.3126344" lon="-61.2786755"><ele>32.0</ele><time>2026-03-28T16:00:01.977Z</time></trkpt><trkpt lat="16.3125555" lon="-61.2786828"><ele>31.999999999999996</ele><time>2026-03-28T16:00:03.986Z</time></trkpt><trkpt lat="16.3124608" lon="-61.2785971"><ele>32.0</ele><time>2026-03-28T16:00:05.966Z</time></trkpt><trkpt lat="16.3124204" lon="-61.2785334"><ele>31.999999999999996</ele><time>2026-03-28T16:00:06.975Z</time></trkpt><trkpt lat="16.3123682" lon="-61.2784642"><ele>32.0</ele><time>2026-03-28T16:00:07.98Z</time></trkpt><trkpt lat="16.3123015" lon="-61.2784094"><ele>32.0</ele><time>2026-03-28T16:00:08.954Z</time></trkpt><trkpt lat="16.312236" lon="-61.27836"><ele>32.0</ele><time>2026-03-28T16:00:09.979Z</time></trkpt><trkpt lat="16.3121681" lon="-61.2783163"><ele>31.999999999999996</ele><time>2026-03-28T16:00:10.971Z</time></trkpt><trkpt lat="16.3121048" lon="-61.2782838"><ele>32.0</ele><time>2026-03-28T16:00:11.976Z</time></trkpt><trkpt lat="16.31204" lon="-61.2782763"><ele>33.0</ele><time>2026-03-28T16:00:12.966Z</time></trkpt><trkpt lat="16.3119737" lon="-61.2782818"><ele>34.0</ele><time>2026-03-28T16:00:13.961Z</time></trkpt><trkpt lat="16.3119019" lon="-61.2782988"><ele>35.0</ele><time>2026-03-28T16:00:14.969Z</time></trkpt><trkpt lat="16.3118189" lon="-61.2783418"><ele>36.0</ele><time>2026-03-28T16:00:15.964Z</time></trkpt><trkpt lat="16.3117047" lon="-61.2783811"><ele>37.0</ele><time>2026-03-28T16:00:16.969Z</time></trkpt><trkpt lat="16.3115775" lon="-61.2784273"><ele>37.0</ele><time>2026-03-28T16:00:17.962Z</time></trkpt><trkpt lat="16.3114348" lon="-61.2784813"><ele>37.0</ele><time>2026-03-28T16:00:18.976Z</time></trkpt><trkpt lat="16.3112894" lon="-61.2785433"><ele>37.0</ele><time>2026-03-28T16:00:19.967Z</time></trkpt><trkpt lat="16.311158" lon="-61.2786021"><ele>38.0</ele><time>2026-03-28T16:00:20.967Z</time></trkpt><trkpt lat="16.311041" lon="-61.2786587"><ele>39.0</ele><time>2026-03-28T16:00:21.966Z</time></trkpt><trkpt lat="16.3109259" lon="-61.2787095"><ele>40.0</ele><time>2026-03-28T16:00:22.974Z</time></trkpt><trkpt lat="16.3108191" lon="-61.2787607"><ele>41.0</ele><time>2026-03-28T16:00:23.981Z</time></trkpt><trkpt lat="16.3107274" lon="-61.2788023"><ele>41.0</ele><time>2026-03-28T16:00:24.973Z</time></trkpt><trkpt lat="16.3106482" lon="-61.2788405"><ele>41.0</ele><time>2026-03-28T16:00:25.971Z</time></trkpt><trkpt lat="16.3105761" lon="-61.2788714"><ele>41.0</ele><time>2026-03-28T16:00:26.968Z</time></trkpt><trkpt lat="16.3105108" lon="-61.2789042"><ele>41.0</ele><time>2026-03-28T16:00:27.978Z</time></trkpt><trkpt lat="16.3104514" lon="-61.2789334"><ele>41.0</ele><time>2026-03-28T16:00:28.981Z</time></trkpt><trkpt lat="16.3103548" lon="-61.278971"><ele>41.0</ele><time>2026-03-28T16:00:30.978Z</time></trkpt><trkpt lat="16.3102628" lon="-61.2790204"><ele>41.199999999999996</ele><time>2026-03-28T16:00:32.966Z</time></trkpt><trkpt lat="16.3101721" lon="-61.2790407"><ele>41.4</ele><time>2026-03-28T16:00:34.974Z</time></trkpt><trkpt lat="16.310078" lon="-61.2790538"><ele>41.6</ele><time>2026-03-28T16:00:36.976Z</time></trkpt><trkpt lat="16.3099938" lon="-61.279055"><ele>41.8</ele><time>2026-03-28T16:00:38.976Z</time></trkpt><trkpt lat="16.3099091" lon="-61.2790349"><ele>42.0</ele><time>2026-03-28T16:00:40.973Z</time></trkpt><trkpt lat="16.3098022" lon="-61.2790141"><ele>42.400000000000006</ele><time>2026-03-28T16:00:42.988Z</time></trkpt><trkpt lat="16.3097414" lon="-61.2789947"><ele>42.800000000000004</ele><time>2026-03-28T16:00:43.976Z</time></trkpt><trkpt lat="16.3096337" lon="-61.2789604"><ele>43.2</ele><time>2026-03-28T16:00:45.967Z</time></trkpt><trkpt lat="16.3095093" lon="-61.2789293"><ele>43.6</ele><time>2026-03-28T16:00:47.962Z</time></trkpt><trkpt lat="16.309427" lon="-61.2789001"><ele>44.0</ele><time>2026-03-28T16:00:48.976Z</time></trkpt><trkpt lat="16.309346" lon="-61.2788759"><ele>44.166666666666664</ele><time>2026-03-28T16:00:49.963Z</time></trkpt><trkpt lat="16.3092633" lon="-61.2788446"><ele>44.33333333333333</ele><time>2026-03-28T16:00:50.979Z</time></trkpt><trkpt lat="16.3091764" lon="-61.2788105"><ele>44.5</ele><time>2026-03-28T16:00:51.974Z</time></trkpt><trkpt lat="16.3090938" lon="-61.2787724"><ele>44.666666666666664</ele><time>2026-03-28T16:00:52.978Z</time></trkpt><trkpt lat="16.3090164" lon="-61.2787293"><ele>44.833333333333336</ele><time>2026-03-28T16:00:53.973Z</time></trkpt><trkpt lat="16.3089403" lon="-61.2786936"><ele>45.0</ele><time>2026-03-28T16:00:54.976Z</time></trkpt><trkpt lat="16.3088608" lon="-61.2786755"><ele>45.166666666666664</ele><time>2026-03-28T16:00:55.983Z</time></trkpt><trkpt lat="16.3087912" lon="-61.278674"><ele>45.333333333333336</ele><time>2026-03-28T16:00:56.974Z</time></trkpt><trkpt lat="16.3087204" lon="-61.2786795"><ele>45.5</ele><time>2026-03-28T16:00:57.981Z</time></trkpt><trkpt lat="16.3086305" lon="-61.2786924"><ele>45.66666666666667</ele><time>2026-03-28T16:00:58.975Z</time></trkpt><trkpt lat="16.3085475" lon="-61.2787133"><ele>45.833333333333336</ele><time>2026-03-28T16:00:59.981Z</time></trkpt><trkpt lat="16.3084644" lon="-61.2787389"><ele>46.0</ele><time>2026-03-28T16:01:00.986Z</time></trkpt><trkpt lat="16.3083752" lon="-61.2787632"><ele>46.0</ele><time>2026-03-28T16:01:01.975Z</time></trkpt><trkpt lat="16.3082782" lon="-61.2787931"><ele>46.0</ele><time>2026-03-28T16:01:02.978Z</time></trkpt><trkpt lat="16.3081788" lon="-61.2788195"><ele>46.0</ele><time>2026-03-28T16:01:03.983Z</time></trkpt><trkpt lat="16.3080794" lon="-61.2788429"><ele>46.0</ele><time>2026-03-28T16:01:04.972Z</time></trkpt><trkpt lat="16.3079734" lon="-61.2788686"><ele>46.0</ele><time>2026-03-28T16:01:05.969Z</time></trkpt><trkpt lat="16.3078658" lon="-61.2788931"><ele>45.8</ele><time>2026-03-28T16:01:06.966Z</time></trkpt><trkpt lat="16.3077627" lon="-61.2789162"><ele>45.599999999999994</ele><time>2026-03-28T16:01:07.961Z</time></trkpt><trkpt lat="16.3076711" lon="-61.2789399"><ele>45.4</ele><time>2026-03-28T16:01:08.951Z</time></trkpt><trkpt lat="16.3075865" lon="-61.2789604"><ele>45.2</ele><time>2026-03-28T16:01:09.956Z</time></trkpt><trkpt lat="16.3074958" lon="-61.2789734"><ele>45.0</ele><time>2026-03-28T16:01:10.955Z</time></trkpt><trkpt lat="16.3074049" lon="-61.2789891"><ele>45.2</ele><time>2026-03-28T16:01:11.963Z</time></trkpt><trkpt lat="16.3073098" lon="-61.278998"><ele>45.4</ele><time>2026-03-28T16:01:12.972Z</time></trkpt><trkpt lat="16.3072188" lon="-61.2790096"><ele>45.599999999999994</ele><time>2026-03-28T16:01:13.975Z</time></trkpt><trkpt lat="16.307123" lon="-61.279021"><ele>45.8</ele><time>2026-03-28T16:01:14.97Z</time></trkpt><trkpt lat="16.3070275" lon="-61.2790355"><ele>46.0</ele><time>2026-03-28T16:01:15.971Z</time></trkpt><trkpt lat="16.3069323" lon="-61.2790427"><ele>46.0</ele><time>2026-03-28T16:01:16.974Z</time></trkpt><trkpt lat="16.3068371" lon="-61.279052"><ele>46.0</ele><time>2026-03-28T16:01:17.97Z</time></trkpt><trkpt lat="16.3067457" lon="-61.2790572"><ele>46.0</ele><time>2026-03-28T16:01:18.97Z</time></trkpt><trkpt lat="16.3066444" lon="-61.2790616"><ele>46.0</ele><time>2026-03-28T16:01:19.967Z</time></trkpt><trkpt lat="16.3065402" lon="-61.2790694"><ele>46.0</ele><time>2026-03-28T16:01:20.979Z</time></trkpt><trkpt lat="16.306441" lon="-61.2790702"><ele>46.199999999999996</ele><time>2026-03-28T16:01:21.979Z</time></trkpt><trkpt lat="16.3063504" lon="-61.2790739"><ele>46.4</ele><time>2026-03-28T16:01:22.971Z</time></trkpt><trkpt lat="16.3062661" lon="-61.2790801"><ele>46.6</ele><time>2026-03-28T16:01:23.975Z</time></trkpt><trkpt lat="16.3061713" lon="-61.2790828"><ele>46.8</ele><time>2026-03-28T16:01:24.977Z</time></trkpt><trkpt lat="16.3060726" lon="-61.2790854"><ele>47.0</ele><time>2026-03-28T16:01:25.981Z</time></trkpt><trkpt lat="16.3059768" lon="-61.2791001"><ele>47.0</ele><time>2026-03-28T16:01:26.978Z</time></trkpt><trkpt lat="16.3058707" lon="-61.2791105"><ele>47.0</ele><time>2026-03-28T16:01:27.966Z</time></trkpt><trkpt lat="16.3057574" lon="-61.279121"><ele>47.0</ele><time>2026-03-28T16:01:28.978Z</time></trkpt><trkpt lat="16.3056445" lon="-61.2791364"><ele>47.0</ele><time>2026-03-28T16:01:29.983Z</time></trkpt><trkpt lat="16.3055352" lon="-61.2791485"><ele>47.0</ele><time>2026-03-28T16:01:30.938Z</time></trkpt><trkpt lat="16.305426" lon="-61.2791631"><ele>46.5</ele><time>2026-03-28T16:01:31.967Z</time></trkpt><trkpt lat="16.3053167" lon="-61.2791843"><ele>46.0</ele><time>2026-03-28T16:01:32.977Z</time></trkpt><trkpt lat="16.3052058" lon="-61.2792148"><ele>45.5</ele><time>2026-03-28T16:01:33.963Z</time></trkpt><trkpt lat="16.305097" lon="-61.2792434"><ele>45.0</ele><time>2026-03-28T16:01:34.956Z</time></trkpt><trkpt lat="16.3049732" lon="-61.2792785"><ele>45.0</ele><time>2026-03-28T16:01:35.957Z</time></trkpt><trkpt lat="16.3048549" lon="-61.2793108"><ele>45.0</ele><time>2026-03-28T16:01:36.98Z</time></trkpt><trkpt lat="16.3047376" lon="-61.2793488"><ele>45.0</ele><time>2026-03-28T16:01:37.978Z</time></trkpt><trkpt lat="16.3046303" lon="-61.279384"><ele>45.0</ele><time>2026-03-28T16:01:38.976Z</time></trkpt><trkpt lat="16.3045205" lon="-61.2794249"><ele>46.25</ele><time>2026-03-28T16:01:39.976Z</time></trkpt><trkpt lat="16.3044066" lon="-61.2794661"><ele>47.5</ele><time>2026-03-28T16:01:40.977Z</time></trkpt><trkpt lat="16.3042936" lon="-61.2795016"><ele>48.75</ele><time>2026-03-28T16:01:41.979Z</time></trkpt><trkpt lat="16.3041802" lon="-61.279536"><ele>50.0</ele><time>2026-03-28T16:01:42.98Z</time></trkpt><trkpt lat="16.3040724" lon="-61.2795672"><ele>50.0</ele><time>2026-03-28T16:01:43.975Z</time></trkpt><trkpt lat="16.3039647" lon="-61.2796002"><ele>50.0</ele><time>2026-03-28T16:01:44.976Z</time></trkpt><trkpt lat="16.3038691" lon="-61.2796338"><ele>50.0</ele><time>2026-03-28T16:01:45.979Z</time></trkpt><trkpt lat="16.3037807" lon="-61.2796612"><ele>50.0</ele><time>2026-03-28T16:01:46.976Z</time></trkpt><trkpt lat="16.3037086" lon="-61.2796825"><ele>50.0</ele><time>2026-03-28T16:01:47.981Z</time></trkpt><trkpt lat="16.3036406" lon="-61.2797117"><ele>50.0</ele><time>2026-03-28T16:01:48.963Z</time></trkpt><trkpt lat="16.3035651" lon="-61.2797493"><ele>50.0</ele><time>2026-03-28T16:01:49.974Z</time></trkpt><trkpt lat="16.3034813" lon="-61.2797924"><ele>50.0</ele><time>2026-03-28T16:01:50.959Z</time></trkpt><trkpt lat="16.3033933" lon="-61.2798449"><ele>50.0</ele><time>2026-03-28T16:01:51.97Z</time></trkpt><trkpt lat="16.3032951" lon="-61.2798923"><ele>50.0</ele><time>2026-03-28T16:01:52.979Z</time></trkpt><trkpt lat="16.303199" lon="-61.2799347"><ele>50.0</ele><time>2026-03-28T16:01:53.98Z</time></trkpt><trkpt lat="16.3030988" lon="-61.2799876"><ele>50.0</ele><time>2026-03-28T16:01:54.988Z</time></trkpt><trkpt lat="16.3029999" lon="-61.2800578"><ele>50.0</ele><time>2026-03-28T16:01:55.98Z</time></trkpt><trkpt lat="16.3029061" lon="-61.2801207"><ele>50.0</ele><time>2026-03-28T16:01:56.982Z</time></trkpt><trkpt lat="16.3027987" lon="-61.2801828"><ele>49.75</ele><time>2026-03-28T16:01:57.99Z</time></trkpt><trkpt lat="16.3026984" lon="-61.2802429"><ele>49.5</ele><time>2026-03-28T16:01:58.973Z</time></trkpt><trkpt lat="16.3025982" lon="-61.2803026"><ele>49.25</ele><time>2026-03-28T16:01:59.945Z</time></trkpt><trkpt lat="16.3024991" lon="-61.2803664"><ele>49.0</ele><time>2026-03-28T16:02:00.982Z</time></trkpt><trkpt lat="16.3024086" lon="-61.2804305"><ele>48.99999999999999</ele><time>2026-03-28T16:02:01.975Z</time></trkpt><trkpt lat="16.3023222" lon="-61.2804827"><ele>49.0</ele><time>2026-03-28T16:02:02.973Z</time></trkpt><trkpt lat="16.3022412" lon="-61.2805376"><ele>49.0</ele><time>2026-03-28T16:02:03.976Z</time></trkpt><trkpt lat="16.3021703" lon="-61.2805904"><ele>49.0</ele><time>2026-03-28T16:02:04.982Z</time></trkpt><trkpt lat="16.3021106" lon="-61.2806399"><ele>48.99999999999999</ele><time>2026-03-28T16:02:05.948Z</time></trkpt><trkpt lat="16.3020597" lon="-61.2806864"><ele>49.0</ele><time>2026-03-28T16:02:06.947Z</time></trkpt><trkpt lat="16.3019728" lon="-61.2807383"><ele>49.166666666666664</ele><time>2026-03-28T16:02:08.961Z</time></trkpt><trkpt lat="16.3019047" lon="-61.2807326"><ele>49.33333333333333</ele><time>2026-03-28T16:02:12.979Z</time></trkpt><trkpt lat="16.3018026" lon="-61.2806823"><ele>49.5</ele><time>2026-03-28T16:02:15.953Z</time></trkpt><trkpt lat="16.3017689" lon="-61.2806237"><ele>49.66666666666667</ele><time>2026-03-28T16:02:16.961Z</time></trkpt><trkpt lat="16.3017391" lon="-61.280555"><ele>49.833333333333336</ele><time>2026-03-28T16:02:17.947Z</time></trkpt><trkpt lat="16.3017098" lon="-61.2804785"><ele>50.0</ele><time>2026-03-28T16:02:18.955Z</time></trkpt><trkpt lat="16.3016745" lon="-61.2803876"><ele>50.16666666666667</ele><time>2026-03-28T16:02:19.952Z</time></trkpt><trkpt lat="16.3016417" lon="-61.2802985"><ele>50.333333333333336</ele><time>2026-03-28T16:02:20.954Z</time></trkpt><trkpt lat="16.3016041" lon="-61.2802148"><ele>50.5</ele><time>2026-03-28T16:02:21.958Z</time></trkpt><trkpt lat="16.3015684" lon="-61.2801352"><ele>50.66666666666667</ele><time>2026-03-28T16:02:22.969Z</time></trkpt><trkpt lat="16.3015345" lon="-61.2800658"><ele>50.833333333333336</ele><time>2026-03-28T16:02:23.98Z</time></trkpt><trkpt lat="16.301509" lon="-61.2799971"><ele>51.0</ele><time>2026-03-28T16:02:24.976Z</time></trkpt><trkpt lat="16.3014782" lon="-61.2798834"><ele>51.0</ele><time>2026-03-28T16:02:26.982Z</time></trkpt><trkpt lat="16.3014637" lon="-61.2798163"><ele>51.0</ele><time>2026-03-28T16:02:27.986Z</time></trkpt><trkpt lat="16.3014668" lon="-61.2797387"><ele>51.0</ele><time>2026-03-28T16:02:28.988Z</time></trkpt><trkpt lat="16.3014855" lon="-61.279649"><ele>51.0</ele><time>2026-03-28T16:02:29.986Z</time></trkpt><trkpt lat="16.3015186" lon="-61.2795339"><ele>51.0</ele><time>2026-03-28T16:02:30.988Z</time></trkpt><trkpt lat="16.3015472" lon="-61.2794068"><ele>50.75</ele><time>2026-03-28T16:02:32.065Z</time></trkpt><trkpt lat="16.301573" lon="-61.279267"><ele>50.5</ele><time>2026-03-28T16:02:33.062Z</time></trkpt><trkpt lat="16.3015956" lon="-61.2791388"><ele>50.25</ele><time>2026-03-28T16:02:33.978Z</time></trkpt><trkpt lat="16.3016121" lon="-61.2790085"><ele>50.0</ele><time>2026-03-28T16:02:34.973Z</time></trkpt><trkpt lat="16.3016372" lon="-61.2788708"><ele>50.0</ele><time>2026-03-28T16:02:35.97Z</time></trkpt><trkpt lat="16.3016556" lon="-61.2787433"><ele>50.0</ele><time>2026-03-28T16:02:37.041Z</time></trkpt><trkpt lat="16.3016835" lon="-61.278619"><ele>50.0</ele><time>2026-03-28T16:02:38.051Z</time></trkpt><trkpt lat="16.3017108" lon="-61.2784905"><ele>50.0</ele><time>2026-03-28T16:02:38.973Z</time></trkpt><trkpt lat="16.301739" lon="-61.2783631"><ele>50.0</ele><time>2026-03-28T16:02:39.973Z</time></trkpt><trkpt lat="16.3017646" lon="-61.2782341"><ele>50.0</ele><time>2026-03-28T16:02:40.983Z</time></trkpt><trkpt lat="16.3017973" lon="-61.2781053"><ele>50.0</ele><time>2026-03-28T16:02:42.028Z</time></trkpt><trkpt lat="16.3018293" lon="-61.2779849"><ele>50.0</ele><time>2026-03-28T16:02:43.057Z</time></trkpt><trkpt lat="16.3018543" lon="-61.2778623"><ele>50.4</ele><time>2026-03-28T16:02:43.982Z</time></trkpt><trkpt lat="16.3018714" lon="-61.2777459"><ele>50.8</ele><time>2026-03-28T16:02:44.99Z</time></trkpt><trkpt lat="16.3018925" lon="-61.27764"><ele>51.2</ele><time>2026-03-28T16:02:45.971Z</time></trkpt><trkpt lat="16.30191" lon="-61.2775493"><ele>51.6</ele><time>2026-03-28T16:02:47.061Z</time></trkpt><trkpt lat="16.3019282" lon="-61.2774716"><ele>52.0</ele><time>2026-03-28T16:02:48.044Z</time></trkpt><trkpt lat="16.3019497" lon="-61.2773888"><ele>52.0</ele><time>2026-03-28T16:02:48.948Z</time></trkpt><trkpt lat="16.301973" lon="-61.2773"><ele>52.0</ele><time>2026-03-28T16:02:49.98Z</time></trkpt><trkpt lat="16.3019877" lon="-61.2771993"><ele>52.0</ele><time>2026-03-28T16:02:50.98Z</time></trkpt><trkpt lat="16.3020058" lon="-61.2770883"><ele>52.0</ele><time>2026-03-28T16:02:51.97Z</time></trkpt><trkpt lat="16.3020268" lon="-61.2769748"><ele>52.0</ele><time>2026-03-28T16:02:52.964Z</time></trkpt><trkpt lat="16.302054" lon="-61.2768516"><ele>51.5</ele><time>2026-03-28T16:02:53.971Z</time></trkpt><trkpt lat="16.3020807" lon="-61.2767329"><ele>51.0</ele><time>2026-03-28T16:02:54.958Z</time></trkpt><trkpt lat="16.3021056" lon="-61.2766045"><ele>50.5</ele><time>2026-03-28T16:02:55.971Z</time></trkpt><trkpt lat="16.3021231" lon="-61.2764844"><ele>50.0</ele><time>2026-03-28T16:02:56.964Z</time></trkpt><trkpt lat="16.302144" lon="-61.2763701"><ele>50.0</ele><time>2026-03-28T16:02:57.976Z</time></trkpt><trkpt lat="16.3021728" lon="-61.276256"><ele>50.0</ele><time>2026-03-28T16:02:58.963Z</time></trkpt><trkpt lat="16.3022083" lon="-61.2761372"><ele>50.0</ele><time>2026-03-28T16:02:59.972Z</time></trkpt><trkpt lat="16.3022544" lon="-61.2760276"><ele>50.0</ele><time>2026-03-28T16:03:01.042Z</time></trkpt><trkpt lat="16.3023063" lon="-61.2759172"><ele>50.0</ele><time>2026-03-28T16:03:02.039Z</time></trkpt><trkpt lat="16.302364" lon="-61.2758082"><ele>50.0</ele><time>2026-03-28T16:03:03.036Z</time></trkpt><trkpt lat="16.3024236" lon="-61.2757056"><ele>50.0</ele><time>2026-03-28T16:03:03.976Z</time></trkpt><trkpt lat="16.3024864" lon="-61.2756026"><ele>50.0</ele><time>2026-03-28T16:03:04.98Z</time></trkpt><trkpt lat="16.3025601" lon="-61.2755073"><ele>49.0</ele><time>2026-03-28T16:03:05.966Z</time></trkpt><trkpt lat="16.3026277" lon="-61.2754041"><ele>48.0</ele><time>2026-03-28T16:03:06.975Z</time></trkpt><trkpt lat="16.3026966" lon="-61.2753032"><ele>47.0</ele><time>2026-03-28T16:03:07.971Z</time></trkpt><trkpt lat="16.3027633" lon="-61.2752069"><ele>46.0</ele><time>2026-03-28T16:03:08.951Z</time></trkpt><trkpt lat="16.3028288" lon="-61.2751101"><ele>46.0</ele><time>2026-03-28T16:03:09.973Z</time></trkpt><trkpt lat="16.302895" lon="-61.2750127"><ele>46.0</ele><time>2026-03-28T16:03:10.983Z</time></trkpt><trkpt lat="16.3029614" lon="-61.2749171"><ele>46.0</ele><time>2026-03-28T16:03:11.967Z</time></trkpt><trkpt lat="16.3030307" lon="-61.2748235"><ele>46.0</ele><time>2026-03-28T16:03:12.981Z</time></trkpt><trkpt lat="16.3030964" lon="-61.2747205"><ele>47.25</ele><time>2026-03-28T16:03:13.96Z</time></trkpt><trkpt lat="16.3031615" lon="-61.2746171"><ele>48.5</ele><time>2026-03-28T16:03:14.969Z</time></trkpt><trkpt lat="16.3032281" lon="-61.2745145"><ele>49.75</ele><time>2026-03-28T16:03:15.976Z</time></trkpt><trkpt lat="16.3032931" lon="-61.274408"><ele>51.0</ele><time>2026-03-28T16:03:16.951Z</time></trkpt><trkpt lat="16.3033564" lon="-61.2743044"><ele>51.0</ele><time>2026-03-28T16:03:17.959Z</time></trkpt><trkpt lat="16.30342" lon="-61.2741988"><ele>51.0</ele><time>2026-03-28T16:03:18.943Z</time></trkpt><trkpt lat="16.3034857" lon="-61.2740892"><ele>51.0</ele><time>2026-03-28T16:03:19.952Z</time></trkpt><trkpt lat="16.3035404" lon="-61.2739838"><ele>51.0</ele><time>2026-03-28T16:03:21.033Z</time></trkpt><trkpt lat="16.3035945" lon="-61.2738735"><ele>49.25</ele><time>2026-03-28T16:03:22.037Z</time></trkpt><trkpt lat="16.3036453" lon="-61.273765"><ele>47.5</ele><time>2026-03-28T16:03:23.028Z</time></trkpt><trkpt lat="16.3036951" lon="-61.2736487"><ele>45.75</ele><time>2026-03-28T16:03:23.973Z</time></trkpt><trkpt lat="16.303751" lon="-61.2735366"><ele>44.0</ele><time>2026-03-28T16:03:24.973Z</time></trkpt><trkpt lat="16.3038076" lon="-61.2734275"><ele>44.0</ele><time>2026-03-28T16:03:25.972Z</time></trkpt><trkpt lat="16.3038642" lon="-61.2733247"><ele>44.0</ele><time>2026-03-28T16:03:26.974Z</time></trkpt><trkpt lat="16.3039246" lon="-61.2732146"><ele>44.0</ele><time>2026-03-28T16:03:28.064Z</time></trkpt><trkpt lat="16.3040393" lon="-61.2730017"><ele>44.5</ele><time>2026-03-28T16:03:29.979Z</time></trkpt><trkpt lat="16.3041072" lon="-61.2729073"><ele>45.0</ele><time>2026-03-28T16:03:30.971Z</time></trkpt><trkpt lat="16.3041918" lon="-61.2728267"><ele>45.5</ele><time>2026-03-28T16:03:32.049Z</time></trkpt><trkpt lat="16.30429" lon="-61.2727608"><ele>46.0</ele><time>2026-03-28T16:03:33.043Z</time></trkpt><trkpt lat="16.3043942" lon="-61.2727061"><ele>46.0</ele><time>2026-03-28T16:03:33.965Z</time></trkpt><trkpt lat="16.3045069" lon="-61.2726615"><ele>46.0</ele><time>2026-03-28T16:03:34.977Z</time></trkpt><trkpt lat="16.3046211" lon="-61.2726206"><ele>46.0</ele><time>2026-03-28T16:03:35.965Z</time></trkpt><trkpt lat="16.3047372" lon="-61.2725851"><ele>46.0</ele><time>2026-03-28T16:03:37.048Z</time></trkpt><trkpt lat="16.3048492" lon="-61.2725469"><ele>48.0</ele><time>2026-03-28T16:03:38.063Z</time></trkpt><trkpt lat="16.3050668" lon="-61.2724609"><ele>50.0</ele><time>2026-03-28T16:03:40.032Z</time></trkpt><trkpt lat="16.3051743" lon="-61.272415"><ele>52.0</ele><time>2026-03-28T16:03:41.053Z</time></trkpt><trkpt lat="16.3052768" lon="-61.2723684"><ele>52.0</ele><time>2026-03-28T16:03:42.038Z</time></trkpt><trkpt lat="16.3053841" lon="-61.2723193"><ele>52.0</ele><time>2026-03-28T16:03:42.969Z</time></trkpt><trkpt lat="16.3054941" lon="-61.2722734"><ele>52.0</ele><time>2026-03-28T16:03:43.971Z</time></trkpt><trkpt lat="16.3056011" lon="-61.2722273"><ele>52.0</ele><time>2026-03-28T16:03:44.967Z</time></trkpt><trkpt lat="16.305709" lon="-61.2721818"><ele>50.75</ele><time>2026-03-28T16:03:45.985Z</time></trkpt><trkpt lat="16.3058176" lon="-61.2721383"><ele>49.5</ele><time>2026-03-28T16:03:46.963Z</time></trkpt><trkpt lat="16.3059297" lon="-61.2720983"><ele>48.25</ele><time>2026-03-28T16:03:47.976Z</time></trkpt><trkpt lat="16.306043" lon="-61.2720641"><ele>47.0</ele><time>2026-03-28T16:03:48.975Z</time></trkpt><trkpt lat="16.3061528" lon="-61.2720294"><ele>47.0</ele><time>2026-03-28T16:03:49.969Z</time></trkpt><trkpt lat="16.3062582" lon="-61.2719917"><ele>47.0</ele><time>2026-03-28T16:03:50.97Z</time></trkpt><trkpt lat="16.3063652" lon="-61.2719568"><ele>47.0</ele><time>2026-03-28T16:03:52.015Z</time></trkpt><trkpt lat="16.3064745" lon="-61.2719192"><ele>47.0</ele><time>2026-03-28T16:03:52.97Z</time></trkpt><trkpt lat="16.3065845" lon="-61.2718842"><ele>46.400000000000006</ele><time>2026-03-28T16:03:53.97Z</time></trkpt><trkpt lat="16.3066951" lon="-61.2718522"><ele>45.800000000000004</ele><time>2026-03-28T16:03:54.981Z</time></trkpt><trkpt lat="16.3068057" lon="-61.2718235"><ele>45.2</ele><time>2026-03-28T16:03:55.956Z</time></trkpt><trkpt lat="16.3069075" lon="-61.2717993"><ele>44.6</ele><time>2026-03-28T16:03:56.974Z</time></trkpt><trkpt lat="16.306995" lon="-61.2718025"><ele>44.0</ele><time>2026-03-28T16:03:57.967Z</time></trkpt><trkpt lat="16.3070959" lon="-61.271846"><ele>44.0</ele><time>2026-03-28T16:03:59.98Z</time></trkpt><trkpt lat="16.307113" lon="-61.271969"><ele>44.0</ele><time>2026-03-28T16:04:01.977Z</time></trkpt><trkpt lat="16.3071071" lon="-61.2720804"><ele>44.0</ele><time>2026-03-28T16:04:02.972Z</time></trkpt><trkpt lat="16.3071057" lon="-61.2721848"><ele>44.0</ele><time>2026-03-28T16:04:03.946Z</time></trkpt><trkpt lat="16.3070996" lon="-61.2723023"><ele>44.0</ele><time>2026-03-28T16:04:04.967Z</time></trkpt><trkpt lat="16.3071049" lon="-61.2724167"><ele>44.0</ele><time>2026-03-28T16:04:05.97Z</time></trkpt><trkpt lat="16.3071071" lon="-61.2725022"><ele>44.0</ele><time>2026-03-28T16:04:06.974Z</time></trkpt><trkpt lat="16.3071724" lon="-61.2725609"><ele>44.0</ele><time>2026-03-28T16:04:08.968Z</time></trkpt><trkpt lat="16.3072938" lon="-61.2725392"><ele>44.0</ele><time>2026-03-28T16:04:10.947Z</time></trkpt><trkpt lat="16.3073687" lon="-61.2725066"><ele>44.0</ele><time>2026-03-28T16:04:11.937Z</time></trkpt><trkpt lat="16.3074655" lon="-61.2724448"><ele>44.0</ele><time>2026-03-28T16:04:12.97Z</time></trkpt><trkpt lat="16.3075666" lon="-61.2723677"><ele>44.0</ele><time>2026-03-28T16:04:13.971Z</time></trkpt><trkpt lat="16.3076586" lon="-61.2722915"><ele>44.0</ele><time>2026-03-28T16:04:14.971Z</time></trkpt><trkpt lat="16.3077461" lon="-61.2722175"><ele>44.0</ele><time>2026-03-28T16:04:15.977Z</time></trkpt><trkpt lat="16.3078257" lon="-61.2721342"><ele>43.800000000000004</ele><time>2026-03-28T16:04:16.969Z</time></trkpt><trkpt lat="16.3078884" lon="-61.2720443"><ele>43.6</ele><time>2026-03-28T16:04:17.97Z</time></trkpt><trkpt lat="16.3079596" lon="-61.2719661"><ele>43.4</ele><time>2026-03-28T16:04:18.976Z</time></trkpt><trkpt lat="16.3080437" lon="-61.2718867"><ele>43.2</ele><time>2026-03-28T16:04:19.973Z</time></trkpt><trkpt lat="16.3081367" lon="-61.2718326"><ele>43.0</ele><time>2026-03-28T16:04:21.036Z</time></trkpt><trkpt lat="16.3082328" lon="-61.2717823"><ele>42.4</ele><time>2026-03-28T16:04:21.964Z</time></trkpt><trkpt lat="16.3083159" lon="-61.2717346"><ele>41.8</ele><time>2026-03-28T16:04:22.96Z</time></trkpt><trkpt lat="16.3083898" lon="-61.2716748"><ele>41.2</ele><time>2026-03-28T16:04:23.96Z</time></trkpt><trkpt lat="16.3084652" lon="-61.2716087"><ele>40.6</ele><time>2026-03-28T16:04:24.969Z</time></trkpt><trkpt lat="16.3085489" lon="-61.2715365"><ele>40.0</ele><time>2026-03-28T16:04:25.972Z</time></trkpt><trkpt lat="16.3086224" lon="-61.2714529"><ele>40.0</ele><time>2026-03-28T16:04:26.976Z</time></trkpt><trkpt lat="16.3086888" lon="-61.271368"><ele>40.0</ele><time>2026-03-28T16:04:27.975Z</time></trkpt><trkpt lat="16.3087629" lon="-61.2712995"><ele>40.0</ele><time>2026-03-28T16:04:28.971Z</time></trkpt><trkpt lat="16.3088485" lon="-61.2712311"><ele>40.0</ele><time>2026-03-28T16:04:29.974Z</time></trkpt><trkpt lat="16.3089412" lon="-61.2711846"><ele>40.0</ele><time>2026-03-28T16:04:31.062Z</time></trkpt><trkpt lat="16.3090342" lon="-61.2711494"><ele>38.25</ele><time>2026-03-28T16:04:31.97Z</time></trkpt><trkpt lat="16.3091296" lon="-61.2711298"><ele>36.5</ele><time>2026-03-28T16:04:33.059Z</time></trkpt><trkpt lat="16.3093378" lon="-61.2711062"><ele>34.75</ele><time>2026-03-28T16:04:34.973Z</time></trkpt><trkpt lat="16.3094305" lon="-61.2710619"><ele>33.0</ele><time>2026-03-28T16:04:35.976Z</time></trkpt><trkpt lat="16.3095199" lon="-61.2710139"><ele>33.0</ele><time>2026-03-28T16:04:37.053Z</time></trkpt><trkpt lat="16.3096091" lon="-61.2709632"><ele>33.0</ele><time>2026-03-28T16:04:38.034Z</time></trkpt><trkpt lat="16.3096947" lon="-61.2709126"><ele>33.0</ele><time>2026-03-28T16:04:38.991Z</time></trkpt><trkpt lat="16.309773" lon="-61.2708615"><ele>33.0</ele><time>2026-03-28T16:04:39.985Z</time></trkpt><trkpt lat="16.3098366" lon="-61.270817"><ele>33.0</ele><time>2026-03-28T16:04:40.981Z</time></trkpt><trkpt lat="16.3098893" lon="-61.2707614"><ele>33.0</ele><time>2026-03-28T16:04:41.985Z</time></trkpt><trkpt lat="16.3099281" lon="-61.270709"><ele>32.8</ele><time>2026-03-28T16:04:43.041Z</time></trkpt><trkpt lat="16.309967" lon="-61.270592"><ele>32.599999999999994</ele><time>2026-03-28T16:04:44.986Z</time></trkpt><trkpt lat="16.3099547" lon="-61.270514"><ele>32.400000000000006</ele><time>2026-03-28T16:04:45.961Z</time></trkpt><trkpt lat="16.3099182" lon="-61.2704247"><ele>32.2</ele><time>2026-03-28T16:04:47.057Z</time></trkpt><trkpt lat="16.3098688" lon="-61.2703324"><ele>32.0</ele><time>2026-03-28T16:04:48.049Z</time></trkpt><trkpt lat="16.3098057" lon="-61.2702453"><ele>30.75</ele><time>2026-03-28T16:04:48.97Z</time></trkpt><trkpt lat="16.3097321" lon="-61.2701579"><ele>29.5</ele><time>2026-03-28T16:04:50.054Z</time></trkpt><trkpt lat="16.3096499" lon="-61.2700724"><ele>28.25</ele><time>2026-03-28T16:04:51.036Z</time></trkpt><trkpt lat="16.3095708" lon="-61.2699841"><ele>27.0</ele><time>2026-03-28T16:04:51.966Z</time></trkpt><trkpt lat="16.3094924" lon="-61.2698982"><ele>27.0</ele><time>2026-03-28T16:04:52.971Z</time></trkpt><trkpt lat="16.3094162" lon="-61.2698116"><ele>27.000000000000004</ele><time>2026-03-28T16:04:53.97Z</time></trkpt><trkpt lat="16.3093445" lon="-61.2697173"><ele>27.000000000000004</ele><time>2026-03-28T16:04:54.967Z</time></trkpt><trkpt lat="16.3092737" lon="-61.2696268"><ele>27.0</ele><time>2026-03-28T16:04:55.971Z</time></trkpt><trkpt lat="16.3092063" lon="-61.2695434"><ele>27.0</ele><time>2026-03-28T16:04:56.974Z</time></trkpt><trkpt lat="16.3091362" lon="-61.2694641"><ele>27.400000000000002</ele><time>2026-03-28T16:04:57.967Z</time></trkpt><trkpt lat="16.3090629" lon="-61.2693974"><ele>27.800000000000004</ele><time>2026-03-28T16:04:58.959Z</time></trkpt><trkpt lat="16.3089917" lon="-61.2693336"><ele>28.2</ele><time>2026-03-28T16:04:59.978Z</time></trkpt><trkpt lat="16.3089249" lon="-61.2692609"><ele>28.6</ele><time>2026-03-28T16:05:00.971Z</time></trkpt><trkpt lat="16.3088562" lon="-61.2691847"><ele>29.0</ele><time>2026-03-28T16:05:01.963Z</time></trkpt><trkpt lat="16.3087877" lon="-61.2691016"><ele>29.2</ele><time>2026-03-28T16:05:03.073Z</time></trkpt><trkpt lat="16.3087255" lon="-61.2690144"><ele>29.4</ele><time>2026-03-28T16:05:03.972Z</time></trkpt><trkpt lat="16.3086656" lon="-61.2689215"><ele>29.6</ele><time>2026-03-28T16:05:04.975Z</time></trkpt><trkpt lat="16.3086017" lon="-61.2688252"><ele>29.8</ele><time>2026-03-28T16:05:05.993Z</time></trkpt><trkpt lat="16.3085378" lon="-61.2687348"><ele>30.0</ele><time>2026-03-28T16:05:06.974Z</time></trkpt><trkpt lat="16.3084723" lon="-61.2686396"><ele>28.2</ele><time>2026-03-28T16:05:07.985Z</time></trkpt><trkpt lat="16.3084103" lon="-61.2685566"><ele>26.4</ele><time>2026-03-28T16:05:08.978Z</time></trkpt><trkpt lat="16.3083549" lon="-61.268485"><ele>24.6</ele><time>2026-03-28T16:05:10.036Z</time></trkpt><trkpt lat="16.3082997" lon="-61.2684066"><ele>22.8</ele><time>2026-03-28T16:05:10.976Z</time></trkpt><trkpt lat="16.3082574" lon="-61.2683168"><ele>21.0</ele><time>2026-03-28T16:05:12.051Z</time></trkpt><trkpt lat="16.3082179" lon="-61.2682184"><ele>21.0</ele><time>2026-03-28T16:05:13.062Z</time></trkpt><trkpt lat="16.3081632" lon="-61.2681257"><ele>21.0</ele><time>2026-03-28T16:05:13.976Z</time></trkpt><trkpt lat="16.3081022" lon="-61.2680354"><ele>21.0</ele><time>2026-03-28T16:05:14.964Z</time></trkpt><trkpt lat="16.3080318" lon="-61.2679543"><ele>21.0</ele><time>2026-03-28T16:05:15.97Z</time></trkpt><trkpt lat="16.3079531" lon="-61.2678837"><ele>21.0</ele><time>2026-03-28T16:05:16.977Z</time></trkpt><trkpt lat="16.3078777" lon="-61.2678292"><ele>18.333333333333332</ele><time>2026-03-28T16:05:17.982Z</time></trkpt><trkpt lat="16.3078133" lon="-61.2677877"><ele>15.666666666666666</ele><time>2026-03-28T16:05:18.983Z</time></trkpt><trkpt lat="16.3077541" lon="-61.2677491"><ele>13.0</ele><time>2026-03-28T16:05:20.03Z</time></trkpt><trkpt lat="16.3076939" lon="-61.2677056"><ele>10.333333333333334</ele><time>2026-03-28T16:05:21.025Z</time></trkpt><trkpt lat="16.3076203" lon="-61.2676737"><ele>7.666666666666667</ele><time>2026-03-28T16:05:21.959Z</time></trkpt><trkpt lat="16.3075414" lon="-61.2676412"><ele>5.0</ele><time>2026-03-28T16:05:22.977Z</time></trkpt><trkpt lat="16.3074534" lon="-61.2676196"><ele>5.0</ele><time>2026-03-28T16:05:23.976Z</time></trkpt><trkpt lat="16.3073724" lon="-61.2675913"><ele>5.0</ele><time>2026-03-28T16:05:24.976Z</time></trkpt><trkpt lat="16.3072779" lon="-61.267567"><ele>5.0</ele><time>2026-03-28T16:05:26.03Z</time></trkpt><trkpt lat="16.3071845" lon="-61.2675505"><ele>5.0</ele><time>2026-03-28T16:05:26.973Z</time></trkpt><trkpt lat="16.3070963" lon="-61.2675311"><ele>5.0</ele><time>2026-03-28T16:05:28.044Z</time></trkpt><trkpt lat="16.3070043" lon="-61.2675142"><ele>5.0</ele><time>2026-03-28T16:05:28.985Z</time></trkpt><trkpt lat="16.3069077" lon="-61.2675085"><ele>5.0</ele><time>2026-03-28T16:05:29.986Z</time></trkpt><trkpt lat="16.3068041" lon="-61.2675033"><ele>5.0</ele><time>2026-03-28T16:05:30.981Z</time></trkpt><trkpt lat="16.3067004" lon="-61.267513"><ele>5.0</ele><time>2026-03-28T16:05:31.995Z</time></trkpt><trkpt lat="16.3066019" lon="-61.2675329"><ele>5.0</ele><time>2026-03-28T16:05:32.99Z</time></trkpt><trkpt lat="16.3065056" lon="-61.2675703"><ele>5.0</ele><time>2026-03-28T16:05:33.98Z</time></trkpt><trkpt lat="16.3064136" lon="-61.2676057"><ele>5.0</ele><time>2026-03-28T16:05:34.982Z</time></trkpt><trkpt lat="16.3063199" lon="-61.2676369"><ele>5.0</ele><time>2026-03-28T16:05:36.084Z</time></trkpt><trkpt lat="16.3062267" lon="-61.2676622"><ele>5.0</ele><time>2026-03-28T16:05:36.979Z</time></trkpt><trkpt lat="16.3061354" lon="-61.2676869"><ele>5.0</ele><time>2026-03-28T16:05:37.978Z</time></trkpt><trkpt lat="16.3060431" lon="-61.2677089"><ele>5.0</ele><time>2026-03-28T16:05:38.975Z</time></trkpt><trkpt lat="16.3059518" lon="-61.2677271"><ele>5.0</ele><time>2026-03-28T16:05:39.993Z</time></trkpt><trkpt lat="16.3058572" lon="-61.2677296"><ele>5.0</ele><time>2026-03-28T16:05:40.992Z</time></trkpt><trkpt lat="16.3057686" lon="-61.2677075"><ele>5.0</ele><time>2026-03-28T16:05:41.985Z</time></trkpt><trkpt lat="16.305684" lon="-61.2676561"><ele>5.0</ele><time>2026-03-28T16:05:43.06Z</time></trkpt><trkpt lat="16.3056127" lon="-61.2675783"><ele>5.2</ele><time>2026-03-28T16:05:43.981Z</time></trkpt><trkpt lat="16.3055416" lon="-61.2675095"><ele>5.4</ele><time>2026-03-28T16:05:44.986Z</time></trkpt><trkpt lat="16.3054687" lon="-61.2674498"><ele>5.6</ele><time>2026-03-28T16:05:45.974Z</time></trkpt><trkpt lat="16.3053946" lon="-61.2673972"><ele>5.8</ele><time>2026-03-28T16:05:46.986Z</time></trkpt><trkpt lat="16.3053152" lon="-61.2673537"><ele>6.0</ele><time>2026-03-28T16:05:47.973Z</time></trkpt><trkpt lat="16.3052403" lon="-61.2673164"><ele>5.0</ele><time>2026-03-28T16:05:48.985Z</time></trkpt><trkpt lat="16.3051702" lon="-61.2672679"><ele>4.0</ele><time>2026-03-28T16:05:49.986Z</time></trkpt><trkpt lat="16.3051022" lon="-61.2672171"><ele>3.0</ele><time>2026-03-28T16:05:50.987Z</time></trkpt><trkpt lat="16.305027" lon="-61.267171"><ele>2.0</ele><time>2026-03-28T16:05:51.989Z</time></trkpt><trkpt lat="16.3049497" lon="-61.2671291"><ele>1.0</ele><time>2026-03-28T16:05:52.984Z</time></trkpt><trkpt lat="16.3048824" lon="-61.2670838"><ele>0.0</ele><time>2026-03-28T16:05:53.979Z</time></trkpt><trkpt lat="16.3048145" lon="-61.267038"><ele>1.8</ele><time>2026-03-28T16:05:54.98Z</time></trkpt><trkpt lat="16.3047377" lon="-61.2669928"><ele>3.6</ele><time>2026-03-28T16:05:55.979Z</time></trkpt><trkpt lat="16.3046549" lon="-61.2669366"><ele>5.4</ele><time>2026-03-28T16:05:56.98Z</time></trkpt><trkpt lat="16.3045852" lon="-61.2668753"><ele>7.2</ele><time>2026-03-28T16:05:57.975Z</time></trkpt><trkpt lat="16.3045228" lon="-61.2668037"><ele>9.0</ele><time>2026-03-28T16:05:58.971Z</time></trkpt><trkpt lat="16.3044722" lon="-61.2667261"><ele>9.000000000000002</ele><time>2026-03-28T16:06:00.048Z</time></trkpt><trkpt lat="16.3044422" lon="-61.2666468"><ele>9.0</ele><time>2026-03-28T16:06:00.95Z</time></trkpt><trkpt lat="16.3044363" lon="-61.2665678"><ele>9.0</ele><time>2026-03-28T16:06:02.03Z</time></trkpt><trkpt lat="16.3044489" lon="-61.266497"><ele>9.0</ele><time>2026-03-28T16:06:02.974Z</time></trkpt><trkpt lat="16.3044812" lon="-61.266428"><ele>9.0</ele><time>2026-03-28T16:06:04.979Z</time></trkpt><trkpt lat="16.3045037" lon="-61.2663637"><ele>9.000000000000002</ele><time>2026-03-28T16:06:06.965Z</time></trkpt><trkpt lat="16.3044882" lon="-61.2662936"><ele>9.0</ele><time>2026-03-28T16:06:09.983Z</time></trkpt><trkpt lat="16.3044508" lon="-61.2662256"><ele>8.000000000000002</ele><time>2026-03-28T16:06:12.963Z</time></trkpt><trkpt lat="16.3045093" lon="-61.2661977"><ele>7.0</ele><time>2026-03-28T16:06:15.948Z</time></trkpt><trkpt lat="16.3045892" lon="-61.2661454"><ele>6.0</ele><time>2026-03-28T16:06:17.971Z</time></trkpt><trkpt lat="16.3046145" lon="-61.2660795"><ele>5.0</ele><time>2026-03-28T16:06:25.969Z</time></trkpt><trkpt lat="16.3045801" lon="-61.2661596"><ele>4.0</ele><time>2026-03-28T16:06:34.979Z</time></trkpt><trkpt lat="16.3045422" lon="-61.266219"><ele>3.0</ele><time>2026-03-28T16:06:37.967Z</time></trkpt><trkpt lat="16.3044804" lon="-61.2662354"><ele>2.0</ele><time>2026-03-28T16:06:46.049Z</time></trkpt><trkpt lat="16.3044172" lon="-61.2662258"><ele>1.9999999999999998</ele><time>2026-03-28T16:06:57.98Z</time></trkpt><trkpt lat="16.304354" lon="-61.266256"><ele>2.0</ele><time>2026-03-28T16:07:03.037Z</time></trkpt><trkpt lat="16.3042835" lon="-61.2661688"><ele>2.0</ele><time>2026-03-28T16:07:06.964Z</time></trkpt><trkpt lat="16.3042424" lon="-61.2661153"><ele>2.0</ele><time>2026-03-28T16:07:08.972Z</time></trkpt><trkpt lat="16.3042116" lon="-61.2660554"><ele>1.9999999999999998</ele><time>2026-03-28T16:07:11.03Z</time></trkpt><trkpt lat="16.3041695" lon="-61.2659677"><ele>2.0</ele><time>2026-03-28T16:07:13.975Z</time></trkpt><trkpt lat="16.3041048" lon="-61.2658765"><ele>1.9999999999999998</ele><time>2026-03-28T16:07:15.973Z</time></trkpt><trkpt lat="16.3040505" lon="-61.2658156"><ele>2.0</ele><time>2026-03-28T16:07:16.984Z</time></trkpt><trkpt lat="16.3039951" lon="-61.2657565"><ele>2.0</ele><time>2026-03-28T16:07:17.97Z</time></trkpt><trkpt lat="16.3039515" lon="-61.2657017"><ele>2.0</ele><time>2026-03-28T16:07:18.978Z</time></trkpt><trkpt lat="16.3038961" lon="-61.265636"><ele>1.9999999999999998</ele><time>2026-03-28T16:07:20.959Z</time></trkpt><trkpt lat="16.3038772" lon="-61.2655541"><ele>2.0</ele><time>2026-03-28T16:07:23.968Z</time></trkpt><trkpt lat="16.3039037" lon="-61.2654496"><ele>2.1666666666666665</ele><time>2026-03-28T16:07:25.964Z</time></trkpt><trkpt lat="16.3038953" lon="-61.2653614"><ele>2.333333333333333</ele><time>2026-03-28T16:07:27.971Z</time></trkpt><trkpt lat="16.3038294" lon="-61.2653116"><ele>2.5</ele><time>2026-03-28T16:07:29.974Z</time></trkpt><trkpt lat="16.3037706" lon="-61.2652553"><ele>2.6666666666666665</ele><time>2026-03-28T16:07:31.987Z</time></trkpt><trkpt lat="16.3036896" lon="-61.2651894"><ele>2.8333333333333335</ele><time>2026-03-28T16:07:33.964Z</time></trkpt><trkpt lat="16.3036164" lon="-61.2651333"><ele>3.0</ele><time>2026-03-28T16:07:35.969Z</time></trkpt><trkpt lat="16.3035777" lon="-61.2650353"><ele>3.0</ele><time>2026-03-28T16:07:38.982Z</time></trkpt><trkpt lat="16.3034872" lon="-61.2649837"><ele>3.0</ele><time>2026-03-28T16:07:40.987Z</time></trkpt><trkpt lat="16.3033757" lon="-61.2649591"><ele>3.0</ele><time>2026-03-28T16:07:42.974Z</time></trkpt><trkpt lat="16.3032772" lon="-61.264937"><ele>3.0</ele><time>2026-03-28T16:07:44.986Z</time></trkpt><trkpt lat="16.3032001" lon="-61.2649066"><ele>3.0</ele><time>2026-03-28T16:07:46.978Z</time></trkpt><trkpt lat="16.3031429" lon="-61.2648702"><ele>3.4</ele><time>2026-03-28T16:07:48.977Z</time></trkpt><trkpt lat="16.3030718" lon="-61.2648689"><ele>3.8</ele><time>2026-03-28T16:07:50.964Z</time></trkpt><trkpt lat="16.3029575" lon="-61.2648112"><ele>4.2</ele><time>2026-03-28T16:07:52.967Z</time></trkpt><trkpt lat="16.3028827" lon="-61.2647522"><ele>4.6</ele><time>2026-03-28T16:07:55.023Z</time></trkpt><trkpt lat="16.302787" lon="-61.2647192"><ele>5.0</ele><time>2026-03-28T16:07:56.978Z</time></trkpt><trkpt lat="16.3026569" lon="-61.2646975"><ele>5.0</ele><time>2026-03-28T16:07:58.98Z</time></trkpt><trkpt lat="16.3025883" lon="-61.2646789"><ele>5.0</ele><time>2026-03-28T16:08:00.024Z</time></trkpt><trkpt lat="16.3024959" lon="-61.2646659"><ele>5.0</ele><time>2026-03-28T16:08:01.019Z</time></trkpt><trkpt lat="16.3024308" lon="-61.2646584"><ele>5.0</ele><time>2026-03-28T16:08:02.023Z</time></trkpt><trkpt lat="16.3023576" lon="-61.2646642"><ele>5.0</ele><time>2026-03-28T16:08:02.97Z</time></trkpt><trkpt lat="16.3022392" lon="-61.2646995"><ele>5.0</ele><time>2026-03-28T16:08:04.971Z</time></trkpt><trkpt lat="16.3021626" lon="-61.2647177"><ele>5.333333333333334</ele><time>2026-03-28T16:08:05.958Z</time></trkpt><trkpt lat="16.3020957" lon="-61.2647183"><ele>5.666666666666667</ele><time>2026-03-28T16:08:06.981Z</time></trkpt><trkpt lat="16.3020286" lon="-61.2647281"><ele>6.0</ele><time>2026-03-28T16:08:07.974Z</time></trkpt><trkpt lat="16.3019517" lon="-61.2647495"><ele>6.333333333333334</ele><time>2026-03-28T16:08:08.967Z</time></trkpt><trkpt lat="16.3018867" lon="-61.2647596"><ele>6.666666666666667</ele><time>2026-03-28T16:08:09.978Z</time></trkpt><trkpt lat="16.3018213" lon="-61.2647503"><ele>7.0</ele><time>2026-03-28T16:08:11.078Z</time></trkpt><trkpt lat="16.3016929" lon="-61.2646709"><ele>7.0</ele><time>2026-03-28T16:08:12.979Z</time></trkpt><trkpt lat="16.3016049" lon="-61.264604"><ele>6.999999999999999</ele><time>2026-03-28T16:08:13.956Z</time></trkpt><trkpt lat="16.3015182" lon="-61.2645583"><ele>6.999999999999999</ele><time>2026-03-28T16:08:14.973Z</time></trkpt><trkpt lat="16.3014309" lon="-61.2645116"><ele>7.0</ele><time>2026-03-28T16:08:15.975Z</time></trkpt><trkpt lat="16.3013435" lon="-61.2644758"><ele>7.0</ele><time>2026-03-28T16:08:17.047Z</time></trkpt><trkpt lat="16.3012675" lon="-61.2644633"><ele>7.166666666666667</ele><time>2026-03-28T16:08:18.028Z</time></trkpt><trkpt lat="16.3012024" lon="-61.2644616"><ele>7.333333333333334</ele><time>2026-03-28T16:08:18.965Z</time></trkpt><trkpt lat="16.3011342" lon="-61.2644508"><ele>7.5</ele><time>2026-03-28T16:08:19.978Z</time></trkpt><trkpt lat="16.3010669" lon="-61.2644137"><ele>7.666666666666666</ele><time>2026-03-28T16:08:20.975Z</time></trkpt><trkpt lat="16.3009889" lon="-61.2643716"><ele>7.833333333333333</ele><time>2026-03-28T16:08:21.96Z</time></trkpt><trkpt lat="16.300883" lon="-61.2643473"><ele>8.0</ele><time>2026-03-28T16:08:23.98Z</time></trkpt><trkpt lat="16.3007725" lon="-61.2643473"><ele>7.999999999999999</ele><time>2026-03-28T16:08:25.969Z</time></trkpt><trkpt lat="16.3006525" lon="-61.2643519"><ele>8.0</ele><time>2026-03-28T16:08:27.972Z</time></trkpt><trkpt lat="16.3005839" lon="-61.2643468"><ele>8.0</ele><time>2026-03-28T16:08:28.963Z</time></trkpt><trkpt lat="16.3004954" lon="-61.2643414"><ele>8.0</ele><time>2026-03-28T16:08:29.987Z</time></trkpt><trkpt lat="16.3004161" lon="-61.2643395"><ele>7.999999999999999</ele><time>2026-03-28T16:08:30.979Z</time></trkpt><trkpt lat="16.3003346" lon="-61.264339"><ele>8.0</ele><time>2026-03-28T16:08:31.977Z</time></trkpt><trkpt lat="16.3002266" lon="-61.2643299"><ele>7.833333333333333</ele><time>2026-03-28T16:08:33.979Z</time></trkpt><trkpt lat="16.3001661" lon="-61.2642934"><ele>7.666666666666666</ele><time>2026-03-28T16:08:34.982Z</time></trkpt><trkpt lat="16.3001017" lon="-61.2642498"><ele>7.5</ele><time>2026-03-28T16:08:35.968Z</time></trkpt><trkpt lat="16.3000387" lon="-61.2642128"><ele>7.333333333333334</ele><time>2026-03-28T16:08:36.97Z</time></trkpt><trkpt lat="16.2999745" lon="-61.2641909"><ele>7.166666666666667</ele><time>2026-03-28T16:08:38.057Z</time></trkpt><trkpt lat="16.29984" lon="-61.2642043"><ele>7.0</ele><time>2026-03-28T16:08:39.972Z</time></trkpt><trkpt lat="16.2997496" lon="-61.2642096"><ele>7.666666666666667</ele><time>2026-03-28T16:08:40.962Z</time></trkpt><trkpt lat="16.2996606" lon="-61.2641967"><ele>8.333333333333334</ele><time>2026-03-28T16:08:41.976Z</time></trkpt><trkpt lat="16.2995722" lon="-61.264162"><ele>9.0</ele><time>2026-03-28T16:08:42.966Z</time></trkpt><trkpt lat="16.2994886" lon="-61.2641157"><ele>9.666666666666666</ele><time>2026-03-28T16:08:43.977Z</time></trkpt><trkpt lat="16.2994182" lon="-61.2640795"><ele>10.333333333333332</ele><time>2026-03-28T16:08:44.975Z</time></trkpt><trkpt lat="16.2993432" lon="-61.2640559"><ele>11.0</ele><time>2026-03-28T16:08:45.956Z</time></trkpt><trkpt lat="16.2992311" lon="-61.2640164"><ele>11.0</ele><time>2026-03-28T16:08:47.965Z</time></trkpt><trkpt lat="16.2991178" lon="-61.2639944"><ele>11.0</ele><time>2026-03-28T16:08:49.973Z</time></trkpt><trkpt lat="16.2990491" lon="-61.2639743"><ele>11.0</ele><time>2026-03-28T16:08:50.979Z</time></trkpt><trkpt lat="16.2989595" lon="-61.263902"><ele>11.0</ele><time>2026-03-28T16:08:52.974Z</time></trkpt><trkpt lat="16.298909" lon="-61.26384"><ele>11.0</ele><time>2026-03-28T16:08:54.987Z</time></trkpt><trkpt lat="16.2988615" lon="-61.2637859"><ele>11.0</ele><time>2026-03-28T16:08:56.971Z</time></trkpt><trkpt lat="16.2987999" lon="-61.2637546"><ele>10.833333333333332</ele><time>2026-03-28T16:08:57.961Z</time></trkpt><trkpt lat="16.2987335" lon="-61.2637112"><ele>10.666666666666666</ele><time>2026-03-28T16:08:58.974Z</time></trkpt><trkpt lat="16.2986623" lon="-61.2636622"><ele>10.5</ele><time>2026-03-28T16:09:00.04Z</time></trkpt><trkpt lat="16.2985886" lon="-61.2636112"><ele>10.333333333333334</ele><time>2026-03-28T16:09:01.036Z</time></trkpt><trkpt lat="16.2985263" lon="-61.263528"><ele>10.166666666666668</ele><time>2026-03-28T16:09:02.975Z</time></trkpt><trkpt lat="16.2984945" lon="-61.2634576"><ele>10.0</ele><time>2026-03-28T16:09:04.994Z</time></trkpt><trkpt lat="16.298409" lon="-61.2633972"><ele>10.0</ele><time>2026-03-28T16:09:06.973Z</time></trkpt><trkpt lat="16.2983517" lon="-61.263366"><ele>10.0</ele><time>2026-03-28T16:09:07.97Z</time></trkpt><trkpt lat="16.2982676" lon="-61.263304"><ele>10.0</ele><time>2026-03-28T16:09:09.981Z</time></trkpt><trkpt lat="16.2982025" lon="-61.2632711"><ele>10.0</ele><time>2026-03-28T16:09:11.98Z</time></trkpt><trkpt lat="16.2981189" lon="-61.2632647"><ele>10.0</ele><time>2026-03-28T16:09:13.983Z</time></trkpt><trkpt lat="16.2979871" lon="-61.2632662"><ele>10.5</ele><time>2026-03-28T16:09:16.038Z</time></trkpt><trkpt lat="16.297923" lon="-61.2632623"><ele>11.0</ele><time>2026-03-28T16:09:16.981Z</time></trkpt><trkpt lat="16.2978472" lon="-61.2632584"><ele>11.5</ele><time>2026-03-28T16:09:17.978Z</time></trkpt><trkpt lat="16.2977747" lon="-61.2632536"><ele>12.0</ele><time>2026-03-28T16:09:18.968Z</time></trkpt><trkpt lat="16.2976605" lon="-61.2632343"><ele>12.499999999999998</ele><time>2026-03-28T16:09:20.993Z</time></trkpt><trkpt lat="16.2975612" lon="-61.2632001"><ele>13.0</ele><time>2026-03-28T16:09:23.035Z</time></trkpt><trkpt lat="16.2974579" lon="-61.2631355"><ele>13.166666666666666</ele><time>2026-03-28T16:09:24.976Z</time></trkpt><trkpt lat="16.2974045" lon="-61.2630994"><ele>13.333333333333332</ele><time>2026-03-28T16:09:25.969Z</time></trkpt><trkpt lat="16.2973549" lon="-61.2630589"><ele>13.5</ele><time>2026-03-28T16:09:26.981Z</time></trkpt><trkpt lat="16.2973022" lon="-61.263016"><ele>13.666666666666668</ele><time>2026-03-28T16:09:27.98Z</time></trkpt><trkpt lat="16.2972386" lon="-61.2629712"><ele>13.833333333333334</ele><time>2026-03-28T16:09:28.975Z</time></trkpt><trkpt lat="16.2971534" lon="-61.2629281"><ele>14.0</ele><time>2026-03-28T16:09:30.993Z</time></trkpt><trkpt lat="16.2970104" lon="-61.2628634"><ele>14.000000000000002</ele><time>2026-03-28T16:09:32.985Z</time></trkpt><trkpt lat="16.2969241" lon="-61.2628304"><ele>14.0</ele><time>2026-03-28T16:09:33.981Z</time></trkpt><trkpt lat="16.2968556" lon="-61.2627954"><ele>14.0</ele><time>2026-03-28T16:09:34.986Z</time></trkpt><trkpt lat="16.2967929" lon="-61.2627573"><ele>14.0</ele><time>2026-03-28T16:09:35.98Z</time></trkpt><trkpt lat="16.2967265" lon="-61.2627151"><ele>14.000000000000002</ele><time>2026-03-28T16:09:36.975Z</time></trkpt><trkpt lat="16.2966794" lon="-61.2626711"><ele>14.0</ele><time>2026-03-28T16:09:37.969Z</time></trkpt><trkpt lat="16.2966137" lon="-61.2626213"><ele>14.0</ele><time>2026-03-28T16:09:39.981Z</time></trkpt><trkpt lat="16.2965359" lon="-61.2625602"><ele>13.999999999999998</ele><time>2026-03-28T16:09:42.977Z</time></trkpt><trkpt lat="16.2964419" lon="-61.2625198"><ele>13.999999999999998</ele><time>2026-03-28T16:09:45.965Z</time></trkpt><trkpt lat="16.2963195" lon="-61.2624556"><ele>14.0</ele><time>2026-03-28T16:09:47.981Z</time></trkpt><trkpt lat="16.2962476" lon="-61.262433"><ele>14.0</ele><time>2026-03-28T16:09:48.981Z</time></trkpt><trkpt lat="16.2961866" lon="-61.2624089"><ele>14.000000000000002</ele><time>2026-03-28T16:09:50.022Z</time></trkpt><trkpt lat="16.2961196" lon="-61.2623841"><ele>14.0</ele><time>2026-03-28T16:09:51.031Z</time></trkpt><trkpt lat="16.2960529" lon="-61.2623422"><ele>14.0</ele><time>2026-03-28T16:09:52.021Z</time></trkpt><trkpt lat="16.295993" lon="-61.2622798"><ele>14.0</ele><time>2026-03-28T16:09:52.974Z</time></trkpt><trkpt lat="16.2959367" lon="-61.2622145"><ele>14.000000000000002</ele><time>2026-03-28T16:09:53.953Z</time></trkpt><trkpt lat="16.2958864" lon="-61.2621545"><ele>14.0</ele><time>2026-03-28T16:09:54.975Z</time></trkpt><trkpt lat="16.2958019" lon="-61.2620728"><ele>14.0</ele><time>2026-03-28T16:09:56.978Z</time></trkpt><trkpt lat="16.2957506" lon="-61.2620331"><ele>14.0</ele><time>2026-03-28T16:09:57.98Z</time></trkpt><trkpt lat="16.2956961" lon="-61.2619848"><ele>14.0</ele><time>2026-03-28T16:09:58.977Z</time></trkpt><trkpt lat="16.2956388" lon="-61.2619467"><ele>14.0</ele><time>2026-03-28T16:09:59.969Z</time></trkpt><trkpt lat="16.2955807" lon="-61.2619068"><ele>14.0</ele><time>2026-03-28T16:10:00.971Z</time></trkpt><trkpt lat="16.2955176" lon="-61.2618718"><ele>14.0</ele><time>2026-03-28T16:10:02.084Z</time></trkpt><trkpt lat="16.2954662" lon="-61.2618306"><ele>14.0</ele><time>2026-03-28T16:10:03.02Z</time></trkpt><trkpt lat="16.2954095" lon="-61.2617826"><ele>14.833333333333334</ele><time>2026-03-28T16:10:03.981Z</time></trkpt><trkpt lat="16.2953497" lon="-61.2617232"><ele>15.666666666666668</ele><time>2026-03-28T16:10:04.975Z</time></trkpt><trkpt lat="16.2952919" lon="-61.2616638"><ele>16.5</ele><time>2026-03-28T16:10:05.969Z</time></trkpt><trkpt lat="16.2952432" lon="-61.2616168"><ele>17.333333333333332</ele><time>2026-03-28T16:10:06.973Z</time></trkpt><trkpt lat="16.295143" lon="-61.2615533"><ele>18.166666666666664</ele><time>2026-03-28T16:10:08.981Z</time></trkpt><trkpt lat="16.2950598" lon="-61.2615166"><ele>19.0</ele><time>2026-03-28T16:10:10.975Z</time></trkpt><trkpt lat="16.2949857" lon="-61.2614838"><ele>18.166666666666664</ele><time>2026-03-28T16:10:13.97Z</time></trkpt><trkpt lat="16.2949408" lon="-61.2614216"><ele>17.333333333333332</ele><time>2026-03-28T16:10:16.973Z</time></trkpt><trkpt lat="16.2949451" lon="-61.2613541"><ele>16.5</ele><time>2026-03-28T16:10:18.976Z</time></trkpt><trkpt lat="16.2949819" lon="-61.2613008"><ele>15.666666666666668</ele><time>2026-03-28T16:10:19.986Z</time></trkpt><trkpt lat="16.2950301" lon="-61.2611912"><ele>14.833333333333334</ele><time>2026-03-28T16:10:21.98Z</time></trkpt><trkpt lat="16.2950465" lon="-61.2611158"><ele>14.0</ele><time>2026-03-28T16:10:22.989Z</time></trkpt><trkpt lat="16.2950653" lon="-61.2610329"><ele>14.000000000000002</ele><time>2026-03-28T16:10:23.98Z</time></trkpt><trkpt lat="16.2950802" lon="-61.2609573"><ele>14.0</ele><time>2026-03-28T16:10:24.985Z</time></trkpt><trkpt lat="16.2950997" lon="-61.2608846"><ele>14.0</ele><time>2026-03-28T16:10:25.985Z</time></trkpt><trkpt lat="16.2951204" lon="-61.2607833"><ele>14.0</ele><time>2026-03-28T16:10:27.98Z</time></trkpt><trkpt lat="16.2950946" lon="-61.2607091"><ele>14.000000000000002</ele><time>2026-03-28T16:10:36.965Z</time></trkpt><trkpt lat="16.295123" lon="-61.260633"><ele>14.0</ele><time>2026-03-28T16:10:41.977Z</time></trkpt><trkpt lat="16.2951494" lon="-61.2605204"><ele>12.799999999999999</ele><time>2026-03-28T16:10:43.981Z</time></trkpt><trkpt lat="16.29513" lon="-61.2603908"><ele>11.599999999999998</ele><time>2026-03-28T16:10:45.973Z</time></trkpt><trkpt lat="16.2951031" lon="-61.2602881"><ele>10.4</ele><time>2026-03-28T16:10:47.976Z</time></trkpt><trkpt lat="16.295097" lon="-61.2601896"><ele>9.2</ele><time>2026-03-28T16:10:49.973Z</time></trkpt><trkpt lat="16.2951048" lon="-61.2600773"><ele>8.0</ele><time>2026-03-28T16:10:51.977Z</time></trkpt><trkpt lat="16.2951069" lon="-61.2599552"><ele>8.0</ele><time>2026-03-28T16:10:53.975Z</time></trkpt><trkpt lat="16.2950993" lon="-61.2598413"><ele>8.0</ele><time>2026-03-28T16:10:55.987Z</time></trkpt><trkpt lat="16.2951208" lon="-61.2597418"><ele>8.0</ele><time>2026-03-28T16:10:57.981Z</time></trkpt><trkpt lat="16.2951755" lon="-61.2596201"><ele>8.0</ele><time>2026-03-28T16:10:59.949Z</time></trkpt><trkpt lat="16.2952187" lon="-61.2595026"><ele>7.2</ele><time>2026-03-28T16:11:01.973Z</time></trkpt><trkpt lat="16.2952471" lon="-61.2593793"><ele>6.4</ele><time>2026-03-28T16:11:03.991Z</time></trkpt><trkpt lat="16.295287" lon="-61.2592775"><ele>5.6000000000000005</ele><time>2026-03-28T16:11:05.983Z</time></trkpt><trkpt lat="16.2953257" lon="-61.2591532"><ele>4.800000000000001</ele><time>2026-03-28T16:11:07.987Z</time></trkpt><trkpt lat="16.2953494" lon="-61.2590896"><ele>4.0</ele><time>2026-03-28T16:11:08.987Z</time></trkpt><trkpt lat="16.2953406" lon="-61.2589656"><ele>3.6666666666666665</ele><time>2026-03-28T16:11:10.981Z</time></trkpt><trkpt lat="16.2953118" lon="-61.2588958"><ele>3.333333333333333</ele><time>2026-03-28T16:11:11.98Z</time></trkpt><trkpt lat="16.2952793" lon="-61.2588205"><ele>3.0</ele><time>2026-03-28T16:11:12.986Z</time></trkpt><trkpt lat="16.2952561" lon="-61.2587571"><ele>2.6666666666666665</ele><time>2026-03-28T16:11:13.984Z</time></trkpt><trkpt lat="16.2952324" lon="-61.2586942"><ele>2.333333333333333</ele><time>2026-03-28T16:11:14.983Z</time></trkpt><trkpt lat="16.2951971" lon="-61.2586344"><ele>2.0</ele><time>2026-03-28T16:11:15.987Z</time></trkpt><trkpt lat="16.2950929" lon="-61.2585303"><ele>1.9999999999999998</ele><time>2026-03-28T16:11:17.966Z</time></trkpt><trkpt lat="16.2950512" lon="-61.2584761"><ele>2.0</ele><time>2026-03-28T16:11:18.976Z</time></trkpt><trkpt lat="16.2949702" lon="-61.2583715"><ele>2.0</ele><time>2026-03-28T16:11:20.991Z</time></trkpt><trkpt lat="16.2949124" lon="-61.2583111"><ele>2.0</ele><time>2026-03-28T16:11:21.979Z</time></trkpt><trkpt lat="16.2948596" lon="-61.2582591"><ele>1.9999999999999998</ele><time>2026-03-28T16:11:22.981Z</time></trkpt><trkpt lat="16.2948256" lon="-61.258203"><ele>2.0</ele><time>2026-03-28T16:11:23.98Z</time></trkpt><trkpt lat="16.2947925" lon="-61.2581433"><ele>1.8333333333333333</ele><time>2026-03-28T16:11:24.982Z</time></trkpt><trkpt lat="16.2947683" lon="-61.2580782"><ele>1.6666666666666665</ele><time>2026-03-28T16:11:25.978Z</time></trkpt><trkpt lat="16.294753" lon="-61.2579952"><ele>1.5</ele><time>2026-03-28T16:11:26.971Z</time></trkpt><trkpt lat="16.2947426" lon="-61.2578975"><ele>1.3333333333333333</ele><time>2026-03-28T16:11:27.984Z</time></trkpt><trkpt lat="16.2947425" lon="-61.2577967"><ele>1.1666666666666665</ele><time>2026-03-28T16:11:28.976Z</time></trkpt><trkpt lat="16.2947457" lon="-61.2576969"><ele>1.0</ele><time>2026-03-28T16:11:29.99Z</time></trkpt><trkpt lat="16.2947431" lon="-61.2576012"><ele>1.0</ele><time>2026-03-28T16:11:30.985Z</time></trkpt><trkpt lat="16.294749" lon="-61.2574993"><ele>1.0</ele><time>2026-03-28T16:11:31.965Z</time></trkpt><trkpt lat="16.2947504" lon="-61.2574065"><ele>1.0</ele><time>2026-03-28T16:11:32.982Z</time></trkpt><trkpt lat="16.2947509" lon="-61.2573133"><ele>1.0</ele><time>2026-03-28T16:11:33.983Z</time></trkpt><trkpt lat="16.2947508" lon="-61.2572206"><ele>1.0</ele><time>2026-03-28T16:11:34.982Z</time></trkpt><trkpt lat="16.2947574" lon="-61.2571258"><ele>1.0</ele><time>2026-03-28T16:11:35.982Z</time></trkpt><trkpt lat="16.2947578" lon="-61.257033"><ele>1.0</ele><time>2026-03-28T16:11:36.981Z</time></trkpt><trkpt lat="16.2947438" lon="-61.2569385"><ele>1.0</ele><time>2026-03-28T16:11:37.991Z</time></trkpt><trkpt lat="16.2947173" lon="-61.2568431"><ele>1.0</ele><time>2026-03-28T16:11:38.989Z</time></trkpt><trkpt lat="16.2946936" lon="-61.2567418"><ele>1.0</ele><time>2026-03-28T16:11:39.985Z</time></trkpt><trkpt lat="16.2946757" lon="-61.2566556"><ele>1.2000000000000002</ele><time>2026-03-28T16:11:40.982Z</time></trkpt><trkpt lat="16.2946525" lon="-61.2565847"><ele>1.4000000000000001</ele><time>2026-03-28T16:11:41.986Z</time></trkpt><trkpt lat="16.2946074" lon="-61.2565024"><ele>1.6</ele><time>2026-03-28T16:11:43.994Z</time></trkpt><trkpt lat="16.2945331" lon="-61.2564192"><ele>1.8</ele><time>2026-03-28T16:13:02.971Z</time></trkpt><trkpt lat="16.2944261" lon="-61.2563288"><ele>2.0</ele><time>2026-03-28T16:13:05.02Z</time></trkpt><trkpt lat="16.2943701" lon="-61.2562786"><ele>1.4285714285714284</ele><time>2026-03-28T16:13:06.035Z</time></trkpt><trkpt lat="16.2943206" lon="-61.256222"><ele>0.857142857142857</ele><time>2026-03-28T16:13:06.988Z</time></trkpt><trkpt lat="16.294273" lon="-61.2561551"><ele>0.2857142857142857</ele><time>2026-03-28T16:13:07.983Z</time></trkpt><trkpt lat="16.2942345" lon="-61.2560923"><ele>-0.2857142857142857</ele><time>2026-03-28T16:13:08.977Z</time></trkpt><trkpt lat="16.2941984" lon="-61.2560316"><ele>-0.857142857142857</ele><time>2026-03-28T16:13:09.984Z</time></trkpt><trkpt lat="16.2941664" lon="-61.2559635"><ele>-1.4285714285714284</ele><time>2026-03-28T16:13:10.982Z</time></trkpt><trkpt lat="16.2941352" lon="-61.2559011"><ele>-2.0</ele><time>2026-03-28T16:13:11.991Z</time></trkpt><trkpt lat="16.2940976" lon="-61.2558404"><ele>-1.9999999999999998</ele><time>2026-03-28T16:13:13.024Z</time></trkpt><trkpt lat="16.2940438" lon="-61.2557825"><ele>-2.0</ele><time>2026-03-28T16:13:13.981Z</time></trkpt><trkpt lat="16.2939762" lon="-61.255728"><ele>-2.0</ele><time>2026-03-28T16:13:14.99Z</time></trkpt><trkpt lat="16.2939031" lon="-61.2556782"><ele>-2.0</ele><time>2026-03-28T16:13:15.97Z</time></trkpt><trkpt lat="16.2938267" lon="-61.2556358"><ele>-1.9999999999999998</ele><time>2026-03-28T16:13:16.991Z</time></trkpt><trkpt lat="16.2937713" lon="-61.2555947"><ele>-2.0</ele><time>2026-03-28T16:13:17.977Z</time></trkpt><trkpt lat="16.2937352" lon="-61.2555309"><ele>-2.333333333333333</ele><time>2026-03-28T16:13:18.988Z</time></trkpt><trkpt lat="16.2937017" lon="-61.2554582"><ele>-2.6666666666666665</ele><time>2026-03-28T16:13:19.982Z</time></trkpt><trkpt lat="16.2936498" lon="-61.2554046"><ele>-3.0</ele><time>2026-03-28T16:13:21.055Z</time></trkpt><trkpt lat="16.2935735" lon="-61.2553566"><ele>-3.333333333333333</ele><time>2026-03-28T16:13:22.019Z</time></trkpt><trkpt lat="16.2934976" lon="-61.2553054"><ele>-3.6666666666666665</ele><time>2026-03-28T16:13:23.055Z</time></trkpt><trkpt lat="16.2934178" lon="-61.2552592"><ele>-4.0</ele><time>2026-03-28T16:13:23.984Z</time></trkpt><trkpt lat="16.2933333" lon="-61.2552264"><ele>-4.0</ele><time>2026-03-28T16:13:24.989Z</time></trkpt><trkpt lat="16.293243" lon="-61.2552124"><ele>-4.0</ele><time>2026-03-28T16:13:25.976Z</time></trkpt><trkpt lat="16.2931528" lon="-61.2552077"><ele>-4.0</ele><time>2026-03-28T16:13:26.991Z</time></trkpt><trkpt lat="16.29309" lon="-61.2552216"><ele>-4.0</ele><time>2026-03-28T16:13:27.982Z</time></trkpt><trkpt lat="16.2930344" lon="-61.2553365"><ele>-4.0</ele><time>2026-03-28T16:13:29.971Z</time></trkpt><trkpt lat="16.2929971" lon="-61.2554164"><ele>-3.6666666666666665</ele><time>2026-03-28T16:13:30.95Z</time></trkpt><trkpt lat="16.2929774" lon="-61.2554907"><ele>-3.333333333333333</ele><time>2026-03-28T16:13:31.993Z</time></trkpt><trkpt lat="16.2929636" lon="-61.2555687"><ele>-3.0</ele><time>2026-03-28T16:13:32.968Z</time></trkpt><trkpt lat="16.2929551" lon="-61.2556404"><ele>-2.6666666666666665</ele><time>2026-03-28T16:13:33.991Z</time></trkpt><trkpt lat="16.2928953" lon="-61.2557142"><ele>-2.333333333333333</ele><time>2026-03-28T16:13:35.985Z</time></trkpt><trkpt lat="16.2927642" lon="-61.2556851"><ele>-2.0</ele><time>2026-03-28T16:13:37.984Z</time></trkpt><trkpt lat="16.292684" lon="-61.2556683"><ele>-2.0</ele><time>2026-03-28T16:13:38.99Z</time></trkpt><trkpt lat="16.2926012" lon="-61.2556377"><ele>-2.0</ele><time>2026-03-28T16:13:39.978Z</time></trkpt><trkpt lat="16.2925251" lon="-61.2555946"><ele>-2.0</ele><time>2026-03-28T16:13:41.108Z</time></trkpt><trkpt lat="16.2924059" lon="-61.2554701"><ele>-2.0</ele><time>2026-03-28T16:13:42.98Z</time></trkpt><trkpt lat="16.2923377" lon="-61.2554105"><ele>-2.0</ele><time>2026-03-28T16:13:43.981Z</time></trkpt><trkpt lat="16.2922815" lon="-61.2553438"><ele>-1.6666666666666665</ele><time>2026-03-28T16:13:44.988Z</time></trkpt><trkpt lat="16.2922421" lon="-61.2552863"><ele>-1.3333333333333333</ele><time>2026-03-28T16:13:45.987Z</time></trkpt><trkpt lat="16.292224" lon="-61.255217"><ele>-1.0</ele><time>2026-03-28T16:13:47.033Z</time></trkpt><trkpt lat="16.2922181" lon="-61.2551325"><ele>-0.6666666666666666</ele><time>2026-03-28T16:13:48.049Z</time></trkpt><trkpt lat="16.2922044" lon="-61.2550337"><ele>-0.3333333333333333</ele><time>2026-03-28T16:13:48.984Z</time></trkpt><trkpt lat="16.2921745" lon="-61.2549378"><ele>0.0</ele><time>2026-03-28T16:13:49.993Z</time></trkpt><trkpt lat="16.2921377" lon="-61.2548509"><ele>-0.4</ele><time>2026-03-28T16:13:50.971Z</time></trkpt><trkpt lat="16.292077" lon="-61.2547758"><ele>-0.8</ele><time>2026-03-28T16:13:51.986Z</time></trkpt><trkpt lat="16.2920009" lon="-61.2547032"><ele>-1.2000000000000002</ele><time>2026-03-28T16:13:52.994Z</time></trkpt><trkpt lat="16.2919321" lon="-61.254618"><ele>-1.6</ele><time>2026-03-28T16:13:53.985Z</time></trkpt><trkpt lat="16.2918747" lon="-61.2545282"><ele>-2.0</ele><time>2026-03-28T16:13:54.995Z</time></trkpt><trkpt lat="16.2918223" lon="-61.2544374"><ele>-1.9999999999999998</ele><time>2026-03-28T16:13:56.046Z</time></trkpt><trkpt lat="16.2917656" lon="-61.2543533"><ele>-2.0</ele><time>2026-03-28T16:13:57.043Z</time></trkpt><trkpt lat="16.2917099" lon="-61.2542875"><ele>-2.0</ele><time>2026-03-28T16:13:58.036Z</time></trkpt><trkpt lat="16.2916382" lon="-61.2542389"><ele>-2.0</ele><time>2026-03-28T16:13:58.973Z</time></trkpt><trkpt lat="16.2915621" lon="-61.2541959"><ele>-1.9999999999999998</ele><time>2026-03-28T16:13:59.983Z</time></trkpt><trkpt lat="16.2914865" lon="-61.2541606"><ele>-2.0</ele><time>2026-03-28T16:14:00.971Z</time></trkpt><trkpt lat="16.2914187" lon="-61.2541309"><ele>-1.6</ele><time>2026-03-28T16:14:01.976Z</time></trkpt><trkpt lat="16.2913391" lon="-61.2540707"><ele>-1.2000000000000002</ele><time>2026-03-28T16:14:03.964Z</time></trkpt><trkpt lat="16.291312" lon="-61.2539655"><ele>-0.8</ele><time>2026-03-28T16:14:05.98Z</time></trkpt><trkpt lat="16.2912832" lon="-61.2538922"><ele>-0.4</ele><time>2026-03-28T16:14:06.986Z</time></trkpt><trkpt lat="16.2912446" lon="-61.2538339"><ele>0.0</ele><time>2026-03-28T16:14:07.978Z</time></trkpt><trkpt lat="16.2911464" lon="-61.2537473"><ele>0.0</ele><time>2026-03-28T16:14:09.978Z</time></trkpt><trkpt lat="16.2910923" lon="-61.2537095"><ele>0.0</ele><time>2026-03-28T16:14:10.982Z</time></trkpt><trkpt lat="16.2910319" lon="-61.2536345"><ele>0.0</ele><time>2026-03-28T16:14:13.054Z</time></trkpt><trkpt lat="16.2909929" lon="-61.253514"><ele>0.0</ele><time>2026-03-28T16:14:14.978Z</time></trkpt><trkpt lat="16.2909734" lon="-61.2534381"><ele>0.0</ele><time>2026-03-28T16:14:15.984Z</time></trkpt><trkpt lat="16.2909664" lon="-61.253353"><ele>0.0</ele><time>2026-03-28T16:14:16.951Z</time></trkpt><trkpt lat="16.2909601" lon="-61.2532427"><ele>0.0</ele><time>2026-03-28T16:14:17.984Z</time></trkpt><trkpt lat="16.2909593" lon="-61.2531458"><ele>0.0</ele><time>2026-03-28T16:14:18.974Z</time></trkpt><trkpt lat="16.2909419" lon="-61.2530638"><ele>0.0</ele><time>2026-03-28T16:14:19.985Z</time></trkpt><trkpt lat="16.2908892" lon="-61.253007"><ele>0.0</ele><time>2026-03-28T16:14:20.981Z</time></trkpt><trkpt lat="16.2908169" lon="-61.252953"><ele>0.0</ele><time>2026-03-28T16:14:21.976Z</time></trkpt><trkpt lat="16.2907361" lon="-61.252895"><ele>0.0</ele><time>2026-03-28T16:14:22.983Z</time></trkpt><trkpt lat="16.2906522" lon="-61.2528442"><ele>-0.2</ele><time>2026-03-28T16:14:23.977Z</time></trkpt><trkpt lat="16.2905631" lon="-61.2527962"><ele>-0.4</ele><time>2026-03-28T16:14:24.977Z</time></trkpt><trkpt lat="16.2904693" lon="-61.2527584"><ele>-0.6000000000000001</ele><time>2026-03-28T16:14:25.968Z</time></trkpt><trkpt lat="16.2903761" lon="-61.2527121"><ele>-0.8</ele><time>2026-03-28T16:14:26.965Z</time></trkpt><trkpt lat="16.2902886" lon="-61.252663"><ele>-1.0</ele><time>2026-03-28T16:14:27.982Z</time></trkpt><trkpt lat="16.2902164" lon="-61.2526118"><ele>-0.9999999999999999</ele><time>2026-03-28T16:14:28.974Z</time></trkpt><trkpt lat="16.2901573" lon="-61.2525721"><ele>-1.0</ele><time>2026-03-28T16:14:29.992Z</time></trkpt><trkpt lat="16.2900958" lon="-61.2525316"><ele>-1.0</ele><time>2026-03-28T16:14:30.95Z</time></trkpt><trkpt lat="16.2900338" lon="-61.2524829"><ele>-1.0</ele><time>2026-03-28T16:14:31.974Z</time></trkpt><trkpt lat="16.2899748" lon="-61.2524294"><ele>-0.9999999999999999</ele><time>2026-03-28T16:14:32.947Z</time></trkpt><trkpt lat="16.2899111" lon="-61.2523699"><ele>-1.0</ele><time>2026-03-28T16:14:33.943Z</time></trkpt><trkpt lat="16.2898549" lon="-61.252312"><ele>-0.9999999999999999</ele><time>2026-03-28T16:14:34.975Z</time></trkpt><trkpt lat="16.2898021" lon="-61.2522622"><ele>-1.0</ele><time>2026-03-28T16:14:35.984Z</time></trkpt><trkpt lat="16.2897371" lon="-61.2522142"><ele>-1.0</ele><time>2026-03-28T16:14:36.987Z</time></trkpt><trkpt lat="16.2896662" lon="-61.2521575"><ele>-1.0</ele><time>2026-03-28T16:14:37.977Z</time></trkpt><trkpt lat="16.2895991" lon="-61.2521098"><ele>-0.9999999999999999</ele><time>2026-03-28T16:14:38.972Z</time></trkpt><trkpt lat="16.2895286" lon="-61.2520664"><ele>-1.0</ele><time>2026-03-28T16:14:39.961Z</time></trkpt><trkpt lat="16.2894519" lon="-61.2520309"><ele>-0.9999999999999999</ele><time>2026-03-28T16:14:40.973Z</time></trkpt><trkpt lat="16.2893747" lon="-61.2520035"><ele>-1.0</ele><time>2026-03-28T16:14:41.98Z</time></trkpt><trkpt lat="16.2892938" lon="-61.251979"><ele>-1.0</ele><time>2026-03-28T16:14:43.038Z</time></trkpt><trkpt lat="16.28921" lon="-61.2519513"><ele>-1.0</ele><time>2026-03-28T16:14:43.97Z</time></trkpt><trkpt lat="16.2891229" lon="-61.251922"><ele>-0.9999999999999999</ele><time>2026-03-28T16:14:44.981Z</time></trkpt><trkpt lat="16.2890367" lon="-61.251895"><ele>-1.0</ele><time>2026-03-28T16:14:45.957Z</time></trkpt><trkpt lat="16.2889548" lon="-61.2518671"><ele>-0.33333333333333326</ele><time>2026-03-28T16:14:46.98Z</time></trkpt><trkpt lat="16.2888889" lon="-61.2518315"><ele>0.33333333333333337</ele><time>2026-03-28T16:14:47.967Z</time></trkpt><trkpt lat="16.2888303" lon="-61.2517848"><ele>1.0</ele><time>2026-03-28T16:14:48.976Z</time></trkpt><trkpt lat="16.2887802" lon="-61.2517286"><ele>1.6666666666666667</ele><time>2026-03-28T16:14:49.981Z</time></trkpt><trkpt lat="16.2887228" lon="-61.2516802"><ele>2.3333333333333335</ele><time>2026-03-28T16:14:51.038Z</time></trkpt><trkpt lat="16.2886615" lon="-61.2516321"><ele>3.0</ele><time>2026-03-28T16:14:52.054Z</time></trkpt><trkpt lat="16.2885915" lon="-61.2515824"><ele>3.0</ele><time>2026-03-28T16:14:52.964Z</time></trkpt><trkpt lat="16.2885114" lon="-61.2515303"><ele>3.0</ele><time>2026-03-28T16:14:53.989Z</time></trkpt><trkpt lat="16.2884369" lon="-61.2514804"><ele>3.0</ele><time>2026-03-28T16:14:54.995Z</time></trkpt><trkpt lat="16.2883726" lon="-61.2514508"><ele>3.0</ele><time>2026-03-28T16:14:55.985Z</time></trkpt><trkpt lat="16.2883112" lon="-61.2514306"><ele>3.0</ele><time>2026-03-28T16:14:56.988Z</time></trkpt><trkpt lat="16.2882405" lon="-61.2514224"><ele>3.0</ele><time>2026-03-28T16:14:57.988Z</time></trkpt><trkpt lat="16.2881719" lon="-61.2514091"><ele>2.5</ele><time>2026-03-28T16:14:58.993Z</time></trkpt><trkpt lat="16.288076" lon="-61.251339"><ele>2.0</ele><time>2026-03-28T16:15:01.051Z</time></trkpt><trkpt lat="16.2880363" lon="-61.2512781"><ele>1.5</ele><time>2026-03-28T16:15:02.037Z</time></trkpt><trkpt lat="16.2879883" lon="-61.251221"><ele>1.0</ele><time>2026-03-28T16:15:02.966Z</time></trkpt><trkpt lat="16.2879379" lon="-61.2511696"><ele>0.5</ele><time>2026-03-28T16:15:03.985Z</time></trkpt><trkpt lat="16.2878789" lon="-61.2511291"><ele>0.0</ele><time>2026-03-28T16:15:04.976Z</time></trkpt><trkpt lat="16.287817" lon="-61.2510907"><ele>0.0</ele><time>2026-03-28T16:15:05.984Z</time></trkpt><trkpt lat="16.2877448" lon="-61.2510489"><ele>0.0</ele><time>2026-03-28T16:15:06.981Z</time></trkpt><trkpt lat="16.2876666" lon="-61.2510132"><ele>0.0</ele><time>2026-03-28T16:15:07.98Z</time></trkpt><trkpt lat="16.2875759" lon="-61.2509857"><ele>0.0</ele><time>2026-03-28T16:15:08.981Z</time></trkpt><trkpt lat="16.2874808" lon="-61.250965"><ele>0.0</ele><time>2026-03-28T16:15:10.059Z</time></trkpt><trkpt lat="16.2873817" lon="-61.2509348"><ele>0.0</ele><time>2026-03-28T16:15:11.03Z</time></trkpt><trkpt lat="16.2872728" lon="-61.2508984"><ele>0.0</ele><time>2026-03-28T16:15:11.97Z</time></trkpt><trkpt lat="16.2871711" lon="-61.2508491"><ele>0.0</ele><time>2026-03-28T16:15:12.985Z</time></trkpt><trkpt lat="16.2870775" lon="-61.2507933"><ele>0.0</ele><time>2026-03-28T16:15:13.969Z</time></trkpt><trkpt lat="16.2869855" lon="-61.2507296"><ele>0.0</ele><time>2026-03-28T16:15:14.971Z</time></trkpt><trkpt lat="16.2868948" lon="-61.25066"><ele>-0.6</ele><time>2026-03-28T16:15:15.963Z</time></trkpt><trkpt lat="16.2868046" lon="-61.2505952"><ele>-1.2</ele><time>2026-03-28T16:15:17.035Z</time></trkpt><trkpt lat="16.2867151" lon="-61.2505368"><ele>-1.7999999999999998</ele><time>2026-03-28T16:15:18.053Z</time></trkpt><trkpt lat="16.2866269" lon="-61.2504809"><ele>-2.4</ele><time>2026-03-28T16:15:18.969Z</time></trkpt><trkpt lat="16.2865378" lon="-61.2504379"><ele>-3.0</ele><time>2026-03-28T16:15:19.975Z</time></trkpt><trkpt lat="16.2864508" lon="-61.2504053"><ele>-2.6</ele><time>2026-03-28T16:15:20.979Z</time></trkpt><trkpt lat="16.2863615" lon="-61.2503846"><ele>-2.1999999999999997</ele><time>2026-03-28T16:15:21.971Z</time></trkpt><trkpt lat="16.2862646" lon="-61.2503649"><ele>-1.8</ele><time>2026-03-28T16:15:22.975Z</time></trkpt><trkpt lat="16.2861726" lon="-61.2503274"><ele>-1.4</ele><time>2026-03-28T16:15:23.975Z</time></trkpt><trkpt lat="16.2860905" lon="-61.2502821"><ele>-1.0</ele><time>2026-03-28T16:15:24.973Z</time></trkpt><trkpt lat="16.2860056" lon="-61.2502269"><ele>-1.0</ele><time>2026-03-28T16:15:25.972Z</time></trkpt><trkpt lat="16.2859213" lon="-61.250159"><ele>-1.0</ele><time>2026-03-28T16:15:26.997Z</time></trkpt><trkpt lat="16.2858384" lon="-61.2500966"><ele>-1.0</ele><time>2026-03-28T16:15:27.975Z</time></trkpt><trkpt lat="16.2857559" lon="-61.2500313"><ele>-1.0</ele><time>2026-03-28T16:15:28.977Z</time></trkpt><trkpt lat="16.2856744" lon="-61.2499735"><ele>-1.0</ele><time>2026-03-28T16:15:29.975Z</time></trkpt><trkpt lat="16.2855878" lon="-61.2499198"><ele>-0.8</ele><time>2026-03-28T16:15:30.969Z</time></trkpt><trkpt lat="16.285501" lon="-61.2498778"><ele>-0.6000000000000001</ele><time>2026-03-28T16:15:31.968Z</time></trkpt><trkpt lat="16.2854149" lon="-61.2498353"><ele>-0.4</ele><time>2026-03-28T16:15:32.968Z</time></trkpt><trkpt lat="16.2853251" lon="-61.2497907"><ele>-0.2</ele><time>2026-03-28T16:15:33.979Z</time></trkpt><trkpt lat="16.2852335" lon="-61.2497493"><ele>0.0</ele><time>2026-03-28T16:15:34.981Z</time></trkpt><trkpt lat="16.2851281" lon="-61.2497055"><ele>-0.2</ele><time>2026-03-28T16:15:35.972Z</time></trkpt><trkpt lat="16.2850342" lon="-61.2496527"><ele>-0.4</ele><time>2026-03-28T16:15:36.979Z</time></trkpt><trkpt lat="16.2849408" lon="-61.2495961"><ele>-0.6000000000000001</ele><time>2026-03-28T16:15:37.976Z</time></trkpt><trkpt lat="16.2848489" lon="-61.2495314"><ele>-0.8</ele><time>2026-03-28T16:15:38.973Z</time></trkpt><trkpt lat="16.2847564" lon="-61.2494661"><ele>-1.0</ele><time>2026-03-28T16:15:39.976Z</time></trkpt><trkpt lat="16.28466" lon="-61.2494136"><ele>-1.0</ele><time>2026-03-28T16:15:40.987Z</time></trkpt><trkpt lat="16.2845667" lon="-61.2493716"><ele>-1.0</ele><time>2026-03-28T16:15:41.984Z</time></trkpt><trkpt lat="16.2844712" lon="-61.2493364"><ele>-1.0</ele><time>2026-03-28T16:15:43.056Z</time></trkpt><trkpt lat="16.2843806" lon="-61.2493107"><ele>-1.0</ele><time>2026-03-28T16:15:43.975Z</time></trkpt><trkpt lat="16.2842987" lon="-61.2492969"><ele>-1.0</ele><time>2026-03-28T16:15:44.978Z</time></trkpt><trkpt lat="16.2842197" lon="-61.2492706"><ele>-1.0</ele><time>2026-03-28T16:15:45.987Z</time></trkpt><trkpt lat="16.2841469" lon="-61.2492256"><ele>-1.0</ele><time>2026-03-28T16:15:46.977Z</time></trkpt><trkpt lat="16.2840809" lon="-61.2491561"><ele>-1.0</ele><time>2026-03-28T16:15:47.974Z</time></trkpt><trkpt lat="16.2840177" lon="-61.2490843"><ele>-1.0</ele><time>2026-03-28T16:15:48.973Z</time></trkpt><trkpt lat="16.2839571" lon="-61.2490049"><ele>-1.0</ele><time>2026-03-28T16:15:49.979Z</time></trkpt><trkpt lat="16.2839023" lon="-61.2489253"><ele>-0.8333333333333333</ele><time>2026-03-28T16:15:50.972Z</time></trkpt><trkpt lat="16.2838506" lon="-61.248851"><ele>-0.6666666666666666</ele><time>2026-03-28T16:15:52.057Z</time></trkpt><trkpt lat="16.283804" lon="-61.2487871"><ele>-0.5</ele><time>2026-03-28T16:15:52.959Z</time></trkpt><trkpt lat="16.2837567" lon="-61.2487348"><ele>-0.3333333333333333</ele><time>2026-03-28T16:15:53.972Z</time></trkpt><trkpt lat="16.283678" lon="-61.2487056"><ele>-0.16666666666666666</ele><time>2026-03-28T16:15:55.969Z</time></trkpt><trkpt lat="16.2835944" lon="-61.2487599"><ele>0.0</ele><time>2026-03-28T16:15:57.968Z</time></trkpt><trkpt lat="16.2834998" lon="-61.2487981"><ele>0.0</ele><time>2026-03-28T16:15:59.979Z</time></trkpt><trkpt lat="16.2834126" lon="-61.2487398"><ele>0.0</ele><time>2026-03-28T16:16:01.966Z</time></trkpt><trkpt lat="16.2833791" lon="-61.248679"><ele>0.0</ele><time>2026-03-28T16:16:02.969Z</time></trkpt><trkpt lat="16.2833437" lon="-61.2486158"><ele>0.0</ele><time>2026-03-28T16:16:03.984Z</time></trkpt><trkpt lat="16.2833046" lon="-61.2485565"><ele>0.0</ele><time>2026-03-28T16:16:04.977Z</time></trkpt><trkpt lat="16.2832566" lon="-61.2485067"><ele>0.0</ele><time>2026-03-28T16:16:05.968Z</time></trkpt><trkpt lat="16.2831905" lon="-61.2484822"><ele>0.0</ele><time>2026-03-28T16:16:06.983Z</time></trkpt><trkpt lat="16.2831238" lon="-61.2484597"><ele>0.3333333333333333</ele><time>2026-03-28T16:16:07.984Z</time></trkpt><trkpt lat="16.2830563" lon="-61.2484292"><ele>0.6666666666666666</ele><time>2026-03-28T16:16:08.971Z</time></trkpt><trkpt lat="16.2829909" lon="-61.2483992"><ele>1.0</ele><time>2026-03-28T16:16:09.985Z</time></trkpt><trkpt lat="16.2829268" lon="-61.2483717"><ele>1.3333333333333333</ele><time>2026-03-28T16:16:10.982Z</time></trkpt><trkpt lat="16.282854" lon="-61.2483477"><ele>1.6666666666666665</ele><time>2026-03-28T16:16:11.978Z</time></trkpt><trkpt lat="16.2827869" lon="-61.2483159"><ele>2.0</ele><time>2026-03-28T16:16:13.067Z</time></trkpt><trkpt lat="16.2826981" lon="-61.2482573"><ele>1.9999999999999998</ele><time>2026-03-28T16:16:15.046Z</time></trkpt><trkpt lat="16.2826451" lon="-61.2481976"><ele>2.0</ele><time>2026-03-28T16:16:17.981Z</time></trkpt><trkpt lat="16.2825709" lon="-61.2481807"><ele>2.0</ele><time>2026-03-28T16:16:21.058Z</time></trkpt><trkpt lat="16.2825626" lon="-61.2482704"><ele>2.0</ele><time>2026-03-28T16:16:22.976Z</time></trkpt><trkpt lat="16.2825336" lon="-61.248364"><ele>1.9999999999999998</ele><time>2026-03-28T16:16:24.97Z</time></trkpt><trkpt lat="16.2824786" lon="-61.2484355"><ele>2.0</ele><time>2026-03-28T16:16:26.991Z</time></trkpt><trkpt lat="16.2824376" lon="-61.2484995"><ele>1.9999999999999998</ele><time>2026-03-28T16:16:28.975Z</time></trkpt><trkpt lat="16.2824301" lon="-61.2485674"><ele>2.0</ele><time>2026-03-28T16:16:30.986Z</time></trkpt><trkpt lat="16.2824182" lon="-61.248662"><ele>2.0</ele><time>2026-03-28T16:16:32.974Z</time></trkpt><trkpt lat="16.2823573" lon="-61.2487366"><ele>2.0</ele><time>2026-03-28T16:16:36.052Z</time></trkpt><trkpt lat="16.2822854" lon="-61.2487397"><ele>1.9999999999999998</ele><time>2026-03-28T16:16:37.983Z</time></trkpt><trkpt lat="16.2821972" lon="-61.2487224"><ele>2.0</ele><time>2026-03-28T16:16:39.971Z</time></trkpt><trkpt lat="16.2821327" lon="-61.2487003"><ele>2.1666666666666665</ele><time>2026-03-28T16:16:42.966Z</time></trkpt><trkpt lat="16.2820855" lon="-61.2487656"><ele>2.333333333333333</ele><time>2026-03-28T16:17:03.976Z</time></trkpt><trkpt lat="16.282014" lon="-61.248712"><ele>2.5</ele><time>2026-03-28T16:17:15.976Z</time></trkpt><trkpt lat="16.2819478" lon="-61.2486574"><ele>2.6666666666666665</ele><time>2026-03-28T16:17:18.085Z</time></trkpt><trkpt lat="16.2818625" lon="-61.2485958"><ele>2.8333333333333335</ele><time>2026-03-28T16:17:19.975Z</time></trkpt><trkpt lat="16.2817817" lon="-61.2485735"><ele>3.0</ele><time>2026-03-28T16:17:21.972Z</time></trkpt><trkpt lat="16.2816941" lon="-61.2485345"><ele>3.0</ele><time>2026-03-28T16:17:23.968Z</time></trkpt><trkpt lat="16.2816074" lon="-61.2484618"><ele>3.0</ele><time>2026-03-28T16:17:25.986Z</time></trkpt><trkpt lat="16.2815285" lon="-61.2484309"><ele>3.0</ele><time>2026-03-28T16:17:28.031Z</time></trkpt><trkpt lat="16.2814364" lon="-61.2483984"><ele>3.0</ele><time>2026-03-28T16:17:30.972Z</time></trkpt><trkpt lat="16.2813494" lon="-61.2484075"><ele>3.0</ele><time>2026-03-28T16:17:33.967Z</time></trkpt><trkpt lat="16.2812751" lon="-61.2484054"><ele>4.333333333333333</ele><time>2026-03-28T16:17:36.953Z</time></trkpt><trkpt lat="16.2812124" lon="-61.2483889"><ele>5.666666666666666</ele><time>2026-03-28T16:17:38.963Z</time></trkpt><trkpt lat="16.2811438" lon="-61.2483436"><ele>7.0</ele><time>2026-03-28T16:17:40.967Z</time></trkpt><trkpt lat="16.2810745" lon="-61.2483315"><ele>8.333333333333332</ele><time>2026-03-28T16:17:43.957Z</time></trkpt><trkpt lat="16.2809938" lon="-61.2482984"><ele>9.666666666666666</ele><time>2026-03-28T16:17:48.969Z</time></trkpt><trkpt lat="16.2809353" lon="-61.2482717"><ele>11.0</ele><time>2026-03-28T16:17:50.961Z</time></trkpt><trkpt lat="16.2808483" lon="-61.2482431"><ele>11.0</ele><time>2026-03-28T16:17:53.039Z</time></trkpt><trkpt lat="16.28075" lon="-61.2481792"><ele>11.0</ele><time>2026-03-28T16:17:54.972Z</time></trkpt><trkpt lat="16.2806783" lon="-61.2480946"><ele>11.0</ele><time>2026-03-28T16:17:56.96Z</time></trkpt><trkpt lat="16.2806362" lon="-61.2480446"><ele>11.0</ele><time>2026-03-28T16:17:58.965Z</time></trkpt><trkpt lat="16.2805568" lon="-61.2479933"><ele>11.0</ele><time>2026-03-28T16:18:02.047Z</time></trkpt><trkpt lat="16.2804566" lon="-61.2479374"><ele>9.666666666666666</ele><time>2026-03-28T16:18:03.95Z</time></trkpt><trkpt lat="16.2803915" lon="-61.2478983"><ele>8.333333333333332</ele><time>2026-03-28T16:18:04.972Z</time></trkpt><trkpt lat="16.2803364" lon="-61.2478515"><ele>7.0</ele><time>2026-03-28T16:18:05.971Z</time></trkpt><trkpt lat="16.2802468" lon="-61.2478162"><ele>5.666666666666666</ele><time>2026-03-28T16:18:07.975Z</time></trkpt><trkpt lat="16.2801807" lon="-61.247801"><ele>4.333333333333333</ele><time>2026-03-28T16:18:09.964Z</time></trkpt><trkpt lat="16.2801089" lon="-61.2478052"><ele>3.0</ele><time>2026-03-28T16:18:13.957Z</time></trkpt><trkpt lat="16.2800367" lon="-61.2477942"><ele>2.9999999999999996</ele><time>2026-03-28T16:18:21.962Z</time></trkpt><trkpt lat="16.2799717" lon="-61.2478218"><ele>3.0</ele><time>2026-03-28T16:18:27.973Z</time></trkpt><trkpt lat="16.2799081" lon="-61.2478302"><ele>3.0</ele><time>2026-03-28T16:18:30.956Z</time></trkpt><trkpt lat="16.2798482" lon="-61.2478561"><ele>3.0</ele><time>2026-03-28T16:18:32.973Z</time></trkpt><trkpt lat="16.2797863" lon="-61.247878"><ele>3.0</ele><time>2026-03-28T16:18:34.963Z</time></trkpt><trkpt lat="16.2796923" lon="-61.247911"><ele>2.9999999999999996</ele><time>2026-03-28T16:18:37.97Z</time></trkpt><trkpt lat="16.2796134" lon="-61.2479305"><ele>3.0</ele><time>2026-03-28T16:18:39.965Z</time></trkpt><trkpt lat="16.2795415" lon="-61.2479554"><ele>3.666666666666667</ele><time>2026-03-28T16:18:41.966Z</time></trkpt><trkpt lat="16.2794696" lon="-61.2480087"><ele>4.333333333333334</ele><time>2026-03-28T16:18:43.969Z</time></trkpt><trkpt lat="16.279391" lon="-61.2480429"><ele>5.0</ele><time>2026-03-28T16:18:47.07Z</time></trkpt><trkpt lat="16.2792893" lon="-61.2480892"><ele>5.666666666666667</ele><time>2026-03-28T16:19:05.033Z</time></trkpt><trkpt lat="16.2792745" lon="-61.248154"><ele>6.333333333333334</ele><time>2026-03-28T16:19:07.971Z</time></trkpt><trkpt lat="16.2792716" lon="-61.2482221"><ele>7.0</ele><time>2026-03-28T16:19:09.97Z</time></trkpt><trkpt lat="16.2792576" lon="-61.2483119"><ele>9.0</ele><time>2026-03-28T16:19:12.064Z</time></trkpt><trkpt lat="16.2792951" lon="-61.2484307"><ele>11.0</ele><time>2026-03-28T16:19:13.984Z</time></trkpt><trkpt lat="16.2793444" lon="-61.2484875"><ele>13.0</ele><time>2026-03-28T16:19:14.976Z</time></trkpt><trkpt lat="16.2793951" lon="-61.2485413"><ele>15.0</ele><time>2026-03-28T16:19:15.98Z</time></trkpt><trkpt lat="16.2794517" lon="-61.2485915"><ele>17.0</ele><time>2026-03-28T16:19:16.97Z</time></trkpt><trkpt lat="16.2795164" lon="-61.2486361"><ele>19.0</ele><time>2026-03-28T16:19:17.962Z</time></trkpt><trkpt lat="16.27958" lon="-61.2486862"><ele>19.0</ele><time>2026-03-28T16:19:18.982Z</time></trkpt><trkpt lat="16.279648" lon="-61.2487287"><ele>19.0</ele><time>2026-03-28T16:19:20.046Z</time></trkpt><trkpt lat="16.2797156" lon="-61.2487764"><ele>19.0</ele><time>2026-03-28T16:19:20.972Z</time></trkpt><trkpt lat="16.2797841" lon="-61.2488328"><ele>19.0</ele><time>2026-03-28T16:19:21.971Z</time></trkpt><trkpt lat="16.2798541" lon="-61.2488823"><ele>19.0</ele><time>2026-03-28T16:19:22.975Z</time></trkpt><trkpt lat="16.2799237" lon="-61.2489349"><ele>19.0</ele><time>2026-03-28T16:19:23.984Z</time></trkpt><trkpt lat="16.2799908" lon="-61.2489869"><ele>21.0</ele><time>2026-03-28T16:19:24.966Z</time></trkpt><trkpt lat="16.2800587" lon="-61.2490397"><ele>23.0</ele><time>2026-03-28T16:19:25.979Z</time></trkpt><trkpt lat="16.2801306" lon="-61.2490955"><ele>25.0</ele><time>2026-03-28T16:19:26.971Z</time></trkpt><trkpt lat="16.2802031" lon="-61.2491528"><ele>27.0</ele><time>2026-03-28T16:19:27.956Z</time></trkpt><trkpt lat="16.2802733" lon="-61.2492105"><ele>29.0</ele><time>2026-03-28T16:19:28.973Z</time></trkpt><trkpt lat="16.2803535" lon="-61.2492701"><ele>29.0</ele><time>2026-03-28T16:19:30.033Z</time></trkpt><trkpt lat="16.2804297" lon="-61.249326"><ele>29.0</ele><time>2026-03-28T16:19:30.968Z</time></trkpt><trkpt lat="16.2805077" lon="-61.2493858"><ele>29.0</ele><time>2026-03-28T16:19:31.945Z</time></trkpt><trkpt lat="16.2805838" lon="-61.2494395"><ele>29.0</ele><time>2026-03-28T16:19:32.964Z</time></trkpt><trkpt lat="16.2806603" lon="-61.2494942"><ele>29.0</ele><time>2026-03-28T16:19:33.963Z</time></trkpt><trkpt lat="16.2807428" lon="-61.2495437"><ele>29.666666666666664</ele><time>2026-03-28T16:19:34.971Z</time></trkpt><trkpt lat="16.2808234" lon="-61.2495965"><ele>30.333333333333332</ele><time>2026-03-28T16:19:35.971Z</time></trkpt><trkpt lat="16.2808949" lon="-61.2496488"><ele>31.0</ele><time>2026-03-28T16:19:36.97Z</time></trkpt><trkpt lat="16.2809578" lon="-61.2497051"><ele>31.666666666666664</ele><time>2026-03-28T16:19:37.969Z</time></trkpt><trkpt lat="16.2810003" lon="-61.2497713"><ele>32.333333333333336</ele><time>2026-03-28T16:19:38.966Z</time></trkpt><trkpt lat="16.2810257" lon="-61.249857"><ele>33.0</ele><time>2026-03-28T16:19:39.948Z</time></trkpt><trkpt lat="16.281019" lon="-61.249941"><ele>33.0</ele><time>2026-03-28T16:19:40.969Z</time></trkpt><trkpt lat="16.2809987" lon="-61.2500445"><ele>33.0</ele><time>2026-03-28T16:19:41.96Z</time></trkpt><trkpt lat="16.2809726" lon="-61.2501519"><ele>33.0</ele><time>2026-03-28T16:19:42.977Z</time></trkpt><trkpt lat="16.2809322" lon="-61.2502637"><ele>33.0</ele><time>2026-03-28T16:19:43.967Z</time></trkpt><trkpt lat="16.2809129" lon="-61.2503811"><ele>33.0</ele><time>2026-03-28T16:19:44.978Z</time></trkpt><trkpt lat="16.2808725" lon="-61.2504848"><ele>33.0</ele><time>2026-03-28T16:19:45.948Z</time></trkpt><trkpt lat="16.2808328" lon="-61.2505917"><ele>33.0</ele><time>2026-03-28T16:19:46.951Z</time></trkpt><trkpt lat="16.2807987" lon="-61.2506919"><ele>33.0</ele><time>2026-03-28T16:19:47.975Z</time></trkpt><trkpt lat="16.2807709" lon="-61.2507969"><ele>33.0</ele><time>2026-03-28T16:19:48.973Z</time></trkpt><trkpt lat="16.2807395" lon="-61.2508988"><ele>33.0</ele><time>2026-03-28T16:19:49.974Z</time></trkpt><trkpt lat="16.2807093" lon="-61.2510002"><ele>35.25</ele><time>2026-03-28T16:19:50.968Z</time></trkpt><trkpt lat="16.2806717" lon="-61.2510949"><ele>37.5</ele><time>2026-03-28T16:19:51.97Z</time></trkpt><trkpt lat="16.2805812" lon="-61.2511761"><ele>39.75</ele><time>2026-03-28T16:19:52.966Z</time></trkpt><trkpt lat="16.2804702" lon="-61.2512577"><ele>42.0</ele><time>2026-03-28T16:19:53.973Z</time></trkpt><trkpt lat="16.2803663" lon="-61.2513381"><ele>42.8</ele><time>2026-03-28T16:19:54.972Z</time></trkpt><trkpt lat="16.2802841" lon="-61.2514186"><ele>43.6</ele><time>2026-03-28T16:19:55.954Z</time></trkpt><trkpt lat="16.2802032" lon="-61.2515017"><ele>44.4</ele><time>2026-03-28T16:19:56.962Z</time></trkpt><trkpt lat="16.280134" lon="-61.2515836"><ele>45.199999999999996</ele><time>2026-03-28T16:19:57.967Z</time></trkpt><trkpt lat="16.2801005" lon="-61.2516688"><ele>46.0</ele><time>2026-03-28T16:19:58.962Z</time></trkpt><trkpt lat="16.2801282" lon="-61.2517506"><ele>46.0</ele><time>2026-03-28T16:19:59.945Z</time></trkpt><trkpt lat="16.2802062" lon="-61.2518317"><ele>46.0</ele><time>2026-03-28T16:20:00.968Z</time></trkpt><trkpt lat="16.2802649" lon="-61.2519212"><ele>46.0</ele><time>2026-03-28T16:20:01.972Z</time></trkpt><trkpt lat="16.2803044" lon="-61.2520234"><ele>46.0</ele><time>2026-03-28T16:20:02.953Z</time></trkpt><trkpt lat="16.2803403" lon="-61.2521347"><ele>46.0</ele><time>2026-03-28T16:20:03.934Z</time></trkpt><trkpt lat="16.2803649" lon="-61.2522586"><ele>46.199999999999996</ele><time>2026-03-28T16:20:04.962Z</time></trkpt><trkpt lat="16.2803662" lon="-61.2523711"><ele>46.4</ele><time>2026-03-28T16:20:05.968Z</time></trkpt><trkpt lat="16.2803531" lon="-61.2524878"><ele>46.6</ele><time>2026-03-28T16:20:06.97Z</time></trkpt><trkpt lat="16.2803306" lon="-61.2526083"><ele>46.8</ele><time>2026-03-28T16:20:07.978Z</time></trkpt><trkpt lat="16.2803129" lon="-61.2527122"><ele>47.0</ele><time>2026-03-28T16:20:08.961Z</time></trkpt><trkpt lat="16.2803278" lon="-61.2528034"><ele>47.0</ele><time>2026-03-28T16:20:09.973Z</time></trkpt><trkpt lat="16.2803619" lon="-61.2528776"><ele>47.0</ele><time>2026-03-28T16:20:10.969Z</time></trkpt><trkpt lat="16.2804233" lon="-61.2529553"><ele>47.0</ele><time>2026-03-28T16:20:11.967Z</time></trkpt><trkpt lat="16.280514" lon="-61.2530325"><ele>47.0</ele><time>2026-03-28T16:20:12.967Z</time></trkpt><trkpt lat="16.280612" lon="-61.2531123"><ele>47.0</ele><time>2026-03-28T16:20:13.961Z</time></trkpt><trkpt lat="16.2807093" lon="-61.2531843"><ele>47.5</ele><time>2026-03-28T16:20:14.954Z</time></trkpt><trkpt lat="16.2807949" lon="-61.2532515"><ele>48.0</ele><time>2026-03-28T16:20:15.972Z</time></trkpt><trkpt lat="16.2808866" lon="-61.2533266"><ele>48.5</ele><time>2026-03-28T16:20:16.966Z</time></trkpt><trkpt lat="16.2809752" lon="-61.2534004"><ele>49.0</ele><time>2026-03-28T16:20:17.965Z</time></trkpt><trkpt lat="16.2810763" lon="-61.2534911"><ele>49.0</ele><time>2026-03-28T16:20:18.964Z</time></trkpt><trkpt lat="16.2811679" lon="-61.2535662"><ele>49.0</ele><time>2026-03-28T16:20:19.971Z</time></trkpt><trkpt lat="16.2812609" lon="-61.2536397"><ele>49.0</ele><time>2026-03-28T16:20:20.969Z</time></trkpt><trkpt lat="16.2813489" lon="-61.2537319"><ele>49.0</ele><time>2026-03-28T16:20:21.972Z</time></trkpt><trkpt lat="16.2814392" lon="-61.253803"><ele>48.800000000000004</ele><time>2026-03-28T16:20:22.961Z</time></trkpt><trkpt lat="16.2815231" lon="-61.2538778"><ele>48.6</ele><time>2026-03-28T16:20:23.942Z</time></trkpt><trkpt lat="16.2816038" lon="-61.2539597"><ele>48.4</ele><time>2026-03-28T16:20:24.964Z</time></trkpt><trkpt lat="16.281662" lon="-61.254048"><ele>48.2</ele><time>2026-03-28T16:20:25.978Z</time></trkpt><trkpt lat="16.2817084" lon="-61.2541598"><ele>48.0</ele><time>2026-03-28T16:20:26.973Z</time></trkpt><trkpt lat="16.2817213" lon="-61.2542704"><ele>48.0</ele><time>2026-03-28T16:20:27.981Z</time></trkpt><trkpt lat="16.2817237" lon="-61.254401"><ele>48.0</ele><time>2026-03-28T16:20:28.972Z</time></trkpt><trkpt lat="16.2817174" lon="-61.2545253"><ele>48.0</ele><time>2026-03-28T16:20:29.978Z</time></trkpt><trkpt lat="16.2817131" lon="-61.2546466"><ele>48.0</ele><time>2026-03-28T16:20:30.967Z</time></trkpt><trkpt lat="16.2816985" lon="-61.2547642"><ele>47.8</ele><time>2026-03-28T16:20:31.974Z</time></trkpt><trkpt lat="16.2816878" lon="-61.2548813"><ele>47.599999999999994</ele><time>2026-03-28T16:20:32.974Z</time></trkpt><trkpt lat="16.2816891" lon="-61.2549964"><ele>47.400000000000006</ele><time>2026-03-28T16:20:33.977Z</time></trkpt><trkpt lat="16.2817031" lon="-61.2551076"><ele>47.2</ele><time>2026-03-28T16:20:34.955Z</time></trkpt><trkpt lat="16.2817286" lon="-61.255219"><ele>47.0</ele><time>2026-03-28T16:20:35.969Z</time></trkpt><trkpt lat="16.2817535" lon="-61.2553266"><ele>47.0</ele><time>2026-03-28T16:20:36.973Z</time></trkpt><trkpt lat="16.2817859" lon="-61.2554459"><ele>47.0</ele><time>2026-03-28T16:20:37.972Z</time></trkpt><trkpt lat="16.2818124" lon="-61.255559"><ele>47.0</ele><time>2026-03-28T16:20:38.971Z</time></trkpt><trkpt lat="16.281848" lon="-61.2556762"><ele>47.0</ele><time>2026-03-28T16:20:39.972Z</time></trkpt><trkpt lat="16.2818798" lon="-61.2557912"><ele>47.0</ele><time>2026-03-28T16:20:40.966Z</time></trkpt><trkpt lat="16.281914" lon="-61.2559066"><ele>47.0</ele><time>2026-03-28T16:20:41.975Z</time></trkpt><trkpt lat="16.2819418" lon="-61.2560184"><ele>47.0</ele><time>2026-03-28T16:20:42.972Z</time></trkpt><trkpt lat="16.2819707" lon="-61.2561252"><ele>47.0</ele><time>2026-03-28T16:20:43.964Z</time></trkpt><trkpt lat="16.2819961" lon="-61.2562392"><ele>47.0</ele><time>2026-03-28T16:20:44.98Z</time></trkpt><trkpt lat="16.2820306" lon="-61.2563565"><ele>46.6</ele><time>2026-03-28T16:20:45.97Z</time></trkpt><trkpt lat="16.2820616" lon="-61.2564706"><ele>46.2</ele><time>2026-03-28T16:20:46.972Z</time></trkpt><trkpt lat="16.2820885" lon="-61.2565904"><ele>45.8</ele><time>2026-03-28T16:20:47.972Z</time></trkpt><trkpt lat="16.2820725" lon="-61.2566896"><ele>45.4</ele><time>2026-03-28T16:20:48.969Z</time></trkpt><trkpt lat="16.2820518" lon="-61.2567965"><ele>45.0</ele><time>2026-03-28T16:20:49.977Z</time></trkpt><trkpt lat="16.2820415" lon="-61.2569045"><ele>45.0</ele><time>2026-03-28T16:20:50.976Z</time></trkpt><trkpt lat="16.2820574" lon="-61.2570097"><ele>45.0</ele><time>2026-03-28T16:20:51.944Z</time></trkpt><trkpt lat="16.2821099" lon="-61.2571091"><ele>45.0</ele><time>2026-03-28T16:20:52.97Z</time></trkpt><trkpt lat="16.2821693" lon="-61.2572167"><ele>45.0</ele><time>2026-03-28T16:20:53.974Z</time></trkpt><trkpt lat="16.2822412" lon="-61.257338"><ele>45.25</ele><time>2026-03-28T16:20:54.972Z</time></trkpt><trkpt lat="16.2823024" lon="-61.2574542"><ele>45.5</ele><time>2026-03-28T16:20:55.967Z</time></trkpt><trkpt lat="16.2823462" lon="-61.2575704"><ele>45.75</ele><time>2026-03-28T16:20:56.975Z</time></trkpt><trkpt lat="16.282393" lon="-61.2576791"><ele>46.0</ele><time>2026-03-28T16:20:57.974Z</time></trkpt><trkpt lat="16.2824502" lon="-61.2578013"><ele>46.0</ele><time>2026-03-28T16:20:58.968Z</time></trkpt><trkpt lat="16.2825067" lon="-61.2579275"><ele>46.0</ele><time>2026-03-28T16:20:59.971Z</time></trkpt><trkpt lat="16.2825645" lon="-61.2580461"><ele>46.0</ele><time>2026-03-28T16:21:00.981Z</time></trkpt><trkpt lat="16.2826157" lon="-61.2581571"><ele>46.0</ele><time>2026-03-28T16:21:01.97Z</time></trkpt><trkpt lat="16.2826534" lon="-61.2582731"><ele>46.5</ele><time>2026-03-28T16:21:02.976Z</time></trkpt><trkpt lat="16.2826977" lon="-61.2583907"><ele>47.0</ele><time>2026-03-28T16:21:03.961Z</time></trkpt><trkpt lat="16.2827532" lon="-61.2584989"><ele>47.5</ele><time>2026-03-28T16:21:04.975Z</time></trkpt><trkpt lat="16.2828196" lon="-61.2585865"><ele>48.0</ele><time>2026-03-28T16:21:05.966Z</time></trkpt><trkpt lat="16.2828941" lon="-61.2586653"><ele>48.0</ele><time>2026-03-28T16:21:06.969Z</time></trkpt><trkpt lat="16.2829809" lon="-61.258744"><ele>48.0</ele><time>2026-03-28T16:21:07.972Z</time></trkpt><trkpt lat="16.2830704" lon="-61.2588175"><ele>48.0</ele><time>2026-03-28T16:21:08.966Z</time></trkpt><trkpt lat="16.2831626" lon="-61.2588833"><ele>48.0</ele><time>2026-03-28T16:21:09.973Z</time></trkpt><trkpt lat="16.283259" lon="-61.2589538"><ele>49.0</ele><time>2026-03-28T16:21:10.976Z</time></trkpt><trkpt lat="16.2833585" lon="-61.2590194"><ele>50.0</ele><time>2026-03-28T16:21:11.978Z</time></trkpt><trkpt lat="16.2834467" lon="-61.2590837"><ele>51.0</ele><time>2026-03-28T16:21:12.972Z</time></trkpt><trkpt lat="16.2835343" lon="-61.2591459"><ele>52.0</ele><time>2026-03-28T16:21:13.977Z</time></trkpt><trkpt lat="16.283618" lon="-61.2592164"><ele>53.0</ele><time>2026-03-28T16:21:14.966Z</time></trkpt><trkpt lat="16.2837043" lon="-61.2592843"><ele>53.0</ele><time>2026-03-28T16:21:15.97Z</time></trkpt><trkpt lat="16.2838025" lon="-61.2593504"><ele>53.0</ele><time>2026-03-28T16:21:16.971Z</time></trkpt><trkpt lat="16.2838983" lon="-61.259417"><ele>53.0</ele><time>2026-03-28T16:21:17.977Z</time></trkpt><trkpt lat="16.2840002" lon="-61.2594857"><ele>53.0</ele><time>2026-03-28T16:21:18.969Z</time></trkpt><trkpt lat="16.2841035" lon="-61.2595555"><ele>52.25</ele><time>2026-03-28T16:21:19.972Z</time></trkpt><trkpt lat="16.2842053" lon="-61.2596282"><ele>51.5</ele><time>2026-03-28T16:21:20.98Z</time></trkpt><trkpt lat="16.2843102" lon="-61.2596982"><ele>50.75</ele><time>2026-03-28T16:21:21.97Z</time></trkpt><trkpt lat="16.2843998" lon="-61.2597668"><ele>50.0</ele><time>2026-03-28T16:21:22.98Z</time></trkpt><trkpt lat="16.2844779" lon="-61.2598516"><ele>50.0</ele><time>2026-03-28T16:21:23.979Z</time></trkpt><trkpt lat="16.2845243" lon="-61.2599427"><ele>50.0</ele><time>2026-03-28T16:21:24.974Z</time></trkpt><trkpt lat="16.2845356" lon="-61.2600391"><ele>50.0</ele><time>2026-03-28T16:21:25.977Z</time></trkpt><trkpt lat="16.2845205" lon="-61.2601419"><ele>50.0</ele><time>2026-03-28T16:21:26.974Z</time></trkpt><trkpt lat="16.2844951" lon="-61.2602503"><ele>50.0</ele><time>2026-03-28T16:21:27.966Z</time></trkpt><trkpt lat="16.2844484" lon="-61.2603586"><ele>50.0</ele><time>2026-03-28T16:21:28.973Z</time></trkpt><trkpt lat="16.2844109" lon="-61.2604654"><ele>50.0</ele><time>2026-03-28T16:21:29.974Z</time></trkpt><trkpt lat="16.2843694" lon="-61.2605653"><ele>50.0</ele><time>2026-03-28T16:21:30.969Z</time></trkpt><trkpt lat="16.284339" lon="-61.2606715"><ele>50.0</ele><time>2026-03-28T16:21:31.969Z</time></trkpt><trkpt lat="16.2843108" lon="-61.2607876"><ele>50.0</ele><time>2026-03-28T16:21:32.972Z</time></trkpt><trkpt lat="16.2842914" lon="-61.2609036"><ele>50.0</ele><time>2026-03-28T16:21:33.964Z</time></trkpt><trkpt lat="16.2842767" lon="-61.2610351"><ele>50.0</ele><time>2026-03-28T16:21:34.971Z</time></trkpt><trkpt lat="16.2842574" lon="-61.261154"><ele>50.0</ele><time>2026-03-28T16:21:35.977Z</time></trkpt><trkpt lat="16.2842411" lon="-61.2612731"><ele>50.0</ele><time>2026-03-28T16:21:36.967Z</time></trkpt><trkpt lat="16.2842226" lon="-61.2613751"><ele>49.66666666666667</ele><time>2026-03-28T16:21:37.984Z</time></trkpt><trkpt lat="16.2841882" lon="-61.2614583"><ele>49.333333333333336</ele><time>2026-03-28T16:21:38.978Z</time></trkpt><trkpt lat="16.2841392" lon="-61.2615181"><ele>49.0</ele><time>2026-03-28T16:21:39.981Z</time></trkpt><trkpt lat="16.2840679" lon="-61.2615598"><ele>48.66666666666667</ele><time>2026-03-28T16:21:40.969Z</time></trkpt><trkpt lat="16.283994" lon="-61.2615719"><ele>48.333333333333336</ele><time>2026-03-28T16:21:41.977Z</time></trkpt><trkpt lat="16.283899" lon="-61.2615847"><ele>48.0</ele><time>2026-03-28T16:21:42.981Z</time></trkpt><trkpt lat="16.2838042" lon="-61.2615951"><ele>48.0</ele><time>2026-03-28T16:21:43.978Z</time></trkpt><trkpt lat="16.2837079" lon="-61.261612"><ele>48.0</ele><time>2026-03-28T16:21:44.956Z</time></trkpt><trkpt lat="16.2836076" lon="-61.2616391"><ele>48.0</ele><time>2026-03-28T16:21:45.942Z</time></trkpt><trkpt lat="16.2835258" lon="-61.2616822"><ele>48.0</ele><time>2026-03-28T16:21:46.955Z</time></trkpt><trkpt lat="16.2834207" lon="-61.2617687"><ele>48.0</ele><time>2026-03-28T16:21:47.973Z</time></trkpt><trkpt lat="16.2833479" lon="-61.2618556"><ele>48.0</ele><time>2026-03-28T16:21:48.933Z</time></trkpt><trkpt lat="16.283265" lon="-61.2619428"><ele>48.0</ele><time>2026-03-28T16:21:49.935Z</time></trkpt><trkpt lat="16.2831819" lon="-61.2620179"><ele>48.0</ele><time>2026-03-28T16:21:50.932Z</time></trkpt><trkpt lat="16.2830964" lon="-61.2621127"><ele>48.0</ele><time>2026-03-28T16:21:51.958Z</time></trkpt><trkpt lat="16.2830006" lon="-61.2622162"><ele>46.0</ele><time>2026-03-28T16:21:52.962Z</time></trkpt><trkpt lat="16.2829131" lon="-61.2623237"><ele>44.0</ele><time>2026-03-28T16:21:53.949Z</time></trkpt><trkpt lat="16.282819" lon="-61.2624332"><ele>42.0</ele><time>2026-03-28T16:21:54.966Z</time></trkpt><trkpt lat="16.2827347" lon="-61.2625312"><ele>40.0</ele><time>2026-03-28T16:21:55.953Z</time></trkpt><trkpt lat="16.2826549" lon="-61.2626379"><ele>40.0</ele><time>2026-03-28T16:21:56.962Z</time></trkpt><trkpt lat="16.2825738" lon="-61.2627466"><ele>40.0</ele><time>2026-03-28T16:21:57.958Z</time></trkpt><trkpt lat="16.282483" lon="-61.2628522"><ele>40.0</ele><time>2026-03-28T16:21:58.966Z</time></trkpt><trkpt lat="16.282395" lon="-61.2629453"><ele>40.0</ele><time>2026-03-28T16:21:59.97Z</time></trkpt><trkpt lat="16.2822914" lon="-61.2630184"><ele>38.25</ele><time>2026-03-28T16:22:00.971Z</time></trkpt><trkpt lat="16.2821854" lon="-61.2630882"><ele>36.5</ele><time>2026-03-28T16:22:01.961Z</time></trkpt><trkpt lat="16.2820769" lon="-61.2631493"><ele>34.75</ele><time>2026-03-28T16:22:02.961Z</time></trkpt><trkpt lat="16.2819695" lon="-61.2632049"><ele>33.0</ele><time>2026-03-28T16:22:03.961Z</time></trkpt><trkpt lat="16.2818758" lon="-61.2632401"><ele>33.0</ele><time>2026-03-28T16:22:04.973Z</time></trkpt><trkpt lat="16.2817802" lon="-61.2632662"><ele>33.0</ele><time>2026-03-28T16:22:05.965Z</time></trkpt><trkpt lat="16.2816784" lon="-61.2632942"><ele>33.0</ele><time>2026-03-28T16:22:06.969Z</time></trkpt><trkpt lat="16.2815814" lon="-61.2633255"><ele>33.0</ele><time>2026-03-28T16:22:07.973Z</time></trkpt><trkpt lat="16.2814828" lon="-61.2633569"><ele>33.0</ele><time>2026-03-28T16:22:08.979Z</time></trkpt><trkpt lat="16.281387" lon="-61.2633848"><ele>34.0</ele><time>2026-03-28T16:22:09.967Z</time></trkpt><trkpt lat="16.2812959" lon="-61.2634129"><ele>35.0</ele><time>2026-03-28T16:22:10.976Z</time></trkpt><trkpt lat="16.2811899" lon="-61.2634559"><ele>36.0</ele><time>2026-03-28T16:22:11.97Z</time></trkpt><trkpt lat="16.2810886" lon="-61.2634909"><ele>37.0</ele><time>2026-03-28T16:22:12.965Z</time></trkpt><trkpt lat="16.2809954" lon="-61.2635267"><ele>38.0</ele><time>2026-03-28T16:22:13.975Z</time></trkpt><trkpt lat="16.2808949" lon="-61.2635602"><ele>38.0</ele><time>2026-03-28T16:22:14.958Z</time></trkpt><trkpt lat="16.2807908" lon="-61.263604"><ele>38.0</ele><time>2026-03-28T16:22:15.967Z</time></trkpt><trkpt lat="16.2806821" lon="-61.2636708"><ele>38.0</ele><time>2026-03-28T16:22:16.972Z</time></trkpt><trkpt lat="16.2805836" lon="-61.2637534"><ele>38.0</ele><time>2026-03-28T16:22:17.976Z</time></trkpt><trkpt lat="16.2804877" lon="-61.2638326"><ele>38.5</ele><time>2026-03-28T16:22:18.965Z</time></trkpt><trkpt lat="16.2804006" lon="-61.2639084"><ele>39.0</ele><time>2026-03-28T16:22:19.98Z</time></trkpt><trkpt lat="16.2803163" lon="-61.2639891"><ele>39.5</ele><time>2026-03-28T16:22:20.966Z</time></trkpt><trkpt lat="16.2802253" lon="-61.2640716"><ele>40.0</ele><time>2026-03-28T16:22:21.97Z</time></trkpt><trkpt lat="16.280131" lon="-61.2641416"><ele>40.0</ele><time>2026-03-28T16:22:22.974Z</time></trkpt><trkpt lat="16.2800318" lon="-61.2642033"><ele>40.0</ele><time>2026-03-28T16:22:23.968Z</time></trkpt><trkpt lat="16.279934" lon="-61.2642658"><ele>40.0</ele><time>2026-03-28T16:22:24.968Z</time></trkpt><trkpt lat="16.2798439" lon="-61.264341"><ele>40.0</ele><time>2026-03-28T16:22:25.959Z</time></trkpt><trkpt lat="16.2797433" lon="-61.2644158"><ele>40.5</ele><time>2026-03-28T16:22:26.967Z</time></trkpt><trkpt lat="16.2796432" lon="-61.264483"><ele>41.0</ele><time>2026-03-28T16:22:27.964Z</time></trkpt><trkpt lat="16.2795387" lon="-61.2645441"><ele>41.5</ele><time>2026-03-28T16:22:28.97Z</time></trkpt><trkpt lat="16.2794356" lon="-61.2646023"><ele>42.0</ele><time>2026-03-28T16:22:29.966Z</time></trkpt><trkpt lat="16.2793343" lon="-61.2646571"><ele>42.0</ele><time>2026-03-28T16:22:30.974Z</time></trkpt><trkpt lat="16.2792409" lon="-61.2647105"><ele>42.0</ele><time>2026-03-28T16:22:31.962Z</time></trkpt><trkpt lat="16.2791562" lon="-61.264786"><ele>42.0</ele><time>2026-03-28T16:22:32.969Z</time></trkpt><trkpt lat="16.2790964" lon="-61.2648757"><ele>42.0</ele><time>2026-03-28T16:22:33.972Z</time></trkpt><trkpt lat="16.2790756" lon="-61.2649827"><ele>42.0</ele><time>2026-03-28T16:22:34.957Z</time></trkpt><trkpt lat="16.2790858" lon="-61.2650839"><ele>42.166666666666664</ele><time>2026-03-28T16:22:35.977Z</time></trkpt><trkpt lat="16.2790932" lon="-61.2651796"><ele>42.333333333333336</ele><time>2026-03-28T16:22:36.97Z</time></trkpt><trkpt lat="16.2790896" lon="-61.2652631"><ele>42.5</ele><time>2026-03-28T16:22:37.961Z</time></trkpt><trkpt lat="16.2790614" lon="-61.2653349"><ele>42.66666666666667</ele><time>2026-03-28T16:22:38.971Z</time></trkpt><trkpt lat="16.2790177" lon="-61.2653911"><ele>42.833333333333336</ele><time>2026-03-28T16:22:39.974Z</time></trkpt><trkpt lat="16.2789608" lon="-61.2654511"><ele>43.0</ele><time>2026-03-28T16:22:40.973Z</time></trkpt><trkpt lat="16.2788887" lon="-61.2655113"><ele>43.0</ele><time>2026-03-28T16:22:41.98Z</time></trkpt><trkpt lat="16.2788159" lon="-61.265577"><ele>43.0</ele><time>2026-03-28T16:22:42.974Z</time></trkpt><trkpt lat="16.278734" lon="-61.265644"><ele>43.0</ele><time>2026-03-28T16:22:43.975Z</time></trkpt><trkpt lat="16.2786322" lon="-61.2657013"><ele>43.0</ele><time>2026-03-28T16:22:44.944Z</time></trkpt><trkpt lat="16.2785335" lon="-61.2657594"><ele>43.0</ele><time>2026-03-28T16:22:45.97Z</time></trkpt><trkpt lat="16.2784322" lon="-61.2658076"><ele>43.0</ele><time>2026-03-28T16:22:46.97Z</time></trkpt><trkpt lat="16.2783303" lon="-61.2658442"><ele>43.0</ele><time>2026-03-28T16:22:47.965Z</time></trkpt><trkpt lat="16.2782244" lon="-61.2658837"><ele>43.0</ele><time>2026-03-28T16:22:48.971Z</time></trkpt><trkpt lat="16.2781118" lon="-61.2659242"><ele>43.0</ele><time>2026-03-28T16:22:49.973Z</time></trkpt><trkpt lat="16.2780027" lon="-61.2659678"><ele>41.25</ele><time>2026-03-28T16:22:50.977Z</time></trkpt><trkpt lat="16.2778876" lon="-61.2660068"><ele>39.5</ele><time>2026-03-28T16:22:51.969Z</time></trkpt><trkpt lat="16.277778" lon="-61.2660396"><ele>37.75</ele><time>2026-03-28T16:22:52.983Z</time></trkpt><trkpt lat="16.2776676" lon="-61.2660664"><ele>36.0</ele><time>2026-03-28T16:22:53.967Z</time></trkpt><trkpt lat="16.2775509" lon="-61.2660956"><ele>36.0</ele><time>2026-03-28T16:22:54.968Z</time></trkpt><trkpt lat="16.2774382" lon="-61.266131"><ele>36.0</ele><time>2026-03-28T16:22:55.969Z</time></trkpt><trkpt lat="16.2773227" lon="-61.2661716"><ele>36.0</ele><time>2026-03-28T16:22:56.961Z</time></trkpt><trkpt lat="16.2772096" lon="-61.2662044"><ele>36.0</ele><time>2026-03-28T16:22:57.978Z</time></trkpt><trkpt lat="16.2770943" lon="-61.2662296"><ele>34.75</ele><time>2026-03-28T16:22:58.978Z</time></trkpt><trkpt lat="16.2769767" lon="-61.2662403"><ele>33.5</ele><time>2026-03-28T16:22:59.974Z</time></trkpt><trkpt lat="16.2768609" lon="-61.2662546"><ele>32.25</ele><time>2026-03-28T16:23:00.979Z</time></trkpt><trkpt lat="16.2767413" lon="-61.2662672"><ele>31.0</ele><time>2026-03-28T16:23:01.979Z</time></trkpt><trkpt lat="16.2766276" lon="-61.26628"><ele>31.0</ele><time>2026-03-28T16:23:02.974Z</time></trkpt><trkpt lat="16.2765182" lon="-61.2662895"><ele>31.0</ele><time>2026-03-28T16:23:03.967Z</time></trkpt><trkpt lat="16.276404" lon="-61.2662989"><ele>31.0</ele><time>2026-03-28T16:23:04.964Z</time></trkpt><trkpt lat="16.2762837" lon="-61.2662878"><ele>31.0</ele><time>2026-03-28T16:23:05.968Z</time></trkpt><trkpt lat="16.2761662" lon="-61.2662641"><ele>31.200000000000003</ele><time>2026-03-28T16:23:06.975Z</time></trkpt><trkpt lat="16.2760545" lon="-61.2662394"><ele>31.400000000000002</ele><time>2026-03-28T16:23:07.982Z</time></trkpt><trkpt lat="16.2759472" lon="-61.266209"><ele>31.6</ele><time>2026-03-28T16:23:08.977Z</time></trkpt><trkpt lat="16.2758438" lon="-61.2661733"><ele>31.8</ele><time>2026-03-28T16:23:09.965Z</time></trkpt><trkpt lat="16.275751" lon="-61.2661192"><ele>32.0</ele><time>2026-03-28T16:23:10.975Z</time></trkpt><trkpt lat="16.27565" lon="-61.266084"><ele>33.0</ele><time>2026-03-28T16:23:11.97Z</time></trkpt><trkpt lat="16.2755449" lon="-61.2660531"><ele>34.0</ele><time>2026-03-28T16:23:12.971Z</time></trkpt><trkpt lat="16.2754345" lon="-61.2660284"><ele>35.0</ele><time>2026-03-28T16:23:13.981Z</time></trkpt><trkpt lat="16.2753309" lon="-61.2659941"><ele>36.0</ele><time>2026-03-28T16:23:14.979Z</time></trkpt><trkpt lat="16.2752313" lon="-61.2659614"><ele>37.0</ele><time>2026-03-28T16:23:15.958Z</time></trkpt><trkpt lat="16.27513" lon="-61.2659318"><ele>37.0</ele><time>2026-03-28T16:23:16.969Z</time></trkpt><trkpt lat="16.2750278" lon="-61.2659063"><ele>37.0</ele><time>2026-03-28T16:23:17.975Z</time></trkpt><trkpt lat="16.2749313" lon="-61.2658785"><ele>37.0</ele><time>2026-03-28T16:23:18.97Z</time></trkpt><trkpt lat="16.2748422" lon="-61.2658442"><ele>37.0</ele><time>2026-03-28T16:23:19.965Z</time></trkpt><trkpt lat="16.2747506" lon="-61.2658153"><ele>37.0</ele><time>2026-03-28T16:23:20.97Z</time></trkpt><trkpt lat="16.2746563" lon="-61.2657847"><ele>37.0</ele><time>2026-03-28T16:23:21.977Z</time></trkpt><trkpt lat="16.2745561" lon="-61.2657486"><ele>37.0</ele><time>2026-03-28T16:23:22.974Z</time></trkpt><trkpt lat="16.2744508" lon="-61.2657127"><ele>37.0</ele><time>2026-03-28T16:23:23.974Z</time></trkpt><trkpt lat="16.2743464" lon="-61.2656796"><ele>37.0</ele><time>2026-03-28T16:23:24.976Z</time></trkpt><trkpt lat="16.2742391" lon="-61.265648"><ele>37.0</ele><time>2026-03-28T16:23:25.968Z</time></trkpt><trkpt lat="16.2741278" lon="-61.2656098"><ele>37.0</ele><time>2026-03-28T16:23:26.977Z</time></trkpt><trkpt lat="16.2740323" lon="-61.2655751"><ele>37.0</ele><time>2026-03-28T16:23:27.98Z</time></trkpt><trkpt lat="16.2739491" lon="-61.2655486"><ele>37.0</ele><time>2026-03-28T16:23:28.981Z</time></trkpt><trkpt lat="16.2738756" lon="-61.265531"><ele>37.0</ele><time>2026-03-28T16:23:29.954Z</time></trkpt><trkpt lat="16.2738015" lon="-61.2655549"><ele>37.0</ele><time>2026-03-28T16:23:31.972Z</time></trkpt><trkpt lat="16.2737572" lon="-61.2656428"><ele>37.0</ele><time>2026-03-28T16:23:33.966Z</time></trkpt><trkpt lat="16.2737541" lon="-61.2657806"><ele>37.0</ele><time>2026-03-28T16:23:35.952Z</time></trkpt><trkpt lat="16.273744" lon="-61.2658594"><ele>37.0</ele><time>2026-03-28T16:23:36.972Z</time></trkpt><trkpt lat="16.2737384" lon="-61.2659529"><ele>37.0</ele><time>2026-03-28T16:23:37.969Z</time></trkpt><trkpt lat="16.2737373" lon="-61.2660525"><ele>37.0</ele><time>2026-03-28T16:23:38.979Z</time></trkpt><trkpt lat="16.2737308" lon="-61.2661562"><ele>37.0</ele><time>2026-03-28T16:23:39.968Z</time></trkpt><trkpt lat="16.2737296" lon="-61.2662634"><ele>37.0</ele><time>2026-03-28T16:23:40.963Z</time></trkpt><trkpt lat="16.2737333" lon="-61.2663738"><ele>37.0</ele><time>2026-03-28T16:23:41.979Z</time></trkpt><trkpt lat="16.2737374" lon="-61.2664928"><ele>37.0</ele><time>2026-03-28T16:23:42.978Z</time></trkpt><trkpt lat="16.2737432" lon="-61.2666172"><ele>37.0</ele><time>2026-03-28T16:23:43.964Z</time></trkpt><trkpt lat="16.2737457" lon="-61.2667382"><ele>37.0</ele><time>2026-03-28T16:23:44.965Z</time></trkpt><trkpt lat="16.2737478" lon="-61.2668595"><ele>37.0</ele><time>2026-03-28T16:23:45.973Z</time></trkpt><trkpt lat="16.2737447" lon="-61.2669814"><ele>37.0</ele><time>2026-03-28T16:23:46.968Z</time></trkpt><trkpt lat="16.2737359" lon="-61.2670947"><ele>37.0</ele><time>2026-03-28T16:23:47.977Z</time></trkpt><trkpt lat="16.273736" lon="-61.267215"><ele>37.4</ele><time>2026-03-28T16:23:48.968Z</time></trkpt><trkpt lat="16.2737327" lon="-61.2673258"><ele>37.800000000000004</ele><time>2026-03-28T16:23:49.974Z</time></trkpt><trkpt lat="16.273736" lon="-61.2674355"><ele>38.2</ele><time>2026-03-28T16:23:50.934Z</time></trkpt><trkpt lat="16.2737385" lon="-61.2675408"><ele>38.6</ele><time>2026-03-28T16:23:51.964Z</time></trkpt><trkpt lat="16.2737324" lon="-61.2676453"><ele>39.0</ele><time>2026-03-28T16:23:52.977Z</time></trkpt><trkpt lat="16.2737304" lon="-61.267742"><ele>39.0</ele><time>2026-03-28T16:23:53.968Z</time></trkpt><trkpt lat="16.2737282" lon="-61.2678396"><ele>39.0</ele><time>2026-03-28T16:23:55.024Z</time></trkpt><trkpt lat="16.2737275" lon="-61.2679334"><ele>39.0</ele><time>2026-03-28T16:23:55.968Z</time></trkpt><trkpt lat="16.2737299" lon="-61.2680355"><ele>39.0</ele><time>2026-03-28T16:23:56.967Z</time></trkpt><trkpt lat="16.2737324" lon="-61.2681358"><ele>39.0</ele><time>2026-03-28T16:23:57.957Z</time></trkpt><trkpt lat="16.2737347" lon="-61.2682401"><ele>39.4</ele><time>2026-03-28T16:23:59.07Z</time></trkpt><trkpt lat="16.273733" lon="-61.2683435"><ele>39.8</ele><time>2026-03-28T16:24:00.049Z</time></trkpt><trkpt lat="16.2737241" lon="-61.2684458"><ele>40.199999999999996</ele><time>2026-03-28T16:24:00.97Z</time></trkpt><trkpt lat="16.2737162" lon="-61.2685456"><ele>40.599999999999994</ele><time>2026-03-28T16:24:01.986Z</time></trkpt><trkpt lat="16.2737015" lon="-61.2686361"><ele>41.0</ele><time>2026-03-28T16:24:02.972Z</time></trkpt><trkpt lat="16.2736818" lon="-61.2687177"><ele>41.0</ele><time>2026-03-28T16:24:04.055Z</time></trkpt><trkpt lat="16.2736598" lon="-61.2687897"><ele>41.0</ele><time>2026-03-28T16:24:05.047Z</time></trkpt><trkpt lat="16.2736283" lon="-61.2688936"><ele>41.0</ele><time>2026-03-28T16:24:06.945Z</time></trkpt><trkpt lat="16.2735915" lon="-61.2689622"><ele>41.0</ele><time>2026-03-28T16:24:08.973Z</time></trkpt><trkpt lat="16.2735306" lon="-61.2689913"><ele>41.0</ele><time>2026-03-28T16:24:10.971Z</time></trkpt><trkpt lat="16.2734374" lon="-61.2689707"><ele>41.0</ele><time>2026-03-28T16:24:13.043Z</time></trkpt><trkpt lat="16.2733208" lon="-61.2689389"><ele>41.0</ele><time>2026-03-28T16:24:14.974Z</time></trkpt><trkpt lat="16.2732325" lon="-61.268924"><ele>41.0</ele><time>2026-03-28T16:24:15.983Z</time></trkpt><trkpt lat="16.2731523" lon="-61.2689038"><ele>41.0</ele><time>2026-03-28T16:24:16.97Z</time></trkpt><trkpt lat="16.2730687" lon="-61.2688838"><ele>41.0</ele><time>2026-03-28T16:24:17.971Z</time></trkpt><trkpt lat="16.2729797" lon="-61.2688715"><ele>41.0</ele><time>2026-03-28T16:24:18.976Z</time></trkpt><trkpt lat="16.2728926" lon="-61.2688591"><ele>41.0</ele><time>2026-03-28T16:24:20.044Z</time></trkpt><trkpt lat="16.2728027" lon="-61.2688431"><ele>40.599999999999994</ele><time>2026-03-28T16:24:20.97Z</time></trkpt><trkpt lat="16.2727005" lon="-61.2688292"><ele>40.199999999999996</ele><time>2026-03-28T16:24:21.969Z</time></trkpt><trkpt lat="16.2725983" lon="-61.2688193"><ele>39.8</ele><time>2026-03-28T16:24:22.974Z</time></trkpt><trkpt lat="16.2725006" lon="-61.2688159"><ele>39.4</ele><time>2026-03-28T16:24:23.973Z</time></trkpt><trkpt lat="16.2724114" lon="-61.268805"><ele>39.0</ele><time>2026-03-28T16:24:24.954Z</time></trkpt><trkpt lat="16.2723135" lon="-61.268795"><ele>37.0</ele><time>2026-03-28T16:24:25.978Z</time></trkpt><trkpt lat="16.2722146" lon="-61.2687862"><ele>35.0</ele><time>2026-03-28T16:24:26.968Z</time></trkpt><trkpt lat="16.272119" lon="-61.2687703"><ele>33.0</ele><time>2026-03-28T16:24:27.97Z</time></trkpt><trkpt lat="16.2720166" lon="-61.2687553"><ele>31.0</ele><time>2026-03-28T16:24:29.055Z</time></trkpt><trkpt lat="16.2719086" lon="-61.2687351"><ele>29.0</ele><time>2026-03-28T16:24:29.97Z</time></trkpt><trkpt lat="16.2717927" lon="-61.268712"><ele>29.0</ele><time>2026-03-28T16:24:30.976Z</time></trkpt><trkpt lat="16.2716795" lon="-61.2686829"><ele>29.0</ele><time>2026-03-28T16:24:31.97Z</time></trkpt><trkpt lat="16.2715683" lon="-61.268648"><ele>29.0</ele><time>2026-03-28T16:24:33.021Z</time></trkpt><trkpt lat="16.2714543" lon="-61.2686123"><ele>29.0</ele><time>2026-03-28T16:24:34.032Z</time></trkpt><trkpt lat="16.2713495" lon="-61.2685845"><ele>27.75</ele><time>2026-03-28T16:24:35.053Z</time></trkpt><trkpt lat="16.2712386" lon="-61.268546"><ele>26.5</ele><time>2026-03-28T16:24:35.97Z</time></trkpt><trkpt lat="16.2711325" lon="-61.2685116"><ele>25.25</ele><time>2026-03-28T16:24:36.961Z</time></trkpt><trkpt lat="16.2710276" lon="-61.2684769"><ele>24.0</ele><time>2026-03-28T16:24:37.964Z</time></trkpt><trkpt lat="16.270919" lon="-61.2684425"><ele>24.0</ele><time>2026-03-28T16:24:38.97Z</time></trkpt><trkpt lat="16.2708191" lon="-61.268409"><ele>24.0</ele><time>2026-03-28T16:24:40.015Z</time></trkpt><trkpt lat="16.2707156" lon="-61.2683759"><ele>24.0</ele><time>2026-03-28T16:24:40.964Z</time></trkpt><trkpt lat="16.2706146" lon="-61.2683447"><ele>24.0</ele><time>2026-03-28T16:24:41.974Z</time></trkpt><trkpt lat="16.2705063" lon="-61.2683081"><ele>24.0</ele><time>2026-03-28T16:24:42.967Z</time></trkpt><trkpt lat="16.2704069" lon="-61.2682772"><ele>24.4</ele><time>2026-03-28T16:24:44.035Z</time></trkpt><trkpt lat="16.2703045" lon="-61.2682464"><ele>24.799999999999997</ele><time>2026-03-28T16:24:45.029Z</time></trkpt><trkpt lat="16.2702019" lon="-61.2682151"><ele>25.200000000000003</ele><time>2026-03-28T16:24:45.975Z</time></trkpt><trkpt lat="16.270101" lon="-61.2681829"><ele>25.6</ele><time>2026-03-28T16:24:46.976Z</time></trkpt><trkpt lat="16.2700048" lon="-61.2681495"><ele>26.0</ele><time>2026-03-28T16:24:47.975Z</time></trkpt><trkpt lat="16.2698984" lon="-61.2681201"><ele>26.200000000000003</ele><time>2026-03-28T16:24:49.055Z</time></trkpt><trkpt lat="16.2697943" lon="-61.2680953"><ele>26.400000000000002</ele><time>2026-03-28T16:24:50.038Z</time></trkpt><trkpt lat="16.2696939" lon="-61.268062"><ele>26.6</ele><time>2026-03-28T16:24:50.971Z</time></trkpt><trkpt lat="16.2695901" lon="-61.2680327"><ele>26.8</ele><time>2026-03-28T16:24:51.979Z</time></trkpt><trkpt lat="16.269477" lon="-61.2680082"><ele>27.0</ele><time>2026-03-28T16:24:52.973Z</time></trkpt><trkpt lat="16.2693666" lon="-61.2679773"><ele>26.6</ele><time>2026-03-28T16:24:54.045Z</time></trkpt><trkpt lat="16.2692593" lon="-61.2679397"><ele>26.200000000000003</ele><time>2026-03-28T16:24:55.063Z</time></trkpt><trkpt lat="16.2691526" lon="-61.2679105"><ele>25.8</ele><time>2026-03-28T16:24:55.978Z</time></trkpt><trkpt lat="16.2690485" lon="-61.2678803"><ele>25.4</ele><time>2026-03-28T16:24:56.972Z</time></trkpt><trkpt lat="16.2689444" lon="-61.2678469"><ele>25.0</ele><time>2026-03-28T16:24:57.965Z</time></trkpt><trkpt lat="16.2688434" lon="-61.2678112"><ele>24.8</ele><time>2026-03-28T16:24:58.979Z</time></trkpt><trkpt lat="16.268742" lon="-61.2677818"><ele>24.6</ele><time>2026-03-28T16:24:59.976Z</time></trkpt><trkpt lat="16.2686372" lon="-61.267753"><ele>24.4</ele><time>2026-03-28T16:25:00.976Z</time></trkpt><trkpt lat="16.2685366" lon="-61.2677253"><ele>24.2</ele><time>2026-03-28T16:25:01.958Z</time></trkpt><trkpt lat="16.2684332" lon="-61.2676954"><ele>24.0</ele><time>2026-03-28T16:25:03.029Z</time></trkpt><trkpt lat="16.2683322" lon="-61.2676623"><ele>24.0</ele><time>2026-03-28T16:25:04.037Z</time></trkpt><trkpt lat="16.2682307" lon="-61.2676313"><ele>24.0</ele><time>2026-03-28T16:25:04.974Z</time></trkpt><trkpt lat="16.2681321" lon="-61.2676054"><ele>24.0</ele><time>2026-03-28T16:25:05.978Z</time></trkpt><trkpt lat="16.2680317" lon="-61.2675776"><ele>24.0</ele><time>2026-03-28T16:25:06.974Z</time></trkpt><trkpt lat="16.2679406" lon="-61.267549"><ele>24.0</ele><time>2026-03-28T16:25:07.979Z</time></trkpt><trkpt lat="16.2678508" lon="-61.2675198"><ele>24.6</ele><time>2026-03-28T16:25:08.975Z</time></trkpt><trkpt lat="16.2677599" lon="-61.2674921"><ele>25.2</ele><time>2026-03-28T16:25:10.044Z</time></trkpt><trkpt lat="16.2676706" lon="-61.2674638"><ele>25.800000000000004</ele><time>2026-03-28T16:25:10.967Z</time></trkpt><trkpt lat="16.2675801" lon="-61.2674392"><ele>26.400000000000002</ele><time>2026-03-28T16:25:11.958Z</time></trkpt><trkpt lat="16.267491" lon="-61.2674112"><ele>27.0</ele><time>2026-03-28T16:25:12.982Z</time></trkpt><trkpt lat="16.2673979" lon="-61.2673842"><ele>27.0</ele><time>2026-03-28T16:25:14.028Z</time></trkpt><trkpt lat="16.2673061" lon="-61.2673511"><ele>27.000000000000004</ele><time>2026-03-28T16:25:15.03Z</time></trkpt><trkpt lat="16.2672197" lon="-61.2673252"><ele>27.000000000000004</ele><time>2026-03-28T16:25:15.97Z</time></trkpt><trkpt lat="16.2671228" lon="-61.2672995"><ele>27.0</ele><time>2026-03-28T16:25:16.969Z</time></trkpt><trkpt lat="16.2670342" lon="-61.2672743"><ele>27.0</ele><time>2026-03-28T16:25:17.972Z</time></trkpt><trkpt lat="16.2669487" lon="-61.2672489"><ele>27.6</ele><time>2026-03-28T16:25:19.1Z</time></trkpt><trkpt lat="16.2668604" lon="-61.2672262"><ele>28.200000000000003</ele><time>2026-03-28T16:25:20.037Z</time></trkpt><trkpt lat="16.2667705" lon="-61.2671981"><ele>28.8</ele><time>2026-03-28T16:25:20.975Z</time></trkpt><trkpt lat="16.2666859" lon="-61.2671704"><ele>29.4</ele><time>2026-03-28T16:25:21.983Z</time></trkpt><trkpt lat="16.266602" lon="-61.2671452"><ele>30.0</ele><time>2026-03-28T16:25:22.976Z</time></trkpt><trkpt lat="16.2665148" lon="-61.2671166"><ele>30.0</ele><time>2026-03-28T16:25:24.099Z</time></trkpt><trkpt lat="16.2663717" lon="-61.2670358"><ele>30.0</ele><time>2026-03-28T16:25:25.978Z</time></trkpt><trkpt lat="16.2662692" lon="-61.266944"><ele>30.0</ele><time>2026-03-28T16:25:28.065Z</time></trkpt><trkpt lat="16.2662077" lon="-61.2669109"><ele>30.0</ele><time>2026-03-28T16:25:28.995Z</time></trkpt><trkpt lat="16.2661135" lon="-61.2669113"><ele>30.0</ele><time>2026-03-28T16:25:30.972Z</time></trkpt><trkpt lat="16.2660297" lon="-61.2669263"><ele>30.0</ele><time>2026-03-28T16:25:32.961Z</time></trkpt><trkpt lat="16.2659538" lon="-61.2669346"><ele>30.0</ele><time>2026-03-28T16:25:33.969Z</time></trkpt><trkpt lat="16.2658715" lon="-61.2669355"><ele>30.0</ele><time>2026-03-28T16:25:34.969Z</time></trkpt><trkpt lat="16.2657936" lon="-61.2669484"><ele>30.0</ele><time>2026-03-28T16:25:35.963Z</time></trkpt><trkpt lat="16.2657176" lon="-61.2669671"><ele>30.0</ele><time>2026-03-28T16:25:37.022Z</time></trkpt><trkpt lat="16.2656454" lon="-61.2669912"><ele>29.333333333333332</ele><time>2026-03-28T16:25:37.96Z</time></trkpt><trkpt lat="16.265575" lon="-61.267012"><ele>28.666666666666664</ele><time>2026-03-28T16:25:38.975Z</time></trkpt><trkpt lat="16.2655019" lon="-61.2670337"><ele>28.0</ele><time>2026-03-28T16:25:39.963Z</time></trkpt><trkpt lat="16.2654263" lon="-61.2670539"><ele>27.333333333333332</ele><time>2026-03-28T16:25:40.964Z</time></trkpt><trkpt lat="16.2653496" lon="-61.2670824"><ele>26.666666666666664</ele><time>2026-03-28T16:25:41.981Z</time></trkpt><trkpt lat="16.265276" lon="-61.2671067"><ele>26.0</ele><time>2026-03-28T16:25:42.968Z</time></trkpt><trkpt lat="16.2652003" lon="-61.2671321"><ele>25.999999999999996</ele><time>2026-03-28T16:25:44.065Z</time></trkpt><trkpt lat="16.2651305" lon="-61.2671536"><ele>26.0</ele><time>2026-03-28T16:25:45.037Z</time></trkpt><trkpt lat="16.2650534" lon="-61.2671793"><ele>26.0</ele><time>2026-03-28T16:25:45.974Z</time></trkpt><trkpt lat="16.2649718" lon="-61.267202"><ele>26.0</ele><time>2026-03-28T16:25:46.968Z</time></trkpt><trkpt lat="16.2648874" lon="-61.2672181"><ele>25.999999999999996</ele><time>2026-03-28T16:25:47.973Z</time></trkpt><trkpt lat="16.2647983" lon="-61.2672457"><ele>26.0</ele><time>2026-03-28T16:25:48.972Z</time></trkpt><trkpt lat="16.2647092" lon="-61.2672691"><ele>26.8</ele><time>2026-03-28T16:25:49.976Z</time></trkpt><trkpt lat="16.2646211" lon="-61.267288"><ele>27.6</ele><time>2026-03-28T16:25:50.977Z</time></trkpt><trkpt lat="16.264533" lon="-61.26731"><ele>28.4</ele><time>2026-03-28T16:25:51.969Z</time></trkpt><trkpt lat="16.2644456" lon="-61.267345"><ele>29.2</ele><time>2026-03-28T16:25:53.049Z</time></trkpt><trkpt lat="16.2643602" lon="-61.2673756"><ele>30.0</ele><time>2026-03-28T16:25:54.034Z</time></trkpt><trkpt lat="16.2642657" lon="-61.2673917"><ele>30.0</ele><time>2026-03-28T16:25:55.042Z</time></trkpt><trkpt lat="16.2641677" lon="-61.2674036"><ele>30.0</ele><time>2026-03-28T16:25:55.97Z</time></trkpt><trkpt lat="16.2640769" lon="-61.2674211"><ele>30.0</ele><time>2026-03-28T16:25:56.973Z</time></trkpt><trkpt lat="16.2639893" lon="-61.2674359"><ele>30.0</ele><time>2026-03-28T16:25:57.969Z</time></trkpt><trkpt lat="16.2639025" lon="-61.2674538"><ele>30.0</ele><time>2026-03-28T16:25:58.981Z</time></trkpt><trkpt lat="16.2638202" lon="-61.2674693"><ele>29.8</ele><time>2026-03-28T16:25:59.977Z</time></trkpt><trkpt lat="16.2637382" lon="-61.2674863"><ele>29.6</ele><time>2026-03-28T16:26:00.957Z</time></trkpt><trkpt lat="16.2636477" lon="-61.267505"><ele>29.4</ele><time>2026-03-28T16:26:01.98Z</time></trkpt><trkpt lat="16.2635615" lon="-61.2675252"><ele>29.2</ele><time>2026-03-28T16:26:02.972Z</time></trkpt><trkpt lat="16.2634654" lon="-61.2675463"><ele>29.0</ele><time>2026-03-28T16:26:04.027Z</time></trkpt><trkpt lat="16.2633706" lon="-61.2675704"><ele>29.0</ele><time>2026-03-28T16:26:05.024Z</time></trkpt><trkpt lat="16.263283" lon="-61.2675919"><ele>29.0</ele><time>2026-03-28T16:26:05.971Z</time></trkpt><trkpt lat="16.2631954" lon="-61.2676134"><ele>29.0</ele><time>2026-03-28T16:26:06.976Z</time></trkpt><trkpt lat="16.263103" lon="-61.2676315"><ele>29.0</ele><time>2026-03-28T16:26:07.955Z</time></trkpt><trkpt lat="16.2630117" lon="-61.2676522"><ele>29.0</ele><time>2026-03-28T16:26:09.029Z</time></trkpt><trkpt lat="16.2629292" lon="-61.2676729"><ele>28.833333333333332</ele><time>2026-03-28T16:26:09.966Z</time></trkpt><trkpt lat="16.2628498" lon="-61.2676962"><ele>28.666666666666664</ele><time>2026-03-28T16:26:10.967Z</time></trkpt><trkpt lat="16.2627736" lon="-61.2677222"><ele>28.5</ele><time>2026-03-28T16:26:11.966Z</time></trkpt><trkpt lat="16.2626984" lon="-61.2677435"><ele>28.333333333333336</ele><time>2026-03-28T16:26:13.028Z</time></trkpt><trkpt lat="16.2626203" lon="-61.2677616"><ele>28.166666666666668</ele><time>2026-03-28T16:26:14.058Z</time></trkpt><trkpt lat="16.2625454" lon="-61.2677877"><ele>28.0</ele><time>2026-03-28T16:26:14.974Z</time></trkpt><trkpt lat="16.2624744" lon="-61.2678071"><ele>28.000000000000004</ele><time>2026-03-28T16:26:15.97Z</time></trkpt><trkpt lat="16.262391" lon="-61.2678212"><ele>28.0</ele><time>2026-03-28T16:26:16.978Z</time></trkpt><trkpt lat="16.2622984" lon="-61.2678251"><ele>28.0</ele><time>2026-03-28T16:26:17.977Z</time></trkpt><trkpt lat="16.2622115" lon="-61.267832"><ele>28.0</ele><time>2026-03-28T16:26:18.986Z</time></trkpt><trkpt lat="16.2621273" lon="-61.267845"><ele>28.000000000000004</ele><time>2026-03-28T16:26:19.973Z</time></trkpt><trkpt lat="16.2620477" lon="-61.2678682"><ele>28.0</ele><time>2026-03-28T16:26:20.968Z</time></trkpt><trkpt lat="16.2619658" lon="-61.2678894"><ele>27.0</ele><time>2026-03-28T16:26:21.977Z</time></trkpt><trkpt lat="16.2618811" lon="-61.2679093"><ele>26.0</ele><time>2026-03-28T16:26:22.973Z</time></trkpt><trkpt lat="16.2617848" lon="-61.267922"><ele>25.0</ele><time>2026-03-28T16:26:23.981Z</time></trkpt><trkpt lat="16.2616829" lon="-61.2679306"><ele>24.0</ele><time>2026-03-28T16:26:25.072Z</time></trkpt><trkpt lat="16.2614772" lon="-61.2679378"><ele>23.0</ele><time>2026-03-28T16:26:26.966Z</time></trkpt><trkpt lat="16.2613744" lon="-61.2679267"><ele>22.0</ele><time>2026-03-28T16:26:27.981Z</time></trkpt><trkpt lat="16.2612626" lon="-61.2679081"><ele>21.0</ele><time>2026-03-28T16:26:28.966Z</time></trkpt><trkpt lat="16.2611588" lon="-61.2678786"><ele>20.0</ele><time>2026-03-28T16:26:29.971Z</time></trkpt><trkpt lat="16.2610518" lon="-61.2678422"><ele>19.0</ele><time>2026-03-28T16:26:30.971Z</time></trkpt><trkpt lat="16.2609441" lon="-61.2678017"><ele>19.0</ele><time>2026-03-28T16:26:31.973Z</time></trkpt><trkpt lat="16.2608319" lon="-61.2677578"><ele>19.0</ele><time>2026-03-28T16:26:33.046Z</time></trkpt><trkpt lat="16.2607171" lon="-61.2677149"><ele>19.0</ele><time>2026-03-28T16:26:34.052Z</time></trkpt><trkpt lat="16.2606058" lon="-61.2676929"><ele>19.0</ele><time>2026-03-28T16:26:35.044Z</time></trkpt><trkpt lat="16.260484" lon="-61.267682"><ele>18.25</ele><time>2026-03-28T16:26:35.978Z</time></trkpt><trkpt lat="16.2603657" lon="-61.2676801"><ele>17.5</ele><time>2026-03-28T16:26:36.987Z</time></trkpt><trkpt lat="16.2602378" lon="-61.2676949"><ele>16.75</ele><time>2026-03-28T16:26:37.964Z</time></trkpt><trkpt lat="16.2601179" lon="-61.2677097"><ele>16.0</ele><time>2026-03-28T16:26:38.981Z</time></trkpt><trkpt lat="16.2599976" lon="-61.267722"><ele>16.0</ele><time>2026-03-28T16:26:39.984Z</time></trkpt><trkpt lat="16.25988" lon="-61.2677337"><ele>16.0</ele><time>2026-03-28T16:26:40.986Z</time></trkpt><trkpt lat="16.2597608" lon="-61.2677393"><ele>16.0</ele><time>2026-03-28T16:26:41.979Z</time></trkpt><trkpt lat="16.2596493" lon="-61.2677511"><ele>16.0</ele><time>2026-03-28T16:26:42.971Z</time></trkpt><trkpt lat="16.2595459" lon="-61.267773"><ele>14.499999999999998</ele><time>2026-03-28T16:26:44.058Z</time></trkpt><trkpt lat="16.2594425" lon="-61.2677997"><ele>13.0</ele><time>2026-03-28T16:26:45.054Z</time></trkpt><trkpt lat="16.2593477" lon="-61.2678325"><ele>11.5</ele><time>2026-03-28T16:26:45.962Z</time></trkpt><trkpt lat="16.2592837" lon="-61.2678663"><ele>10.0</ele><time>2026-03-28T16:26:46.967Z</time></trkpt><trkpt lat="16.2592288" lon="-61.2679014"><ele>8.5</ele><time>2026-03-28T16:26:47.969Z</time></trkpt><trkpt lat="16.2591733" lon="-61.2679467"><ele>7.0</ele><time>2026-03-28T16:26:49.062Z</time></trkpt><trkpt lat="16.2591111" lon="-61.2679977"><ele>7.000000000000001</ele><time>2026-03-28T16:26:50.031Z</time></trkpt><trkpt lat="16.2590473" lon="-61.2680495"><ele>7.0</ele><time>2026-03-28T16:26:50.975Z</time></trkpt><trkpt lat="16.2589761" lon="-61.2681015"><ele>7.0</ele><time>2026-03-28T16:26:52.031Z</time></trkpt><trkpt lat="16.2589037" lon="-61.2681572"><ele>7.0</ele><time>2026-03-28T16:26:53.037Z</time></trkpt><trkpt lat="16.2588345" lon="-61.2682169"><ele>7.000000000000001</ele><time>2026-03-28T16:26:54.059Z</time></trkpt><trkpt lat="16.2587724" lon="-61.2682663"><ele>7.0</ele><time>2026-03-28T16:26:54.977Z</time></trkpt><trkpt lat="16.2587142" lon="-61.2683168"><ele>7.000000000000001</ele><time>2026-03-28T16:26:55.983Z</time></trkpt><trkpt lat="16.2586533" lon="-61.2683661"><ele>7.0</ele><time>2026-03-28T16:26:56.984Z</time></trkpt><trkpt lat="16.2585891" lon="-61.2684163"><ele>7.0</ele><time>2026-03-28T16:26:57.978Z</time></trkpt><trkpt lat="16.258531" lon="-61.2684677"><ele>7.0</ele><time>2026-03-28T16:26:58.975Z</time></trkpt><trkpt lat="16.2584696" lon="-61.2685178"><ele>7.000000000000001</ele><time>2026-03-28T16:26:59.976Z</time></trkpt><trkpt lat="16.258408" lon="-61.2685682"><ele>7.0</ele><time>2026-03-28T16:27:00.976Z</time></trkpt><trkpt lat="16.2583531" lon="-61.2686209"><ele>7.000000000000001</ele><time>2026-03-28T16:27:01.981Z</time></trkpt><trkpt lat="16.2582934" lon="-61.2686701"><ele>7.0</ele><time>2026-03-28T16:27:03.012Z</time></trkpt><trkpt lat="16.2582349" lon="-61.2687278"><ele>7.0</ele><time>2026-03-28T16:27:03.978Z</time></trkpt><trkpt lat="16.2581773" lon="-61.2687836"><ele>7.0</ele><time>2026-03-28T16:27:04.979Z</time></trkpt><trkpt lat="16.2581108" lon="-61.2688416"><ele>7.000000000000001</ele><time>2026-03-28T16:27:05.981Z</time></trkpt><trkpt lat="16.2580364" lon="-61.2688973"><ele>7.0</ele><time>2026-03-28T16:27:06.987Z</time></trkpt><trkpt lat="16.2579635" lon="-61.2689511"><ele>7.166666666666667</ele><time>2026-03-28T16:27:07.982Z</time></trkpt><trkpt lat="16.2578921" lon="-61.2690026"><ele>7.333333333333334</ele><time>2026-03-28T16:27:08.972Z</time></trkpt><trkpt lat="16.2578236" lon="-61.2690519"><ele>7.5</ele><time>2026-03-28T16:27:09.985Z</time></trkpt><trkpt lat="16.2577543" lon="-61.2691059"><ele>7.666666666666666</ele><time>2026-03-28T16:27:10.978Z</time></trkpt><trkpt lat="16.2576837" lon="-61.2691552"><ele>7.833333333333333</ele><time>2026-03-28T16:27:11.983Z</time></trkpt><trkpt lat="16.257617" lon="-61.2692056"><ele>8.0</ele><time>2026-03-28T16:27:12.978Z</time></trkpt><trkpt lat="16.2575479" lon="-61.269259"><ele>8.0</ele><time>2026-03-28T16:27:14.041Z</time></trkpt><trkpt lat="16.2574804" lon="-61.2693066"><ele>8.0</ele><time>2026-03-28T16:27:15.043Z</time></trkpt><trkpt lat="16.2574113" lon="-61.2693618"><ele>8.0</ele><time>2026-03-28T16:27:15.976Z</time></trkpt><trkpt lat="16.2573386" lon="-61.2694145"><ele>8.0</ele><time>2026-03-28T16:27:16.99Z</time></trkpt><trkpt lat="16.2572593" lon="-61.2694711"><ele>8.0</ele><time>2026-03-28T16:27:17.972Z</time></trkpt><trkpt lat="16.2571854" lon="-61.2695357"><ele>8.200000000000001</ele><time>2026-03-28T16:27:18.984Z</time></trkpt><trkpt lat="16.2571081" lon="-61.2695979"><ele>8.4</ele><time>2026-03-28T16:27:19.985Z</time></trkpt><trkpt lat="16.2570351" lon="-61.2696638"><ele>8.600000000000001</ele><time>2026-03-28T16:27:20.979Z</time></trkpt><trkpt lat="16.2569592" lon="-61.2697309"><ele>8.8</ele><time>2026-03-28T16:27:21.982Z</time></trkpt><trkpt lat="16.2568823" lon="-61.2697922"><ele>9.0</ele><time>2026-03-28T16:27:22.98Z</time></trkpt><trkpt lat="16.2568096" lon="-61.2698425"><ele>9.0</ele><time>2026-03-28T16:27:24.033Z</time></trkpt><trkpt lat="16.2567374" lon="-61.2698869"><ele>9.0</ele><time>2026-03-28T16:27:25.046Z</time></trkpt><trkpt lat="16.2566724" lon="-61.2699268"><ele>9.0</ele><time>2026-03-28T16:27:25.975Z</time></trkpt><trkpt lat="16.2566073" lon="-61.2699576"><ele>9.0</ele><time>2026-03-28T16:27:26.978Z</time></trkpt><trkpt lat="16.2565075" lon="-61.2699908"><ele>9.0</ele><time>2026-03-28T16:27:28.975Z</time></trkpt><trkpt lat="16.2564593" lon="-61.270033"><ele>9.0</ele><time>2026-03-28T16:27:30.991Z</time></trkpt><trkpt lat="16.2564349" lon="-61.2700935"><ele>8.0</ele><time>2026-03-28T16:27:40.95Z</time></trkpt><trkpt lat="16.2564856" lon="-61.2701331"><ele>9.0</ele><time>2026-03-28T16:28:14.963Z</time></trkpt><trkpt lat="16.2564586" lon="-61.2700677"><ele>9.0</ele><time>2026-03-28T16:31:16.942Z</time></trkpt><trkpt lat="16.2564173" lon="-61.2700001"><ele>8.0</ele><time>2026-03-28T16:31:19.949Z</time></trkpt></trkseg></trk></gpx>